<?xml version="1.0" encoding="UTF-8" standalone="no" ?>
<gpx xmlns="http://www.topografix.com/GPX/1/1" xmlns:xsi="http://www.w3.org/2001/XMLSchema-instance" xsi:schemaLocation="http://www.topografix.com/GPX/1/1 http://www.topografix.com/GPX/1/1/gpx.xsd" version="1.1" creator="VisuGPX - https://www.visugpx.com">
  <metadata>
    <name>guerande_st_michel</name>
    <desc><![CDATA[projet rando vtt guerande mont st michel]]></desc>
  </metadata>
  <trk>
    <name><![CDATA[GR39 Du Mont St Michel (Manche) Ã  Chartres-de-Bretagne (Ille-et-Vilaine)]]></name>
    <trkseg>
      <trkpt lat="47.32804" lon="-2.42955">
        <ele>55</ele>
        <time>2012-11-11T17:07:29Z</time>
      </trkpt>
      <trkpt lat="47.32804" lon="-2.42955">
        <ele>55</ele>
        <time>2012-11-11T17:07:29Z</time>
      </trkpt>
      <trkpt lat="47.32872" lon="-2.42952">
        <ele>55</ele>
        <time>2012-11-11T17:07:09Z</time>
      </trkpt>
      <trkpt lat="47.32924" lon="-2.42938">
        <ele>51</ele>
        <time>2012-11-11T17:06:49Z</time>
      </trkpt>
      <trkpt lat="47.32961" lon="-2.42934">
        <ele>49</ele>
        <time>2012-11-11T17:06:29Z</time>
      </trkpt>
      <trkpt lat="47.32953" lon="-2.4277">
        <ele>52</ele>
        <time>2012-11-11T17:06:09Z</time>
      </trkpt>
      <trkpt lat="47.32873" lon="-2.4271">
        <ele>53</ele>
        <time>2012-11-11T17:05:49Z</time>
      </trkpt>
      <trkpt lat="47.32894" lon="-2.42573">
        <ele>49</ele>
        <time>2012-11-11T17:05:29Z</time>
      </trkpt>
      <trkpt lat="47.32947" lon="-2.42506">
        <ele>48</ele>
        <time>2012-11-11T17:05:09Z</time>
      </trkpt>
      <trkpt lat="47.33029" lon="-2.42442">
        <ele>48</ele>
        <time>2012-11-11T17:04:49Z</time>
      </trkpt>
      <trkpt lat="47.3313" lon="-2.42667">
        <ele>45</ele>
        <time>2012-11-11T17:04:29Z</time>
      </trkpt>
      <trkpt lat="47.3327" lon="-2.42545">
        <ele>46</ele>
        <time>2012-11-11T17:04:09Z</time>
      </trkpt>
      <trkpt lat="47.3327" lon="-2.42535">
        <ele>47</ele>
        <time>2012-11-11T17:03:49Z</time>
      </trkpt>
      <trkpt lat="47.33321" lon="-2.42493">
        <ele>48</ele>
        <time>2012-11-11T17:03:29Z</time>
      </trkpt>
      <trkpt lat="47.33397" lon="-2.42443">
        <ele>49</ele>
        <time>2012-11-11T17:03:09Z</time>
      </trkpt>
      <trkpt lat="47.3355" lon="-2.42502">
        <ele>42</ele>
        <time>2012-11-11T17:02:49Z</time>
      </trkpt>
      <trkpt lat="47.33572" lon="-2.42545">
        <ele>42</ele>
        <time>2012-11-11T17:02:29Z</time>
      </trkpt>
      <trkpt lat="47.33584" lon="-2.42649">
        <ele>42</ele>
        <time>2012-11-11T17:02:09Z</time>
      </trkpt>
      <trkpt lat="47.33556" lon="-2.42754">
        <ele>41</ele>
        <time>2012-11-11T17:01:49Z</time>
      </trkpt>
      <trkpt lat="47.33671" lon="-2.42724">
        <ele>40</ele>
        <time>2012-11-11T17:01:29Z</time>
      </trkpt>
      <trkpt lat="47.33773" lon="-2.42755">
        <ele>39</ele>
        <time>2012-11-11T17:01:09Z</time>
      </trkpt>
      <trkpt lat="47.33846" lon="-2.42459">
        <ele>38</ele>
        <time>2012-11-11T17:00:49Z</time>
      </trkpt>
      <trkpt lat="47.3389" lon="-2.42461">
        <ele>39</ele>
        <time>2012-11-11T17:00:29Z</time>
      </trkpt>
      <trkpt lat="47.33863" lon="-2.42435">
        <ele>40</ele>
        <time>2012-11-11T17:00:09Z</time>
      </trkpt>
      <trkpt lat="47.33851" lon="-2.42384">
        <ele>40</ele>
        <time>2012-11-11T16:59:49Z</time>
      </trkpt>
      <trkpt lat="47.33812" lon="-2.4209">
        <ele>37</ele>
        <time>2012-11-11T16:59:29Z</time>
      </trkpt>
      <trkpt lat="47.33863" lon="-2.42061">
        <ele>37</ele>
        <time>2012-11-11T16:59:09Z</time>
      </trkpt>
      <trkpt lat="47.33935" lon="-2.41997">
        <ele>38</ele>
        <time>2012-11-11T16:58:49Z</time>
      </trkpt>
      <trkpt lat="47.33974" lon="-2.41947">
        <ele>32</ele>
        <time>2012-11-11T16:58:29Z</time>
      </trkpt>
      <trkpt lat="47.34065" lon="-2.41813">
        <ele>32</ele>
        <time>2012-11-11T16:58:09Z</time>
      </trkpt>
      <trkpt lat="47.3414" lon="-2.41747">
        <ele>31</ele>
        <time>2012-11-11T16:57:49Z</time>
      </trkpt>
      <trkpt lat="47.3419" lon="-2.41683">
        <ele>28</ele>
        <time>2012-11-11T16:57:29Z</time>
      </trkpt>
      <trkpt lat="47.34203" lon="-2.41693">
        <ele>28</ele>
        <time>2012-11-11T16:57:09Z</time>
      </trkpt>
      <trkpt lat="47.34234" lon="-2.41785">
        <ele>28</ele>
        <time>2012-11-11T16:56:49Z</time>
      </trkpt>
      <trkpt lat="47.34246" lon="-2.41784">
        <ele>28</ele>
        <time>2012-11-11T16:56:29Z</time>
      </trkpt>
      <trkpt lat="47.34346" lon="-2.41732">
        <ele>28</ele>
        <time>2012-11-11T16:56:09Z</time>
      </trkpt>
      <trkpt lat="47.34415" lon="-2.41691">
        <ele>26</ele>
        <time>2012-11-11T16:55:49Z</time>
      </trkpt>
      <trkpt lat="47.34455" lon="-2.4164">
        <ele>26</ele>
        <time>2012-11-11T16:55:29Z</time>
      </trkpt>
      <trkpt lat="47.34509" lon="-2.4161">
        <ele>23</ele>
        <time>2012-11-11T16:55:09Z</time>
      </trkpt>
      <trkpt lat="47.34616" lon="-2.41565">
        <ele>21</ele>
        <time>2012-11-11T16:54:49Z</time>
      </trkpt>
      <trkpt lat="47.34995" lon="-2.41453">
        <ele>21</ele>
        <time>2012-11-11T16:54:29Z</time>
      </trkpt>
      <trkpt lat="47.35067" lon="-2.41417">
        <ele>16</ele>
        <time>2012-11-11T16:54:09Z</time>
      </trkpt>
      <trkpt lat="47.3517" lon="-2.41355">
        <ele>16</ele>
        <time>2012-11-11T16:53:49Z</time>
      </trkpt>
      <trkpt lat="47.35197" lon="-2.41359">
        <ele>16</ele>
        <time>2012-11-11T16:53:29Z</time>
      </trkpt>
      <trkpt lat="47.35239" lon="-2.41436">
        <ele>14</ele>
        <time>2012-11-11T16:53:09Z</time>
      </trkpt>
      <trkpt lat="47.35265" lon="-2.41452">
        <ele>14</ele>
        <time>2012-11-11T16:52:49Z</time>
      </trkpt>
      <trkpt lat="47.35372" lon="-2.41301">
        <ele>13</ele>
        <time>2012-11-11T16:52:29Z</time>
      </trkpt>
      <trkpt lat="47.35418" lon="-2.41261">
        <ele>13</ele>
        <time>2012-11-11T16:52:09Z</time>
      </trkpt>
      <trkpt lat="47.35458" lon="-2.41205">
        <ele>14</ele>
        <time>2012-11-11T16:51:49Z</time>
      </trkpt>
      <trkpt lat="47.35547" lon="-2.41138">
        <ele>15</ele>
        <time>2012-11-11T16:51:29Z</time>
      </trkpt>
      <trkpt lat="47.3558" lon="-2.41109">
        <ele>14</ele>
        <time>2012-11-11T16:51:09Z</time>
      </trkpt>
      <trkpt lat="47.35648" lon="-2.41033">
        <ele>14</ele>
        <time>2012-11-11T16:50:49Z</time>
      </trkpt>
      <trkpt lat="47.35849" lon="-2.40732">
        <ele>13</ele>
        <time>2012-11-11T16:50:29Z</time>
      </trkpt>
      <trkpt lat="47.35853" lon="-2.40687">
        <ele>11</ele>
        <time>2012-11-11T16:50:09Z</time>
      </trkpt>
      <trkpt lat="47.35938" lon="-2.40547">
        <ele>13</ele>
        <time>2012-11-11T16:49:49Z</time>
      </trkpt>
      <trkpt lat="47.36009" lon="-2.40453">
        <ele>14</ele>
        <time>2012-11-11T16:49:29Z</time>
      </trkpt>
      <trkpt lat="47.36021" lon="-2.40429">
        <ele>14</ele>
        <time>2012-11-11T16:49:09Z</time>
      </trkpt>
      <trkpt lat="47.36026" lon="-2.40337">
        <ele>13</ele>
        <time>2012-11-11T16:48:49Z</time>
      </trkpt>
      <trkpt lat="47.36054" lon="-2.40294">
        <ele>14</ele>
        <time>2012-11-11T16:48:29Z</time>
      </trkpt>
      <trkpt lat="47.36152" lon="-2.40214">
        <ele>14</ele>
        <time>2012-11-11T16:48:09Z</time>
      </trkpt>
      <trkpt lat="47.36262" lon="-2.40125">
        <ele>11</ele>
        <time>2012-11-11T16:47:49Z</time>
      </trkpt>
      <trkpt lat="47.36349" lon="-2.40086">
        <ele>11</ele>
        <time>2012-11-11T16:47:29Z</time>
      </trkpt>
      <trkpt lat="47.36461" lon="-2.4005">
        <ele>10</ele>
        <time>2012-11-11T16:47:09Z</time>
      </trkpt>
      <trkpt lat="47.36561" lon="-2.39955">
        <ele>10</ele>
        <time>2012-11-11T16:46:49Z</time>
      </trkpt>
      <trkpt lat="47.36584" lon="-2.39931">
        <ele>10</ele>
        <time>2012-11-11T16:46:29Z</time>
      </trkpt>
      <trkpt lat="47.36595" lon="-2.399">
        <ele>10</ele>
        <time>2012-11-11T16:46:09Z</time>
      </trkpt>
      <trkpt lat="47.36542" lon="-2.39842">
        <ele>8</ele>
        <time>2012-11-11T16:45:49Z</time>
      </trkpt>
      <trkpt lat="47.36531" lon="-2.39821">
        <ele>8</ele>
        <time>2012-11-11T16:45:29Z</time>
      </trkpt>
      <trkpt lat="47.3652" lon="-2.39782">
        <ele>10</ele>
        <time>2012-11-11T16:45:09Z</time>
      </trkpt>
      <trkpt lat="47.36483" lon="-2.39765">
        <ele>10</ele>
        <time>2012-11-11T16:44:49Z</time>
      </trkpt>
      <trkpt lat="47.36448" lon="-2.39649">
        <ele>12</ele>
        <time>2012-11-11T16:44:29Z</time>
      </trkpt>
      <trkpt lat="47.3648" lon="-2.39638">
        <ele>9</ele>
        <time>2012-11-11T16:44:09Z</time>
      </trkpt>
      <trkpt lat="47.36549" lon="-2.39599">
        <ele>8</ele>
        <time>2012-11-11T16:43:49Z</time>
      </trkpt>
      <trkpt lat="47.36583" lon="-2.39598">
        <ele>8</ele>
        <time>2012-11-11T16:43:29Z</time>
      </trkpt>
      <trkpt lat="47.36636" lon="-2.39609">
        <ele>9</ele>
        <time>2012-11-11T16:43:09Z</time>
      </trkpt>
      <trkpt lat="47.36657" lon="-2.39621">
        <ele>9</ele>
        <time>2012-11-11T16:42:49Z</time>
      </trkpt>
      <trkpt lat="47.36679" lon="-2.39651">
        <ele>9</ele>
        <time>2012-11-11T16:42:29Z</time>
      </trkpt>
      <trkpt lat="47.36721" lon="-2.39668">
        <ele>9</ele>
        <time>2012-11-11T16:42:09Z</time>
      </trkpt>
      <trkpt lat="47.3677" lon="-2.39673">
        <ele>9</ele>
        <time>2012-11-11T16:41:49Z</time>
      </trkpt>
      <trkpt lat="47.36812" lon="-2.39653">
        <ele>10</ele>
        <time>2012-11-11T16:41:29Z</time>
      </trkpt>
      <trkpt lat="47.3689" lon="-2.39585">
        <ele>11</ele>
        <time>2012-11-11T16:41:09Z</time>
      </trkpt>
      <trkpt lat="47.3695" lon="-2.39495">
        <ele>13</ele>
        <time>2012-11-11T16:40:49Z</time>
      </trkpt>
      <trkpt lat="47.36997" lon="-2.39457">
        <ele>14</ele>
        <time>2012-11-11T16:40:29Z</time>
      </trkpt>
      <trkpt lat="47.37075" lon="-2.39376">
        <ele>13</ele>
        <time>2012-11-11T16:40:09Z</time>
      </trkpt>
      <trkpt lat="47.37317" lon="-2.39153">
        <ele>16</ele>
        <time>2012-11-11T16:39:49Z</time>
      </trkpt>
      <trkpt lat="47.37299" lon="-2.38937">
        <ele>15</ele>
        <time>2012-11-11T16:39:29Z</time>
      </trkpt>
      <trkpt lat="47.3725" lon="-2.38773">
        <ele>14</ele>
        <time>2012-11-11T16:39:09Z</time>
      </trkpt>
      <trkpt lat="47.37145" lon="-2.38523">
        <ele>15</ele>
        <time>2012-11-11T16:38:49Z</time>
      </trkpt>
      <trkpt lat="47.37053" lon="-2.38457">
        <ele>11</ele>
        <time>2012-11-11T16:38:29Z</time>
      </trkpt>
      <trkpt lat="47.37079" lon="-2.38403">
        <ele>11</ele>
        <time>2012-11-11T16:38:09Z</time>
      </trkpt>
      <trkpt lat="47.37114" lon="-2.38371">
        <ele>9</ele>
        <time>2012-11-11T16:37:49Z</time>
      </trkpt>
      <trkpt lat="47.37182" lon="-2.38351">
        <ele>10</ele>
        <time>2012-11-11T16:37:29Z</time>
      </trkpt>
      <trkpt lat="47.37234" lon="-2.38347">
        <ele>11</ele>
        <time>2012-11-11T16:37:09Z</time>
      </trkpt>
      <trkpt lat="47.37658" lon="-2.38095">
        <ele>10</ele>
        <time>2012-11-11T16:36:49Z</time>
      </trkpt>
      <trkpt lat="47.37708" lon="-2.38039">
        <ele>11</ele>
        <time>2012-11-11T16:36:29Z</time>
      </trkpt>
      <trkpt lat="47.37813" lon="-2.37968">
        <ele>14</ele>
        <time>2012-11-11T16:36:09Z</time>
      </trkpt>
      <trkpt lat="47.38046" lon="-2.37794">
        <ele>19</ele>
        <time>2012-11-11T16:35:49Z</time>
      </trkpt>
      <trkpt lat="47.38234" lon="-2.37633">
        <ele>18</ele>
        <time>2012-11-11T16:35:29Z</time>
      </trkpt>
      <trkpt lat="47.38332" lon="-2.37592">
        <ele>10</ele>
        <time>2012-11-11T16:35:09Z</time>
      </trkpt>
      <trkpt lat="47.38363" lon="-2.37584">
        <ele>10</ele>
        <time>2012-11-11T16:34:49Z</time>
      </trkpt>
      <trkpt lat="47.38362" lon="-2.37475">
        <ele>8</ele>
        <time>2012-11-11T16:34:29Z</time>
      </trkpt>
      <trkpt lat="47.38336" lon="-2.37295">
        <ele>6</ele>
        <time>2012-11-11T16:34:09Z</time>
      </trkpt>
      <trkpt lat="47.38318" lon="-2.3726">
        <ele>5</ele>
        <time>2012-11-11T16:33:49Z</time>
      </trkpt>
      <trkpt lat="47.38291" lon="-2.3723">
        <ele>7</ele>
        <time>2012-11-11T16:33:29Z</time>
      </trkpt>
      <trkpt lat="47.38255" lon="-2.37218">
        <ele>7</ele>
        <time>2012-11-11T16:33:09Z</time>
      </trkpt>
      <trkpt lat="47.38226" lon="-2.37171">
        <ele>7</ele>
        <time>2012-11-11T16:32:49Z</time>
      </trkpt>
      <trkpt lat="47.38151" lon="-2.37019">
        <ele>9</ele>
        <time>2012-11-11T16:32:29Z</time>
      </trkpt>
      <trkpt lat="47.38105" lon="-2.36902">
        <ele>12</ele>
        <time>2012-11-11T16:32:09Z</time>
      </trkpt>
      <trkpt lat="47.38263" lon="-2.36812">
        <ele>6</ele>
        <time>2012-11-11T16:31:49Z</time>
      </trkpt>
      <trkpt lat="47.38345" lon="-2.36783">
        <ele>4</ele>
        <time>2012-11-11T16:31:29Z</time>
      </trkpt>
      <trkpt lat="47.38368" lon="-2.36751">
        <ele>4</ele>
        <time>2012-11-11T16:31:09Z</time>
      </trkpt>
      <trkpt lat="47.38383" lon="-2.36688">
        <ele>4</ele>
        <time>2012-11-11T16:30:49Z</time>
      </trkpt>
      <trkpt lat="47.38407" lon="-2.36623">
        <ele>6</ele>
        <time>2012-11-11T16:30:29Z</time>
      </trkpt>
      <trkpt lat="47.38439" lon="-2.36581">
        <ele>6</ele>
        <time>2012-11-11T16:30:09Z</time>
      </trkpt>
      <trkpt lat="47.38508" lon="-2.36541">
        <ele>8</ele>
        <time>2012-11-11T16:29:49Z</time>
      </trkpt>
      <trkpt lat="47.3855" lon="-2.36489">
        <ele>5</ele>
        <time>2012-11-11T16:29:29Z</time>
      </trkpt>
      <trkpt lat="47.38617" lon="-2.36333">
        <ele>8</ele>
        <time>2012-11-11T16:29:09Z</time>
      </trkpt>
      <trkpt lat="47.38619" lon="-2.36295">
        <ele>8</ele>
        <time>2012-11-11T16:28:49Z</time>
      </trkpt>
      <trkpt lat="47.38613" lon="-2.36271">
        <ele>4</ele>
        <time>2012-11-11T16:28:29Z</time>
      </trkpt>
      <trkpt lat="47.38585" lon="-2.3626">
        <ele>4</ele>
        <time>2012-11-11T16:28:09Z</time>
      </trkpt>
      <trkpt lat="47.38534" lon="-2.36265">
        <ele>7</ele>
        <time>2012-11-11T16:27:49Z</time>
      </trkpt>
      <trkpt lat="47.38493" lon="-2.3625">
        <ele>7</ele>
        <time>2012-11-11T16:27:29Z</time>
      </trkpt>
      <trkpt lat="47.38458" lon="-2.36248">
        <ele>12</ele>
        <time>2012-11-11T16:27:09Z</time>
      </trkpt>
      <trkpt lat="47.38428" lon="-2.36209">
        <ele>12</ele>
        <time>2012-11-11T16:26:49Z</time>
      </trkpt>
      <trkpt lat="47.38378" lon="-2.36188">
        <ele>4</ele>
        <time>2012-11-11T16:26:29Z</time>
      </trkpt>
      <trkpt lat="47.38351" lon="-2.36148">
        <ele>8</ele>
        <time>2012-11-11T16:26:09Z</time>
      </trkpt>
      <trkpt lat="47.38319" lon="-2.36052">
        <ele>5</ele>
        <time>2012-11-11T16:25:49Z</time>
      </trkpt>
      <trkpt lat="47.38289" lon="-2.35921">
        <ele>4</ele>
        <time>2012-11-11T16:25:29Z</time>
      </trkpt>
      <trkpt lat="47.38118" lon="-2.36037">
        <ele>4</ele>
        <time>2012-11-11T16:25:09Z</time>
      </trkpt>
      <trkpt lat="47.37994" lon="-2.36079">
        <ele>5</ele>
        <time>2012-11-11T16:24:49Z</time>
      </trkpt>
      <trkpt lat="47.37894" lon="-2.36128">
        <ele>8</ele>
        <time>2012-11-11T16:24:29Z</time>
      </trkpt>
      <trkpt lat="47.37808" lon="-2.36087">
        <ele>9</ele>
        <time>2012-11-11T16:24:09Z</time>
      </trkpt>
      <trkpt lat="47.3769" lon="-2.36018">
        <ele>7</ele>
        <time>2012-11-11T16:23:49Z</time>
      </trkpt>
      <trkpt lat="47.37641" lon="-2.36006">
        <ele>7</ele>
        <time>2012-11-11T16:23:29Z</time>
      </trkpt>
      <trkpt lat="47.37639" lon="-2.36042">
        <ele>8</ele>
        <time>2012-11-11T16:23:09Z</time>
      </trkpt>
      <trkpt lat="47.37592" lon="-2.36051">
        <ele>7</ele>
        <time>2012-11-11T16:22:49Z</time>
      </trkpt>
      <trkpt lat="47.37526" lon="-2.36073">
        <ele>6</ele>
        <time>2012-11-11T16:22:29Z</time>
      </trkpt>
      <trkpt lat="47.37485" lon="-2.36095">
        <ele>6</ele>
        <time>2012-11-11T16:22:09Z</time>
      </trkpt>
      <trkpt lat="47.37416" lon="-2.36143">
        <ele>4</ele>
        <time>2012-11-11T16:21:49Z</time>
      </trkpt>
      <trkpt lat="47.37365" lon="-2.36122">
        <ele>4</ele>
        <time>2012-11-11T16:21:29Z</time>
      </trkpt>
      <trkpt lat="47.37316" lon="-2.36121">
        <ele>4</ele>
        <time>2012-11-11T16:21:09Z</time>
      </trkpt>
      <trkpt lat="47.37284" lon="-2.36135">
        <ele>3</ele>
        <time>2012-11-11T16:20:49Z</time>
      </trkpt>
      <trkpt lat="47.37235" lon="-2.36094">
        <ele>3</ele>
        <time>2012-11-11T16:20:29Z</time>
      </trkpt>
      <trkpt lat="47.3722" lon="-2.36096">
        <ele>3</ele>
        <time>2012-11-11T16:20:09Z</time>
      </trkpt>
      <trkpt lat="47.37196" lon="-2.36111">
        <ele>5</ele>
        <time>2012-11-11T16:19:49Z</time>
      </trkpt>
      <trkpt lat="47.37082" lon="-2.36353">
        <ele>7</ele>
        <time>2012-11-11T16:19:29Z</time>
      </trkpt>
      <trkpt lat="47.3706" lon="-2.36369">
        <ele>7</ele>
        <time>2012-11-11T16:19:09Z</time>
      </trkpt>
      <trkpt lat="47.36747" lon="-2.36374">
        <ele>10</ele>
        <time>2012-11-11T16:18:49Z</time>
      </trkpt>
      <trkpt lat="47.36718" lon="-2.36418">
        <ele>10</ele>
        <time>2012-11-11T16:18:29Z</time>
      </trkpt>
      <trkpt lat="47.36678" lon="-2.36455">
        <ele>10</ele>
        <time>2012-11-11T16:18:09Z</time>
      </trkpt>
      <trkpt lat="47.36572" lon="-2.36518">
        <ele>13</ele>
        <time>2012-11-11T16:17:49Z</time>
      </trkpt>
      <trkpt lat="47.3654" lon="-2.36434">
        <ele>16</ele>
        <time>2012-11-11T16:17:29Z</time>
      </trkpt>
      <trkpt lat="47.36465" lon="-2.36197">
        <ele>14</ele>
        <time>2012-11-11T16:17:09Z</time>
      </trkpt>
      <trkpt lat="47.36391" lon="-2.35956">
        <ele>13</ele>
        <time>2012-11-11T16:16:49Z</time>
      </trkpt>
      <trkpt lat="47.36295" lon="-2.35683">
        <ele>11</ele>
        <time>2012-11-11T16:16:29Z</time>
      </trkpt>
      <trkpt lat="47.3628" lon="-2.35615">
        <ele>12</ele>
        <time>2012-11-11T16:16:09Z</time>
      </trkpt>
      <trkpt lat="47.36285" lon="-2.35552">
        <ele>12</ele>
        <time>2012-11-11T16:15:49Z</time>
      </trkpt>
      <trkpt lat="47.36329" lon="-2.35404">
        <ele>10</ele>
        <time>2012-11-11T16:15:29Z</time>
      </trkpt>
      <trkpt lat="47.36333" lon="-2.35356">
        <ele>11</ele>
        <time>2012-11-11T16:15:09Z</time>
      </trkpt>
      <trkpt lat="47.36318" lon="-2.3517">
        <ele>10</ele>
        <time>2012-11-11T16:14:49Z</time>
      </trkpt>
      <trkpt lat="47.363" lon="-2.35019">
        <ele>11</ele>
        <time>2012-11-11T16:14:29Z</time>
      </trkpt>
      <trkpt lat="47.36393" lon="-2.34925">
        <ele>12</ele>
        <time>2012-11-11T16:14:09Z</time>
      </trkpt>
      <trkpt lat="47.36449" lon="-2.34896">
        <ele>12</ele>
        <time>2012-11-11T16:13:49Z</time>
      </trkpt>
      <trkpt lat="47.36485" lon="-2.34962">
        <ele>10</ele>
        <time>2012-11-11T16:13:29Z</time>
      </trkpt>
      <trkpt lat="47.36642" lon="-2.35231">
        <ele>8</ele>
        <time>2012-11-11T16:13:09Z</time>
      </trkpt>
      <trkpt lat="47.36802" lon="-2.3497">
        <ele>9</ele>
        <time>2012-11-11T16:12:49Z</time>
      </trkpt>
      <trkpt lat="47.36934" lon="-2.34932">
        <ele>10</ele>
        <time>2012-11-11T16:12:29Z</time>
      </trkpt>
      <trkpt lat="47.36951" lon="-2.34925">
        <ele>10</ele>
        <time>2012-11-11T16:12:09Z</time>
      </trkpt>
      <trkpt lat="47.36974" lon="-2.34869">
        <ele>9</ele>
        <time>2012-11-11T16:11:49Z</time>
      </trkpt>
      <trkpt lat="47.37012" lon="-2.3488">
        <ele>8</ele>
        <time>2012-11-11T16:11:29Z</time>
      </trkpt>
      <trkpt lat="47.37069" lon="-2.34863">
        <ele>6</ele>
        <time>2012-11-11T16:11:09Z</time>
      </trkpt>
      <trkpt lat="47.37128" lon="-2.34885">
        <ele>5</ele>
        <time>2012-11-11T16:10:49Z</time>
      </trkpt>
      <trkpt lat="47.37146" lon="-2.34902">
        <ele>5</ele>
        <time>2012-11-11T16:10:29Z</time>
      </trkpt>
      <trkpt lat="47.3717" lon="-2.34926">
        <ele>5</ele>
        <time>2012-11-11T16:10:09Z</time>
      </trkpt>
      <trkpt lat="47.37194" lon="-2.34983">
        <ele>7</ele>
        <time>2012-11-11T16:09:49Z</time>
      </trkpt>
      <trkpt lat="47.37225" lon="-2.35177">
        <ele>5</ele>
        <time>2012-11-11T16:09:29Z</time>
      </trkpt>
      <trkpt lat="47.37265" lon="-2.35301">
        <ele>5</ele>
        <time>2012-11-11T16:09:09Z</time>
      </trkpt>
      <trkpt lat="47.37369" lon="-2.3523">
        <ele>6</ele>
        <time>2012-11-11T16:08:49Z</time>
      </trkpt>
      <trkpt lat="47.37409" lon="-2.35194">
        <ele>6</ele>
        <time>2012-11-11T16:08:29Z</time>
      </trkpt>
      <trkpt lat="47.37491" lon="-2.35076">
        <ele>6</ele>
        <time>2012-11-11T16:08:09Z</time>
      </trkpt>
      <trkpt lat="47.37536" lon="-2.35017">
        <ele>9</ele>
        <time>2012-11-11T16:07:49Z</time>
      </trkpt>
      <trkpt lat="47.37721" lon="-2.34902">
        <ele>9</ele>
        <time>2012-11-11T16:07:29Z</time>
      </trkpt>
      <trkpt lat="47.37764" lon="-2.34853">
        <ele>10</ele>
        <time>2012-11-11T16:07:09Z</time>
      </trkpt>
      <trkpt lat="47.37907" lon="-2.3481">
        <ele>11</ele>
        <time>2012-11-11T16:06:49Z</time>
      </trkpt>
      <trkpt lat="47.37988" lon="-2.348">
        <ele>10</ele>
        <time>2012-11-11T16:06:29Z</time>
      </trkpt>
      <trkpt lat="47.38053" lon="-2.34902">
        <ele>9</ele>
        <time>2012-11-11T16:06:09Z</time>
      </trkpt>
      <trkpt lat="47.38023" lon="-2.34967">
        <ele>4</ele>
        <time>2012-11-11T16:05:49Z</time>
      </trkpt>
      <trkpt lat="47.38025" lon="-2.35022">
        <ele>4</ele>
        <time>2012-11-11T16:05:29Z</time>
      </trkpt>
      <trkpt lat="47.38038" lon="-2.35106">
        <ele>5</ele>
        <time>2012-11-11T16:05:09Z</time>
      </trkpt>
      <trkpt lat="47.38054" lon="-2.35159">
        <ele>6</ele>
        <time>2012-11-11T16:04:49Z</time>
      </trkpt>
      <trkpt lat="47.38258" lon="-2.35399">
        <ele>4</ele>
        <time>2012-11-11T16:04:29Z</time>
      </trkpt>
      <trkpt lat="47.38327" lon="-2.35618">
        <ele>5</ele>
        <time>2012-11-11T16:04:09Z</time>
      </trkpt>
      <trkpt lat="47.38443" lon="-2.36032">
        <ele>6</ele>
        <time>2012-11-11T16:03:49Z</time>
      </trkpt>
      <trkpt lat="47.38494" lon="-2.36093">
        <ele>4</ele>
        <time>2012-11-11T16:03:29Z</time>
      </trkpt>
      <trkpt lat="47.38538" lon="-2.3612">
        <ele>4</ele>
        <time>2012-11-11T16:03:09Z</time>
      </trkpt>
      <trkpt lat="47.38581" lon="-2.36114">
        <ele>4</ele>
        <time>2012-11-11T16:02:49Z</time>
      </trkpt>
      <trkpt lat="47.38592" lon="-2.36101">
        <ele>4</ele>
        <time>2012-11-11T16:02:29Z</time>
      </trkpt>
      <trkpt lat="47.38567" lon="-2.35809">
        <ele>10</ele>
        <time>2012-11-11T16:02:09Z</time>
      </trkpt>
      <trkpt lat="47.38649" lon="-2.35685">
        <ele>11</ele>
        <time>2012-11-11T16:01:49Z</time>
      </trkpt>
      <trkpt lat="47.38813" lon="-2.35536">
        <ele>7</ele>
        <time>2012-11-11T16:01:29Z</time>
      </trkpt>
      <trkpt lat="47.38839" lon="-2.35506">
        <ele>7</ele>
        <time>2012-11-11T16:01:09Z</time>
      </trkpt>
      <trkpt lat="47.38849" lon="-2.35433">
        <ele>9</ele>
        <time>2012-11-11T16:00:49Z</time>
      </trkpt>
      <trkpt lat="47.38936" lon="-2.3539">
        <ele>11</ele>
        <time>2012-11-11T16:00:29Z</time>
      </trkpt>
      <trkpt lat="47.38992" lon="-2.35374">
        <ele>12</ele>
        <time>2012-11-11T16:00:09Z</time>
      </trkpt>
      <trkpt lat="47.3901" lon="-2.35361">
        <ele>12</ele>
        <time>2012-11-11T15:59:49Z</time>
      </trkpt>
      <trkpt lat="47.39263" lon="-2.35263">
        <ele>3</ele>
        <time>2012-11-11T15:59:29Z</time>
      </trkpt>
      <trkpt lat="47.39235" lon="-2.35169">
        <ele>3</ele>
        <time>2012-11-11T15:59:09Z</time>
      </trkpt>
      <trkpt lat="47.39233" lon="-2.35134">
        <ele>3</ele>
        <time>2012-11-11T15:58:49Z</time>
      </trkpt>
      <trkpt lat="47.39241" lon="-2.35103">
        <ele>4</ele>
        <time>2012-11-11T15:58:29Z</time>
      </trkpt>
      <trkpt lat="47.39291" lon="-2.35062">
        <ele>4</ele>
        <time>2012-11-11T15:58:09Z</time>
      </trkpt>
      <trkpt lat="47.39305" lon="-2.35059">
        <ele>4</ele>
        <time>2012-11-11T15:57:49Z</time>
      </trkpt>
      <trkpt lat="47.39483" lon="-2.35107">
        <ele>5</ele>
        <time>2012-11-11T15:57:29Z</time>
      </trkpt>
      <trkpt lat="47.39523" lon="-2.3511">
        <ele>5</ele>
        <time>2012-11-11T15:57:09Z</time>
      </trkpt>
      <trkpt lat="47.39385" lon="-2.34697">
        <ele>12</ele>
        <time>2012-11-11T15:56:49Z</time>
      </trkpt>
      <trkpt lat="47.3936" lon="-2.346">
        <ele>16</ele>
        <time>2012-11-11T15:56:29Z</time>
      </trkpt>
      <trkpt lat="47.39306" lon="-2.34596">
        <ele>16</ele>
        <time>2012-11-11T15:56:09Z</time>
      </trkpt>
      <trkpt lat="47.39266" lon="-2.34229">
        <ele>10</ele>
        <time>2012-11-11T15:55:49Z</time>
      </trkpt>
      <trkpt lat="47.39249" lon="-2.34134">
        <ele>7</ele>
        <time>2012-11-11T15:55:29Z</time>
      </trkpt>
      <trkpt lat="47.39172" lon="-2.33983">
        <ele>6</ele>
        <time>2012-11-11T15:55:09Z</time>
      </trkpt>
      <trkpt lat="47.39124" lon="-2.33919">
        <ele>5</ele>
        <time>2012-11-11T15:54:49Z</time>
      </trkpt>
      <trkpt lat="47.39095" lon="-2.33849">
        <ele>4</ele>
        <time>2012-11-11T15:54:29Z</time>
      </trkpt>
      <trkpt lat="47.39038" lon="-2.33678">
        <ele>5</ele>
        <time>2012-11-11T15:54:09Z</time>
      </trkpt>
      <trkpt lat="47.38984" lon="-2.33554">
        <ele>5</ele>
        <time>2012-11-11T15:53:49Z</time>
      </trkpt>
      <trkpt lat="47.38979" lon="-2.33444">
        <ele>6</ele>
        <time>2012-11-11T15:53:29Z</time>
      </trkpt>
      <trkpt lat="47.38965" lon="-2.33256">
        <ele>4</ele>
        <time>2012-11-11T15:53:09Z</time>
      </trkpt>
      <trkpt lat="47.38841" lon="-2.32851">
        <ele>7</ele>
        <time>2012-11-11T15:52:49Z</time>
      </trkpt>
      <trkpt lat="47.38957" lon="-2.32689">
        <ele>1</ele>
        <time>2012-11-11T15:52:29Z</time>
      </trkpt>
      <trkpt lat="47.39178" lon="-2.32381">
        <ele>4</ele>
        <time>2012-11-11T15:52:09Z</time>
      </trkpt>
      <trkpt lat="47.39515" lon="-2.31909">
        <ele>7</ele>
        <time>2012-11-11T15:51:49Z</time>
      </trkpt>
      <trkpt lat="47.39576" lon="-2.31837">
        <ele>6</ele>
        <time>2012-11-11T15:51:29Z</time>
      </trkpt>
      <trkpt lat="47.39608" lon="-2.31858">
        <ele>6</ele>
        <time>2012-11-11T15:51:09Z</time>
      </trkpt>
      <trkpt lat="47.39689" lon="-2.31838">
        <ele>5</ele>
        <time>2012-11-11T15:50:49Z</time>
      </trkpt>
      <trkpt lat="47.39755" lon="-2.3181">
        <ele>6</ele>
        <time>2012-11-11T15:50:29Z</time>
      </trkpt>
      <trkpt lat="47.39845" lon="-2.31734">
        <ele>5</ele>
        <time>2012-11-11T15:50:09Z</time>
      </trkpt>
      <trkpt lat="47.39882" lon="-2.3172">
        <ele>5</ele>
        <time>2012-11-11T15:49:49Z</time>
      </trkpt>
      <trkpt lat="47.40034" lon="-2.31739">
        <ele>5</ele>
        <time>2012-11-11T15:49:29Z</time>
      </trkpt>
      <trkpt lat="47.40103" lon="-2.31725">
        <ele>3</ele>
        <time>2012-11-11T15:49:09Z</time>
      </trkpt>
      <trkpt lat="47.40212" lon="-2.31718">
        <ele>3</ele>
        <time>2012-11-11T15:48:49Z</time>
      </trkpt>
      <trkpt lat="47.40344" lon="-2.31738">
        <ele>3</ele>
        <time>2012-11-11T15:48:29Z</time>
      </trkpt>
      <trkpt lat="47.4044" lon="-2.30775">
        <ele>6</ele>
        <time>2012-11-11T15:48:09Z</time>
      </trkpt>
      <trkpt lat="47.40276" lon="-2.30644">
        <ele>6</ele>
        <time>2012-11-11T15:47:49Z</time>
      </trkpt>
      <trkpt lat="47.40214" lon="-2.30575">
        <ele>5</ele>
        <time>2012-11-11T15:47:29Z</time>
      </trkpt>
      <trkpt lat="47.40241" lon="-2.30563">
        <ele>5</ele>
        <time>2012-11-11T15:47:09Z</time>
      </trkpt>
      <trkpt lat="47.40294" lon="-2.30511">
        <ele>4</ele>
        <time>2012-11-11T15:46:49Z</time>
      </trkpt>
      <trkpt lat="47.40298" lon="-2.30425">
        <ele>4</ele>
        <time>2012-11-11T15:46:29Z</time>
      </trkpt>
      <trkpt lat="47.40313" lon="-2.30359">
        <ele>4</ele>
        <time>2012-11-11T15:46:09Z</time>
      </trkpt>
      <trkpt lat="47.40322" lon="-2.30159">
        <ele>4</ele>
        <time>2012-11-11T15:45:49Z</time>
      </trkpt>
      <trkpt lat="47.40277" lon="-2.29846">
        <ele>4</ele>
        <time>2012-11-11T15:45:29Z</time>
      </trkpt>
      <trkpt lat="47.40286" lon="-2.29793">
        <ele>4</ele>
        <time>2012-11-11T15:45:09Z</time>
      </trkpt>
      <trkpt lat="47.4034" lon="-2.29686">
        <ele>2</ele>
        <time>2012-11-11T15:44:49Z</time>
      </trkpt>
      <trkpt lat="47.404" lon="-2.29499">
        <ele>2</ele>
        <time>2012-11-11T15:44:29Z</time>
      </trkpt>
      <trkpt lat="47.40412" lon="-2.29439">
        <ele>3</ele>
        <time>2012-11-11T15:44:09Z</time>
      </trkpt>
      <trkpt lat="47.40416" lon="-2.29343">
        <ele>4</ele>
        <time>2012-11-11T15:43:49Z</time>
      </trkpt>
      <trkpt lat="47.40428" lon="-2.29265">
        <ele>2</ele>
        <time>2012-11-11T15:43:29Z</time>
      </trkpt>
      <trkpt lat="47.40434" lon="-2.29263">
        <ele>2</ele>
        <time>2012-11-11T15:43:09Z</time>
      </trkpt>
      <trkpt lat="47.40473" lon="-2.29395">
        <ele>5</ele>
        <time>2012-11-11T15:42:49Z</time>
      </trkpt>
      <trkpt lat="47.40786" lon="-2.29354">
        <ele>7</ele>
        <time>2012-11-11T15:42:29Z</time>
      </trkpt>
      <trkpt lat="47.40776" lon="-2.29419">
        <ele>6</ele>
        <time>2012-11-11T15:42:09Z</time>
      </trkpt>
      <trkpt lat="47.40778" lon="-2.2946">
        <ele>4</ele>
        <time>2012-11-11T15:41:49Z</time>
      </trkpt>
      <trkpt lat="47.40818" lon="-2.29644">
        <ele>4</ele>
        <time>2012-11-11T15:41:29Z</time>
      </trkpt>
      <trkpt lat="47.40823" lon="-2.29792">
        <ele>5</ele>
        <time>2012-11-11T15:41:09Z</time>
      </trkpt>
      <trkpt lat="47.40852" lon="-2.29858">
        <ele>5</ele>
        <time>2012-11-11T15:40:49Z</time>
      </trkpt>
      <trkpt lat="47.40866" lon="-2.2993">
        <ele>4</ele>
        <time>2012-11-11T15:40:29Z</time>
      </trkpt>
      <trkpt lat="47.40879" lon="-2.29957">
        <ele>5</ele>
        <time>2012-11-11T15:40:09Z</time>
      </trkpt>
      <trkpt lat="47.40839" lon="-2.30028">
        <ele>5</ele>
        <time>2012-11-11T15:39:49Z</time>
      </trkpt>
      <trkpt lat="47.40706" lon="-2.30124">
        <ele>9</ele>
        <time>2012-11-11T15:39:29Z</time>
      </trkpt>
      <trkpt lat="47.40608" lon="-2.30207">
        <ele>9</ele>
        <time>2012-11-11T15:39:09Z</time>
      </trkpt>
      <trkpt lat="47.40622" lon="-2.30344">
        <ele>8</ele>
        <time>2012-11-11T15:38:49Z</time>
      </trkpt>
      <trkpt lat="47.40628" lon="-2.30551">
        <ele>10</ele>
        <time>2012-11-11T15:38:29Z</time>
      </trkpt>
      <trkpt lat="47.40636" lon="-2.30613">
        <ele>10</ele>
        <time>2012-11-11T15:38:09Z</time>
      </trkpt>
      <trkpt lat="47.40769" lon="-2.30932">
        <ele>8</ele>
        <time>2012-11-11T15:37:49Z</time>
      </trkpt>
      <trkpt lat="47.40862" lon="-2.31162">
        <ele>7</ele>
        <time>2012-11-11T15:37:29Z</time>
      </trkpt>
      <trkpt lat="47.40924" lon="-2.31375">
        <ele>12</ele>
        <time>2012-11-11T15:37:09Z</time>
      </trkpt>
      <trkpt lat="47.41021" lon="-2.31863">
        <ele>14</ele>
        <time>2012-11-11T15:36:49Z</time>
      </trkpt>
      <trkpt lat="47.42152" lon="-2.32113">
        <ele>16</ele>
        <time>2012-11-11T15:36:29Z</time>
      </trkpt>
      <trkpt lat="47.426" lon="-2.32269">
        <ele>12</ele>
        <time>2012-11-11T15:36:09Z</time>
      </trkpt>
      <trkpt lat="47.42927" lon="-2.32373">
        <ele>17</ele>
        <time>2012-11-11T15:35:49Z</time>
      </trkpt>
      <trkpt lat="47.43005" lon="-2.32431">
        <ele>19</ele>
        <time>2012-11-11T15:35:29Z</time>
      </trkpt>
      <trkpt lat="47.43017" lon="-2.3246">
        <ele>17</ele>
        <time>2012-11-11T15:35:09Z</time>
      </trkpt>
      <trkpt lat="47.43021" lon="-2.32542">
        <ele>16</ele>
        <time>2012-11-11T15:34:49Z</time>
      </trkpt>
      <trkpt lat="47.43108" lon="-2.32732">
        <ele>17</ele>
        <time>2012-11-11T15:34:29Z</time>
      </trkpt>
      <trkpt lat="47.43136" lon="-2.32905">
        <ele>22</ele>
        <time>2012-11-11T15:34:09Z</time>
      </trkpt>
      <trkpt lat="47.43162" lon="-2.32997">
        <ele>24</ele>
        <time>2012-11-11T15:33:49Z</time>
      </trkpt>
      <trkpt lat="47.43158" lon="-2.33015">
        <ele>24</ele>
        <time>2012-11-11T15:33:29Z</time>
      </trkpt>
      <trkpt lat="47.4326" lon="-2.3338">
        <ele>32</ele>
        <time>2012-11-11T15:33:09Z</time>
      </trkpt>
      <trkpt lat="47.43285" lon="-2.33665">
        <ele>30</ele>
        <time>2012-11-11T15:32:49Z</time>
      </trkpt>
      <trkpt lat="47.43331" lon="-2.34103">
        <ele>34</ele>
        <time>2012-11-11T15:32:29Z</time>
      </trkpt>
      <trkpt lat="47.43345" lon="-2.34203">
        <ele>35</ele>
        <time>2012-11-11T15:32:09Z</time>
      </trkpt>
      <trkpt lat="47.43334" lon="-2.34311">
        <ele>36</ele>
        <time>2012-11-11T15:31:49Z</time>
      </trkpt>
      <trkpt lat="47.43286" lon="-2.34567">
        <ele>27</ele>
        <time>2012-11-11T15:31:29Z</time>
      </trkpt>
      <trkpt lat="47.43413" lon="-2.3464">
        <ele>31</ele>
        <time>2012-11-11T15:31:09Z</time>
      </trkpt>
      <trkpt lat="47.43447" lon="-2.34664">
        <ele>31</ele>
        <time>2012-11-11T15:30:49Z</time>
      </trkpt>
      <trkpt lat="47.43725" lon="-2.34809">
        <ele>28</ele>
        <time>2012-11-11T15:30:29Z</time>
      </trkpt>
      <trkpt lat="47.44214" lon="-2.35087">
        <ele>36</ele>
        <time>2012-11-11T15:30:09Z</time>
      </trkpt>
      <trkpt lat="47.44347" lon="-2.35144">
        <ele>34</ele>
        <time>2012-11-11T15:29:49Z</time>
      </trkpt>
      <trkpt lat="47.4457" lon="-2.35229">
        <ele>37</ele>
        <time>2012-11-11T15:29:29Z</time>
      </trkpt>
      <trkpt lat="47.44604" lon="-2.35227">
        <ele>37</ele>
        <time>2012-11-11T15:29:09Z</time>
      </trkpt>
      <trkpt lat="47.44617" lon="-2.35224">
        <ele>37</ele>
        <time>2012-11-11T15:28:49Z</time>
      </trkpt>
      <trkpt lat="47.44685" lon="-2.35185">
        <ele>45</ele>
        <time>2012-11-11T15:28:29Z</time>
      </trkpt>
      <trkpt lat="47.44727" lon="-2.3518">
        <ele>43</ele>
        <time>2012-11-11T15:28:09Z</time>
      </trkpt>
      <trkpt lat="47.45165" lon="-2.35299">
        <ele>36</ele>
        <time>2012-11-11T15:27:49Z</time>
      </trkpt>
      <trkpt lat="47.45439" lon="-2.35295">
        <ele>37</ele>
        <time>2012-11-11T15:27:29Z</time>
      </trkpt>
      <trkpt lat="47.45447" lon="-2.35265">
        <ele>40</ele>
        <time>2012-11-11T15:27:09Z</time>
      </trkpt>
      <trkpt lat="47.45512" lon="-2.35181">
        <ele>36</ele>
        <time>2012-11-11T15:26:49Z</time>
      </trkpt>
      <trkpt lat="47.45765" lon="-2.3496">
        <ele>42</ele>
        <time>2012-11-11T15:26:29Z</time>
      </trkpt>
      <trkpt lat="47.45796" lon="-2.34957">
        <ele>46</ele>
        <time>2012-11-11T15:26:09Z</time>
      </trkpt>
      <trkpt lat="47.45992" lon="-2.34984">
        <ele>41</ele>
        <time>2012-11-11T15:25:49Z</time>
      </trkpt>
      <trkpt lat="47.46099" lon="-2.35014">
        <ele>41</ele>
        <time>2012-11-11T15:25:29Z</time>
      </trkpt>
      <trkpt lat="47.46138" lon="-2.35013">
        <ele>40</ele>
        <time>2012-11-11T15:25:09Z</time>
      </trkpt>
      <trkpt lat="47.46199" lon="-2.35034">
        <ele>40</ele>
        <time>2012-11-11T15:24:49Z</time>
      </trkpt>
      <trkpt lat="47.46266" lon="-2.35034">
        <ele>42</ele>
        <time>2012-11-11T15:24:29Z</time>
      </trkpt>
      <trkpt lat="47.46407" lon="-2.35067">
        <ele>45</ele>
        <time>2012-11-11T15:24:09Z</time>
      </trkpt>
      <trkpt lat="47.46651" lon="-2.35226">
        <ele>45</ele>
        <time>2012-11-11T15:23:49Z</time>
      </trkpt>
      <trkpt lat="47.46717" lon="-2.35321">
        <ele>44</ele>
        <time>2012-11-11T15:23:29Z</time>
      </trkpt>
      <trkpt lat="47.4674" lon="-2.35305">
        <ele>44</ele>
        <time>2012-11-11T15:23:09Z</time>
      </trkpt>
      <trkpt lat="47.46728" lon="-2.35203">
        <ele>37</ele>
        <time>2012-11-11T15:22:49Z</time>
      </trkpt>
      <trkpt lat="47.46846" lon="-2.35141">
        <ele>36</ele>
        <time>2012-11-11T15:22:29Z</time>
      </trkpt>
      <trkpt lat="47.46812" lon="-2.35053">
        <ele>36</ele>
        <time>2012-11-11T15:22:09Z</time>
      </trkpt>
      <trkpt lat="47.46802" lon="-2.34983">
        <ele>37</ele>
        <time>2012-11-11T15:21:49Z</time>
      </trkpt>
      <trkpt lat="47.46771" lon="-2.34935">
        <ele>34</ele>
        <time>2012-11-11T15:21:29Z</time>
      </trkpt>
      <trkpt lat="47.46971" lon="-2.34782">
        <ele>44</ele>
        <time>2012-11-11T15:21:09Z</time>
      </trkpt>
      <trkpt lat="47.46992" lon="-2.34753">
        <ele>44</ele>
        <time>2012-11-11T15:20:49Z</time>
      </trkpt>
      <trkpt lat="47.47185" lon="-2.34685">
        <ele>44</ele>
        <time>2012-11-11T15:20:29Z</time>
      </trkpt>
      <trkpt lat="47.47193" lon="-2.34701">
        <ele>44</ele>
        <time>2012-11-11T15:20:09Z</time>
      </trkpt>
      <trkpt lat="47.47277" lon="-2.34674">
        <ele>46</ele>
        <time>2012-11-11T15:19:49Z</time>
      </trkpt>
      <trkpt lat="47.47452" lon="-2.34842">
        <ele>43</ele>
        <time>2012-11-11T15:19:29Z</time>
      </trkpt>
      <trkpt lat="47.47539" lon="-2.34665">
        <ele>46</ele>
        <time>2012-11-11T15:19:09Z</time>
      </trkpt>
      <trkpt lat="47.47671" lon="-2.34636">
        <ele>46</ele>
        <time>2012-11-11T15:18:49Z</time>
      </trkpt>
      <trkpt lat="47.47686" lon="-2.34733">
        <ele>46</ele>
        <time>2012-11-11T15:18:29Z</time>
      </trkpt>
      <trkpt lat="47.47727" lon="-2.3471">
        <ele>46</ele>
        <time>2012-11-11T15:18:09Z</time>
      </trkpt>
      <trkpt lat="47.47928" lon="-2.34976">
        <ele>46</ele>
        <time>2012-11-11T15:17:49Z</time>
      </trkpt>
      <trkpt lat="47.47962" lon="-2.35012">
        <ele>46</ele>
        <time>2012-11-11T15:17:29Z</time>
      </trkpt>
      <trkpt lat="47.48104" lon="-2.35228">
        <ele>47</ele>
        <time>2012-11-11T15:17:09Z</time>
      </trkpt>
      <trkpt lat="47.4815" lon="-2.35327">
        <ele>46</ele>
        <time>2012-11-11T15:16:49Z</time>
      </trkpt>
      <trkpt lat="47.48243" lon="-2.35433">
        <ele>45</ele>
        <time>2012-11-11T15:16:29Z</time>
      </trkpt>
      <trkpt lat="47.48354" lon="-2.3543">
        <ele>43</ele>
        <time>2012-11-11T15:16:09Z</time>
      </trkpt>
      <trkpt lat="47.48342" lon="-2.35238">
        <ele>46</ele>
        <time>2012-11-11T15:15:49Z</time>
      </trkpt>
      <trkpt lat="47.48387" lon="-2.35175">
        <ele>49</ele>
        <time>2012-11-11T15:15:29Z</time>
      </trkpt>
      <trkpt lat="47.48417" lon="-2.35093">
        <ele>48</ele>
        <time>2012-11-11T15:15:09Z</time>
      </trkpt>
      <trkpt lat="47.48509" lon="-2.3493">
        <ele>39</ele>
        <time>2012-11-11T15:14:49Z</time>
      </trkpt>
      <trkpt lat="47.48601" lon="-2.35074">
        <ele>42</ele>
        <time>2012-11-11T15:14:29Z</time>
      </trkpt>
      <trkpt lat="47.4867" lon="-2.35135">
        <ele>39</ele>
        <time>2012-11-11T15:14:09Z</time>
      </trkpt>
      <trkpt lat="47.48751" lon="-2.35222">
        <ele>33</ele>
        <time>2012-11-11T15:13:49Z</time>
      </trkpt>
      <trkpt lat="47.48795" lon="-2.35106">
        <ele>30</ele>
        <time>2012-11-11T15:13:29Z</time>
      </trkpt>
      <trkpt lat="47.48765" lon="-2.34923">
        <ele>35</ele>
        <time>2012-11-11T15:13:09Z</time>
      </trkpt>
      <trkpt lat="47.4882" lon="-2.34919">
        <ele>33</ele>
        <time>2012-11-11T15:12:49Z</time>
      </trkpt>
      <trkpt lat="47.48871" lon="-2.34853">
        <ele>32</ele>
        <time>2012-11-11T15:12:29Z</time>
      </trkpt>
      <trkpt lat="47.48914" lon="-2.34846">
        <ele>32</ele>
        <time>2012-11-11T15:12:09Z</time>
      </trkpt>
      <trkpt lat="47.48938" lon="-2.34837">
        <ele>32</ele>
        <time>2012-11-11T15:11:49Z</time>
      </trkpt>
      <trkpt lat="47.48942" lon="-2.34792">
        <ele>32</ele>
        <time>2012-11-11T15:11:29Z</time>
      </trkpt>
      <trkpt lat="47.48986" lon="-2.34765">
        <ele>31</ele>
        <time>2012-11-11T15:11:09Z</time>
      </trkpt>
      <trkpt lat="47.49005" lon="-2.34747">
        <ele>31</ele>
        <time>2012-11-11T15:10:49Z</time>
      </trkpt>
      <trkpt lat="47.49007" lon="-2.34706">
        <ele>32</ele>
        <time>2012-11-11T15:10:29Z</time>
      </trkpt>
      <trkpt lat="47.4897" lon="-2.34574">
        <ele>32</ele>
        <time>2012-11-11T15:10:09Z</time>
      </trkpt>
      <trkpt lat="47.49032" lon="-2.34579">
        <ele>32</ele>
        <time>2012-11-11T15:09:49Z</time>
      </trkpt>
      <trkpt lat="47.49081" lon="-2.34532">
        <ele>28</ele>
        <time>2012-11-11T15:09:29Z</time>
      </trkpt>
      <trkpt lat="47.4924" lon="-2.34528">
        <ele>24</ele>
        <time>2012-11-11T15:09:09Z</time>
      </trkpt>
      <trkpt lat="47.49347" lon="-2.34587">
        <ele>22</ele>
        <time>2012-11-11T15:08:49Z</time>
      </trkpt>
      <trkpt lat="47.49438" lon="-2.34741">
        <ele>17</ele>
        <time>2012-11-11T15:08:29Z</time>
      </trkpt>
      <trkpt lat="47.4949" lon="-2.34871">
        <ele>17</ele>
        <time>2012-11-11T15:08:09Z</time>
      </trkpt>
      <trkpt lat="47.49539" lon="-2.35076">
        <ele>12</ele>
        <time>2012-11-11T15:07:49Z</time>
      </trkpt>
      <trkpt lat="47.4953" lon="-2.35217">
        <ele>12</ele>
        <time>2012-11-11T15:07:29Z</time>
      </trkpt>
      <trkpt lat="47.49549" lon="-2.35275">
        <ele>12</ele>
        <time>2012-11-11T15:07:09Z</time>
      </trkpt>
      <trkpt lat="47.49658" lon="-2.35359">
        <ele>15</ele>
        <time>2012-11-11T15:06:49Z</time>
      </trkpt>
      <trkpt lat="47.49658" lon="-2.35394">
        <ele>8</ele>
        <time>2012-11-11T15:06:29Z</time>
      </trkpt>
      <trkpt lat="47.49673" lon="-2.35427">
        <ele>8</ele>
        <time>2012-11-11T15:06:09Z</time>
      </trkpt>
      <trkpt lat="47.49724" lon="-2.35581">
        <ele>14</ele>
        <time>2012-11-11T15:05:49Z</time>
      </trkpt>
      <trkpt lat="47.49745" lon="-2.35626">
        <ele>7</ele>
        <time>2012-11-11T15:05:29Z</time>
      </trkpt>
      <trkpt lat="47.49788" lon="-2.35669">
        <ele>7</ele>
        <time>2012-11-11T15:05:09Z</time>
      </trkpt>
      <trkpt lat="47.49879" lon="-2.35633">
        <ele>20</ele>
        <time>2012-11-11T15:04:49Z</time>
      </trkpt>
      <trkpt lat="47.49936" lon="-2.35535">
        <ele>26</ele>
        <time>2012-11-11T15:04:29Z</time>
      </trkpt>
      <trkpt lat="47.49948" lon="-2.35555">
        <ele>23</ele>
        <time>2012-11-11T15:04:09Z</time>
      </trkpt>
      <trkpt lat="47.50084" lon="-2.35685">
        <ele>32</ele>
        <time>2012-11-11T15:03:49Z</time>
      </trkpt>
      <trkpt lat="47.50125" lon="-2.35699">
        <ele>35</ele>
        <time>2012-11-11T15:03:29Z</time>
      </trkpt>
      <trkpt lat="47.50419" lon="-2.35708">
        <ele>28</ele>
        <time>2012-11-11T15:03:09Z</time>
      </trkpt>
      <trkpt lat="47.50511" lon="-2.35835">
        <ele>19</ele>
        <time>2012-11-11T15:02:49Z</time>
      </trkpt>
      <trkpt lat="47.50525" lon="-2.35739">
        <ele>25</ele>
        <time>2012-11-11T15:02:29Z</time>
      </trkpt>
      <trkpt lat="47.50567" lon="-2.3566">
        <ele>6</ele>
        <time>2012-11-11T15:02:09Z</time>
      </trkpt>
      <trkpt lat="47.50574" lon="-2.35519">
        <ele>6</ele>
        <time>2012-11-11T15:01:49Z</time>
      </trkpt>
      <trkpt lat="47.50472" lon="-2.3545">
        <ele>18</ele>
        <time>2012-11-11T15:01:29Z</time>
      </trkpt>
      <trkpt lat="47.50461" lon="-2.35371">
        <ele>17</ele>
        <time>2012-11-11T15:01:09Z</time>
      </trkpt>
      <trkpt lat="47.50836" lon="-2.35396">
        <ele>4</ele>
        <time>2012-11-11T15:00:49Z</time>
      </trkpt>
      <trkpt lat="47.50836" lon="-2.3525">
        <ele>15</ele>
        <time>2012-11-11T15:00:29Z</time>
      </trkpt>
      <trkpt lat="47.50899" lon="-2.35248">
        <ele>25</ele>
        <time>2012-11-11T15:00:09Z</time>
      </trkpt>
      <trkpt lat="47.50961" lon="-2.35214">
        <ele>29</ele>
        <time>2012-11-11T14:59:49Z</time>
      </trkpt>
      <trkpt lat="47.50983" lon="-2.35185">
        <ele>32</ele>
        <time>2012-11-11T14:59:29Z</time>
      </trkpt>
      <trkpt lat="47.51068" lon="-2.35148">
        <ele>33</ele>
        <time>2012-11-11T14:59:09Z</time>
      </trkpt>
      <trkpt lat="47.51081" lon="-2.35074">
        <ele>34</ele>
        <time>2012-11-11T14:58:49Z</time>
      </trkpt>
      <trkpt lat="47.51148" lon="-2.35057">
        <ele>32</ele>
        <time>2012-11-11T14:58:29Z</time>
      </trkpt>
      <trkpt lat="47.51177" lon="-2.35">
        <ele>33</ele>
        <time>2012-11-11T14:58:09Z</time>
      </trkpt>
      <trkpt lat="47.51173" lon="-2.34879">
        <ele>34</ele>
        <time>2012-11-11T14:57:49Z</time>
      </trkpt>
      <trkpt lat="47.51215" lon="-2.34923">
        <ele>29</ele>
        <time>2012-11-11T14:57:29Z</time>
      </trkpt>
      <trkpt lat="47.51275" lon="-2.34945">
        <ele>29</ele>
        <time>2012-11-11T14:57:09Z</time>
      </trkpt>
      <trkpt lat="47.51291" lon="-2.34933">
        <ele>29</ele>
        <time>2012-11-11T14:56:49Z</time>
      </trkpt>
      <trkpt lat="47.51328" lon="-2.34795">
        <ele>15</ele>
        <time>2012-11-11T14:56:29Z</time>
      </trkpt>
      <trkpt lat="47.51217" lon="-2.34314">
        <ele>13</ele>
        <time>2012-11-11T14:56:09Z</time>
      </trkpt>
      <trkpt lat="47.5121" lon="-2.34235">
        <ele>9</ele>
        <time>2012-11-11T14:55:49Z</time>
      </trkpt>
      <trkpt lat="47.51219" lon="-2.34089">
        <ele>12</ele>
        <time>2012-11-11T14:55:29Z</time>
      </trkpt>
      <trkpt lat="47.51136" lon="-2.33931">
        <ele>25</ele>
        <time>2012-11-11T14:55:09Z</time>
      </trkpt>
      <trkpt lat="47.51075" lon="-2.3372">
        <ele>23</ele>
        <time>2012-11-11T14:54:49Z</time>
      </trkpt>
      <trkpt lat="47.51047" lon="-2.33693">
        <ele>19</ele>
        <time>2012-11-11T14:54:29Z</time>
      </trkpt>
      <trkpt lat="47.5105" lon="-2.33593">
        <ele>13</ele>
        <time>2012-11-11T14:54:09Z</time>
      </trkpt>
      <trkpt lat="47.51036" lon="-2.33563">
        <ele>17</ele>
        <time>2012-11-11T14:53:49Z</time>
      </trkpt>
      <trkpt lat="47.51042" lon="-2.33486">
        <ele>9.2</ele>
        <time>2012-11-11T14:53:29Z</time>
      </trkpt>
      <trkpt lat="47.51009" lon="-2.33392">
        <ele>16</ele>
        <time>2012-11-11T14:53:09Z</time>
      </trkpt>
      <trkpt lat="47.50949" lon="-2.33282">
        <ele>30</ele>
        <time>2012-11-11T14:52:49Z</time>
      </trkpt>
      <trkpt lat="47.50925" lon="-2.33274">
        <ele>30</ele>
        <time>2012-11-11T14:52:29Z</time>
      </trkpt>
      <trkpt lat="47.5089" lon="-2.33203">
        <ele>35</ele>
        <time>2012-11-11T14:52:09Z</time>
      </trkpt>
      <trkpt lat="47.50871" lon="-2.33123">
        <ele>36</ele>
        <time>2012-11-11T14:51:49Z</time>
      </trkpt>
      <trkpt lat="47.50869" lon="-2.33054">
        <ele>36</ele>
        <time>2012-11-11T14:51:29Z</time>
      </trkpt>
      <trkpt lat="47.50857" lon="-2.32992">
        <ele>35</ele>
        <time>2012-11-11T14:51:09Z</time>
      </trkpt>
      <trkpt lat="47.50851" lon="-2.32901">
        <ele>34</ele>
        <time>2012-11-11T14:50:49Z</time>
      </trkpt>
      <trkpt lat="47.50818" lon="-2.32843">
        <ele>33</ele>
        <time>2012-11-11T14:50:29Z</time>
      </trkpt>
      <trkpt lat="47.50796" lon="-2.32788">
        <ele>29</ele>
        <time>2012-11-11T14:50:09Z</time>
      </trkpt>
      <trkpt lat="47.50785" lon="-2.32782">
        <ele>28</ele>
        <time>2012-11-11T14:49:49Z</time>
      </trkpt>
      <trkpt lat="47.50774" lon="-2.32725">
        <ele>28</ele>
        <time>2012-11-11T14:49:29Z</time>
      </trkpt>
      <trkpt lat="47.50807" lon="-2.3273">
        <ele>29</ele>
        <time>2012-11-11T14:49:09Z</time>
      </trkpt>
      <trkpt lat="47.50837" lon="-2.32709">
        <ele>29</ele>
        <time>2012-11-11T14:48:49Z</time>
      </trkpt>
      <trkpt lat="47.5084" lon="-2.3267">
        <ele>23</ele>
        <time>2012-11-11T14:48:29Z</time>
      </trkpt>
      <trkpt lat="47.50968" lon="-2.32531">
        <ele>27</ele>
        <time>2012-11-11T14:48:09Z</time>
      </trkpt>
      <trkpt lat="47.50974" lon="-2.32509">
        <ele>27</ele>
        <time>2012-11-11T14:47:49Z</time>
      </trkpt>
      <trkpt lat="47.51038" lon="-2.32437">
        <ele>25</ele>
        <time>2012-11-11T14:47:29Z</time>
      </trkpt>
      <trkpt lat="47.51055" lon="-2.32387">
        <ele>21</ele>
        <time>2012-11-11T14:47:09Z</time>
      </trkpt>
      <trkpt lat="47.51076" lon="-2.32356">
        <ele>15</ele>
        <time>2012-11-11T14:46:49Z</time>
      </trkpt>
      <trkpt lat="47.51078" lon="-2.32332">
        <ele>15</ele>
        <time>2012-11-11T14:46:29Z</time>
      </trkpt>
      <trkpt lat="47.51029" lon="-2.3226">
        <ele>7</ele>
        <time>2012-11-11T14:46:09Z</time>
      </trkpt>
      <trkpt lat="47.50951" lon="-2.32239">
        <ele>8</ele>
        <time>2012-11-11T14:45:49Z</time>
      </trkpt>
      <trkpt lat="47.50981" lon="-2.32076">
        <ele>25</ele>
        <time>2012-11-11T14:45:29Z</time>
      </trkpt>
      <trkpt lat="47.51109" lon="-2.32158">
        <ele>20</ele>
        <time>2012-11-11T14:45:09Z</time>
      </trkpt>
      <trkpt lat="47.51195" lon="-2.32108">
        <ele>34</ele>
        <time>2012-11-11T14:44:49Z</time>
      </trkpt>
      <trkpt lat="47.51239" lon="-2.32131">
        <ele>13</ele>
        <time>2012-11-11T14:44:29Z</time>
      </trkpt>
      <trkpt lat="47.51348" lon="-2.31812">
        <ele>29</ele>
        <time>2012-11-11T14:44:09Z</time>
      </trkpt>
      <trkpt lat="47.51362" lon="-2.31651">
        <ele>31</ele>
        <time>2012-11-11T14:43:49Z</time>
      </trkpt>
      <trkpt lat="47.51307" lon="-2.31581">
        <ele>25</ele>
        <time>2012-11-11T14:43:29Z</time>
      </trkpt>
      <trkpt lat="47.5128" lon="-2.31581">
        <ele>33</ele>
        <time>2012-11-11T14:43:09Z</time>
      </trkpt>
      <trkpt lat="47.51225" lon="-2.31475">
        <ele>31</ele>
        <time>2012-11-11T14:42:49Z</time>
      </trkpt>
      <trkpt lat="47.51212" lon="-2.31457">
        <ele>35</ele>
        <time>2012-11-11T14:42:29Z</time>
      </trkpt>
      <trkpt lat="47.51199" lon="-2.31383">
        <ele>37</ele>
        <time>2012-11-11T14:42:09Z</time>
      </trkpt>
      <trkpt lat="47.51228" lon="-2.31257">
        <ele>39</ele>
        <time>2012-11-11T14:41:49Z</time>
      </trkpt>
      <trkpt lat="47.5132" lon="-2.31276">
        <ele>39</ele>
        <time>2012-11-11T14:41:29Z</time>
      </trkpt>
      <trkpt lat="47.51348" lon="-2.31261">
        <ele>39</ele>
        <time>2012-11-11T14:41:09Z</time>
      </trkpt>
      <trkpt lat="47.51356" lon="-2.31211">
        <ele>39</ele>
        <time>2012-11-11T14:40:49Z</time>
      </trkpt>
      <trkpt lat="47.51383" lon="-2.31132">
        <ele>37</ele>
        <time>2012-11-11T14:40:29Z</time>
      </trkpt>
      <trkpt lat="47.51465" lon="-2.31163">
        <ele>29</ele>
        <time>2012-11-11T14:40:09Z</time>
      </trkpt>
      <trkpt lat="47.51502" lon="-2.30918">
        <ele>32</ele>
        <time>2012-11-11T14:39:49Z</time>
      </trkpt>
      <trkpt lat="47.51488" lon="-2.30846">
        <ele>25</ele>
        <time>2012-11-11T14:39:29Z</time>
      </trkpt>
      <trkpt lat="47.51682" lon="-2.30827">
        <ele>5</ele>
        <time>2012-11-11T14:39:09Z</time>
      </trkpt>
      <trkpt lat="47.51763" lon="-2.30756">
        <ele>4</ele>
        <time>2012-11-11T14:38:49Z</time>
      </trkpt>
      <trkpt lat="47.51763" lon="-2.30731">
        <ele>4</ele>
        <time>2012-11-11T14:38:29Z</time>
      </trkpt>
      <trkpt lat="47.51741" lon="-2.30708">
        <ele>8</ele>
        <time>2012-11-11T14:38:09Z</time>
      </trkpt>
      <trkpt lat="47.51725" lon="-2.30587">
        <ele>9</ele>
        <time>2012-11-11T14:37:49Z</time>
      </trkpt>
      <trkpt lat="47.51733" lon="-2.30565">
        <ele>9</ele>
        <time>2012-11-11T14:37:29Z</time>
      </trkpt>
      <trkpt lat="47.51723" lon="-2.3045">
        <ele>9</ele>
        <time>2012-11-11T14:37:09Z</time>
      </trkpt>
      <trkpt lat="47.51728" lon="-2.30356">
        <ele>10</ele>
        <time>2012-11-11T14:36:49Z</time>
      </trkpt>
      <trkpt lat="47.51765" lon="-2.3034">
        <ele>10</ele>
        <time>2012-11-11T14:36:29Z</time>
      </trkpt>
      <trkpt lat="47.51828" lon="-2.30675">
        <ele>3</ele>
        <time>2012-11-11T14:36:09Z</time>
      </trkpt>
      <trkpt lat="47.51847" lon="-2.30687">
        <ele>3</ele>
        <time>2012-11-11T14:35:49Z</time>
      </trkpt>
      <trkpt lat="47.51882" lon="-2.30654">
        <ele>5</ele>
        <time>2012-11-11T14:35:29Z</time>
      </trkpt>
      <trkpt lat="47.51871" lon="-2.30568">
        <ele>6</ele>
        <time>2012-11-11T14:35:09Z</time>
      </trkpt>
      <trkpt lat="47.51939" lon="-2.30526">
        <ele>8</ele>
        <time>2012-11-11T14:34:49Z</time>
      </trkpt>
      <trkpt lat="47.51975" lon="-2.30522">
        <ele>5</ele>
        <time>2012-11-11T14:34:29Z</time>
      </trkpt>
      <trkpt lat="47.52051" lon="-2.30484">
        <ele>7</ele>
        <time>2012-11-11T14:34:09Z</time>
      </trkpt>
      <trkpt lat="47.52087" lon="-2.30449">
        <ele>14</ele>
        <time>2012-11-11T14:33:49Z</time>
      </trkpt>
      <trkpt lat="47.52149" lon="-2.30489">
        <ele>8</ele>
        <time>2012-11-11T14:33:29Z</time>
      </trkpt>
      <trkpt lat="47.52152" lon="-2.30472">
        <ele>8</ele>
        <time>2012-11-11T14:33:09Z</time>
      </trkpt>
      <trkpt lat="47.52091" lon="-2.3043">
        <ele>14</ele>
        <time>2012-11-11T14:32:49Z</time>
      </trkpt>
      <trkpt lat="47.52051" lon="-2.30288">
        <ele>29</ele>
        <time>2012-11-11T14:32:29Z</time>
      </trkpt>
      <trkpt lat="47.52057" lon="-2.30256">
        <ele>29</ele>
        <time>2012-11-11T14:32:09Z</time>
      </trkpt>
      <trkpt lat="47.52066" lon="-2.30283">
        <ele>29</ele>
        <time>2012-11-11T14:31:49Z</time>
      </trkpt>
      <trkpt lat="47.52127" lon="-2.30379">
        <ele>25</ele>
        <time>2012-11-11T14:31:29Z</time>
      </trkpt>
      <trkpt lat="47.522" lon="-2.30409">
        <ele>25</ele>
        <time>2012-11-11T14:31:09Z</time>
      </trkpt>
      <trkpt lat="47.52292" lon="-2.30381">
        <ele>33</ele>
        <time>2012-11-11T14:30:49Z</time>
      </trkpt>
      <trkpt lat="47.52362" lon="-2.30329">
        <ele>48</ele>
        <time>2012-11-11T14:30:29Z</time>
      </trkpt>
      <trkpt lat="47.52596" lon="-2.30846">
        <ele>51</ele>
        <time>2012-11-11T14:30:09Z</time>
      </trkpt>
      <trkpt lat="47.52635" lon="-2.31061">
        <ele>50</ele>
        <time>2012-11-11T14:29:49Z</time>
      </trkpt>
      <trkpt lat="47.52679" lon="-2.31049">
        <ele>50</ele>
        <time>2012-11-11T14:29:29Z</time>
      </trkpt>
      <trkpt lat="47.52793" lon="-2.31096">
        <ele>54</ele>
        <time>2012-11-11T14:29:09Z</time>
      </trkpt>
      <trkpt lat="47.52843" lon="-2.31189">
        <ele>58</ele>
        <time>2012-11-11T14:28:49Z</time>
      </trkpt>
      <trkpt lat="47.52893" lon="-2.31161">
        <ele>47</ele>
        <time>2012-11-11T14:28:29Z</time>
      </trkpt>
      <trkpt lat="47.52906" lon="-2.31092">
        <ele>45</ele>
        <time>2012-11-11T14:28:09Z</time>
      </trkpt>
      <trkpt lat="47.52909" lon="-2.30993">
        <ele>42</ele>
        <time>2012-11-11T14:27:49Z</time>
      </trkpt>
      <trkpt lat="47.52964" lon="-2.31116">
        <ele>44</ele>
        <time>2012-11-11T14:27:29Z</time>
      </trkpt>
      <trkpt lat="47.52959" lon="-2.31149">
        <ele>46</ele>
        <time>2012-11-11T14:27:09Z</time>
      </trkpt>
      <trkpt lat="47.52984" lon="-2.31236">
        <ele>47</ele>
        <time>2012-11-11T14:26:49Z</time>
      </trkpt>
      <trkpt lat="47.5298" lon="-2.31317">
        <ele>46</ele>
        <time>2012-11-11T14:26:29Z</time>
      </trkpt>
      <trkpt lat="47.52936" lon="-2.31321">
        <ele>49</ele>
        <time>2012-11-11T14:26:09Z</time>
      </trkpt>
      <trkpt lat="47.52948" lon="-2.31395">
        <ele>50</ele>
        <time>2012-11-11T14:25:49Z</time>
      </trkpt>
      <trkpt lat="47.53046" lon="-2.31705">
        <ele>52</ele>
        <time>2012-11-11T14:25:29Z</time>
      </trkpt>
      <trkpt lat="47.53069" lon="-2.31762">
        <ele>54</ele>
        <time>2012-11-11T14:25:09Z</time>
      </trkpt>
      <trkpt lat="47.53518" lon="-2.32384">
        <ele>58</ele>
        <time>2012-11-11T14:24:49Z</time>
      </trkpt>
      <trkpt lat="47.53587" lon="-2.32497">
        <ele>60</ele>
        <time>2012-11-11T14:24:29Z</time>
      </trkpt>
      <trkpt lat="47.53612" lon="-2.32515">
        <ele>60</ele>
        <time>2012-11-11T14:24:09Z</time>
      </trkpt>
      <trkpt lat="47.53864" lon="-2.32878">
        <ele>69</ele>
        <time>2012-11-11T14:23:49Z</time>
      </trkpt>
      <trkpt lat="47.54209" lon="-2.33482">
        <ele>57</ele>
        <time>2012-11-11T14:23:29Z</time>
      </trkpt>
      <trkpt lat="47.5423" lon="-2.33564">
        <ele>57</ele>
        <time>2012-11-11T14:23:09Z</time>
      </trkpt>
      <trkpt lat="47.54236" lon="-2.33681">
        <ele>58</ele>
        <time>2012-11-11T14:22:49Z</time>
      </trkpt>
      <trkpt lat="47.54292" lon="-2.33695">
        <ele>57</ele>
        <time>2012-11-11T14:22:29Z</time>
      </trkpt>
      <trkpt lat="47.54308" lon="-2.33722">
        <ele>56</ele>
        <time>2012-11-11T14:22:09Z</time>
      </trkpt>
      <trkpt lat="47.54385" lon="-2.33752">
        <ele>52</ele>
        <time>2012-11-11T14:21:49Z</time>
      </trkpt>
      <trkpt lat="47.54461" lon="-2.33739">
        <ele>48</ele>
        <time>2012-11-11T14:21:29Z</time>
      </trkpt>
      <trkpt lat="47.54495" lon="-2.33769">
        <ele>48</ele>
        <time>2012-11-11T14:21:09Z</time>
      </trkpt>
      <trkpt lat="47.54543" lon="-2.3376">
        <ele>46</ele>
        <time>2012-11-11T14:20:49Z</time>
      </trkpt>
      <trkpt lat="47.54577" lon="-2.33709">
        <ele>46</ele>
        <time>2012-11-11T14:20:29Z</time>
      </trkpt>
      <trkpt lat="47.54623" lon="-2.33728">
        <ele>46</ele>
        <time>2012-11-11T14:20:09Z</time>
      </trkpt>
      <trkpt lat="47.54695" lon="-2.33711">
        <ele>40</ele>
        <time>2012-11-11T14:19:49Z</time>
      </trkpt>
      <trkpt lat="47.54808" lon="-2.33822">
        <ele>28</ele>
        <time>2012-11-11T14:19:29Z</time>
      </trkpt>
      <trkpt lat="47.54842" lon="-2.33866">
        <ele>28</ele>
        <time>2012-11-11T14:19:09Z</time>
      </trkpt>
      <trkpt lat="47.54901" lon="-2.33842">
        <ele>28</ele>
        <time>2012-11-11T14:18:49Z</time>
      </trkpt>
      <trkpt lat="47.5496" lon="-2.33781">
        <ele>28</ele>
        <time>2012-11-11T14:18:29Z</time>
      </trkpt>
      <trkpt lat="47.55039" lon="-2.33734">
        <ele>28</ele>
        <time>2012-11-11T14:18:09Z</time>
      </trkpt>
      <trkpt lat="47.55073" lon="-2.33646">
        <ele>19</ele>
        <time>2012-11-11T14:17:49Z</time>
      </trkpt>
      <trkpt lat="47.5506" lon="-2.33488">
        <ele>16</ele>
        <time>2012-11-11T14:17:29Z</time>
      </trkpt>
      <trkpt lat="47.55183" lon="-2.33499">
        <ele>10</ele>
        <time>2012-11-11T14:17:09Z</time>
      </trkpt>
      <trkpt lat="47.55215" lon="-2.33576">
        <ele>19</ele>
        <time>2012-11-11T14:16:49Z</time>
      </trkpt>
      <trkpt lat="47.55244" lon="-2.33613">
        <ele>19</ele>
        <time>2012-11-11T14:16:29Z</time>
      </trkpt>
      <trkpt lat="47.55425" lon="-2.33679">
        <ele>31</ele>
        <time>2012-11-11T14:16:09Z</time>
      </trkpt>
      <trkpt lat="47.55483" lon="-2.33619">
        <ele>44</ele>
        <time>2012-11-11T14:15:49Z</time>
      </trkpt>
      <trkpt lat="47.55501" lon="-2.33577">
        <ele>44</ele>
        <time>2012-11-11T14:15:29Z</time>
      </trkpt>
      <trkpt lat="47.5551" lon="-2.33499">
        <ele>46</ele>
        <time>2012-11-11T14:15:09Z</time>
      </trkpt>
      <trkpt lat="47.55675" lon="-2.33548">
        <ele>47</ele>
        <time>2012-11-11T14:14:49Z</time>
      </trkpt>
      <trkpt lat="47.55713" lon="-2.33532">
        <ele>49</ele>
        <time>2012-11-11T14:14:29Z</time>
      </trkpt>
      <trkpt lat="47.55713" lon="-2.33457">
        <ele>49</ele>
        <time>2012-11-11T14:14:09Z</time>
      </trkpt>
      <trkpt lat="47.55737" lon="-2.33391">
        <ele>49</ele>
        <time>2012-11-11T14:13:49Z</time>
      </trkpt>
      <trkpt lat="47.55699" lon="-2.33142">
        <ele>43</ele>
        <time>2012-11-11T14:13:29Z</time>
      </trkpt>
      <trkpt lat="47.55682" lon="-2.32893">
        <ele>21</ele>
        <time>2012-11-11T14:13:09Z</time>
      </trkpt>
      <trkpt lat="47.55632" lon="-2.32497">
        <ele>8</ele>
        <time>2012-11-11T14:12:49Z</time>
      </trkpt>
      <trkpt lat="47.55748" lon="-2.32597">
        <ele>17</ele>
        <time>2012-11-11T14:12:29Z</time>
      </trkpt>
      <trkpt lat="47.55728" lon="-2.321">
        <ele>49</ele>
        <time>2012-11-11T14:12:09Z</time>
      </trkpt>
      <trkpt lat="47.55675" lon="-2.32033">
        <ele>33</ele>
        <time>2012-11-11T14:11:49Z</time>
      </trkpt>
      <trkpt lat="47.55661" lon="-2.31984">
        <ele>33</ele>
        <time>2012-11-11T14:11:29Z</time>
      </trkpt>
      <trkpt lat="47.55687" lon="-2.31648">
        <ele>47</ele>
        <time>2012-11-11T14:11:09Z</time>
      </trkpt>
      <trkpt lat="47.55719" lon="-2.31629">
        <ele>67</ele>
        <time>2012-11-11T14:10:49Z</time>
      </trkpt>
      <trkpt lat="47.55815" lon="-2.31385">
        <ele>66</ele>
        <time>2012-11-11T14:10:29Z</time>
      </trkpt>
      <trkpt lat="47.55776" lon="-2.31118">
        <ele>72</ele>
        <time>2012-11-11T14:10:09Z</time>
      </trkpt>
      <trkpt lat="47.55781" lon="-2.31091">
        <ele>72</ele>
        <time>2012-11-11T14:09:49Z</time>
      </trkpt>
      <trkpt lat="47.55733" lon="-2.30879">
        <ele>67</ele>
        <time>2012-11-11T14:09:29Z</time>
      </trkpt>
      <trkpt lat="47.55727" lon="-2.30738">
        <ele>71</ele>
        <time>2012-11-11T14:09:09Z</time>
      </trkpt>
      <trkpt lat="47.55758" lon="-2.30727">
        <ele>71</ele>
        <time>2012-11-11T14:08:49Z</time>
      </trkpt>
      <trkpt lat="47.55795" lon="-2.30701">
        <ele>68</ele>
        <time>2012-11-11T14:08:29Z</time>
      </trkpt>
      <trkpt lat="47.55833" lon="-2.30706">
        <ele>68</ele>
        <time>2012-11-11T14:08:09Z</time>
      </trkpt>
      <trkpt lat="47.55838" lon="-2.30588">
        <ele>66</ele>
        <time>2012-11-11T14:07:49Z</time>
      </trkpt>
      <trkpt lat="47.55827" lon="-2.30496">
        <ele>63</ele>
        <time>2012-11-11T14:07:29Z</time>
      </trkpt>
      <trkpt lat="47.55869" lon="-2.30443">
        <ele>56</ele>
        <time>2012-11-11T14:07:09Z</time>
      </trkpt>
      <trkpt lat="47.55842" lon="-2.30301">
        <ele>48</ele>
        <time>2012-11-11T14:06:49Z</time>
      </trkpt>
      <trkpt lat="47.55853" lon="-2.30292">
        <ele>48</ele>
        <time>2012-11-11T14:06:29Z</time>
      </trkpt>
      <trkpt lat="47.55933" lon="-2.30262">
        <ele>40</ele>
        <time>2012-11-11T14:06:09Z</time>
      </trkpt>
      <trkpt lat="47.55955" lon="-2.30231">
        <ele>40</ele>
        <time>2012-11-11T14:05:49Z</time>
      </trkpt>
      <trkpt lat="47.55944" lon="-2.30167">
        <ele>35</ele>
        <time>2012-11-11T14:05:29Z</time>
      </trkpt>
      <trkpt lat="47.55892" lon="-2.30099">
        <ele>26</ele>
        <time>2012-11-11T14:05:09Z</time>
      </trkpt>
      <trkpt lat="47.55887" lon="-2.3005">
        <ele>26</ele>
        <time>2012-11-11T14:04:49Z</time>
      </trkpt>
      <trkpt lat="47.55901" lon="-2.30007">
        <ele>26</ele>
        <time>2012-11-11T14:04:29Z</time>
      </trkpt>
      <trkpt lat="47.55959" lon="-2.29941">
        <ele>47</ele>
        <time>2012-11-11T14:04:09Z</time>
      </trkpt>
      <trkpt lat="47.55965" lon="-2.29853">
        <ele>43</ele>
        <time>2012-11-11T14:03:49Z</time>
      </trkpt>
      <trkpt lat="47.56099" lon="-2.29673">
        <ele>58</ele>
        <time>2012-11-11T14:03:29Z</time>
      </trkpt>
      <trkpt lat="47.56201" lon="-2.29581">
        <ele>52</ele>
        <time>2012-11-11T14:03:09Z</time>
      </trkpt>
      <trkpt lat="47.5628" lon="-2.29565">
        <ele>52</ele>
        <time>2012-11-11T14:02:49Z</time>
      </trkpt>
      <trkpt lat="47.56251" lon="-2.29414">
        <ele>45</ele>
        <time>2012-11-11T14:02:29Z</time>
      </trkpt>
      <trkpt lat="47.56204" lon="-2.29273">
        <ele>35</ele>
        <time>2012-11-11T14:02:09Z</time>
      </trkpt>
      <trkpt lat="47.56243" lon="-2.29266">
        <ele>36</ele>
        <time>2012-11-11T14:01:49Z</time>
      </trkpt>
      <trkpt lat="47.56259" lon="-2.29236">
        <ele>36</ele>
        <time>2012-11-11T14:01:29Z</time>
      </trkpt>
      <trkpt lat="47.56246" lon="-2.29185">
        <ele>36</ele>
        <time>2012-11-11T14:01:09Z</time>
      </trkpt>
      <trkpt lat="47.56254" lon="-2.29137">
        <ele>36</ele>
        <time>2012-11-11T14:00:49Z</time>
      </trkpt>
      <trkpt lat="47.56249" lon="-2.29034">
        <ele>37</ele>
        <time>2012-11-11T14:00:29Z</time>
      </trkpt>
      <trkpt lat="47.56406" lon="-2.28965">
        <ele>46</ele>
        <time>2012-11-11T14:00:09Z</time>
      </trkpt>
      <trkpt lat="47.56461" lon="-2.28976">
        <ele>48</ele>
        <time>2012-11-11T13:59:49Z</time>
      </trkpt>
      <trkpt lat="47.5655" lon="-2.28973">
        <ele>53</ele>
        <time>2012-11-11T13:59:29Z</time>
      </trkpt>
      <trkpt lat="47.56637" lon="-2.28936">
        <ele>54</ele>
        <time>2012-11-11T13:59:09Z</time>
      </trkpt>
      <trkpt lat="47.56701" lon="-2.28898">
        <ele>54</ele>
        <time>2012-11-11T13:58:49Z</time>
      </trkpt>
      <trkpt lat="47.56711" lon="-2.28879">
        <ele>55</ele>
        <time>2012-11-11T13:58:29Z</time>
      </trkpt>
      <trkpt lat="47.56748" lon="-2.28858">
        <ele>55</ele>
        <time>2012-11-11T13:58:09Z</time>
      </trkpt>
      <trkpt lat="47.56839" lon="-2.28828">
        <ele>54</ele>
        <time>2012-11-11T13:57:49Z</time>
      </trkpt>
      <trkpt lat="47.56862" lon="-2.28854">
        <ele>54</ele>
        <time>2012-11-11T13:57:29Z</time>
      </trkpt>
      <trkpt lat="47.56902" lon="-2.29052">
        <ele>53</ele>
        <time>2012-11-11T13:57:09Z</time>
      </trkpt>
      <trkpt lat="47.56901" lon="-2.29109">
        <ele>53</ele>
        <time>2012-11-11T13:56:49Z</time>
      </trkpt>
      <trkpt lat="47.56848" lon="-2.29241">
        <ele>56</ele>
        <time>2012-11-11T13:56:29Z</time>
      </trkpt>
      <trkpt lat="47.56871" lon="-2.29251">
        <ele>56</ele>
        <time>2012-11-11T13:56:09Z</time>
      </trkpt>
      <trkpt lat="47.56888" lon="-2.29317">
        <ele>53</ele>
        <time>2012-11-11T13:55:49Z</time>
      </trkpt>
      <trkpt lat="47.56943" lon="-2.29312">
        <ele>53</ele>
        <time>2012-11-11T13:55:29Z</time>
      </trkpt>
      <trkpt lat="47.56997" lon="-2.29318">
        <ele>47</ele>
        <time>2012-11-11T13:55:09Z</time>
      </trkpt>
      <trkpt lat="47.57132" lon="-2.29294">
        <ele>45</ele>
        <time>2012-11-11T13:54:49Z</time>
      </trkpt>
      <trkpt lat="47.57175" lon="-2.2926">
        <ele>44</ele>
        <time>2012-11-11T13:54:29Z</time>
      </trkpt>
      <trkpt lat="47.5732" lon="-2.29367">
        <ele>53</ele>
        <time>2012-11-11T13:54:09Z</time>
      </trkpt>
      <trkpt lat="47.57346" lon="-2.29361">
        <ele>53</ele>
        <time>2012-11-11T13:53:49Z</time>
      </trkpt>
      <trkpt lat="47.57387" lon="-2.29365">
        <ele>56</ele>
        <time>2012-11-11T13:53:29Z</time>
      </trkpt>
      <trkpt lat="47.57442" lon="-2.29409">
        <ele>53</ele>
        <time>2012-11-11T13:53:09Z</time>
      </trkpt>
      <trkpt lat="47.57522" lon="-2.29418">
        <ele>50</ele>
        <time>2012-11-11T13:52:49Z</time>
      </trkpt>
      <trkpt lat="47.57596" lon="-2.2948">
        <ele>48</ele>
        <time>2012-11-11T13:52:29Z</time>
      </trkpt>
      <trkpt lat="47.57653" lon="-2.29478">
        <ele>44</ele>
        <time>2012-11-11T13:52:09Z</time>
      </trkpt>
      <trkpt lat="47.57881" lon="-2.29542">
        <ele>36</ele>
        <time>2012-11-11T13:51:49Z</time>
      </trkpt>
      <trkpt lat="47.57982" lon="-2.2955">
        <ele>36</ele>
        <time>2012-11-11T13:51:29Z</time>
      </trkpt>
      <trkpt lat="47.58072" lon="-2.29545">
        <ele>29</ele>
        <time>2012-11-11T13:51:09Z</time>
      </trkpt>
      <trkpt lat="47.58099" lon="-2.29568">
        <ele>29</ele>
        <time>2012-11-11T13:50:49Z</time>
      </trkpt>
      <trkpt lat="47.58142" lon="-2.29556">
        <ele>19</ele>
        <time>2012-11-11T13:50:29Z</time>
      </trkpt>
      <trkpt lat="47.58193" lon="-2.29293">
        <ele>21</ele>
        <time>2012-11-11T13:50:09Z</time>
      </trkpt>
      <trkpt lat="47.58166" lon="-2.29203">
        <ele>16</ele>
        <time>2012-11-11T13:49:49Z</time>
      </trkpt>
      <trkpt lat="47.58233" lon="-2.29144">
        <ele>31</ele>
        <time>2012-11-11T13:49:29Z</time>
      </trkpt>
      <trkpt lat="47.5832" lon="-2.29152">
        <ele>36</ele>
        <time>2012-11-11T13:49:09Z</time>
      </trkpt>
      <trkpt lat="47.58504" lon="-2.29462">
        <ele>38</ele>
        <time>2012-11-11T13:48:49Z</time>
      </trkpt>
      <trkpt lat="47.58515" lon="-2.29537">
        <ele>38</ele>
        <time>2012-11-11T13:48:29Z</time>
      </trkpt>
      <trkpt lat="47.58536" lon="-2.29598">
        <ele>40</ele>
        <time>2012-11-11T13:48:09Z</time>
      </trkpt>
      <trkpt lat="47.58606" lon="-2.29602">
        <ele>51</ele>
        <time>2012-11-11T13:47:49Z</time>
      </trkpt>
      <trkpt lat="47.58655" lon="-2.29647">
        <ele>53</ele>
        <time>2012-11-11T13:47:29Z</time>
      </trkpt>
      <trkpt lat="47.58811" lon="-2.2977">
        <ele>42</ele>
        <time>2012-11-11T13:47:09Z</time>
      </trkpt>
      <trkpt lat="47.58825" lon="-2.29796">
        <ele>45</ele>
        <time>2012-11-11T13:46:49Z</time>
      </trkpt>
      <trkpt lat="47.58838" lon="-2.29917">
        <ele>47</ele>
        <time>2012-11-11T13:46:29Z</time>
      </trkpt>
      <trkpt lat="47.58914" lon="-2.30074">
        <ele>60</ele>
        <time>2012-11-11T13:46:09Z</time>
      </trkpt>
      <trkpt lat="47.59068" lon="-2.30367">
        <ele>65</ele>
        <time>2012-11-11T13:45:49Z</time>
      </trkpt>
      <trkpt lat="47.59113" lon="-2.30443">
        <ele>68</ele>
        <time>2012-11-11T13:45:29Z</time>
      </trkpt>
      <trkpt lat="47.5912" lon="-2.30533">
        <ele>64</ele>
        <time>2012-11-11T13:45:09Z</time>
      </trkpt>
      <trkpt lat="47.59175" lon="-2.30526">
        <ele>65</ele>
        <time>2012-11-11T13:44:49Z</time>
      </trkpt>
      <trkpt lat="47.59211" lon="-2.3053">
        <ele>59</ele>
        <time>2012-11-11T13:44:29Z</time>
      </trkpt>
      <trkpt lat="47.59242" lon="-2.30634">
        <ele>63</ele>
        <time>2012-11-11T13:44:09Z</time>
      </trkpt>
      <trkpt lat="47.59294" lon="-2.30617">
        <ele>56</ele>
        <time>2012-11-11T13:43:49Z</time>
      </trkpt>
      <trkpt lat="47.59314" lon="-2.30693">
        <ele>59</ele>
        <time>2012-11-11T13:43:29Z</time>
      </trkpt>
      <trkpt lat="47.59316" lon="-2.3076">
        <ele>59</ele>
        <time>2012-11-11T13:43:09Z</time>
      </trkpt>
      <trkpt lat="47.59356" lon="-2.30752">
        <ele>59</ele>
        <time>2012-11-11T13:42:49Z</time>
      </trkpt>
      <trkpt lat="47.59347" lon="-2.30658">
        <ele>59</ele>
        <time>2012-11-11T13:42:29Z</time>
      </trkpt>
      <trkpt lat="47.59354" lon="-2.30602">
        <ele>56</ele>
        <time>2012-11-11T13:42:09Z</time>
      </trkpt>
      <trkpt lat="47.59324" lon="-2.30354">
        <ele>39</ele>
        <time>2012-11-11T13:41:49Z</time>
      </trkpt>
      <trkpt lat="47.59291" lon="-2.3018">
        <ele>43</ele>
        <time>2012-11-11T13:41:29Z</time>
      </trkpt>
      <trkpt lat="47.59286" lon="-2.30098">
        <ele>32</ele>
        <time>2012-11-11T13:41:09Z</time>
      </trkpt>
      <trkpt lat="47.5925" lon="-2.2997">
        <ele>20</ele>
        <time>2012-11-11T13:40:49Z</time>
      </trkpt>
      <trkpt lat="47.59218" lon="-2.29925">
        <ele>15</ele>
        <time>2012-11-11T13:40:29Z</time>
      </trkpt>
      <trkpt lat="47.59246" lon="-2.29897">
        <ele>15</ele>
        <time>2012-11-11T13:40:09Z</time>
      </trkpt>
      <trkpt lat="47.59199" lon="-2.29849">
        <ele>10</ele>
        <time>2012-11-11T13:39:49Z</time>
      </trkpt>
      <trkpt lat="47.59147" lon="-2.2988">
        <ele>18</ele>
        <time>2012-11-11T13:39:29Z</time>
      </trkpt>
      <trkpt lat="47.59115" lon="-2.2987">
        <ele>9</ele>
        <time>2012-11-11T13:39:09Z</time>
      </trkpt>
      <trkpt lat="47.5907" lon="-2.29762">
        <ele>18</ele>
        <time>2012-11-11T13:38:49Z</time>
      </trkpt>
      <trkpt lat="47.59071" lon="-2.29707">
        <ele>20</ele>
        <time>2012-11-11T13:38:29Z</time>
      </trkpt>
      <trkpt lat="47.59137" lon="-2.29608">
        <ele>26</ele>
        <time>2012-11-11T13:38:09Z</time>
      </trkpt>
      <trkpt lat="47.59162" lon="-2.29492">
        <ele>31</ele>
        <time>2012-11-11T13:37:49Z</time>
      </trkpt>
      <trkpt lat="47.5916" lon="-2.29341">
        <ele>41</ele>
        <time>2012-11-11T13:37:29Z</time>
      </trkpt>
      <trkpt lat="47.59225" lon="-2.29278">
        <ele>44</ele>
        <time>2012-11-11T13:37:09Z</time>
      </trkpt>
      <trkpt lat="47.59347" lon="-2.29237">
        <ele>45</ele>
        <time>2012-11-11T13:36:49Z</time>
      </trkpt>
      <trkpt lat="47.59374" lon="-2.29199">
        <ele>47</ele>
        <time>2012-11-11T13:36:29Z</time>
      </trkpt>
      <trkpt lat="47.59396" lon="-2.29124">
        <ele>47</ele>
        <time>2012-11-11T13:36:09Z</time>
      </trkpt>
      <trkpt lat="47.59387" lon="-2.29026">
        <ele>46</ele>
        <time>2012-11-11T13:35:49Z</time>
      </trkpt>
      <trkpt lat="47.59382" lon="-2.28922">
        <ele>46</ele>
        <time>2012-11-11T13:35:29Z</time>
      </trkpt>
      <trkpt lat="47.59276" lon="-2.28483">
        <ele>43</ele>
        <time>2012-11-11T13:35:09Z</time>
      </trkpt>
      <trkpt lat="47.59243" lon="-2.28247">
        <ele>50</ele>
        <time>2012-11-11T13:34:49Z</time>
      </trkpt>
      <trkpt lat="47.59235" lon="-2.2803">
        <ele>55</ele>
        <time>2012-11-11T13:34:29Z</time>
      </trkpt>
      <trkpt lat="47.58744" lon="-2.28323">
        <ele>43</ele>
        <time>2012-11-11T13:34:09Z</time>
      </trkpt>
      <trkpt lat="47.58557" lon="-2.28404">
        <ele>44</ele>
        <time>2012-11-11T13:33:49Z</time>
      </trkpt>
      <trkpt lat="47.58387" lon="-2.28449">
        <ele>51</ele>
        <time>2012-11-11T13:33:29Z</time>
      </trkpt>
      <trkpt lat="47.58344" lon="-2.28449">
        <ele>56</ele>
        <time>2012-11-11T13:33:09Z</time>
      </trkpt>
      <trkpt lat="47.58303" lon="-2.28373">
        <ele>55</ele>
        <time>2012-11-11T13:32:49Z</time>
      </trkpt>
      <trkpt lat="47.583" lon="-2.28339">
        <ele>55</ele>
        <time>2012-11-11T13:32:29Z</time>
      </trkpt>
      <trkpt lat="47.58239" lon="-2.28245">
        <ele>65</ele>
        <time>2012-11-11T13:32:09Z</time>
      </trkpt>
      <trkpt lat="47.58215" lon="-2.28109">
        <ele>58</ele>
        <time>2012-11-11T13:31:49Z</time>
      </trkpt>
      <trkpt lat="47.58165" lon="-2.27962">
        <ele>68</ele>
        <time>2012-11-11T13:31:29Z</time>
      </trkpt>
      <trkpt lat="47.58139" lon="-2.27851">
        <ele>56</ele>
        <time>2012-11-11T13:31:09Z</time>
      </trkpt>
      <trkpt lat="47.58134" lon="-2.27838">
        <ele>56</ele>
        <time>2012-11-11T13:30:49Z</time>
      </trkpt>
      <trkpt lat="47.58118" lon="-2.27811">
        <ele>46</ele>
        <time>2012-11-11T13:30:29Z</time>
      </trkpt>
      <trkpt lat="47.58056" lon="-2.27874">
        <ele>46</ele>
        <time>2012-11-11T13:30:09Z</time>
      </trkpt>
      <trkpt lat="47.58054" lon="-2.27794">
        <ele>46</ele>
        <time>2012-11-11T13:29:49Z</time>
      </trkpt>
      <trkpt lat="47.58061" lon="-2.27758">
        <ele>39</ele>
        <time>2012-11-11T13:29:29Z</time>
      </trkpt>
      <trkpt lat="47.58086" lon="-2.27738">
        <ele>39</ele>
        <time>2012-11-11T13:29:09Z</time>
      </trkpt>
      <trkpt lat="47.58141" lon="-2.27656">
        <ele>33</ele>
        <time>2012-11-11T13:28:49Z</time>
      </trkpt>
      <trkpt lat="47.58149" lon="-2.27604">
        <ele>28</ele>
        <time>2012-11-11T13:28:29Z</time>
      </trkpt>
      <trkpt lat="47.58145" lon="-2.27475">
        <ele>24</ele>
        <time>2012-11-11T13:28:09Z</time>
      </trkpt>
      <trkpt lat="47.58147" lon="-2.27358">
        <ele>18</ele>
        <time>2012-11-11T13:27:49Z</time>
      </trkpt>
      <trkpt lat="47.58135" lon="-2.27341">
        <ele>18</ele>
        <time>2012-11-11T13:27:29Z</time>
      </trkpt>
      <trkpt lat="47.58119" lon="-2.27282">
        <ele>15</ele>
        <time>2012-11-11T13:27:09Z</time>
      </trkpt>
      <trkpt lat="47.58088" lon="-2.27261">
        <ele>15</ele>
        <time>2012-11-11T13:26:49Z</time>
      </trkpt>
      <trkpt lat="47.58019" lon="-2.27281">
        <ele>12</ele>
        <time>2012-11-11T13:26:29Z</time>
      </trkpt>
      <trkpt lat="47.57975" lon="-2.27258">
        <ele>12</ele>
        <time>2012-11-11T13:26:09Z</time>
      </trkpt>
      <trkpt lat="47.57965" lon="-2.27218">
        <ele>12</ele>
        <time>2012-11-11T13:25:49Z</time>
      </trkpt>
      <trkpt lat="47.57994" lon="-2.27052">
        <ele>12</ele>
        <time>2012-11-11T13:25:29Z</time>
      </trkpt>
      <trkpt lat="47.57986" lon="-2.26977">
        <ele>8</ele>
        <time>2012-11-11T13:25:09Z</time>
      </trkpt>
      <trkpt lat="47.58028" lon="-2.26953">
        <ele>5</ele>
        <time>2012-11-11T13:24:49Z</time>
      </trkpt>
      <trkpt lat="47.58014" lon="-2.26889">
        <ele>5</ele>
        <time>2012-11-11T13:24:29Z</time>
      </trkpt>
      <trkpt lat="47.58018" lon="-2.26866">
        <ele>10</ele>
        <time>2012-11-11T13:24:09Z</time>
      </trkpt>
      <trkpt lat="47.58075" lon="-2.2686">
        <ele>10</ele>
        <time>2012-11-11T13:23:49Z</time>
      </trkpt>
      <trkpt lat="47.58182" lon="-2.26888">
        <ele>7</ele>
        <time>2012-11-11T13:23:29Z</time>
      </trkpt>
      <trkpt lat="47.58236" lon="-2.26931">
        <ele>10</ele>
        <time>2012-11-11T13:23:09Z</time>
      </trkpt>
      <trkpt lat="47.58226" lon="-2.26881">
        <ele>10</ele>
        <time>2012-11-11T13:22:49Z</time>
      </trkpt>
      <trkpt lat="47.58221" lon="-2.26663">
        <ele>17</ele>
        <time>2012-11-11T13:22:29Z</time>
      </trkpt>
      <trkpt lat="47.58224" lon="-2.2656">
        <ele>15</ele>
        <time>2012-11-11T13:22:09Z</time>
      </trkpt>
      <trkpt lat="47.58206" lon="-2.26313">
        <ele>5</ele>
        <time>2012-11-11T13:21:49Z</time>
      </trkpt>
      <trkpt lat="47.58211" lon="-2.24936">
        <ele>1</ele>
        <time>2012-11-11T13:21:29Z</time>
      </trkpt>
      <trkpt lat="47.58333" lon="-2.24975">
        <ele>3</ele>
        <time>2012-11-11T13:21:09Z</time>
      </trkpt>
      <trkpt lat="47.58401" lon="-2.24997">
        <ele>14</ele>
        <time>2012-11-11T13:20:49Z</time>
      </trkpt>
      <trkpt lat="47.58429" lon="-2.25035">
        <ele>14</ele>
        <time>2012-11-11T13:20:29Z</time>
      </trkpt>
      <trkpt lat="47.58444" lon="-2.24974">
        <ele>14</ele>
        <time>2012-11-11T13:20:09Z</time>
      </trkpt>
      <trkpt lat="47.58498" lon="-2.24962">
        <ele>33</ele>
        <time>2012-11-11T13:19:49Z</time>
      </trkpt>
      <trkpt lat="47.58583" lon="-2.24916">
        <ele>45</ele>
        <time>2012-11-11T13:19:29Z</time>
      </trkpt>
      <trkpt lat="47.58636" lon="-2.24914">
        <ele>53</ele>
        <time>2012-11-11T13:19:09Z</time>
      </trkpt>
      <trkpt lat="47.58728" lon="-2.24952">
        <ele>54</ele>
        <time>2012-11-11T13:18:49Z</time>
      </trkpt>
      <trkpt lat="47.58777" lon="-2.24944">
        <ele>54</ele>
        <time>2012-11-11T13:18:29Z</time>
      </trkpt>
      <trkpt lat="47.58843" lon="-2.2488">
        <ele>53</ele>
        <time>2012-11-11T13:18:09Z</time>
      </trkpt>
      <trkpt lat="47.58903" lon="-2.24864">
        <ele>45</ele>
        <time>2012-11-11T13:17:49Z</time>
      </trkpt>
      <trkpt lat="47.58955" lon="-2.24866">
        <ele>45</ele>
        <time>2012-11-11T13:17:29Z</time>
      </trkpt>
      <trkpt lat="47.59022" lon="-2.24785">
        <ele>38</ele>
        <time>2012-11-11T13:17:09Z</time>
      </trkpt>
      <trkpt lat="47.58979" lon="-2.24661">
        <ele>35</ele>
        <time>2012-11-11T13:16:49Z</time>
      </trkpt>
      <trkpt lat="47.58983" lon="-2.24615">
        <ele>35</ele>
        <time>2012-11-11T13:16:29Z</time>
      </trkpt>
      <trkpt lat="47.5902" lon="-2.24523">
        <ele>33</ele>
        <time>2012-11-11T13:16:09Z</time>
      </trkpt>
      <trkpt lat="47.59004" lon="-2.24412">
        <ele>29</ele>
        <time>2012-11-11T13:15:49Z</time>
      </trkpt>
      <trkpt lat="47.58965" lon="-2.24259">
        <ele>14</ele>
        <time>2012-11-11T13:15:29Z</time>
      </trkpt>
      <trkpt lat="47.58964" lon="-2.24204">
        <ele>13</ele>
        <time>2012-11-11T13:15:09Z</time>
      </trkpt>
      <trkpt lat="47.58926" lon="-2.24115">
        <ele>7</ele>
        <time>2012-11-11T13:14:49Z</time>
      </trkpt>
      <trkpt lat="47.58994" lon="-2.24013">
        <ele>14</ele>
        <time>2012-11-11T13:14:29Z</time>
      </trkpt>
      <trkpt lat="47.5903" lon="-2.23909">
        <ele>15</ele>
        <time>2012-11-11T13:14:09Z</time>
      </trkpt>
      <trkpt lat="47.59054" lon="-2.23808">
        <ele>21</ele>
        <time>2012-11-11T13:13:49Z</time>
      </trkpt>
      <trkpt lat="47.59098" lon="-2.23797">
        <ele>21</ele>
        <time>2012-11-11T13:13:29Z</time>
      </trkpt>
      <trkpt lat="47.59176" lon="-2.23895">
        <ele>25</ele>
        <time>2012-11-11T13:13:09Z</time>
      </trkpt>
      <trkpt lat="47.59316" lon="-2.239">
        <ele>37</ele>
        <time>2012-11-11T13:12:49Z</time>
      </trkpt>
      <trkpt lat="47.59378" lon="-2.23802">
        <ele>43</ele>
        <time>2012-11-11T13:12:29Z</time>
      </trkpt>
      <trkpt lat="47.59595" lon="-2.23865">
        <ele>60</ele>
        <time>2012-11-11T13:12:09Z</time>
      </trkpt>
      <trkpt lat="47.59632" lon="-2.23778">
        <ele>60</ele>
        <time>2012-11-11T13:11:49Z</time>
      </trkpt>
      <trkpt lat="47.59628" lon="-2.23637">
        <ele>58</ele>
        <time>2012-11-11T13:11:29Z</time>
      </trkpt>
      <trkpt lat="47.59658" lon="-2.2361">
        <ele>56</ele>
        <time>2012-11-11T13:11:09Z</time>
      </trkpt>
      <trkpt lat="47.59679" lon="-2.23557">
        <ele>56</ele>
        <time>2012-11-11T13:10:49Z</time>
      </trkpt>
      <trkpt lat="47.59687" lon="-2.23391">
        <ele>54</ele>
        <time>2012-11-11T13:10:29Z</time>
      </trkpt>
      <trkpt lat="47.59705" lon="-2.23316">
        <ele>57</ele>
        <time>2012-11-11T13:10:09Z</time>
      </trkpt>
      <trkpt lat="47.59755" lon="-2.23204">
        <ele>55</ele>
        <time>2012-11-11T13:09:49Z</time>
      </trkpt>
      <trkpt lat="47.59769" lon="-2.23145">
        <ele>55</ele>
        <time>2012-11-11T13:09:29Z</time>
      </trkpt>
      <trkpt lat="47.59757" lon="-2.23066">
        <ele>55</ele>
        <time>2012-11-11T13:09:09Z</time>
      </trkpt>
      <trkpt lat="47.59746" lon="-2.2293">
        <ele>56</ele>
        <time>2012-11-11T13:08:49Z</time>
      </trkpt>
      <trkpt lat="47.59704" lon="-2.22889">
        <ele>43</ele>
        <time>2012-11-11T13:08:29Z</time>
      </trkpt>
      <trkpt lat="47.59703" lon="-2.22827">
        <ele>41</ele>
        <time>2012-11-11T13:08:09Z</time>
      </trkpt>
      <trkpt lat="47.59649" lon="-2.22621">
        <ele>33</ele>
        <time>2012-11-11T13:07:49Z</time>
      </trkpt>
      <trkpt lat="47.59618" lon="-2.22452">
        <ele>14</ele>
        <time>2012-11-11T13:07:29Z</time>
      </trkpt>
      <trkpt lat="47.59656" lon="-2.22154">
        <ele>16</ele>
        <time>2012-11-11T13:07:09Z</time>
      </trkpt>
      <trkpt lat="47.59741" lon="-2.21893">
        <ele>6</ele>
        <time>2012-11-11T13:06:49Z</time>
      </trkpt>
      <trkpt lat="47.59794" lon="-2.21918">
        <ele>11</ele>
        <time>2012-11-11T13:06:29Z</time>
      </trkpt>
      <trkpt lat="47.59846" lon="-2.21899">
        <ele>11</ele>
        <time>2012-11-11T13:06:09Z</time>
      </trkpt>
      <trkpt lat="47.60012" lon="-2.219">
        <ele>41</ele>
        <time>2012-11-11T13:05:49Z</time>
      </trkpt>
      <trkpt lat="47.60004" lon="-2.21783">
        <ele>46</ele>
        <time>2012-11-11T13:05:29Z</time>
      </trkpt>
      <trkpt lat="47.60007" lon="-2.21675">
        <ele>50</ele>
        <time>2012-11-11T13:05:09Z</time>
      </trkpt>
      <trkpt lat="47.60015" lon="-2.21639">
        <ele>50</ele>
        <time>2012-11-11T13:04:49Z</time>
      </trkpt>
      <trkpt lat="47.59942" lon="-2.21351">
        <ele>43</ele>
        <time>2012-11-11T13:04:29Z</time>
      </trkpt>
      <trkpt lat="47.59916" lon="-2.21305">
        <ele>43</ele>
        <time>2012-11-11T13:04:09Z</time>
      </trkpt>
      <trkpt lat="47.59837" lon="-2.21263">
        <ele>31</ele>
        <time>2012-11-11T13:03:49Z</time>
      </trkpt>
      <trkpt lat="47.60001" lon="-2.21049">
        <ele>47</ele>
        <time>2012-11-11T13:03:29Z</time>
      </trkpt>
      <trkpt lat="47.60032" lon="-2.20997">
        <ele>39</ele>
        <time>2012-11-11T13:03:09Z</time>
      </trkpt>
      <trkpt lat="47.59972" lon="-2.20983">
        <ele>39</ele>
        <time>2012-11-11T13:02:49Z</time>
      </trkpt>
      <trkpt lat="47.59892" lon="-2.20884">
        <ele>39</ele>
        <time>2012-11-11T13:02:29Z</time>
      </trkpt>
      <trkpt lat="47.59826" lon="-2.20868">
        <ele>38</ele>
        <time>2012-11-11T13:02:09Z</time>
      </trkpt>
      <trkpt lat="47.59821" lon="-2.20804">
        <ele>38</ele>
        <time>2012-11-11T13:01:49Z</time>
      </trkpt>
      <trkpt lat="47.59829" lon="-2.20715">
        <ele>42</ele>
        <time>2012-11-11T13:01:29Z</time>
      </trkpt>
      <trkpt lat="47.59824" lon="-2.20566">
        <ele>44</ele>
        <time>2012-11-11T13:01:09Z</time>
      </trkpt>
      <trkpt lat="47.59892" lon="-2.20479">
        <ele>58</ele>
        <time>2012-11-11T13:00:49Z</time>
      </trkpt>
      <trkpt lat="47.60006" lon="-2.20433">
        <ele>54</ele>
        <time>2012-11-11T13:00:29Z</time>
      </trkpt>
      <trkpt lat="47.60243" lon="-2.20528">
        <ele>47</ele>
        <time>2012-11-11T13:00:09Z</time>
      </trkpt>
      <trkpt lat="47.60299" lon="-2.20498">
        <ele>49</ele>
        <time>2012-11-11T12:59:49Z</time>
      </trkpt>
      <trkpt lat="47.60372" lon="-2.20486">
        <ele>49</ele>
        <time>2012-11-11T12:59:29Z</time>
      </trkpt>
      <trkpt lat="47.60418" lon="-2.2045">
        <ele>50</ele>
        <time>2012-11-11T12:59:09Z</time>
      </trkpt>
      <trkpt lat="47.60436" lon="-2.20418">
        <ele>50</ele>
        <time>2012-11-11T12:58:49Z</time>
      </trkpt>
      <trkpt lat="47.60494" lon="-2.20243">
        <ele>55</ele>
        <time>2012-11-11T12:58:29Z</time>
      </trkpt>
      <trkpt lat="47.60523" lon="-2.20208">
        <ele>55</ele>
        <time>2012-11-11T12:58:09Z</time>
      </trkpt>
      <trkpt lat="47.60595" lon="-2.20052">
        <ele>64</ele>
        <time>2012-11-11T12:57:49Z</time>
      </trkpt>
      <trkpt lat="47.6067" lon="-2.19925">
        <ele>74</ele>
        <time>2012-11-11T12:57:29Z</time>
      </trkpt>
      <trkpt lat="47.60741" lon="-2.19903">
        <ele>77</ele>
        <time>2012-11-11T12:57:09Z</time>
      </trkpt>
      <trkpt lat="47.60913" lon="-2.19893">
        <ele>82</ele>
        <time>2012-11-11T12:56:49Z</time>
      </trkpt>
      <trkpt lat="47.60954" lon="-2.19786">
        <ele>77</ele>
        <time>2012-11-11T12:56:29Z</time>
      </trkpt>
      <trkpt lat="47.61045" lon="-2.19793">
        <ele>83</ele>
        <time>2012-11-11T12:56:09Z</time>
      </trkpt>
      <trkpt lat="47.61092" lon="-2.19073">
        <ele>73</ele>
        <time>2012-11-11T12:55:49Z</time>
      </trkpt>
      <trkpt lat="47.61042" lon="-2.19076">
        <ele>73</ele>
        <time>2012-11-11T12:55:29Z</time>
      </trkpt>
      <trkpt lat="47.60828" lon="-2.1919">
        <ele>67</ele>
        <time>2012-11-11T12:55:09Z</time>
      </trkpt>
      <trkpt lat="47.60595" lon="-2.19279">
        <ele>49</ele>
        <time>2012-11-11T12:54:49Z</time>
      </trkpt>
      <trkpt lat="47.60551" lon="-2.19211">
        <ele>49</ele>
        <time>2012-11-11T12:54:29Z</time>
      </trkpt>
      <trkpt lat="47.60567" lon="-2.19129">
        <ele>48</ele>
        <time>2012-11-11T12:54:09Z</time>
      </trkpt>
      <trkpt lat="47.60552" lon="-2.18958">
        <ele>38</ele>
        <time>2012-11-11T12:53:49Z</time>
      </trkpt>
      <trkpt lat="47.60518" lon="-2.1889">
        <ele>29</ele>
        <time>2012-11-11T12:53:29Z</time>
      </trkpt>
      <trkpt lat="47.60553" lon="-2.18808">
        <ele>35</ele>
        <time>2012-11-11T12:53:09Z</time>
      </trkpt>
      <trkpt lat="47.60635" lon="-2.18757">
        <ele>43</ele>
        <time>2012-11-11T12:52:49Z</time>
      </trkpt>
      <trkpt lat="47.60779" lon="-2.18865">
        <ele>48</ele>
        <time>2012-11-11T12:52:29Z</time>
      </trkpt>
      <trkpt lat="47.60869" lon="-2.18667">
        <ele>58</ele>
        <time>2012-11-11T12:52:09Z</time>
      </trkpt>
      <trkpt lat="47.60855" lon="-2.18626">
        <ele>58</ele>
        <time>2012-11-11T12:51:49Z</time>
      </trkpt>
      <trkpt lat="47.60808" lon="-2.18573">
        <ele>61</ele>
        <time>2012-11-11T12:51:29Z</time>
      </trkpt>
      <trkpt lat="47.60757" lon="-2.18416">
        <ele>60</ele>
        <time>2012-11-11T12:51:09Z</time>
      </trkpt>
      <trkpt lat="47.60707" lon="-2.18353">
        <ele>49</ele>
        <time>2012-11-11T12:50:49Z</time>
      </trkpt>
      <trkpt lat="47.60791" lon="-2.18242">
        <ele>57</ele>
        <time>2012-11-11T12:50:29Z</time>
      </trkpt>
      <trkpt lat="47.60725" lon="-2.18171">
        <ele>53</ele>
        <time>2012-11-11T12:50:09Z</time>
      </trkpt>
      <trkpt lat="47.60717" lon="-2.17995">
        <ele>46</ele>
        <time>2012-11-11T12:49:49Z</time>
      </trkpt>
      <trkpt lat="47.60647" lon="-2.17746">
        <ele>34</ele>
        <time>2012-11-11T12:49:29Z</time>
      </trkpt>
      <trkpt lat="47.60568" lon="-2.17739">
        <ele>31</ele>
        <time>2012-11-11T12:49:09Z</time>
      </trkpt>
      <trkpt lat="47.60472" lon="-2.17658">
        <ele>26</ele>
        <time>2012-11-11T12:48:49Z</time>
      </trkpt>
      <trkpt lat="47.6027" lon="-2.17453">
        <ele>16</ele>
        <time>2012-11-11T12:48:29Z</time>
      </trkpt>
      <trkpt lat="47.60262" lon="-2.17418">
        <ele>16</ele>
        <time>2012-11-11T12:48:09Z</time>
      </trkpt>
      <trkpt lat="47.60354" lon="-2.17391">
        <ele>18</ele>
        <time>2012-11-11T12:47:49Z</time>
      </trkpt>
      <trkpt lat="47.60343" lon="-2.1734">
        <ele>18</ele>
        <time>2012-11-11T12:47:29Z</time>
      </trkpt>
      <trkpt lat="47.60345" lon="-2.17137">
        <ele>20</ele>
        <time>2012-11-11T12:47:09Z</time>
      </trkpt>
      <trkpt lat="47.60365" lon="-2.17062">
        <ele>26</ele>
        <time>2012-11-11T12:46:49Z</time>
      </trkpt>
      <trkpt lat="47.60457" lon="-2.17047">
        <ele>27</ele>
        <time>2012-11-11T12:46:29Z</time>
      </trkpt>
      <trkpt lat="47.6048" lon="-2.16922">
        <ele>33</ele>
        <time>2012-11-11T12:46:09Z</time>
      </trkpt>
      <trkpt lat="47.60375" lon="-2.16902">
        <ele>32</ele>
        <time>2012-11-11T12:45:49Z</time>
      </trkpt>
      <trkpt lat="47.60215" lon="-2.16916">
        <ele>32</ele>
        <time>2012-11-11T12:45:29Z</time>
      </trkpt>
      <trkpt lat="47.6013" lon="-2.16902">
        <ele>31</ele>
        <time>2012-11-11T12:45:09Z</time>
      </trkpt>
      <trkpt lat="47.60047" lon="-2.16909">
        <ele>29</ele>
        <time>2012-11-11T12:44:49Z</time>
      </trkpt>
      <trkpt lat="47.59995" lon="-2.16962">
        <ele>19</ele>
        <time>2012-11-11T12:44:29Z</time>
      </trkpt>
      <trkpt lat="47.59963" lon="-2.17021">
        <ele>19</ele>
        <time>2012-11-11T12:44:09Z</time>
      </trkpt>
      <trkpt lat="47.59866" lon="-2.17034">
        <ele>10</ele>
        <time>2012-11-11T12:43:49Z</time>
      </trkpt>
      <trkpt lat="47.59778" lon="-2.16521">
        <ele>5</ele>
        <time>2012-11-11T12:43:29Z</time>
      </trkpt>
      <trkpt lat="47.59729" lon="-2.16395">
        <ele>6</ele>
        <time>2012-11-11T12:43:09Z</time>
      </trkpt>
      <trkpt lat="47.59726" lon="-2.16231">
        <ele>7</ele>
        <time>2012-11-11T12:42:49Z</time>
      </trkpt>
      <trkpt lat="47.59874" lon="-2.16176">
        <ele>9</ele>
        <time>2012-11-11T12:42:29Z</time>
      </trkpt>
      <trkpt lat="47.5993" lon="-2.16125">
        <ele>11</ele>
        <time>2012-11-11T12:42:09Z</time>
      </trkpt>
      <trkpt lat="47.59876" lon="-2.15927">
        <ele>14</ele>
        <time>2012-11-11T12:41:49Z</time>
      </trkpt>
      <trkpt lat="47.5988" lon="-2.15779">
        <ele>13</ele>
        <time>2012-11-11T12:41:29Z</time>
      </trkpt>
      <trkpt lat="47.59938" lon="-2.15743">
        <ele>13</ele>
        <time>2012-11-11T12:41:09Z</time>
      </trkpt>
      <trkpt lat="47.59993" lon="-2.15476">
        <ele>32</ele>
        <time>2012-11-11T12:40:49Z</time>
      </trkpt>
      <trkpt lat="47.60075" lon="-2.15468">
        <ele>37</ele>
        <time>2012-11-11T12:40:29Z</time>
      </trkpt>
      <trkpt lat="47.60086" lon="-2.15442">
        <ele>42</ele>
        <time>2012-11-11T12:40:09Z</time>
      </trkpt>
      <trkpt lat="47.60024" lon="-2.15285">
        <ele>48</ele>
        <time>2012-11-11T12:39:49Z</time>
      </trkpt>
      <trkpt lat="47.60122" lon="-2.14985">
        <ele>55</ele>
        <time>2012-11-11T12:39:29Z</time>
      </trkpt>
      <trkpt lat="47.60122" lon="-2.14828">
        <ele>49</ele>
        <time>2012-11-11T12:39:09Z</time>
      </trkpt>
      <trkpt lat="47.60135" lon="-2.14782">
        <ele>54</ele>
        <time>2012-11-11T12:38:49Z</time>
      </trkpt>
      <trkpt lat="47.6013" lon="-2.1468">
        <ele>55</ele>
        <time>2012-11-11T12:38:29Z</time>
      </trkpt>
      <trkpt lat="47.60173" lon="-2.1451">
        <ele>55</ele>
        <time>2012-11-11T12:38:09Z</time>
      </trkpt>
      <trkpt lat="47.60153" lon="-2.1445">
        <ele>51</ele>
        <time>2012-11-11T12:37:49Z</time>
      </trkpt>
      <trkpt lat="47.60117" lon="-2.14431">
        <ele>43</ele>
        <time>2012-11-11T12:37:29Z</time>
      </trkpt>
      <trkpt lat="47.60097" lon="-2.14164">
        <ele>34</ele>
        <time>2012-11-11T12:37:09Z</time>
      </trkpt>
      <trkpt lat="47.60164" lon="-2.13961">
        <ele>37</ele>
        <time>2012-11-11T12:36:49Z</time>
      </trkpt>
      <trkpt lat="47.60169" lon="-2.13813">
        <ele>40</ele>
        <time>2012-11-11T12:36:29Z</time>
      </trkpt>
      <trkpt lat="47.6002" lon="-2.13823">
        <ele>26</ele>
        <time>2012-11-11T12:36:09Z</time>
      </trkpt>
      <trkpt lat="47.5985" lon="-2.138">
        <ele>24</ele>
        <time>2012-11-11T12:35:49Z</time>
      </trkpt>
      <trkpt lat="47.59846" lon="-2.13706">
        <ele>17</ele>
        <time>2012-11-11T12:35:29Z</time>
      </trkpt>
      <trkpt lat="47.59791" lon="-2.13508">
        <ele>23</ele>
        <time>2012-11-11T12:35:09Z</time>
      </trkpt>
      <trkpt lat="47.59706" lon="-2.13666">
        <ele>23</ele>
        <time>2012-11-11T12:34:49Z</time>
      </trkpt>
      <trkpt lat="47.59599" lon="-2.13674">
        <ele>25</ele>
        <time>2012-11-11T12:34:29Z</time>
      </trkpt>
      <trkpt lat="47.59592" lon="-2.13639">
        <ele>25</ele>
        <time>2012-11-11T12:34:09Z</time>
      </trkpt>
      <trkpt lat="47.59567" lon="-2.13585">
        <ele>26</ele>
        <time>2012-11-11T12:33:49Z</time>
      </trkpt>
      <trkpt lat="47.59496" lon="-2.1353">
        <ele>24</ele>
        <time>2012-11-11T12:33:29Z</time>
      </trkpt>
      <trkpt lat="47.59465" lon="-2.13458">
        <ele>25</ele>
        <time>2012-11-11T12:33:09Z</time>
      </trkpt>
      <trkpt lat="47.59377" lon="-2.13551">
        <ele>22</ele>
        <time>2012-11-11T12:32:49Z</time>
      </trkpt>
      <trkpt lat="47.59217" lon="-2.13588">
        <ele>24</ele>
        <time>2012-11-11T12:32:29Z</time>
      </trkpt>
      <trkpt lat="47.5912" lon="-2.13632">
        <ele>25</ele>
        <time>2012-11-11T12:32:09Z</time>
      </trkpt>
      <trkpt lat="47.59096" lon="-2.13447">
        <ele>18</ele>
        <time>2012-11-11T12:31:49Z</time>
      </trkpt>
      <trkpt lat="47.59136" lon="-2.13297">
        <ele>21</ele>
        <time>2012-11-11T12:31:29Z</time>
      </trkpt>
      <trkpt lat="47.59108" lon="-2.13251">
        <ele>11</ele>
        <time>2012-11-11T12:31:09Z</time>
      </trkpt>
      <trkpt lat="47.59037" lon="-2.13253">
        <ele>5</ele>
        <time>2012-11-11T12:30:49Z</time>
      </trkpt>
      <trkpt lat="47.59006" lon="-2.13201">
        <ele>4</ele>
        <time>2012-11-11T12:30:29Z</time>
      </trkpt>
      <trkpt lat="47.58994" lon="-2.1314">
        <ele>4</ele>
        <time>2012-11-11T12:30:09Z</time>
      </trkpt>
      <trkpt lat="47.58999" lon="-2.13072">
        <ele>3</ele>
        <time>2012-11-11T12:29:49Z</time>
      </trkpt>
      <trkpt lat="47.59047" lon="-2.12958">
        <ele>9</ele>
        <time>2012-11-11T12:29:29Z</time>
      </trkpt>
      <trkpt lat="47.58998" lon="-2.12838">
        <ele>4</ele>
        <time>2012-11-11T12:29:09Z</time>
      </trkpt>
      <trkpt lat="47.58983" lon="-2.12783">
        <ele>4</ele>
        <time>2012-11-11T12:28:49Z</time>
      </trkpt>
      <trkpt lat="47.58989" lon="-2.12703">
        <ele>5</ele>
        <time>2012-11-11T12:28:29Z</time>
      </trkpt>
      <trkpt lat="47.5898" lon="-2.12639">
        <ele>5</ele>
        <time>2012-11-11T12:28:09Z</time>
      </trkpt>
      <trkpt lat="47.58991" lon="-2.12603">
        <ele>5</ele>
        <time>2012-11-11T12:27:49Z</time>
      </trkpt>
      <trkpt lat="47.58985" lon="-2.12496">
        <ele>4</ele>
        <time>2012-11-11T12:27:29Z</time>
      </trkpt>
      <trkpt lat="47.58913" lon="-2.12207">
        <ele>4</ele>
        <time>2012-11-11T12:27:09Z</time>
      </trkpt>
      <trkpt lat="47.58955" lon="-2.12014">
        <ele>5</ele>
        <time>2012-11-11T12:26:49Z</time>
      </trkpt>
      <trkpt lat="47.58914" lon="-2.12004">
        <ele>5</ele>
        <time>2012-11-11T12:26:29Z</time>
      </trkpt>
      <trkpt lat="47.58873" lon="-2.1168">
        <ele>8</ele>
        <time>2012-11-11T12:26:09Z</time>
      </trkpt>
      <trkpt lat="47.58865" lon="-2.11577">
        <ele>11</ele>
        <time>2012-11-11T12:25:49Z</time>
      </trkpt>
      <trkpt lat="47.58775" lon="-2.11583">
        <ele>6</ele>
        <time>2012-11-11T12:25:29Z</time>
      </trkpt>
      <trkpt lat="47.58741" lon="-2.11542">
        <ele>6</ele>
        <time>2012-11-11T12:25:09Z</time>
      </trkpt>
      <trkpt lat="47.58678" lon="-2.11059">
        <ele>9</ele>
        <time>2012-11-11T12:24:49Z</time>
      </trkpt>
      <trkpt lat="47.58743" lon="-2.11044">
        <ele>14</ele>
        <time>2012-11-11T12:24:29Z</time>
      </trkpt>
      <trkpt lat="47.58709" lon="-2.1079">
        <ele>10</ele>
        <time>2012-11-11T12:24:09Z</time>
      </trkpt>
      <trkpt lat="47.58715" lon="-2.10753">
        <ele>10</ele>
        <time>2012-11-11T12:23:49Z</time>
      </trkpt>
      <trkpt lat="47.58773" lon="-2.1074">
        <ele>10</ele>
        <time>2012-11-11T12:23:29Z</time>
      </trkpt>
      <trkpt lat="47.58804" lon="-2.10688">
        <ele>6</ele>
        <time>2012-11-11T12:23:09Z</time>
      </trkpt>
      <trkpt lat="47.58949" lon="-2.10676">
        <ele>9</ele>
        <time>2012-11-11T12:22:49Z</time>
      </trkpt>
      <trkpt lat="47.59012" lon="-2.10702">
        <ele>13</ele>
        <time>2012-11-11T12:22:29Z</time>
      </trkpt>
      <trkpt lat="47.59047" lon="-2.10844">
        <ele>15</ele>
        <time>2012-11-11T12:22:09Z</time>
      </trkpt>
      <trkpt lat="47.59074" lon="-2.11012">
        <ele>18</ele>
        <time>2012-11-11T12:21:49Z</time>
      </trkpt>
      <trkpt lat="47.59162" lon="-2.1101">
        <ele>18</ele>
        <time>2012-11-11T12:21:29Z</time>
      </trkpt>
      <trkpt lat="47.5914" lon="-2.10928">
        <ele>21</ele>
        <time>2012-11-11T12:21:09Z</time>
      </trkpt>
      <trkpt lat="47.59138" lon="-2.10813">
        <ele>21</ele>
        <time>2012-11-11T12:20:49Z</time>
      </trkpt>
      <trkpt lat="47.59169" lon="-2.10712">
        <ele>13</ele>
        <time>2012-11-11T12:20:29Z</time>
      </trkpt>
      <trkpt lat="47.59228" lon="-2.10589">
        <ele>11</ele>
        <time>2012-11-11T12:20:09Z</time>
      </trkpt>
      <trkpt lat="47.59338" lon="-2.10552">
        <ele>17</ele>
        <time>2012-11-11T12:19:49Z</time>
      </trkpt>
      <trkpt lat="47.59354" lon="-2.1048">
        <ele>7</ele>
        <time>2012-11-11T12:19:29Z</time>
      </trkpt>
      <trkpt lat="47.59481" lon="-2.10425">
        <ele>10</ele>
        <time>2012-11-11T12:19:09Z</time>
      </trkpt>
      <trkpt lat="47.59673" lon="-2.10486">
        <ele>10</ele>
        <time>2012-11-11T12:18:49Z</time>
      </trkpt>
      <trkpt lat="47.59711" lon="-2.10433">
        <ele>13</ele>
        <time>2012-11-11T12:18:29Z</time>
      </trkpt>
      <trkpt lat="47.59748" lon="-2.10454">
        <ele>13</ele>
        <time>2012-11-11T12:18:09Z</time>
      </trkpt>
      <trkpt lat="47.59841" lon="-2.10482">
        <ele>20</ele>
        <time>2012-11-11T12:17:49Z</time>
      </trkpt>
      <trkpt lat="47.59866" lon="-2.10387">
        <ele>19</ele>
        <time>2012-11-11T12:17:29Z</time>
      </trkpt>
      <trkpt lat="47.59942" lon="-2.10393">
        <ele>14</ele>
        <time>2012-11-11T12:17:09Z</time>
      </trkpt>
      <trkpt lat="47.59934" lon="-2.10434">
        <ele>14</ele>
        <time>2012-11-11T12:16:49Z</time>
      </trkpt>
      <trkpt lat="47.59973" lon="-2.10495">
        <ele>13</ele>
        <time>2012-11-11T12:16:29Z</time>
      </trkpt>
      <trkpt lat="47.60082" lon="-2.10626">
        <ele>20</ele>
        <time>2012-11-11T12:16:09Z</time>
      </trkpt>
      <trkpt lat="47.60133" lon="-2.10714">
        <ele>26</ele>
        <time>2012-11-11T12:15:49Z</time>
      </trkpt>
      <trkpt lat="47.60295" lon="-2.10843">
        <ele>17</ele>
        <time>2012-11-11T12:15:29Z</time>
      </trkpt>
      <trkpt lat="47.60315" lon="-2.10888">
        <ele>21</ele>
        <time>2012-11-11T12:15:09Z</time>
      </trkpt>
      <trkpt lat="47.60286" lon="-2.10991">
        <ele>34</ele>
        <time>2012-11-11T12:14:49Z</time>
      </trkpt>
      <trkpt lat="47.60389" lon="-2.10888">
        <ele>12</ele>
        <time>2012-11-11T12:14:29Z</time>
      </trkpt>
      <trkpt lat="47.60488" lon="-2.10956">
        <ele>8</ele>
        <time>2012-11-11T12:14:09Z</time>
      </trkpt>
      <trkpt lat="47.60542" lon="-2.11052">
        <ele>12</ele>
        <time>2012-11-11T12:13:49Z</time>
      </trkpt>
      <trkpt lat="47.60598" lon="-2.11189">
        <ele>17</ele>
        <time>2012-11-11T12:13:29Z</time>
      </trkpt>
      <trkpt lat="47.6064" lon="-2.11255">
        <ele>21</ele>
        <time>2012-11-11T12:13:09Z</time>
      </trkpt>
      <trkpt lat="47.60693" lon="-2.1141">
        <ele>30</ele>
        <time>2012-11-11T12:12:49Z</time>
      </trkpt>
      <trkpt lat="47.60729" lon="-2.11528">
        <ele>29</ele>
        <time>2012-11-11T12:12:29Z</time>
      </trkpt>
      <trkpt lat="47.60801" lon="-2.11435">
        <ele>20</ele>
        <time>2012-11-11T12:12:09Z</time>
      </trkpt>
      <trkpt lat="47.60934" lon="-2.11357">
        <ele>14</ele>
        <time>2012-11-11T12:11:49Z</time>
      </trkpt>
      <trkpt lat="47.61008" lon="-2.1127">
        <ele>10</ele>
        <time>2012-11-11T12:11:29Z</time>
      </trkpt>
      <trkpt lat="47.61034" lon="-2.1135">
        <ele>11</ele>
        <time>2012-11-11T12:11:09Z</time>
      </trkpt>
      <trkpt lat="47.61092" lon="-2.1134">
        <ele>9</ele>
        <time>2012-11-11T12:10:49Z</time>
      </trkpt>
      <trkpt lat="47.6111" lon="-2.11276">
        <ele>8</ele>
        <time>2012-11-11T12:10:29Z</time>
      </trkpt>
      <trkpt lat="47.61172" lon="-2.11299">
        <ele>11</ele>
        <time>2012-11-11T12:10:09Z</time>
      </trkpt>
      <trkpt lat="47.61284" lon="-2.11337">
        <ele>11</ele>
        <time>2012-11-11T12:09:49Z</time>
      </trkpt>
      <trkpt lat="47.61322" lon="-2.11315">
        <ele>10</ele>
        <time>2012-11-11T12:09:29Z</time>
      </trkpt>
      <trkpt lat="47.61387" lon="-2.11235">
        <ele>10</ele>
        <time>2012-11-11T12:09:09Z</time>
      </trkpt>
      <trkpt lat="47.61519" lon="-2.112">
        <ele>7</ele>
        <time>2012-11-11T12:08:49Z</time>
      </trkpt>
      <trkpt lat="47.61575" lon="-2.11236">
        <ele>10</ele>
        <time>2012-11-11T12:08:29Z</time>
      </trkpt>
      <trkpt lat="47.61763" lon="-2.11244">
        <ele>10</ele>
        <time>2012-11-11T12:08:09Z</time>
      </trkpt>
      <trkpt lat="47.6191" lon="-2.11291">
        <ele>10</ele>
        <time>2012-11-11T12:07:49Z</time>
      </trkpt>
      <trkpt lat="47.61934" lon="-2.11229">
        <ele>10</ele>
        <time>2012-11-11T12:07:29Z</time>
      </trkpt>
      <trkpt lat="47.61994" lon="-2.11236">
        <ele>11</ele>
        <time>2012-11-11T12:07:09Z</time>
      </trkpt>
      <trkpt lat="47.61997" lon="-2.11279">
        <ele>11</ele>
        <time>2012-11-11T12:06:49Z</time>
      </trkpt>
      <trkpt lat="47.62054" lon="-2.11285">
        <ele>11</ele>
        <time>2012-11-11T12:06:29Z</time>
      </trkpt>
      <trkpt lat="47.62117" lon="-2.11257">
        <ele>11</ele>
        <time>2012-11-11T12:06:09Z</time>
      </trkpt>
      <trkpt lat="47.62174" lon="-2.1125">
        <ele>10</ele>
        <time>2012-11-11T12:05:49Z</time>
      </trkpt>
      <trkpt lat="47.62246" lon="-2.11219">
        <ele>12</ele>
        <time>2012-11-11T12:05:29Z</time>
      </trkpt>
      <trkpt lat="47.62262" lon="-2.11295">
        <ele>11</ele>
        <time>2012-11-11T12:05:09Z</time>
      </trkpt>
      <trkpt lat="47.62336" lon="-2.11456">
        <ele>15</ele>
        <time>2012-11-11T12:04:49Z</time>
      </trkpt>
      <trkpt lat="47.62388" lon="-2.11499">
        <ele>16</ele>
        <time>2012-11-11T12:04:29Z</time>
      </trkpt>
      <trkpt lat="47.6243" lon="-2.11489">
        <ele>16</ele>
        <time>2012-11-11T12:04:09Z</time>
      </trkpt>
      <trkpt lat="47.62508" lon="-2.11532">
        <ele>24</ele>
        <time>2012-11-11T12:03:49Z</time>
      </trkpt>
      <trkpt lat="47.6259" lon="-2.11541">
        <ele>30</ele>
        <time>2012-11-11T12:03:29Z</time>
      </trkpt>
      <trkpt lat="47.62608" lon="-2.11436">
        <ele>41</ele>
        <time>2012-11-11T12:03:09Z</time>
      </trkpt>
      <trkpt lat="47.62703" lon="-2.11361">
        <ele>57</ele>
        <time>2012-11-11T12:02:49Z</time>
      </trkpt>
      <trkpt lat="47.62928" lon="-2.11442">
        <ele>61</ele>
        <time>2012-11-11T12:02:29Z</time>
      </trkpt>
      <trkpt lat="47.62989" lon="-2.11214">
        <ele>74</ele>
        <time>2012-11-11T12:02:09Z</time>
      </trkpt>
      <trkpt lat="47.63036" lon="-2.11043">
        <ele>77</ele>
        <time>2012-11-11T12:01:49Z</time>
      </trkpt>
      <trkpt lat="47.63141" lon="-2.11095">
        <ele>73</ele>
        <time>2012-11-11T12:01:29Z</time>
      </trkpt>
      <trkpt lat="47.63196" lon="-2.11114">
        <ele>73</ele>
        <time>2012-11-11T12:01:09Z</time>
      </trkpt>
      <trkpt lat="47.63321" lon="-2.11166">
        <ele>76</ele>
        <time>2012-11-11T12:00:49Z</time>
      </trkpt>
      <trkpt lat="47.63356" lon="-2.11166">
        <ele>76</ele>
        <time>2012-11-11T12:00:29Z</time>
      </trkpt>
      <trkpt lat="47.63453" lon="-2.11129">
        <ele>77</ele>
        <time>2012-11-11T12:00:09Z</time>
      </trkpt>
      <trkpt lat="47.63479" lon="-2.11246">
        <ele>80</ele>
        <time>2012-11-11T11:59:49Z</time>
      </trkpt>
      <trkpt lat="47.63495" lon="-2.11356">
        <ele>80</ele>
        <time>2012-11-11T11:59:29Z</time>
      </trkpt>
      <trkpt lat="47.63519" lon="-2.1136">
        <ele>80</ele>
        <time>2012-11-11T11:59:09Z</time>
      </trkpt>
      <trkpt lat="47.63551" lon="-2.11393">
        <ele>81</ele>
        <time>2012-11-11T11:58:49Z</time>
      </trkpt>
      <trkpt lat="47.63622" lon="-2.11423">
        <ele>81</ele>
        <time>2012-11-11T11:58:29Z</time>
      </trkpt>
      <trkpt lat="47.63691" lon="-2.1149">
        <ele>80</ele>
        <time>2012-11-11T11:58:09Z</time>
      </trkpt>
      <trkpt lat="47.63806" lon="-2.11594">
        <ele>73</ele>
        <time>2012-11-11T11:57:49Z</time>
      </trkpt>
      <trkpt lat="47.63938" lon="-2.11733">
        <ele>64</ele>
        <time>2012-11-11T11:57:29Z</time>
      </trkpt>
      <trkpt lat="47.6397" lon="-2.11808">
        <ele>59</ele>
        <time>2012-11-11T11:57:09Z</time>
      </trkpt>
      <trkpt lat="47.63974" lon="-2.11835">
        <ele>59</ele>
        <time>2012-11-11T11:56:49Z</time>
      </trkpt>
      <trkpt lat="47.63988" lon="-2.11864">
        <ele>59</ele>
        <time>2012-11-11T11:56:29Z</time>
      </trkpt>
      <trkpt lat="47.64064" lon="-2.11943">
        <ele>49</ele>
        <time>2012-11-11T11:56:09Z</time>
      </trkpt>
      <trkpt lat="47.64129" lon="-2.11849">
        <ele>37</ele>
        <time>2012-11-11T11:55:49Z</time>
      </trkpt>
      <trkpt lat="47.64128" lon="-2.11796">
        <ele>37</ele>
        <time>2012-11-11T11:55:29Z</time>
      </trkpt>
      <trkpt lat="47.64109" lon="-2.11725">
        <ele>46</ele>
        <time>2012-11-11T11:55:09Z</time>
      </trkpt>
      <trkpt lat="47.64106" lon="-2.11669">
        <ele>37</ele>
        <time>2012-11-11T11:54:49Z</time>
      </trkpt>
      <trkpt lat="47.64119" lon="-2.11632">
        <ele>37</ele>
        <time>2012-11-11T11:54:29Z</time>
      </trkpt>
      <trkpt lat="47.64118" lon="-2.11571">
        <ele>30</ele>
        <time>2012-11-11T11:54:09Z</time>
      </trkpt>
      <trkpt lat="47.64092" lon="-2.11439">
        <ele>11</ele>
        <time>2012-11-11T11:53:49Z</time>
      </trkpt>
      <trkpt lat="47.64091" lon="-2.11387">
        <ele>11</ele>
        <time>2012-11-11T11:53:29Z</time>
      </trkpt>
      <trkpt lat="47.64148" lon="-2.11106">
        <ele>3</ele>
        <time>2012-11-11T11:53:09Z</time>
      </trkpt>
      <trkpt lat="47.64181" lon="-2.10934">
        <ele>1</ele>
        <time>2012-11-11T11:52:49Z</time>
      </trkpt>
      <trkpt lat="47.64173" lon="-2.10915">
        <ele>1</ele>
        <time>2012-11-11T11:52:29Z</time>
      </trkpt>
      <trkpt lat="47.6418" lon="-2.10867">
        <ele>3</ele>
        <time>2012-11-11T11:52:09Z</time>
      </trkpt>
      <trkpt lat="47.64174" lon="-2.10842">
        <ele>3</ele>
        <time>2012-11-11T11:51:49Z</time>
      </trkpt>
      <trkpt lat="47.63916" lon="-2.10588">
        <ele>1</ele>
        <time>2012-11-11T11:51:29Z</time>
      </trkpt>
      <trkpt lat="47.63879" lon="-2.1057">
        <ele>1</ele>
        <time>2012-11-11T11:51:09Z</time>
      </trkpt>
      <trkpt lat="47.63782" lon="-2.10466">
        <ele>3</ele>
        <time>2012-11-11T11:50:49Z</time>
      </trkpt>
      <trkpt lat="47.6374" lon="-2.10476">
        <ele>3.9</ele>
        <time>2012-11-11T11:50:29Z</time>
      </trkpt>
      <trkpt lat="47.63707" lon="-2.10507">
        <ele>4</ele>
        <time>2012-11-11T11:50:09Z</time>
      </trkpt>
      <trkpt lat="47.63648" lon="-2.10537">
        <ele>4</ele>
        <time>2012-11-11T11:49:49Z</time>
      </trkpt>
      <trkpt lat="47.63632" lon="-2.1043">
        <ele>3</ele>
        <time>2012-11-11T11:49:29Z</time>
      </trkpt>
      <trkpt lat="47.63615" lon="-2.10401">
        <ele>7</ele>
        <time>2012-11-11T11:49:09Z</time>
      </trkpt>
      <trkpt lat="47.63559" lon="-2.10389">
        <ele>7</ele>
        <time>2012-11-11T11:48:49Z</time>
      </trkpt>
      <trkpt lat="47.63477" lon="-2.10358">
        <ele>5</ele>
        <time>2012-11-11T11:48:29Z</time>
      </trkpt>
      <trkpt lat="47.63525" lon="-2.10208">
        <ele>4</ele>
        <time>2012-11-11T11:48:09Z</time>
      </trkpt>
      <trkpt lat="47.6356" lon="-2.10198">
        <ele>2</ele>
        <time>2012-11-11T11:47:49Z</time>
      </trkpt>
      <trkpt lat="47.63564" lon="-2.10094">
        <ele>3</ele>
        <time>2012-11-11T11:47:29Z</time>
      </trkpt>
      <trkpt lat="47.63763" lon="-2.09462">
        <ele>3</ele>
        <time>2012-11-11T11:47:09Z</time>
      </trkpt>
      <trkpt lat="47.63837" lon="-2.09357">
        <ele>3</ele>
        <time>2012-11-11T11:46:49Z</time>
      </trkpt>
      <trkpt lat="47.63958" lon="-2.09275">
        <ele>4</ele>
        <time>2012-11-11T11:46:29Z</time>
      </trkpt>
      <trkpt lat="47.641" lon="-2.09227">
        <ele>4</ele>
        <time>2012-11-11T11:46:09Z</time>
      </trkpt>
      <trkpt lat="47.64325" lon="-2.09261">
        <ele>4</ele>
        <time>2012-11-11T11:45:49Z</time>
      </trkpt>
      <trkpt lat="47.64442" lon="-2.09083">
        <ele>6</ele>
        <time>2012-11-11T11:45:29Z</time>
      </trkpt>
      <trkpt lat="47.64508" lon="-2.09009">
        <ele>5</ele>
        <time>2012-11-11T11:45:09Z</time>
      </trkpt>
      <trkpt lat="47.64848" lon="-2.08775">
        <ele>2</ele>
        <time>2012-11-11T11:44:49Z</time>
      </trkpt>
      <trkpt lat="47.64899" lon="-2.0871">
        <ele>3</ele>
        <time>2012-11-11T11:44:29Z</time>
      </trkpt>
      <trkpt lat="47.64867" lon="-2.08581">
        <ele>8</ele>
        <time>2012-11-11T11:44:09Z</time>
      </trkpt>
      <trkpt lat="47.64964" lon="-2.08561">
        <ele>8</ele>
        <time>2012-11-11T11:43:49Z</time>
      </trkpt>
      <trkpt lat="47.65056" lon="-2.08494">
        <ele>12</ele>
        <time>2012-11-11T00:14:35Z</time>
      </trkpt>
      <trkpt lat="47.65058" lon="-2.08467">
        <ele>12</ele>
        <time>2012-11-11T00:14:15Z</time>
      </trkpt>
      <trkpt lat="47.65107" lon="-2.08401">
        <ele>15</ele>
        <time>2012-11-11T00:13:55Z</time>
      </trkpt>
      <trkpt lat="47.6503" lon="-2.08187">
        <ele>3</ele>
        <time>2012-11-11T00:13:35Z</time>
      </trkpt>
      <trkpt lat="47.65046" lon="-2.08164">
        <ele>12</ele>
        <time>2012-11-11T00:13:15Z</time>
      </trkpt>
      <trkpt lat="47.65069" lon="-2.07926">
        <ele>8</ele>
        <time>2012-11-11T00:12:55Z</time>
      </trkpt>
      <trkpt lat="47.65088" lon="-2.07829">
        <ele>7</ele>
        <time>2012-11-11T00:12:35Z</time>
      </trkpt>
      <trkpt lat="47.65139" lon="-2.07662">
        <ele>14</ele>
        <time>2012-11-11T00:12:15Z</time>
      </trkpt>
      <trkpt lat="47.65204" lon="-2.07521">
        <ele>9</ele>
        <time>2012-11-11T00:11:55Z</time>
      </trkpt>
      <trkpt lat="47.65218" lon="-2.07459">
        <ele>16</ele>
        <time>2012-11-11T00:11:35Z</time>
      </trkpt>
      <trkpt lat="47.65217" lon="-2.07399">
        <ele>11</ele>
        <time>2012-11-11T00:11:15Z</time>
      </trkpt>
      <trkpt lat="47.65197" lon="-2.07307">
        <ele>3</ele>
        <time>2012-11-11T00:10:55Z</time>
      </trkpt>
      <trkpt lat="47.6508" lon="-2.06778">
        <ele>2</ele>
        <time>2012-11-11T00:10:35Z</time>
      </trkpt>
      <trkpt lat="47.65077" lon="-2.06743">
        <ele>2</ele>
        <time>2012-11-11T00:10:15Z</time>
      </trkpt>
      <trkpt lat="47.65086" lon="-2.06635">
        <ele>3</ele>
        <time>2012-11-11T00:09:55Z</time>
      </trkpt>
      <trkpt lat="47.65524" lon="-2.05534">
        <ele>5</ele>
        <time>2012-11-11T00:09:35Z</time>
      </trkpt>
      <trkpt lat="47.65542" lon="-2.05515">
        <ele>6</ele>
        <time>2012-11-11T00:09:15Z</time>
      </trkpt>
      <trkpt lat="47.65666" lon="-2.05558">
        <ele>6</ele>
        <time>2012-11-11T00:08:55Z</time>
      </trkpt>
      <trkpt lat="47.65682" lon="-2.05495">
        <ele>8</ele>
        <time>2012-11-11T00:08:35Z</time>
      </trkpt>
      <trkpt lat="47.65754" lon="-2.05507">
        <ele>12</ele>
        <time>2012-11-11T00:08:15Z</time>
      </trkpt>
      <trkpt lat="47.65781" lon="-2.05494">
        <ele>12</ele>
        <time>2012-11-11T00:07:55Z</time>
      </trkpt>
      <trkpt lat="47.65886" lon="-2.05262">
        <ele>31</ele>
        <time>2012-11-11T00:07:35Z</time>
      </trkpt>
      <trkpt lat="47.6595" lon="-2.05229">
        <ele>31</ele>
        <time>2012-11-11T00:07:15Z</time>
      </trkpt>
      <trkpt lat="47.65979" lon="-2.05268">
        <ele>48</ele>
        <time>2012-11-11T00:06:55Z</time>
      </trkpt>
      <trkpt lat="47.66016" lon="-2.0536">
        <ele>57</ele>
        <time>2012-11-11T00:06:35Z</time>
      </trkpt>
      <trkpt lat="47.65999" lon="-2.05382">
        <ele>58</ele>
        <time>2012-11-11T00:06:15Z</time>
      </trkpt>
      <trkpt lat="47.65979" lon="-2.05435">
        <ele>58</ele>
        <time>2012-11-11T00:05:55Z</time>
      </trkpt>
      <trkpt lat="47.66024" lon="-2.05579">
        <ele>58</ele>
        <time>2012-11-11T00:05:35Z</time>
      </trkpt>
      <trkpt lat="47.65897" lon="-2.05745">
        <ele>42</ele>
        <time>2012-11-11T00:05:15Z</time>
      </trkpt>
      <trkpt lat="47.65916" lon="-2.05815">
        <ele>45</ele>
        <time>2012-11-11T00:04:55Z</time>
      </trkpt>
      <trkpt lat="47.65898" lon="-2.05947">
        <ele>48</ele>
        <time>2012-11-11T00:04:35Z</time>
      </trkpt>
      <trkpt lat="47.65903" lon="-2.06056">
        <ele>53</ele>
        <time>2012-11-11T00:04:15Z</time>
      </trkpt>
      <trkpt lat="47.65922" lon="-2.06124">
        <ele>53</ele>
        <time>2012-11-11T00:03:55Z</time>
      </trkpt>
      <trkpt lat="47.66089" lon="-2.0606">
        <ele>62</ele>
        <time>2012-11-11T00:03:35Z</time>
      </trkpt>
      <trkpt lat="47.66101" lon="-2.05893">
        <ele>61</ele>
        <time>2012-11-11T00:03:15Z</time>
      </trkpt>
      <trkpt lat="47.66157" lon="-2.05896">
        <ele>54</ele>
        <time>2012-11-11T00:02:55Z</time>
      </trkpt>
      <trkpt lat="47.66155" lon="-2.06019">
        <ele>54</ele>
        <time>2012-11-11T00:02:35Z</time>
      </trkpt>
      <trkpt lat="47.66178" lon="-2.06045">
        <ele>52</ele>
        <time>2012-11-11T00:02:15Z</time>
      </trkpt>
      <trkpt lat="47.66249" lon="-2.05655">
        <ele>34</ele>
        <time>2012-11-11T00:01:55Z</time>
      </trkpt>
      <trkpt lat="47.66293" lon="-2.05657">
        <ele>27</ele>
        <time>2012-11-11T00:01:35Z</time>
      </trkpt>
      <trkpt lat="47.66324" lon="-2.05651">
        <ele>27</ele>
        <time>2012-11-11T00:01:15Z</time>
      </trkpt>
      <trkpt lat="47.66409" lon="-2.05661">
        <ele>23</ele>
        <time>2012-11-11T00:00:55Z</time>
      </trkpt>
      <trkpt lat="47.66501" lon="-2.05617">
        <ele>16</ele>
        <time>2012-11-11T00:00:35Z</time>
      </trkpt>
      <trkpt lat="47.66588" lon="-2.0554">
        <ele>8</ele>
        <time>2012-11-11T00:00:15Z</time>
      </trkpt>
      <trkpt lat="47.66539" lon="-2.05404">
        <ele>12</ele>
        <time>2012-11-10T23:59:55Z</time>
      </trkpt>
      <trkpt lat="47.66281" lon="-2.05205">
        <ele>17</ele>
        <time>2012-11-10T23:59:35Z</time>
      </trkpt>
      <trkpt lat="47.66159" lon="-2.05029">
        <ele>7</ele>
        <time>2012-11-10T23:59:15Z</time>
      </trkpt>
      <trkpt lat="47.66224" lon="-2.05013">
        <ele>4</ele>
        <time>2012-11-10T23:58:55Z</time>
      </trkpt>
      <trkpt lat="47.66356" lon="-2.04861">
        <ele>5</ele>
        <time>2012-11-10T23:58:35Z</time>
      </trkpt>
      <trkpt lat="47.66444" lon="-2.0471">
        <ele>4</ele>
        <time>2012-11-10T23:58:15Z</time>
      </trkpt>
      <trkpt lat="47.66574" lon="-2.04358">
        <ele>3</ele>
        <time>2012-11-10T23:57:55Z</time>
      </trkpt>
      <trkpt lat="47.66641" lon="-2.04263">
        <ele>2</ele>
        <time>2012-11-10T23:57:35Z</time>
      </trkpt>
      <trkpt lat="47.66704" lon="-2.04131">
        <ele>3</ele>
        <time>2012-11-10T23:57:15Z</time>
      </trkpt>
      <trkpt lat="47.66743" lon="-2.04082">
        <ele>4</ele>
        <time>2012-11-10T23:56:55Z</time>
      </trkpt>
      <trkpt lat="47.66954" lon="-2.03947">
        <ele>2</ele>
        <time>2012-11-10T23:56:35Z</time>
      </trkpt>
      <trkpt lat="47.67063" lon="-2.0387">
        <ele>2.7</ele>
        <time>2012-11-10T23:56:15Z</time>
      </trkpt>
      <trkpt lat="47.67151" lon="-2.0376">
        <ele>3</ele>
        <time>2012-11-10T23:55:55Z</time>
      </trkpt>
      <trkpt lat="47.67189" lon="-2.03633">
        <ele>4</ele>
        <time>2012-11-10T23:55:35Z</time>
      </trkpt>
      <trkpt lat="47.67228" lon="-2.03544">
        <ele>3</ele>
        <time>2012-11-10T23:55:15Z</time>
      </trkpt>
      <trkpt lat="47.67249" lon="-2.03552">
        <ele>3</ele>
        <time>2012-11-10T23:54:55Z</time>
      </trkpt>
      <trkpt lat="47.67268" lon="-2.03529">
        <ele>3</ele>
        <time>2012-11-10T23:54:35Z</time>
      </trkpt>
      <trkpt lat="47.67301" lon="-2.03254">
        <ele>5</ele>
        <time>2012-11-10T23:54:15Z</time>
      </trkpt>
      <trkpt lat="47.67349" lon="-2.03062">
        <ele>7</ele>
        <time>2012-11-10T23:53:55Z</time>
      </trkpt>
      <trkpt lat="47.67363" lon="-2.03045">
        <ele>7</ele>
        <time>2012-11-10T23:53:35Z</time>
      </trkpt>
      <trkpt lat="47.67422" lon="-2.03037">
        <ele>7</ele>
        <time>2012-11-10T23:53:15Z</time>
      </trkpt>
      <trkpt lat="47.67423" lon="-2.02868">
        <ele>4</ele>
        <time>2012-11-10T23:52:55Z</time>
      </trkpt>
      <trkpt lat="47.67445" lon="-2.02713">
        <ele>5</ele>
        <time>2012-11-10T23:52:35Z</time>
      </trkpt>
      <trkpt lat="47.67522" lon="-2.02286">
        <ele>6</ele>
        <time>2012-11-10T23:52:15Z</time>
      </trkpt>
      <trkpt lat="47.67477" lon="-2.0221">
        <ele>6</ele>
        <time>2012-11-10T23:51:55Z</time>
      </trkpt>
      <trkpt lat="47.67561" lon="-2.01909">
        <ele>7</ele>
        <time>2012-11-10T23:51:35Z</time>
      </trkpt>
      <trkpt lat="47.67716" lon="-2.01905">
        <ele>6</ele>
        <time>2012-11-10T23:51:15Z</time>
      </trkpt>
      <trkpt lat="47.67709" lon="-2.01504">
        <ele>6</ele>
        <time>2012-11-10T23:50:55Z</time>
      </trkpt>
      <trkpt lat="47.67716" lon="-2.01441">
        <ele>5</ele>
        <time>2012-11-10T23:50:35Z</time>
      </trkpt>
      <trkpt lat="47.67795" lon="-2.01314">
        <ele>9</ele>
        <time>2012-11-10T23:50:15Z</time>
      </trkpt>
      <trkpt lat="47.67801" lon="-2.01257">
        <ele>7</ele>
        <time>2012-11-10T23:49:55Z</time>
      </trkpt>
      <trkpt lat="47.67842" lon="-2.01261">
        <ele>7</ele>
        <time>2012-11-10T23:49:35Z</time>
      </trkpt>
      <trkpt lat="47.67863" lon="-2.01272">
        <ele>7</ele>
        <time>2012-11-10T23:49:15Z</time>
      </trkpt>
      <trkpt lat="47.67886" lon="-2.01243">
        <ele>6</ele>
        <time>2012-11-10T23:48:55Z</time>
      </trkpt>
      <trkpt lat="47.67886" lon="-2.01222">
        <ele>6</ele>
        <time>2012-11-10T23:48:35Z</time>
      </trkpt>
      <trkpt lat="47.67955" lon="-2.00934">
        <ele>6</ele>
        <time>2012-11-10T23:48:15Z</time>
      </trkpt>
      <trkpt lat="47.67964" lon="-2.00932">
        <ele>13</ele>
        <time>2012-11-10T23:47:55Z</time>
      </trkpt>
      <trkpt lat="47.6796" lon="-2.00881">
        <ele>13</ele>
        <time>2012-11-10T23:47:35Z</time>
      </trkpt>
      <trkpt lat="47.6801" lon="-2.00357">
        <ele>8</ele>
        <time>2012-11-10T23:47:15Z</time>
      </trkpt>
      <trkpt lat="47.68183" lon="-2.00361">
        <ele>13</ele>
        <time>2012-11-10T23:46:55Z</time>
      </trkpt>
      <trkpt lat="47.6824" lon="-2.0035">
        <ele>15</ele>
        <time>2012-11-10T23:46:35Z</time>
      </trkpt>
      <trkpt lat="47.68329" lon="-2.0039">
        <ele>22</ele>
        <time>2012-11-10T23:46:15Z</time>
      </trkpt>
      <trkpt lat="47.68374" lon="-2.00404">
        <ele>22</ele>
        <time>2012-11-10T23:45:55Z</time>
      </trkpt>
      <trkpt lat="47.68446" lon="-2.00404">
        <ele>28</ele>
        <time>2012-11-10T23:45:35Z</time>
      </trkpt>
      <trkpt lat="47.68498" lon="-2.00192">
        <ele>28</ele>
        <time>2012-11-10T23:45:15Z</time>
      </trkpt>
      <trkpt lat="47.68473" lon="-2.00103">
        <ele>26</ele>
        <time>2012-11-10T23:44:55Z</time>
      </trkpt>
      <trkpt lat="47.68481" lon="-2.00022">
        <ele>27</ele>
        <time>2012-11-10T23:44:35Z</time>
      </trkpt>
      <trkpt lat="47.6847" lon="-1.99883">
        <ele>27</ele>
        <time>2012-11-10T23:44:15Z</time>
      </trkpt>
      <trkpt lat="47.68458" lon="-1.99818">
        <ele>18</ele>
        <time>2012-11-10T23:43:55Z</time>
      </trkpt>
      <trkpt lat="47.68421" lon="-1.99753">
        <ele>19</ele>
        <time>2012-11-10T23:43:35Z</time>
      </trkpt>
      <trkpt lat="47.6842" lon="-1.99716">
        <ele>19</ele>
        <time>2012-11-10T23:43:15Z</time>
      </trkpt>
      <trkpt lat="47.68379" lon="-1.99679">
        <ele>22</ele>
        <time>2012-11-10T23:42:55Z</time>
      </trkpt>
      <trkpt lat="47.68379" lon="-1.99656">
        <ele>22</ele>
        <time>2012-11-10T23:42:35Z</time>
      </trkpt>
      <trkpt lat="47.68345" lon="-1.99525">
        <ele>13</ele>
        <time>2012-11-10T23:42:15Z</time>
      </trkpt>
      <trkpt lat="47.68357" lon="-1.99404">
        <ele>14</ele>
        <time>2012-11-10T23:41:55Z</time>
      </trkpt>
      <trkpt lat="47.68379" lon="-1.99307">
        <ele>25</ele>
        <time>2012-11-10T23:41:35Z</time>
      </trkpt>
      <trkpt lat="47.68379" lon="-1.99272">
        <ele>20</ele>
        <time>2012-11-10T23:41:15Z</time>
      </trkpt>
      <trkpt lat="47.68473" lon="-1.99237">
        <ele>24</ele>
        <time>2012-11-10T23:40:55Z</time>
      </trkpt>
      <trkpt lat="47.68636" lon="-1.99186">
        <ele>17</ele>
        <time>2012-11-10T23:40:35Z</time>
      </trkpt>
      <trkpt lat="47.68629" lon="-1.99017">
        <ele>11</ele>
        <time>2012-11-10T23:40:15Z</time>
      </trkpt>
      <trkpt lat="47.68659" lon="-1.98951">
        <ele>8</ele>
        <time>2012-11-10T23:39:55Z</time>
      </trkpt>
      <trkpt lat="47.68652" lon="-1.98871">
        <ele>5</ele>
        <time>2012-11-10T23:39:35Z</time>
      </trkpt>
      <trkpt lat="47.68825" lon="-1.98873">
        <ele>17</ele>
        <time>2012-11-10T23:39:15Z</time>
      </trkpt>
      <trkpt lat="47.6896" lon="-1.98916">
        <ele>33</ele>
        <time>2012-11-10T23:38:55Z</time>
      </trkpt>
      <trkpt lat="47.69065" lon="-1.98899">
        <ele>41</ele>
        <time>2012-11-10T23:38:35Z</time>
      </trkpt>
      <trkpt lat="47.69081" lon="-1.98766">
        <ele>30</ele>
        <time>2012-11-10T23:38:15Z</time>
      </trkpt>
      <trkpt lat="47.6913" lon="-1.98661">
        <ele>28</ele>
        <time>2012-11-10T23:37:55Z</time>
      </trkpt>
      <trkpt lat="47.69275" lon="-1.98549">
        <ele>18</ele>
        <time>2012-11-10T23:37:35Z</time>
      </trkpt>
      <trkpt lat="47.69305" lon="-1.98537">
        <ele>5</ele>
        <time>2012-11-10T23:37:15Z</time>
      </trkpt>
      <trkpt lat="47.69437" lon="-1.98584">
        <ele>7</ele>
        <time>2012-11-10T23:36:55Z</time>
      </trkpt>
      <trkpt lat="47.69479" lon="-1.98581">
        <ele>5</ele>
        <time>2012-11-10T23:36:35Z</time>
      </trkpt>
      <trkpt lat="47.69813" lon="-1.98397">
        <ele>7</ele>
        <time>2012-11-10T23:36:15Z</time>
      </trkpt>
      <trkpt lat="47.69833" lon="-1.98373">
        <ele>3</ele>
        <time>2012-11-10T23:35:55Z</time>
      </trkpt>
      <trkpt lat="47.6985" lon="-1.9842">
        <ele>7</ele>
        <time>2012-11-10T23:35:35Z</time>
      </trkpt>
      <trkpt lat="47.69937" lon="-1.98347">
        <ele>7</ele>
        <time>2012-11-10T23:35:15Z</time>
      </trkpt>
      <trkpt lat="47.69983" lon="-1.98332">
        <ele>14</ele>
        <time>2012-11-10T23:34:55Z</time>
      </trkpt>
      <trkpt lat="47.70009" lon="-1.983">
        <ele>14</ele>
        <time>2012-11-10T23:34:35Z</time>
      </trkpt>
      <trkpt lat="47.70077" lon="-1.98241">
        <ele>6</ele>
        <time>2012-11-10T23:34:15Z</time>
      </trkpt>
      <trkpt lat="47.70125" lon="-1.98228">
        <ele>6</ele>
        <time>2012-11-10T23:33:55Z</time>
      </trkpt>
      <trkpt lat="47.70202" lon="-1.98254">
        <ele>9</ele>
        <time>2012-11-10T23:33:35Z</time>
      </trkpt>
      <trkpt lat="47.70233" lon="-1.98277">
        <ele>8</ele>
        <time>2012-11-10T23:33:15Z</time>
      </trkpt>
      <trkpt lat="47.70248" lon="-1.98279">
        <ele>8</ele>
        <time>2012-11-10T23:32:55Z</time>
      </trkpt>
      <trkpt lat="47.70337" lon="-1.98237">
        <ele>7</ele>
        <time>2012-11-10T23:32:35Z</time>
      </trkpt>
      <trkpt lat="47.7038" lon="-1.98244">
        <ele>5</ele>
        <time>2012-11-10T23:32:15Z</time>
      </trkpt>
      <trkpt lat="47.70454" lon="-1.98285">
        <ele>5</ele>
        <time>2012-11-10T23:31:55Z</time>
      </trkpt>
      <trkpt lat="47.70517" lon="-1.9828">
        <ele>6</ele>
        <time>2012-11-10T23:31:35Z</time>
      </trkpt>
      <trkpt lat="47.70584" lon="-1.98302">
        <ele>11</ele>
        <time>2012-11-10T23:31:15Z</time>
      </trkpt>
      <trkpt lat="47.70588" lon="-1.98321">
        <ele>11</ele>
        <time>2012-11-10T23:30:55Z</time>
      </trkpt>
      <trkpt lat="47.70589" lon="-1.98443">
        <ele>13</ele>
        <time>2012-11-10T23:30:35Z</time>
      </trkpt>
      <trkpt lat="47.70758" lon="-1.98484">
        <ele>6</ele>
        <time>2012-11-10T23:30:15Z</time>
      </trkpt>
      <trkpt lat="47.70776" lon="-1.98496">
        <ele>6</ele>
        <time>2012-11-10T23:29:55Z</time>
      </trkpt>
      <trkpt lat="47.70801" lon="-1.98582">
        <ele>3</ele>
        <time>2012-11-10T23:29:35Z</time>
      </trkpt>
      <trkpt lat="47.70823" lon="-1.9873">
        <ele>4</ele>
        <time>2012-11-10T23:29:15Z</time>
      </trkpt>
      <trkpt lat="47.70829" lon="-1.98804">
        <ele>8</ele>
        <time>2012-11-10T23:28:55Z</time>
      </trkpt>
      <trkpt lat="47.70877" lon="-1.98824">
        <ele>5</ele>
        <time>2012-11-10T23:28:35Z</time>
      </trkpt>
      <trkpt lat="47.71008" lon="-1.98959">
        <ele>7</ele>
        <time>2012-11-10T23:28:15Z</time>
      </trkpt>
      <trkpt lat="47.7102" lon="-1.98959">
        <ele>7</ele>
        <time>2012-11-10T23:27:55Z</time>
      </trkpt>
      <trkpt lat="47.71034" lon="-1.98842">
        <ele>5</ele>
        <time>2012-11-10T23:27:35Z</time>
      </trkpt>
      <trkpt lat="47.71057" lon="-1.98735">
        <ele>9</ele>
        <time>2012-11-10T23:27:15Z</time>
      </trkpt>
      <trkpt lat="47.71064" lon="-1.98663">
        <ele>8</ele>
        <time>2012-11-10T23:26:55Z</time>
      </trkpt>
      <trkpt lat="47.7112" lon="-1.98533">
        <ele>4</ele>
        <time>2012-11-10T23:26:35Z</time>
      </trkpt>
      <trkpt lat="47.71148" lon="-1.985">
        <ele>9</ele>
        <time>2012-11-10T23:26:15Z</time>
      </trkpt>
      <trkpt lat="47.71236" lon="-1.98469">
        <ele>10</ele>
        <time>2012-11-10T23:25:55Z</time>
      </trkpt>
      <trkpt lat="47.71286" lon="-1.98389">
        <ele>5</ele>
        <time>2012-11-10T23:25:35Z</time>
      </trkpt>
      <trkpt lat="47.71308" lon="-1.98385">
        <ele>8</ele>
        <time>2012-11-10T23:25:15Z</time>
      </trkpt>
      <trkpt lat="47.71349" lon="-1.9835">
        <ele>5</ele>
        <time>2012-11-10T23:24:55Z</time>
      </trkpt>
      <trkpt lat="47.71363" lon="-1.98376">
        <ele>8</ele>
        <time>2012-11-10T23:24:35Z</time>
      </trkpt>
      <trkpt lat="47.71367" lon="-1.98422">
        <ele>8</ele>
        <time>2012-11-10T23:24:15Z</time>
      </trkpt>
      <trkpt lat="47.71358" lon="-1.98499">
        <ele>14</ele>
        <time>2012-11-10T23:23:55Z</time>
      </trkpt>
      <trkpt lat="47.7136" lon="-1.98543">
        <ele>16</ele>
        <time>2012-11-10T23:23:35Z</time>
      </trkpt>
      <trkpt lat="47.71452" lon="-1.98559">
        <ele>23</ele>
        <time>2012-11-10T23:23:15Z</time>
      </trkpt>
      <trkpt lat="47.71465" lon="-1.98591">
        <ele>29</ele>
        <time>2012-11-10T23:22:55Z</time>
      </trkpt>
      <trkpt lat="47.71462" lon="-1.98696">
        <ele>30</ele>
        <time>2012-11-10T23:22:35Z</time>
      </trkpt>
      <trkpt lat="47.71498" lon="-1.987">
        <ele>30</ele>
        <time>2012-11-10T23:22:15Z</time>
      </trkpt>
      <trkpt lat="47.71526" lon="-1.9872">
        <ele>33</ele>
        <time>2012-11-10T23:21:55Z</time>
      </trkpt>
      <trkpt lat="47.71541" lon="-1.98772">
        <ele>33</ele>
        <time>2012-11-10T23:21:35Z</time>
      </trkpt>
      <trkpt lat="47.71556" lon="-1.98851">
        <ele>43</ele>
        <time>2012-11-10T23:21:15Z</time>
      </trkpt>
      <trkpt lat="47.7157" lon="-1.98873">
        <ele>43</ele>
        <time>2012-11-10T23:20:55Z</time>
      </trkpt>
      <trkpt lat="47.71593" lon="-1.98959">
        <ele>41</ele>
        <time>2012-11-10T23:20:35Z</time>
      </trkpt>
      <trkpt lat="47.71597" lon="-1.99073">
        <ele>41</ele>
        <time>2012-11-10T23:20:15Z</time>
      </trkpt>
      <trkpt lat="47.71612" lon="-1.99135">
        <ele>43</ele>
        <time>2012-11-10T23:19:55Z</time>
      </trkpt>
      <trkpt lat="47.71689" lon="-1.99322">
        <ele>50</ele>
        <time>2012-11-10T23:19:35Z</time>
      </trkpt>
      <trkpt lat="47.71719" lon="-1.99441">
        <ele>49</ele>
        <time>2012-11-10T23:19:15Z</time>
      </trkpt>
      <trkpt lat="47.71707" lon="-1.99588">
        <ele>50</ele>
        <time>2012-11-10T23:18:55Z</time>
      </trkpt>
      <trkpt lat="47.71788" lon="-1.99481">
        <ele>49</ele>
        <time>2012-11-10T23:18:35Z</time>
      </trkpt>
      <trkpt lat="47.71861" lon="-1.99729">
        <ele>44</ele>
        <time>2012-11-10T23:18:15Z</time>
      </trkpt>
      <trkpt lat="47.71894" lon="-1.99971">
        <ele>27</ele>
        <time>2012-11-10T23:17:55Z</time>
      </trkpt>
      <trkpt lat="47.71915" lon="-2.00045">
        <ele>32</ele>
        <time>2012-11-10T23:17:35Z</time>
      </trkpt>
      <trkpt lat="47.71969" lon="-2.00174">
        <ele>24</ele>
        <time>2012-11-10T23:17:15Z</time>
      </trkpt>
      <trkpt lat="47.72007" lon="-2.00342">
        <ele>26</ele>
        <time>2012-11-10T23:16:55Z</time>
      </trkpt>
      <trkpt lat="47.72029" lon="-2.00485">
        <ele>22</ele>
        <time>2012-11-10T23:16:35Z</time>
      </trkpt>
      <trkpt lat="47.72087" lon="-2.00681">
        <ele>22</ele>
        <time>2012-11-10T23:16:15Z</time>
      </trkpt>
      <trkpt lat="47.72126" lon="-2.01114">
        <ele>17</ele>
        <time>2012-11-10T23:15:55Z</time>
      </trkpt>
      <trkpt lat="47.72109" lon="-2.01284">
        <ele>29</ele>
        <time>2012-11-10T23:15:35Z</time>
      </trkpt>
      <trkpt lat="47.7218" lon="-2.01659">
        <ele>28</ele>
        <time>2012-11-10T23:15:15Z</time>
      </trkpt>
      <trkpt lat="47.72395" lon="-2.01675">
        <ele>32</ele>
        <time>2012-11-10T23:14:55Z</time>
      </trkpt>
      <trkpt lat="47.72388" lon="-2.01936">
        <ele>32</ele>
        <time>2012-11-10T23:14:35Z</time>
      </trkpt>
      <trkpt lat="47.72359" lon="-2.02069">
        <ele>23</ele>
        <time>2012-11-10T23:14:15Z</time>
      </trkpt>
      <trkpt lat="47.72351" lon="-2.02182">
        <ele>22</ele>
        <time>2012-11-10T23:13:55Z</time>
      </trkpt>
      <trkpt lat="47.72368" lon="-2.02376">
        <ele>22</ele>
        <time>2012-11-10T23:13:35Z</time>
      </trkpt>
      <trkpt lat="47.72366" lon="-2.02482">
        <ele>24</ele>
        <time>2012-11-10T23:13:15Z</time>
      </trkpt>
      <trkpt lat="47.72415" lon="-2.02718">
        <ele>26</ele>
        <time>2012-11-10T23:12:55Z</time>
      </trkpt>
      <trkpt lat="47.72429" lon="-2.02737">
        <ele>26</ele>
        <time>2012-11-10T23:12:35Z</time>
      </trkpt>
      <trkpt lat="47.72511" lon="-2.02739">
        <ele>28</ele>
        <time>2012-11-10T23:12:15Z</time>
      </trkpt>
      <trkpt lat="47.72525" lon="-2.02761">
        <ele>28</ele>
        <time>2012-11-10T23:11:55Z</time>
      </trkpt>
      <trkpt lat="47.72595" lon="-2.02725">
        <ele>32</ele>
        <time>2012-11-10T23:11:35Z</time>
      </trkpt>
      <trkpt lat="47.72704" lon="-2.02728">
        <ele>41</ele>
        <time>2012-11-10T23:11:15Z</time>
      </trkpt>
      <trkpt lat="47.7275" lon="-2.02722">
        <ele>43</ele>
        <time>2012-11-10T23:10:55Z</time>
      </trkpt>
      <trkpt lat="47.72823" lon="-2.02673">
        <ele>41</ele>
        <time>2012-11-10T23:10:35Z</time>
      </trkpt>
      <trkpt lat="47.72871" lon="-2.02707">
        <ele>41</ele>
        <time>2012-11-10T23:10:15Z</time>
      </trkpt>
      <trkpt lat="47.729" lon="-2.02707">
        <ele>44</ele>
        <time>2012-11-10T23:09:55Z</time>
      </trkpt>
      <trkpt lat="47.73009" lon="-2.03015">
        <ele>61</ele>
        <time>2012-11-10T23:09:35Z</time>
      </trkpt>
      <trkpt lat="47.73101" lon="-2.03054">
        <ele>65</ele>
        <time>2012-11-10T23:09:15Z</time>
      </trkpt>
      <trkpt lat="47.73222" lon="-2.0306">
        <ele>72</ele>
        <time>2012-11-10T23:08:55Z</time>
      </trkpt>
      <trkpt lat="47.7325" lon="-2.03095">
        <ele>72</ele>
        <time>2012-11-10T23:08:35Z</time>
      </trkpt>
      <trkpt lat="47.73276" lon="-2.03139">
        <ele>71</ele>
        <time>2012-11-10T23:08:15Z</time>
      </trkpt>
      <trkpt lat="47.73314" lon="-2.03148">
        <ele>71</ele>
        <time>2012-11-10T23:07:55Z</time>
      </trkpt>
      <trkpt lat="47.73334" lon="-2.03129">
        <ele>71</ele>
        <time>2012-11-10T23:07:35Z</time>
      </trkpt>
      <trkpt lat="47.73378" lon="-2.02927">
        <ele>73</ele>
        <time>2012-11-10T23:07:15Z</time>
      </trkpt>
      <trkpt lat="47.73418" lon="-2.02922">
        <ele>73</ele>
        <time>2012-11-10T23:06:55Z</time>
      </trkpt>
      <trkpt lat="47.735" lon="-2.028">
        <ele>73</ele>
        <time>2012-11-10T23:06:35Z</time>
      </trkpt>
      <trkpt lat="47.73626" lon="-2.02684">
        <ele>72</ele>
        <time>2012-11-10T23:06:15Z</time>
      </trkpt>
      <trkpt lat="47.73644" lon="-2.02688">
        <ele>72</ele>
        <time>2012-11-10T23:05:55Z</time>
      </trkpt>
      <trkpt lat="47.74169" lon="-2.03127">
        <ele>85</ele>
        <time>2012-11-10T23:05:35Z</time>
      </trkpt>
      <trkpt lat="47.74177" lon="-2.02991">
        <ele>85</ele>
        <time>2012-11-10T23:05:15Z</time>
      </trkpt>
      <trkpt lat="47.74184" lon="-2.02682">
        <ele>85</ele>
        <time>2012-11-10T23:04:55Z</time>
      </trkpt>
      <trkpt lat="47.74108" lon="-2.02457">
        <ele>84</ele>
        <time>2012-11-10T23:04:35Z</time>
      </trkpt>
      <trkpt lat="47.73989" lon="-2.01935">
        <ele>79</ele>
        <time>2012-11-10T23:04:15Z</time>
      </trkpt>
      <trkpt lat="47.73964" lon="-2.01856">
        <ele>78</ele>
        <time>2012-11-10T23:03:55Z</time>
      </trkpt>
      <trkpt lat="47.73935" lon="-2.01788">
        <ele>83</ele>
        <time>2012-11-10T23:03:35Z</time>
      </trkpt>
      <trkpt lat="47.73858" lon="-2.01557">
        <ele>81</ele>
        <time>2012-11-10T23:03:15Z</time>
      </trkpt>
      <trkpt lat="47.73816" lon="-2.01445">
        <ele>81</ele>
        <time>2012-11-10T23:02:55Z</time>
      </trkpt>
      <trkpt lat="47.73759" lon="-2.01182">
        <ele>83</ele>
        <time>2012-11-10T23:02:35Z</time>
      </trkpt>
      <trkpt lat="47.73749" lon="-2.01104">
        <ele>82</ele>
        <time>2012-11-10T23:02:15Z</time>
      </trkpt>
      <trkpt lat="47.73732" lon="-2.01043">
        <ele>82</ele>
        <time>2012-11-10T23:01:55Z</time>
      </trkpt>
      <trkpt lat="47.73659" lon="-2.00875">
        <ele>79</ele>
        <time>2012-11-10T23:01:35Z</time>
      </trkpt>
      <trkpt lat="47.73612" lon="-2.00738">
        <ele>73</ele>
        <time>2012-11-10T23:01:15Z</time>
      </trkpt>
      <trkpt lat="47.73447" lon="-2.00458">
        <ele>68</ele>
        <time>2012-11-10T23:00:55Z</time>
      </trkpt>
      <trkpt lat="47.73398" lon="-2.00331">
        <ele>72</ele>
        <time>2012-11-10T23:00:35Z</time>
      </trkpt>
      <trkpt lat="47.73294" lon="-2.00123">
        <ele>46</ele>
        <time>2012-11-10T23:00:15Z</time>
      </trkpt>
      <trkpt lat="47.73295" lon="-1.99915">
        <ele>32</ele>
        <time>2012-11-10T22:59:55Z</time>
      </trkpt>
      <trkpt lat="47.73438" lon="-1.99893">
        <ele>25</ele>
        <time>2012-11-10T22:59:35Z</time>
      </trkpt>
      <trkpt lat="47.73603" lon="-1.99812">
        <ele>7</ele>
        <time>2012-11-10T22:59:15Z</time>
      </trkpt>
      <trkpt lat="47.73643" lon="-1.99759">
        <ele>10</ele>
        <time>2012-11-10T22:58:55Z</time>
      </trkpt>
      <trkpt lat="47.73893" lon="-1.9987">
        <ele>24</ele>
        <time>2012-11-10T22:58:35Z</time>
      </trkpt>
      <trkpt lat="47.73927" lon="-1.99837">
        <ele>24</ele>
        <time>2012-11-10T22:58:15Z</time>
      </trkpt>
      <trkpt lat="47.74061" lon="-1.99802">
        <ele>39</ele>
        <time>2012-11-10T22:57:55Z</time>
      </trkpt>
      <trkpt lat="47.74189" lon="-1.99785">
        <ele>53</ele>
        <time>2012-11-10T22:57:35Z</time>
      </trkpt>
      <trkpt lat="47.74288" lon="-1.99761">
        <ele>61</ele>
        <time>2012-11-10T22:57:15Z</time>
      </trkpt>
      <trkpt lat="47.74391" lon="-1.9975">
        <ele>80</ele>
        <time>2012-11-10T22:56:55Z</time>
      </trkpt>
      <trkpt lat="47.74407" lon="-1.99765">
        <ele>80</ele>
        <time>2012-11-10T22:56:35Z</time>
      </trkpt>
      <trkpt lat="47.74535" lon="-2.00115">
        <ele>63</ele>
        <time>2012-11-10T22:56:15Z</time>
      </trkpt>
      <trkpt lat="47.74548" lon="-2.00241">
        <ele>55</ele>
        <time>2012-11-10T22:55:55Z</time>
      </trkpt>
      <trkpt lat="47.74639" lon="-2.00466">
        <ele>41</ele>
        <time>2012-11-10T22:55:35Z</time>
      </trkpt>
      <trkpt lat="47.74652" lon="-2.00462">
        <ele>41</ele>
        <time>2012-11-10T22:55:15Z</time>
      </trkpt>
      <trkpt lat="47.74729" lon="-2.00356">
        <ele>44</ele>
        <time>2012-11-10T22:54:55Z</time>
      </trkpt>
      <trkpt lat="47.74792" lon="-2.00209">
        <ele>52</ele>
        <time>2012-11-10T22:54:35Z</time>
      </trkpt>
      <trkpt lat="47.74875" lon="-2.00133">
        <ele>51</ele>
        <time>2012-11-10T22:54:15Z</time>
      </trkpt>
      <trkpt lat="47.75022" lon="-1.99965">
        <ele>55</ele>
        <time>2012-11-10T22:53:55Z</time>
      </trkpt>
      <trkpt lat="47.75081" lon="-1.99909">
        <ele>53</ele>
        <time>2012-11-10T22:53:35Z</time>
      </trkpt>
      <trkpt lat="47.75032" lon="-2.00151">
        <ele>46</ele>
        <time>2012-11-10T22:53:15Z</time>
      </trkpt>
      <trkpt lat="47.74997" lon="-2.00378">
        <ele>37</ele>
        <time>2012-11-10T22:52:55Z</time>
      </trkpt>
      <trkpt lat="47.74991" lon="-2.00473">
        <ele>32</ele>
        <time>2012-11-10T22:52:35Z</time>
      </trkpt>
      <trkpt lat="47.75005" lon="-2.00539">
        <ele>32</ele>
        <time>2012-11-10T22:52:15Z</time>
      </trkpt>
      <trkpt lat="47.75136" lon="-2.00551">
        <ele>22</ele>
        <time>2012-11-10T22:51:55Z</time>
      </trkpt>
      <trkpt lat="47.75151" lon="-2.00537">
        <ele>28</ele>
        <time>2012-11-10T22:51:35Z</time>
      </trkpt>
      <trkpt lat="47.75156" lon="-2.00459">
        <ele>28</ele>
        <time>2012-11-10T22:51:15Z</time>
      </trkpt>
      <trkpt lat="47.75194" lon="-2.00391">
        <ele>33</ele>
        <time>2012-11-10T22:50:55Z</time>
      </trkpt>
      <trkpt lat="47.75204" lon="-2.00391">
        <ele>33</ele>
        <time>2012-11-10T22:50:35Z</time>
      </trkpt>
      <trkpt lat="47.75214" lon="-2.00407">
        <ele>36</ele>
        <time>2012-11-10T22:50:15Z</time>
      </trkpt>
      <trkpt lat="47.75191" lon="-2.00465">
        <ele>28</ele>
        <time>2012-11-10T22:49:55Z</time>
      </trkpt>
      <trkpt lat="47.75225" lon="-2.00643">
        <ele>27</ele>
        <time>2012-11-10T22:49:35Z</time>
      </trkpt>
      <trkpt lat="47.75268" lon="-2.00699">
        <ele>27</ele>
        <time>2012-11-10T22:49:15Z</time>
      </trkpt>
      <trkpt lat="47.75324" lon="-2.00785">
        <ele>30</ele>
        <time>2012-11-10T22:48:55Z</time>
      </trkpt>
      <trkpt lat="47.75356" lon="-2.00818">
        <ele>19</ele>
        <time>2012-11-10T22:48:35Z</time>
      </trkpt>
      <trkpt lat="47.75406" lon="-2.00838">
        <ele>23</ele>
        <time>2012-11-10T22:48:15Z</time>
      </trkpt>
      <trkpt lat="47.75456" lon="-2.00835">
        <ele>23</ele>
        <time>2012-11-10T22:47:55Z</time>
      </trkpt>
      <trkpt lat="47.75683" lon="-2.00779">
        <ele>28</ele>
        <time>2012-11-10T22:47:35Z</time>
      </trkpt>
      <trkpt lat="47.75771" lon="-2.00794">
        <ele>19</ele>
        <time>2012-11-10T22:47:15Z</time>
      </trkpt>
      <trkpt lat="47.75804" lon="-2.00829">
        <ele>22</ele>
        <time>2012-11-10T22:46:55Z</time>
      </trkpt>
      <trkpt lat="47.75822" lon="-2.00839">
        <ele>22</ele>
        <time>2012-11-10T22:46:35Z</time>
      </trkpt>
      <trkpt lat="47.75864" lon="-2.00824">
        <ele>22</ele>
        <time>2012-11-10T22:46:15Z</time>
      </trkpt>
      <trkpt lat="47.75878" lon="-2.00795">
        <ele>20</ele>
        <time>2012-11-10T22:45:55Z</time>
      </trkpt>
      <trkpt lat="47.75887" lon="-2.00418">
        <ele>40</ele>
        <time>2012-11-10T22:45:35Z</time>
      </trkpt>
      <trkpt lat="47.75873" lon="-2.0039">
        <ele>52</ele>
        <time>2012-11-10T22:45:15Z</time>
      </trkpt>
      <trkpt lat="47.75772" lon="-2.00386">
        <ele>53</ele>
        <time>2012-11-10T22:44:55Z</time>
      </trkpt>
      <trkpt lat="47.75761" lon="-2.00375">
        <ele>53</ele>
        <time>2012-11-10T22:44:35Z</time>
      </trkpt>
      <trkpt lat="47.75792" lon="-1.99979">
        <ele>39</ele>
        <time>2012-11-10T22:44:15Z</time>
      </trkpt>
      <trkpt lat="47.75823" lon="-1.99959">
        <ele>39</ele>
        <time>2012-11-10T22:43:55Z</time>
      </trkpt>
      <trkpt lat="47.75846" lon="-1.99924">
        <ele>37</ele>
        <time>2012-11-10T22:43:35Z</time>
      </trkpt>
      <trkpt lat="47.75855" lon="-1.99838">
        <ele>37</ele>
        <time>2012-11-10T22:43:15Z</time>
      </trkpt>
      <trkpt lat="47.75957" lon="-1.9986">
        <ele>33</ele>
        <time>2012-11-10T22:42:55Z</time>
      </trkpt>
      <trkpt lat="47.76019" lon="-1.99803">
        <ele>28</ele>
        <time>2012-11-10T22:42:35Z</time>
      </trkpt>
      <trkpt lat="47.76084" lon="-1.99667">
        <ele>37</ele>
        <time>2012-11-10T22:42:15Z</time>
      </trkpt>
      <trkpt lat="47.7613" lon="-1.9987">
        <ele>27</ele>
        <time>2012-11-10T22:41:55Z</time>
      </trkpt>
      <trkpt lat="47.7622" lon="-1.99856">
        <ele>27</ele>
        <time>2012-11-10T22:41:35Z</time>
      </trkpt>
      <trkpt lat="47.7624" lon="-1.99833">
        <ele>27</ele>
        <time>2012-11-10T22:41:15Z</time>
      </trkpt>
      <trkpt lat="47.76247" lon="-1.99806">
        <ele>27</ele>
        <time>2012-11-10T22:40:55Z</time>
      </trkpt>
      <trkpt lat="47.76219" lon="-1.99572">
        <ele>31</ele>
        <time>2012-11-10T22:40:35Z</time>
      </trkpt>
      <trkpt lat="47.76226" lon="-1.99502">
        <ele>32</ele>
        <time>2012-11-10T22:40:15Z</time>
      </trkpt>
      <trkpt lat="47.76255" lon="-1.99404">
        <ele>34</ele>
        <time>2012-11-10T22:39:55Z</time>
      </trkpt>
      <trkpt lat="47.76271" lon="-1.99385">
        <ele>34</ele>
        <time>2012-11-10T22:39:35Z</time>
      </trkpt>
      <trkpt lat="47.76283" lon="-1.99388">
        <ele>34</ele>
        <time>2012-11-10T22:39:15Z</time>
      </trkpt>
      <trkpt lat="47.76319" lon="-1.99521">
        <ele>43</ele>
        <time>2012-11-10T22:38:55Z</time>
      </trkpt>
      <trkpt lat="47.76347" lon="-1.99551">
        <ele>39</ele>
        <time>2012-11-10T22:38:35Z</time>
      </trkpt>
      <trkpt lat="47.76374" lon="-1.99549">
        <ele>39</ele>
        <time>2012-11-10T22:38:15Z</time>
      </trkpt>
      <trkpt lat="47.76406" lon="-1.9952">
        <ele>45</ele>
        <time>2012-11-10T22:37:55Z</time>
      </trkpt>
      <trkpt lat="47.76471" lon="-1.99498">
        <ele>45</ele>
        <time>2012-11-10T22:37:35Z</time>
      </trkpt>
      <trkpt lat="47.76496" lon="-1.99473">
        <ele>45</ele>
        <time>2012-11-10T22:37:15Z</time>
      </trkpt>
      <trkpt lat="47.76529" lon="-1.9946">
        <ele>45</ele>
        <time>2012-11-10T22:36:55Z</time>
      </trkpt>
      <trkpt lat="47.76573" lon="-1.9948">
        <ele>47</ele>
        <time>2012-11-10T22:36:35Z</time>
      </trkpt>
      <trkpt lat="47.76619" lon="-1.99511">
        <ele>47</ele>
        <time>2012-11-10T22:36:15Z</time>
      </trkpt>
      <trkpt lat="47.76611" lon="-1.99426">
        <ele>62</ele>
        <time>2012-11-10T22:35:55Z</time>
      </trkpt>
      <trkpt lat="47.76592" lon="-1.99363">
        <ele>62</ele>
        <time>2012-11-10T22:35:35Z</time>
      </trkpt>
      <trkpt lat="47.76566" lon="-1.99334">
        <ele>62</ele>
        <time>2012-11-10T22:35:15Z</time>
      </trkpt>
      <trkpt lat="47.76561" lon="-1.99253">
        <ele>63</ele>
        <time>2012-11-10T22:34:55Z</time>
      </trkpt>
      <trkpt lat="47.76525" lon="-1.99163">
        <ele>59</ele>
        <time>2012-11-10T22:34:35Z</time>
      </trkpt>
      <trkpt lat="47.76522" lon="-1.99116">
        <ele>59</ele>
        <time>2012-11-10T22:34:15Z</time>
      </trkpt>
      <trkpt lat="47.76561" lon="-1.98609">
        <ele>53</ele>
        <time>2012-11-10T22:33:55Z</time>
      </trkpt>
      <trkpt lat="47.76463" lon="-1.9859">
        <ele>55</ele>
        <time>2012-11-10T22:33:35Z</time>
      </trkpt>
      <trkpt lat="47.76436" lon="-1.98571">
        <ele>48</ele>
        <time>2012-11-10T22:33:15Z</time>
      </trkpt>
      <trkpt lat="47.76429" lon="-1.98544">
        <ele>48</ele>
        <time>2012-11-10T22:32:55Z</time>
      </trkpt>
      <trkpt lat="47.76427" lon="-1.98502">
        <ele>48</ele>
        <time>2012-11-10T22:32:35Z</time>
      </trkpt>
      <trkpt lat="47.76456" lon="-1.98064">
        <ele>57</ele>
        <time>2012-11-10T22:32:15Z</time>
      </trkpt>
      <trkpt lat="47.76445" lon="-1.98028">
        <ele>58</ele>
        <time>2012-11-10T22:31:55Z</time>
      </trkpt>
      <trkpt lat="47.76466" lon="-1.977">
        <ele>70</ele>
        <time>2012-11-10T22:31:35Z</time>
      </trkpt>
      <trkpt lat="47.76443" lon="-1.97613">
        <ele>65</ele>
        <time>2012-11-10T22:31:15Z</time>
      </trkpt>
      <trkpt lat="47.76439" lon="-1.9755">
        <ele>65</ele>
        <time>2012-11-10T22:30:55Z</time>
      </trkpt>
      <trkpt lat="47.76478" lon="-1.97467">
        <ele>71</ele>
        <time>2012-11-10T22:30:35Z</time>
      </trkpt>
      <trkpt lat="47.76465" lon="-1.97402">
        <ele>70</ele>
        <time>2012-11-10T22:30:15Z</time>
      </trkpt>
      <trkpt lat="47.76465" lon="-1.97356">
        <ele>71</ele>
        <time>2012-11-10T22:29:55Z</time>
      </trkpt>
      <trkpt lat="47.76472" lon="-1.9733">
        <ele>71</ele>
        <time>2012-11-10T22:29:35Z</time>
      </trkpt>
      <trkpt lat="47.76479" lon="-1.97167">
        <ele>69</ele>
        <time>2012-11-10T22:29:15Z</time>
      </trkpt>
      <trkpt lat="47.76349" lon="-1.97136">
        <ele>63</ele>
        <time>2012-11-10T22:28:55Z</time>
      </trkpt>
      <trkpt lat="47.76423" lon="-1.9672">
        <ele>68</ele>
        <time>2012-11-10T22:28:35Z</time>
      </trkpt>
      <trkpt lat="47.7645" lon="-1.96543">
        <ele>63</ele>
        <time>2012-11-10T22:28:15Z</time>
      </trkpt>
      <trkpt lat="47.76489" lon="-1.9642">
        <ele>63</ele>
        <time>2012-11-10T22:27:55Z</time>
      </trkpt>
      <trkpt lat="47.76497" lon="-1.96367">
        <ele>64</ele>
        <time>2012-11-10T22:27:35Z</time>
      </trkpt>
      <trkpt lat="47.76493" lon="-1.961">
        <ele>68</ele>
        <time>2012-11-10T22:27:15Z</time>
      </trkpt>
      <trkpt lat="47.76718" lon="-1.9607">
        <ele>77</ele>
        <time>2012-11-10T22:26:55Z</time>
      </trkpt>
      <trkpt lat="47.76719" lon="-1.96006">
        <ele>81</ele>
        <time>2012-11-10T22:26:35Z</time>
      </trkpt>
      <trkpt lat="47.76691" lon="-1.95844">
        <ele>82</ele>
        <time>2012-11-10T22:26:15Z</time>
      </trkpt>
      <trkpt lat="47.76682" lon="-1.95049">
        <ele>88</ele>
        <time>2012-11-10T22:25:55Z</time>
      </trkpt>
      <trkpt lat="47.76619" lon="-1.94629">
        <ele>85</ele>
        <time>2012-11-10T22:25:35Z</time>
      </trkpt>
      <trkpt lat="47.7666" lon="-1.94634">
        <ele>96</ele>
        <time>2012-11-10T22:25:15Z</time>
      </trkpt>
      <trkpt lat="47.76708" lon="-1.94627">
        <ele>96</ele>
        <time>2012-11-10T22:24:55Z</time>
      </trkpt>
      <trkpt lat="47.7673" lon="-1.94613">
        <ele>94</ele>
        <time>2012-11-10T22:24:35Z</time>
      </trkpt>
      <trkpt lat="47.76738" lon="-1.94504">
        <ele>90</ele>
        <time>2012-11-10T22:24:15Z</time>
      </trkpt>
      <trkpt lat="47.76731" lon="-1.94121">
        <ele>86</ele>
        <time>2012-11-10T22:23:55Z</time>
      </trkpt>
      <trkpt lat="47.76759" lon="-1.93966">
        <ele>86</ele>
        <time>2012-11-10T22:23:35Z</time>
      </trkpt>
      <trkpt lat="47.76762" lon="-1.93887">
        <ele>85</ele>
        <time>2012-11-10T22:23:15Z</time>
      </trkpt>
      <trkpt lat="47.767" lon="-1.93847">
        <ele>89</ele>
        <time>2012-11-10T22:22:55Z</time>
      </trkpt>
      <trkpt lat="47.76658" lon="-1.93842">
        <ele>89</ele>
        <time>2012-11-10T22:22:35Z</time>
      </trkpt>
      <trkpt lat="47.76543" lon="-1.93867">
        <ele>89</ele>
        <time>2012-11-10T22:22:15Z</time>
      </trkpt>
      <trkpt lat="47.7651" lon="-1.93745">
        <ele>90</ele>
        <time>2012-11-10T22:21:55Z</time>
      </trkpt>
      <trkpt lat="47.76506" lon="-1.93681">
        <ele>91</ele>
        <time>2012-11-10T22:21:35Z</time>
      </trkpt>
      <trkpt lat="47.76637" lon="-1.93415">
        <ele>88</ele>
        <time>2012-11-10T22:21:15Z</time>
      </trkpt>
      <trkpt lat="47.76644" lon="-1.93325">
        <ele>86</ele>
        <time>2012-11-10T22:20:55Z</time>
      </trkpt>
      <trkpt lat="47.76635" lon="-1.93209">
        <ele>86</ele>
        <time>2012-11-10T22:20:35Z</time>
      </trkpt>
      <trkpt lat="47.76413" lon="-1.93233">
        <ele>97</ele>
        <time>2012-11-10T22:20:15Z</time>
      </trkpt>
      <trkpt lat="47.76256" lon="-1.93259">
        <ele>91</ele>
        <time>2012-11-10T22:19:55Z</time>
      </trkpt>
      <trkpt lat="47.76297" lon="-1.93038">
        <ele>94</ele>
        <time>2012-11-10T22:19:35Z</time>
      </trkpt>
      <trkpt lat="47.76334" lon="-1.92929">
        <ele>89</ele>
        <time>2012-11-10T22:19:15Z</time>
      </trkpt>
      <trkpt lat="47.76358" lon="-1.92579">
        <ele>85</ele>
        <time>2012-11-10T22:18:55Z</time>
      </trkpt>
      <trkpt lat="47.76251" lon="-1.9259">
        <ele>85</ele>
        <time>2012-11-10T22:18:35Z</time>
      </trkpt>
      <trkpt lat="47.7599" lon="-1.9265">
        <ele>75</ele>
        <time>2012-11-10T22:18:15Z</time>
      </trkpt>
      <trkpt lat="47.75872" lon="-1.92642">
        <ele>71</ele>
        <time>2012-11-10T22:17:55Z</time>
      </trkpt>
      <trkpt lat="47.75758" lon="-1.92676">
        <ele>74</ele>
        <time>2012-11-10T22:17:35Z</time>
      </trkpt>
      <trkpt lat="47.75633" lon="-1.92404">
        <ele>81</ele>
        <time>2012-11-10T22:17:15Z</time>
      </trkpt>
      <trkpt lat="47.75635" lon="-1.92275">
        <ele>79</ele>
        <time>2012-11-10T22:16:55Z</time>
      </trkpt>
      <trkpt lat="47.75595" lon="-1.92258">
        <ele>78</ele>
        <time>2012-11-10T22:16:35Z</time>
      </trkpt>
      <trkpt lat="47.75463" lon="-1.92238">
        <ele>75</ele>
        <time>2012-11-10T22:16:15Z</time>
      </trkpt>
      <trkpt lat="47.75422" lon="-1.92248">
        <ele>71</ele>
        <time>2012-11-10T22:15:55Z</time>
      </trkpt>
      <trkpt lat="47.75401" lon="-1.92246">
        <ele>71</ele>
        <time>2012-11-10T22:15:35Z</time>
      </trkpt>
      <trkpt lat="47.75283" lon="-1.92196">
        <ele>63</ele>
        <time>2012-11-10T22:15:15Z</time>
      </trkpt>
      <trkpt lat="47.75253" lon="-1.92192">
        <ele>63</ele>
        <time>2012-11-10T22:14:55Z</time>
      </trkpt>
      <trkpt lat="47.75145" lon="-1.92263">
        <ele>65</ele>
        <time>2012-11-10T22:14:35Z</time>
      </trkpt>
      <trkpt lat="47.75099" lon="-1.92284">
        <ele>65</ele>
        <time>2012-11-10T22:14:15Z</time>
      </trkpt>
      <trkpt lat="47.74808" lon="-1.92329">
        <ele>72</ele>
        <time>2012-11-10T22:13:55Z</time>
      </trkpt>
      <trkpt lat="47.74703" lon="-1.92324">
        <ele>70</ele>
        <time>2012-11-10T22:13:35Z</time>
      </trkpt>
      <trkpt lat="47.74722" lon="-1.92162">
        <ele>67</ele>
        <time>2012-11-10T22:13:15Z</time>
      </trkpt>
      <trkpt lat="47.74749" lon="-1.92053">
        <ele>65</ele>
        <time>2012-11-10T22:12:55Z</time>
      </trkpt>
      <trkpt lat="47.74736" lon="-1.91991">
        <ele>71</ele>
        <time>2012-11-10T22:12:35Z</time>
      </trkpt>
      <trkpt lat="47.74724" lon="-1.91833">
        <ele>84</ele>
        <time>2012-11-10T22:12:15Z</time>
      </trkpt>
      <trkpt lat="47.74739" lon="-1.91735">
        <ele>89</ele>
        <time>2012-11-10T22:11:55Z</time>
      </trkpt>
      <trkpt lat="47.74819" lon="-1.91733">
        <ele>94</ele>
        <time>2012-11-10T22:11:35Z</time>
      </trkpt>
      <trkpt lat="47.7494" lon="-1.91521">
        <ele>96</ele>
        <time>2012-11-10T22:11:15Z</time>
      </trkpt>
      <trkpt lat="47.74971" lon="-1.91484">
        <ele>86</ele>
        <time>2012-11-10T22:10:55Z</time>
      </trkpt>
      <trkpt lat="47.74773" lon="-1.90955">
        <ele>96</ele>
        <time>2012-11-10T22:10:35Z</time>
      </trkpt>
      <trkpt lat="47.74713" lon="-1.90946">
        <ele>96</ele>
        <time>2012-11-10T22:10:15Z</time>
      </trkpt>
      <trkpt lat="47.74281" lon="-1.90818">
        <ele>88</ele>
        <time>2012-11-10T22:09:55Z</time>
      </trkpt>
      <trkpt lat="47.74032" lon="-1.90757">
        <ele>84</ele>
        <time>2012-11-10T22:09:35Z</time>
      </trkpt>
      <trkpt lat="47.73592" lon="-1.90628">
        <ele>82</ele>
        <time>2012-11-10T22:09:15Z</time>
      </trkpt>
      <trkpt lat="47.73396" lon="-1.90616">
        <ele>68</ele>
        <time>2012-11-10T22:08:55Z</time>
      </trkpt>
      <trkpt lat="47.73424" lon="-1.89488">
        <ele>79</ele>
        <time>2012-11-10T22:08:35Z</time>
      </trkpt>
      <trkpt lat="47.73429" lon="-1.89445">
        <ele>78</ele>
        <time>2012-11-10T22:08:15Z</time>
      </trkpt>
      <trkpt lat="47.73452" lon="-1.89387">
        <ele>78</ele>
        <time>2012-11-10T22:07:55Z</time>
      </trkpt>
      <trkpt lat="47.73637" lon="-1.89562">
        <ele>81</ele>
        <time>2012-11-10T22:07:35Z</time>
      </trkpt>
      <trkpt lat="47.73661" lon="-1.89576">
        <ele>81</ele>
        <time>2012-11-10T22:07:15Z</time>
      </trkpt>
      <trkpt lat="47.74024" lon="-1.89501">
        <ele>86</ele>
        <time>2012-11-10T22:06:55Z</time>
      </trkpt>
      <trkpt lat="47.74046" lon="-1.89491">
        <ele>88</ele>
        <time>2012-11-10T22:06:35Z</time>
      </trkpt>
      <trkpt lat="47.74052" lon="-1.89379">
        <ele>90</ele>
        <time>2012-11-10T22:06:15Z</time>
      </trkpt>
      <trkpt lat="47.74035" lon="-1.89232">
        <ele>88</ele>
        <time>2012-11-10T22:05:55Z</time>
      </trkpt>
      <trkpt lat="47.74213" lon="-1.89396">
        <ele>95</ele>
        <time>2012-11-10T22:05:35Z</time>
      </trkpt>
      <trkpt lat="47.74252" lon="-1.8921">
        <ele>84</ele>
        <time>2012-11-10T22:05:15Z</time>
      </trkpt>
      <trkpt lat="47.74302" lon="-1.89026">
        <ele>80</ele>
        <time>2012-11-10T22:04:55Z</time>
      </trkpt>
      <trkpt lat="47.74469" lon="-1.88878">
        <ele>89</ele>
        <time>2012-11-10T22:04:35Z</time>
      </trkpt>
      <trkpt lat="47.74486" lon="-1.88851">
        <ele>88</ele>
        <time>2012-11-10T22:04:15Z</time>
      </trkpt>
      <trkpt lat="47.74593" lon="-1.88223">
        <ele>84</ele>
        <time>2012-11-10T22:03:55Z</time>
      </trkpt>
      <trkpt lat="47.74576" lon="-1.88068">
        <ele>82</ele>
        <time>2012-11-10T22:03:35Z</time>
      </trkpt>
      <trkpt lat="47.74585" lon="-1.87945">
        <ele>79</ele>
        <time>2012-11-10T22:03:15Z</time>
      </trkpt>
      <trkpt lat="47.74596" lon="-1.8793">
        <ele>79</ele>
        <time>2012-11-10T22:02:55Z</time>
      </trkpt>
      <trkpt lat="47.74689" lon="-1.87936">
        <ele>79</ele>
        <time>2012-11-10T22:02:35Z</time>
      </trkpt>
      <trkpt lat="47.74668" lon="-1.87595">
        <ele>63</ele>
        <time>2012-11-10T22:02:15Z</time>
      </trkpt>
      <trkpt lat="47.74702" lon="-1.87336">
        <ele>40</ele>
        <time>2012-11-10T22:01:55Z</time>
      </trkpt>
      <trkpt lat="47.74721" lon="-1.87321">
        <ele>47</ele>
        <time>2012-11-10T22:01:35Z</time>
      </trkpt>
      <trkpt lat="47.74743" lon="-1.87292">
        <ele>47</ele>
        <time>2012-11-10T22:01:15Z</time>
      </trkpt>
      <trkpt lat="47.74751" lon="-1.87252">
        <ele>39</ele>
        <time>2012-11-10T22:00:55Z</time>
      </trkpt>
      <trkpt lat="47.74732" lon="-1.87123">
        <ele>32</ele>
        <time>2012-11-10T22:00:35Z</time>
      </trkpt>
      <trkpt lat="47.74811" lon="-1.87093">
        <ele>34</ele>
        <time>2012-11-10T22:00:15Z</time>
      </trkpt>
      <trkpt lat="47.74826" lon="-1.87096">
        <ele>34</ele>
        <time>2012-11-10T21:59:55Z</time>
      </trkpt>
      <trkpt lat="47.74855" lon="-1.87162">
        <ele>40</ele>
        <time>2012-11-10T21:59:35Z</time>
      </trkpt>
      <trkpt lat="47.74884" lon="-1.87286">
        <ele>36</ele>
        <time>2012-11-10T21:59:15Z</time>
      </trkpt>
      <trkpt lat="47.74983" lon="-1.8724">
        <ele>38</ele>
        <time>2012-11-10T21:58:55Z</time>
      </trkpt>
      <trkpt lat="47.75126" lon="-1.87119">
        <ele>39</ele>
        <time>2012-11-10T21:58:35Z</time>
      </trkpt>
      <trkpt lat="47.75101" lon="-1.87086">
        <ele>38</ele>
        <time>2012-11-10T21:58:15Z</time>
      </trkpt>
      <trkpt lat="47.74916" lon="-1.86923">
        <ele>41</ele>
        <time>2012-11-10T21:57:55Z</time>
      </trkpt>
      <trkpt lat="47.74915" lon="-1.86916">
        <ele>41</ele>
        <time>2012-11-10T21:57:35Z</time>
      </trkpt>
      <trkpt lat="47.75065" lon="-1.86947">
        <ele>49</ele>
        <time>2012-11-10T21:57:15Z</time>
      </trkpt>
      <trkpt lat="47.75158" lon="-1.8692">
        <ele>50</ele>
        <time>2012-11-10T21:56:55Z</time>
      </trkpt>
      <trkpt lat="47.75396" lon="-1.86989">
        <ele>60</ele>
        <time>2012-11-10T21:56:35Z</time>
      </trkpt>
      <trkpt lat="47.75483" lon="-1.87013">
        <ele>62</ele>
        <time>2012-11-10T21:56:15Z</time>
      </trkpt>
      <trkpt lat="47.75526" lon="-1.87002">
        <ele>62</ele>
        <time>2012-11-10T21:55:55Z</time>
      </trkpt>
      <trkpt lat="47.75605" lon="-1.86949">
        <ele>72</ele>
        <time>2012-11-10T21:55:35Z</time>
      </trkpt>
      <trkpt lat="47.75617" lon="-1.86949">
        <ele>72</ele>
        <time>2012-11-10T21:55:15Z</time>
      </trkpt>
      <trkpt lat="47.75769" lon="-1.8687">
        <ele>93</ele>
        <time>2012-11-10T21:54:55Z</time>
      </trkpt>
      <trkpt lat="47.75826" lon="-1.86858">
        <ele>93</ele>
        <time>2012-11-10T21:54:35Z</time>
      </trkpt>
      <trkpt lat="47.75911" lon="-1.86847">
        <ele>97</ele>
        <time>2012-11-10T21:54:15Z</time>
      </trkpt>
      <trkpt lat="47.76068" lon="-1.8685">
        <ele>95</ele>
        <time>2012-11-10T21:53:55Z</time>
      </trkpt>
      <trkpt lat="47.7614" lon="-1.86861">
        <ele>91</ele>
        <time>2012-11-10T21:53:35Z</time>
      </trkpt>
      <trkpt lat="47.7628" lon="-1.86827">
        <ele>88</ele>
        <time>2012-11-10T21:53:15Z</time>
      </trkpt>
      <trkpt lat="47.76406" lon="-1.86781">
        <ele>93</ele>
        <time>2012-11-10T21:52:55Z</time>
      </trkpt>
      <trkpt lat="47.76482" lon="-1.8676">
        <ele>96</ele>
        <time>2012-11-10T21:52:35Z</time>
      </trkpt>
      <trkpt lat="47.76557" lon="-1.86724">
        <ele>95</ele>
        <time>2012-11-10T21:52:15Z</time>
      </trkpt>
      <trkpt lat="47.76576" lon="-1.86746">
        <ele>95</ele>
        <time>2012-11-10T21:51:55Z</time>
      </trkpt>
      <trkpt lat="47.76576" lon="-1.86711">
        <ele>95</ele>
        <time>2012-11-10T21:51:35Z</time>
      </trkpt>
      <trkpt lat="47.76782" lon="-1.86603">
        <ele>93</ele>
        <time>2012-11-10T21:51:15Z</time>
      </trkpt>
      <trkpt lat="47.76861" lon="-1.86522">
        <ele>95</ele>
        <time>2012-11-10T21:50:55Z</time>
      </trkpt>
      <trkpt lat="47.7692" lon="-1.86477">
        <ele>96</ele>
        <time>2012-11-10T21:50:35Z</time>
      </trkpt>
      <trkpt lat="47.77037" lon="-1.86423">
        <ele>95</ele>
        <time>2012-11-10T21:50:15Z</time>
      </trkpt>
      <trkpt lat="47.77181" lon="-1.86376">
        <ele>96</ele>
        <time>2012-11-10T21:49:55Z</time>
      </trkpt>
      <trkpt lat="47.77299" lon="-1.86511">
        <ele>101</ele>
        <time>2012-11-10T21:49:35Z</time>
      </trkpt>
      <trkpt lat="47.77442" lon="-1.86809">
        <ele>96</ele>
        <time>2012-11-10T21:49:15Z</time>
      </trkpt>
      <trkpt lat="47.77472" lon="-1.8684">
        <ele>94</ele>
        <time>2012-11-10T21:48:55Z</time>
      </trkpt>
      <trkpt lat="47.77475" lon="-1.86862">
        <ele>94</ele>
        <time>2012-11-10T21:48:35Z</time>
      </trkpt>
      <trkpt lat="47.77522" lon="-1.86958">
        <ele>92</ele>
        <time>2012-11-10T21:48:15Z</time>
      </trkpt>
      <trkpt lat="47.77543" lon="-1.87019">
        <ele>82</ele>
        <time>2012-11-10T21:47:55Z</time>
      </trkpt>
      <trkpt lat="47.77713" lon="-1.8738">
        <ele>53</ele>
        <time>2012-11-10T21:47:35Z</time>
      </trkpt>
      <trkpt lat="47.77755" lon="-1.87352">
        <ele>57</ele>
        <time>2012-11-10T21:47:15Z</time>
      </trkpt>
      <trkpt lat="47.77767" lon="-1.87358">
        <ele>57</ele>
        <time>2012-11-10T21:46:55Z</time>
      </trkpt>
      <trkpt lat="47.77842" lon="-1.87481">
        <ele>43</ele>
        <time>2012-11-10T21:46:35Z</time>
      </trkpt>
      <trkpt lat="47.77843" lon="-1.87932">
        <ele>66</ele>
        <time>2012-11-10T21:46:15Z</time>
      </trkpt>
      <trkpt lat="47.77866" lon="-1.88295">
        <ele>89</ele>
        <time>2012-11-10T21:45:55Z</time>
      </trkpt>
      <trkpt lat="47.7801" lon="-1.88334">
        <ele>84</ele>
        <time>2012-11-10T21:45:35Z</time>
      </trkpt>
      <trkpt lat="47.78019" lon="-1.883">
        <ele>84</ele>
        <time>2012-11-10T21:45:15Z</time>
      </trkpt>
      <trkpt lat="47.78143" lon="-1.88144">
        <ele>71</ele>
        <time>2012-11-10T21:44:55Z</time>
      </trkpt>
      <trkpt lat="47.78249" lon="-1.88196">
        <ele>60</ele>
        <time>2012-11-10T21:44:35Z</time>
      </trkpt>
      <trkpt lat="47.7828" lon="-1.88228">
        <ele>66</ele>
        <time>2012-11-10T21:44:15Z</time>
      </trkpt>
      <trkpt lat="47.78352" lon="-1.88279">
        <ele>56</ele>
        <time>2012-11-10T21:43:55Z</time>
      </trkpt>
      <trkpt lat="47.78346" lon="-1.88113">
        <ele>53</ele>
        <time>2012-11-10T21:43:35Z</time>
      </trkpt>
      <trkpt lat="47.78331" lon="-1.88044">
        <ele>53</ele>
        <time>2012-11-10T21:43:15Z</time>
      </trkpt>
      <trkpt lat="47.78304" lon="-1.8798">
        <ele>50</ele>
        <time>2012-11-10T21:42:55Z</time>
      </trkpt>
      <trkpt lat="47.78356" lon="-1.87943">
        <ele>44</ele>
        <time>2012-11-10T21:42:35Z</time>
      </trkpt>
      <trkpt lat="47.78381" lon="-1.87939">
        <ele>59</ele>
        <time>2012-11-10T21:42:15Z</time>
      </trkpt>
      <trkpt lat="47.78661" lon="-1.88084">
        <ele>61</ele>
        <time>2012-11-10T21:41:55Z</time>
      </trkpt>
      <trkpt lat="47.78775" lon="-1.88145">
        <ele>64</ele>
        <time>2012-11-10T21:41:35Z</time>
      </trkpt>
      <trkpt lat="47.78832" lon="-1.87598">
        <ele>45</ele>
        <time>2012-11-10T21:41:15Z</time>
      </trkpt>
      <trkpt lat="47.78831" lon="-1.87487">
        <ele>41</ele>
        <time>2012-11-10T21:40:55Z</time>
      </trkpt>
      <trkpt lat="47.78843" lon="-1.87375">
        <ele>35</ele>
        <time>2012-11-10T21:40:35Z</time>
      </trkpt>
      <trkpt lat="47.78923" lon="-1.87055">
        <ele>39</ele>
        <time>2012-11-10T21:40:15Z</time>
      </trkpt>
      <trkpt lat="47.78915" lon="-1.86739">
        <ele>50</ele>
        <time>2012-11-10T21:39:55Z</time>
      </trkpt>
      <trkpt lat="47.78949" lon="-1.8653">
        <ele>42</ele>
        <time>2012-11-10T21:39:35Z</time>
      </trkpt>
      <trkpt lat="47.79004" lon="-1.86512">
        <ele>49</ele>
        <time>2012-11-10T21:39:15Z</time>
      </trkpt>
      <trkpt lat="47.79105" lon="-1.86523">
        <ele>55</ele>
        <time>2012-11-10T21:38:55Z</time>
      </trkpt>
      <trkpt lat="47.79131" lon="-1.86521">
        <ele>57</ele>
        <time>2012-11-10T21:38:35Z</time>
      </trkpt>
      <trkpt lat="47.79231" lon="-1.86481">
        <ele>57</ele>
        <time>2012-11-10T21:38:15Z</time>
      </trkpt>
      <trkpt lat="47.79249" lon="-1.8649">
        <ele>57</ele>
        <time>2012-11-10T21:37:55Z</time>
      </trkpt>
      <trkpt lat="47.79287" lon="-1.86559">
        <ele>56</ele>
        <time>2012-11-10T21:37:35Z</time>
      </trkpt>
      <trkpt lat="47.79348" lon="-1.86583">
        <ele>56</ele>
        <time>2012-11-10T21:37:15Z</time>
      </trkpt>
      <trkpt lat="47.79448" lon="-1.8599">
        <ele>44</ele>
        <time>2012-11-10T21:36:55Z</time>
      </trkpt>
      <trkpt lat="47.79729" lon="-1.86036">
        <ele>25</ele>
        <time>2012-11-10T21:36:35Z</time>
      </trkpt>
      <trkpt lat="47.79721" lon="-1.85989">
        <ele>25</ele>
        <time>2012-11-10T21:36:15Z</time>
      </trkpt>
      <trkpt lat="47.79731" lon="-1.85794">
        <ele>24</ele>
        <time>2012-11-10T21:35:55Z</time>
      </trkpt>
      <trkpt lat="47.79746" lon="-1.85579">
        <ele>19</ele>
        <time>2012-11-10T21:35:35Z</time>
      </trkpt>
      <trkpt lat="47.79748" lon="-1.85495">
        <ele>17</ele>
        <time>2012-11-10T21:35:15Z</time>
      </trkpt>
      <trkpt lat="47.79763" lon="-1.85425">
        <ele>16</ele>
        <time>2012-11-10T21:34:55Z</time>
      </trkpt>
      <trkpt lat="47.79766" lon="-1.85246">
        <ele>15</ele>
        <time>2012-11-10T21:34:35Z</time>
      </trkpt>
      <trkpt lat="47.79802" lon="-1.8494">
        <ele>9</ele>
        <time>2012-11-10T21:34:15Z</time>
      </trkpt>
      <trkpt lat="47.79797" lon="-1.8478">
        <ele>10</ele>
        <time>2012-11-10T21:33:55Z</time>
      </trkpt>
      <trkpt lat="47.79816" lon="-1.84683">
        <ele>10</ele>
        <time>2012-11-10T21:33:35Z</time>
      </trkpt>
      <trkpt lat="47.79819" lon="-1.84633">
        <ele>10</ele>
        <time>2012-11-10T21:33:15Z</time>
      </trkpt>
      <trkpt lat="47.79831" lon="-1.84537">
        <ele>8</ele>
        <time>2012-11-10T21:32:55Z</time>
      </trkpt>
      <trkpt lat="47.7985" lon="-1.84332">
        <ele>8</ele>
        <time>2012-11-10T21:32:35Z</time>
      </trkpt>
      <trkpt lat="47.79849" lon="-1.84302">
        <ele>8</ele>
        <time>2012-11-10T21:32:15Z</time>
      </trkpt>
      <trkpt lat="47.79977" lon="-1.8435">
        <ele>9</ele>
        <time>2012-11-10T21:31:55Z</time>
      </trkpt>
      <trkpt lat="47.80162" lon="-1.84426">
        <ele>7</ele>
        <time>2012-11-10T21:31:35Z</time>
      </trkpt>
      <trkpt lat="47.80207" lon="-1.84458">
        <ele>7</ele>
        <time>2012-11-10T21:31:15Z</time>
      </trkpt>
      <trkpt lat="47.8026" lon="-1.84518">
        <ele>8</ele>
        <time>2012-11-10T21:30:55Z</time>
      </trkpt>
      <trkpt lat="47.80311" lon="-1.84559">
        <ele>8</ele>
        <time>2012-11-10T21:30:35Z</time>
      </trkpt>
      <trkpt lat="47.80389" lon="-1.84615">
        <ele>8</ele>
        <time>2012-11-10T21:30:15Z</time>
      </trkpt>
      <trkpt lat="47.80449" lon="-1.84626">
        <ele>10</ele>
        <time>2012-11-10T21:29:55Z</time>
      </trkpt>
      <trkpt lat="47.80521" lon="-1.84642">
        <ele>7</ele>
        <time>2012-11-10T21:29:35Z</time>
      </trkpt>
      <trkpt lat="47.80639" lon="-1.84654">
        <ele>6</ele>
        <time>2012-11-10T21:29:15Z</time>
      </trkpt>
      <trkpt lat="47.80795" lon="-1.84687">
        <ele>5</ele>
        <time>2012-11-10T21:28:55Z</time>
      </trkpt>
      <trkpt lat="47.80883" lon="-1.8471">
        <ele>6</ele>
        <time>2012-11-10T21:28:35Z</time>
      </trkpt>
      <trkpt lat="47.80956" lon="-1.84709">
        <ele>6</ele>
        <time>2012-11-10T21:28:15Z</time>
      </trkpt>
      <trkpt lat="47.81065" lon="-1.84677">
        <ele>5</ele>
        <time>2012-11-10T21:27:55Z</time>
      </trkpt>
      <trkpt lat="47.81112" lon="-1.84651">
        <ele>5</ele>
        <time>2012-11-10T21:27:35Z</time>
      </trkpt>
      <trkpt lat="47.81199" lon="-1.84582">
        <ele>5</ele>
        <time>2012-11-10T21:27:15Z</time>
      </trkpt>
      <trkpt lat="47.81251" lon="-1.84528">
        <ele>6</ele>
        <time>2012-11-10T21:26:55Z</time>
      </trkpt>
      <trkpt lat="47.81285" lon="-1.84479">
        <ele>6</ele>
        <time>2012-11-10T21:26:35Z</time>
      </trkpt>
      <trkpt lat="47.81427" lon="-1.8434">
        <ele>9</ele>
        <time>2012-11-10T21:26:15Z</time>
      </trkpt>
      <trkpt lat="47.81494" lon="-1.84248">
        <ele>9</ele>
        <time>2012-11-10T21:25:55Z</time>
      </trkpt>
      <trkpt lat="47.81543" lon="-1.84153">
        <ele>10</ele>
        <time>2012-11-10T21:25:35Z</time>
      </trkpt>
      <trkpt lat="47.81553" lon="-1.84096">
        <ele>8</ele>
        <time>2012-11-10T21:25:15Z</time>
      </trkpt>
      <trkpt lat="47.81556" lon="-1.83991">
        <ele>8</ele>
        <time>2012-11-10T21:24:55Z</time>
      </trkpt>
      <trkpt lat="47.81516" lon="-1.83835">
        <ele>5</ele>
        <time>2012-11-10T21:24:35Z</time>
      </trkpt>
      <trkpt lat="47.81446" lon="-1.83715">
        <ele>9</ele>
        <time>2012-11-10T21:24:15Z</time>
      </trkpt>
      <trkpt lat="47.81437" lon="-1.83653">
        <ele>8</ele>
        <time>2012-11-10T21:23:55Z</time>
      </trkpt>
      <trkpt lat="47.8147" lon="-1.83483">
        <ele>4</ele>
        <time>2012-11-10T21:23:35Z</time>
      </trkpt>
      <trkpt lat="47.81509" lon="-1.83402">
        <ele>7</ele>
        <time>2012-11-10T21:23:15Z</time>
      </trkpt>
      <trkpt lat="47.8159" lon="-1.8324">
        <ele>7</ele>
        <time>2012-11-10T21:22:55Z</time>
      </trkpt>
      <trkpt lat="47.81628" lon="-1.83071">
        <ele>7</ele>
        <time>2012-11-10T21:22:35Z</time>
      </trkpt>
      <trkpt lat="47.81676" lon="-1.82972">
        <ele>5</ele>
        <time>2012-11-10T21:22:15Z</time>
      </trkpt>
      <trkpt lat="47.81727" lon="-1.8291">
        <ele>6</ele>
        <time>2012-11-10T21:21:55Z</time>
      </trkpt>
      <trkpt lat="47.81751" lon="-1.82896">
        <ele>6</ele>
        <time>2012-11-10T21:21:35Z</time>
      </trkpt>
      <trkpt lat="47.81834" lon="-1.82907">
        <ele>4</ele>
        <time>2012-11-10T21:21:15Z</time>
      </trkpt>
      <trkpt lat="47.81878" lon="-1.82903">
        <ele>6</ele>
        <time>2012-11-10T21:20:55Z</time>
      </trkpt>
      <trkpt lat="47.81926" lon="-1.82875">
        <ele>6</ele>
        <time>2012-11-10T21:20:35Z</time>
      </trkpt>
      <trkpt lat="47.8212" lon="-1.82557">
        <ele>7</ele>
        <time>2012-11-10T21:20:15Z</time>
      </trkpt>
      <trkpt lat="47.82143" lon="-1.82545">
        <ele>9</ele>
        <time>2012-11-10T21:19:55Z</time>
      </trkpt>
      <trkpt lat="47.82243" lon="-1.82306">
        <ele>8</ele>
        <time>2012-11-10T21:19:35Z</time>
      </trkpt>
      <trkpt lat="47.82225" lon="-1.82253">
        <ele>7</ele>
        <time>2012-11-10T21:19:15Z</time>
      </trkpt>
      <trkpt lat="47.82104" lon="-1.82176">
        <ele>10</ele>
        <time>2012-11-10T21:18:55Z</time>
      </trkpt>
      <trkpt lat="47.8218" lon="-1.81968">
        <ele>9</ele>
        <time>2012-11-10T21:18:35Z</time>
      </trkpt>
      <trkpt lat="47.8232" lon="-1.81834">
        <ele>10</ele>
        <time>2012-11-10T21:18:15Z</time>
      </trkpt>
      <trkpt lat="47.82329" lon="-1.81778">
        <ele>9</ele>
        <time>2012-11-10T21:17:55Z</time>
      </trkpt>
      <trkpt lat="47.8242" lon="-1.81636">
        <ele>11</ele>
        <time>2012-11-10T21:17:35Z</time>
      </trkpt>
      <trkpt lat="47.82548" lon="-1.81372">
        <ele>9</ele>
        <time>2012-11-10T21:17:15Z</time>
      </trkpt>
      <trkpt lat="47.82878" lon="-1.80855">
        <ele>12</ele>
        <time>2012-11-10T21:16:55Z</time>
      </trkpt>
      <trkpt lat="47.82897" lon="-1.80853">
        <ele>12</ele>
        <time>2012-11-10T21:16:35Z</time>
      </trkpt>
      <trkpt lat="47.82922" lon="-1.80899">
        <ele>11</ele>
        <time>2012-11-10T21:16:15Z</time>
      </trkpt>
      <trkpt lat="47.82934" lon="-1.80987">
        <ele>10</ele>
        <time>2012-11-10T21:15:55Z</time>
      </trkpt>
      <trkpt lat="47.8295" lon="-1.81032">
        <ele>10</ele>
        <time>2012-11-10T21:15:35Z</time>
      </trkpt>
      <trkpt lat="47.82988" lon="-1.81102">
        <ele>8</ele>
        <time>2012-11-10T21:15:15Z</time>
      </trkpt>
      <trkpt lat="47.83023" lon="-1.81152">
        <ele>10</ele>
        <time>2012-11-10T21:14:55Z</time>
      </trkpt>
      <trkpt lat="47.83048" lon="-1.8115">
        <ele>11</ele>
        <time>2012-11-10T21:14:35Z</time>
      </trkpt>
      <trkpt lat="47.83199" lon="-1.80842">
        <ele>7</ele>
        <time>2012-11-10T21:14:15Z</time>
      </trkpt>
      <trkpt lat="47.8329" lon="-1.8068">
        <ele>8</ele>
        <time>2012-11-10T21:13:55Z</time>
      </trkpt>
      <trkpt lat="47.83338" lon="-1.80555">
        <ele>8</ele>
        <time>2012-11-10T21:13:35Z</time>
      </trkpt>
      <trkpt lat="47.83356" lon="-1.8048">
        <ele>7</ele>
        <time>2012-11-10T21:13:15Z</time>
      </trkpt>
      <trkpt lat="47.834" lon="-1.80338">
        <ele>7</ele>
        <time>2012-11-10T21:12:55Z</time>
      </trkpt>
      <trkpt lat="47.83332" lon="-1.80249">
        <ele>10</ele>
        <time>2012-11-10T21:12:35Z</time>
      </trkpt>
      <trkpt lat="47.83305" lon="-1.80189">
        <ele>11</ele>
        <time>2012-11-10T21:12:15Z</time>
      </trkpt>
      <trkpt lat="47.83401" lon="-1.7999">
        <ele>11</ele>
        <time>2012-11-10T21:11:55Z</time>
      </trkpt>
      <trkpt lat="47.83411" lon="-1.79871">
        <ele>13</ele>
        <time>2012-11-10T21:11:35Z</time>
      </trkpt>
      <trkpt lat="47.83451" lon="-1.79859">
        <ele>13</ele>
        <time>2012-11-10T21:11:15Z</time>
      </trkpt>
      <trkpt lat="47.83498" lon="-1.79743">
        <ele>12</ele>
        <time>2012-11-10T21:10:55Z</time>
      </trkpt>
      <trkpt lat="47.83602" lon="-1.79637">
        <ele>10</ele>
        <time>2012-11-10T21:10:35Z</time>
      </trkpt>
      <trkpt lat="47.83612" lon="-1.7958">
        <ele>9</ele>
        <time>2012-11-10T21:10:15Z</time>
      </trkpt>
      <trkpt lat="47.83613" lon="-1.79435">
        <ele>10</ele>
        <time>2012-11-10T21:09:55Z</time>
      </trkpt>
      <trkpt lat="47.83592" lon="-1.79379">
        <ele>10</ele>
        <time>2012-11-10T21:09:35Z</time>
      </trkpt>
      <trkpt lat="47.83533" lon="-1.79295">
        <ele>11</ele>
        <time>2012-11-10T21:09:15Z</time>
      </trkpt>
      <trkpt lat="47.83498" lon="-1.79256">
        <ele>11</ele>
        <time>2012-11-10T21:08:55Z</time>
      </trkpt>
      <trkpt lat="47.83485" lon="-1.79183">
        <ele>14</ele>
        <time>2012-11-10T21:08:35Z</time>
      </trkpt>
      <trkpt lat="47.83488" lon="-1.79121">
        <ele>12</ele>
        <time>2012-11-10T21:08:15Z</time>
      </trkpt>
      <trkpt lat="47.83501" lon="-1.79015">
        <ele>11</ele>
        <time>2012-11-10T21:07:55Z</time>
      </trkpt>
      <trkpt lat="47.83545" lon="-1.78857">
        <ele>10</ele>
        <time>2012-11-10T21:07:35Z</time>
      </trkpt>
      <trkpt lat="47.83559" lon="-1.78836">
        <ele>10</ele>
        <time>2012-11-10T21:07:15Z</time>
      </trkpt>
      <trkpt lat="47.83582" lon="-1.78762">
        <ele>13</ele>
        <time>2012-11-10T21:06:55Z</time>
      </trkpt>
      <trkpt lat="47.83608" lon="-1.78699">
        <ele>12</ele>
        <time>2012-11-10T21:06:35Z</time>
      </trkpt>
      <trkpt lat="47.8361" lon="-1.78651">
        <ele>12</ele>
        <time>2012-11-10T21:06:15Z</time>
      </trkpt>
      <trkpt lat="47.83653" lon="-1.78542">
        <ele>10</ele>
        <time>2012-11-10T21:05:55Z</time>
      </trkpt>
      <trkpt lat="47.83746" lon="-1.7845">
        <ele>12</ele>
        <time>2012-11-10T21:05:35Z</time>
      </trkpt>
      <trkpt lat="47.83827" lon="-1.78336">
        <ele>13</ele>
        <time>2012-11-10T21:05:15Z</time>
      </trkpt>
      <trkpt lat="47.83992" lon="-1.7823">
        <ele>7</ele>
        <time>2012-11-10T21:04:55Z</time>
      </trkpt>
      <trkpt lat="47.83997" lon="-1.78207">
        <ele>10</ele>
        <time>2012-11-10T21:04:35Z</time>
      </trkpt>
      <trkpt lat="47.83977" lon="-1.78124">
        <ele>12</ele>
        <time>2012-11-10T21:04:15Z</time>
      </trkpt>
      <trkpt lat="47.83995" lon="-1.78106">
        <ele>12</ele>
        <time>2012-11-10T21:03:55Z</time>
      </trkpt>
      <trkpt lat="47.83983" lon="-1.78071">
        <ele>12</ele>
        <time>2012-11-10T21:03:35Z</time>
      </trkpt>
      <trkpt lat="47.83945" lon="-1.78101">
        <ele>16</ele>
        <time>2012-11-10T21:03:15Z</time>
      </trkpt>
      <trkpt lat="47.83747" lon="-1.7783">
        <ele>26</ele>
        <time>2012-11-10T21:02:55Z</time>
      </trkpt>
      <trkpt lat="47.83737" lon="-1.77779">
        <ele>27</ele>
        <time>2012-11-10T21:02:35Z</time>
      </trkpt>
      <trkpt lat="47.83758" lon="-1.77623">
        <ele>29</ele>
        <time>2012-11-10T21:02:15Z</time>
      </trkpt>
      <trkpt lat="47.83713" lon="-1.77511">
        <ele>31</ele>
        <time>2012-11-10T21:01:55Z</time>
      </trkpt>
      <trkpt lat="47.83669" lon="-1.77477">
        <ele>34</ele>
        <time>2012-11-10T21:01:35Z</time>
      </trkpt>
      <trkpt lat="47.83596" lon="-1.7736">
        <ele>37</ele>
        <time>2012-11-10T21:01:15Z</time>
      </trkpt>
      <trkpt lat="47.83564" lon="-1.7733">
        <ele>37</ele>
        <time>2012-11-10T21:00:55Z</time>
      </trkpt>
      <trkpt lat="47.83551" lon="-1.77283">
        <ele>39</ele>
        <time>2012-11-10T21:00:35Z</time>
      </trkpt>
      <trkpt lat="47.83538" lon="-1.77208">
        <ele>39</ele>
        <time>2012-11-10T21:00:15Z</time>
      </trkpt>
      <trkpt lat="47.83539" lon="-1.77133">
        <ele>39</ele>
        <time>2012-11-10T20:59:55Z</time>
      </trkpt>
      <trkpt lat="47.83522" lon="-1.77065">
        <ele>39</ele>
        <time>2012-11-10T20:59:35Z</time>
      </trkpt>
      <trkpt lat="47.83514" lon="-1.7699">
        <ele>37</ele>
        <time>2012-11-10T20:59:15Z</time>
      </trkpt>
      <trkpt lat="47.83646" lon="-1.76944">
        <ele>31</ele>
        <time>2012-11-10T20:58:55Z</time>
      </trkpt>
      <trkpt lat="47.83652" lon="-1.76511">
        <ele>25</ele>
        <time>2012-11-10T20:58:35Z</time>
      </trkpt>
      <trkpt lat="47.83812" lon="-1.76542">
        <ele>26</ele>
        <time>2012-11-10T20:58:15Z</time>
      </trkpt>
      <trkpt lat="47.83636" lon="-1.75875">
        <ele>28</ele>
        <time>2012-11-10T20:57:55Z</time>
      </trkpt>
      <trkpt lat="47.83681" lon="-1.75888">
        <ele>26</ele>
        <time>2012-11-10T20:57:35Z</time>
      </trkpt>
      <trkpt lat="47.83915" lon="-1.74654">
        <ele>46</ele>
        <time>2012-11-10T20:57:15Z</time>
      </trkpt>
      <trkpt lat="47.83953" lon="-1.74664">
        <ele>46</ele>
        <time>2012-11-10T20:56:55Z</time>
      </trkpt>
      <trkpt lat="47.84019" lon="-1.74664">
        <ele>53</ele>
        <time>2012-11-10T20:56:35Z</time>
      </trkpt>
      <trkpt lat="47.84042" lon="-1.7465">
        <ele>62</ele>
        <time>2012-11-10T20:56:15Z</time>
      </trkpt>
      <trkpt lat="47.84104" lon="-1.74641">
        <ele>62</ele>
        <time>2012-11-10T20:55:55Z</time>
      </trkpt>
      <trkpt lat="47.84158" lon="-1.74626">
        <ele>68</ele>
        <time>2012-11-10T20:55:35Z</time>
      </trkpt>
      <trkpt lat="47.84203" lon="-1.74605">
        <ele>63</ele>
        <time>2012-11-10T20:55:15Z</time>
      </trkpt>
      <trkpt lat="47.84281" lon="-1.74602">
        <ele>65</ele>
        <time>2012-11-10T20:54:55Z</time>
      </trkpt>
      <trkpt lat="47.84427" lon="-1.74614">
        <ele>66</ele>
        <time>2012-11-10T20:54:35Z</time>
      </trkpt>
      <trkpt lat="47.84527" lon="-1.74648">
        <ele>71</ele>
        <time>2012-11-10T20:54:15Z</time>
      </trkpt>
      <trkpt lat="47.84656" lon="-1.74742">
        <ele>83</ele>
        <time>2012-11-10T20:53:55Z</time>
      </trkpt>
      <trkpt lat="47.84727" lon="-1.74783">
        <ele>86</ele>
        <time>2012-11-10T20:53:35Z</time>
      </trkpt>
      <trkpt lat="47.84802" lon="-1.74853">
        <ele>96</ele>
        <time>2012-11-10T20:53:15Z</time>
      </trkpt>
      <trkpt lat="47.84881" lon="-1.74912">
        <ele>103</ele>
        <time>2012-11-10T20:52:55Z</time>
      </trkpt>
      <trkpt lat="47.8486" lon="-1.7505">
        <ele>104</ele>
        <time>2012-11-10T20:52:35Z</time>
      </trkpt>
      <trkpt lat="47.84949" lon="-1.75038">
        <ele>106</ele>
        <time>2012-11-10T20:52:15Z</time>
      </trkpt>
      <trkpt lat="47.84979" lon="-1.75784">
        <ele>95</ele>
        <time>2012-11-10T20:51:55Z</time>
      </trkpt>
      <trkpt lat="47.85169" lon="-1.75755">
        <ele>103</ele>
        <time>2012-11-10T20:51:35Z</time>
      </trkpt>
      <trkpt lat="47.85603" lon="-1.75677">
        <ele>115</ele>
        <time>2012-11-10T20:51:15Z</time>
      </trkpt>
      <trkpt lat="47.85603" lon="-1.75569">
        <ele>115</ele>
        <time>2012-11-10T20:50:55Z</time>
      </trkpt>
      <trkpt lat="47.85614" lon="-1.75424">
        <ele>115</ele>
        <time>2012-11-10T20:50:35Z</time>
      </trkpt>
      <trkpt lat="47.85637" lon="-1.75291">
        <ele>113</ele>
        <time>2012-11-10T20:50:15Z</time>
      </trkpt>
      <trkpt lat="47.85669" lon="-1.74892">
        <ele>115</ele>
        <time>2012-11-10T20:49:55Z</time>
      </trkpt>
      <trkpt lat="47.85835" lon="-1.7455">
        <ele>104</ele>
        <time>2012-11-10T20:49:35Z</time>
      </trkpt>
      <trkpt lat="47.86" lon="-1.74233">
        <ele>101</ele>
        <time>2012-11-10T20:49:15Z</time>
      </trkpt>
      <trkpt lat="47.86106" lon="-1.74038">
        <ele>106</ele>
        <time>2012-11-10T20:48:55Z</time>
      </trkpt>
      <trkpt lat="47.86141" lon="-1.73951">
        <ele>106</ele>
        <time>2012-11-10T20:48:35Z</time>
      </trkpt>
      <trkpt lat="47.86176" lon="-1.73895">
        <ele>106</ele>
        <time>2012-11-10T20:48:15Z</time>
      </trkpt>
      <trkpt lat="47.86251" lon="-1.73748">
        <ele>110</ele>
        <time>2012-11-10T20:47:55Z</time>
      </trkpt>
      <trkpt lat="47.8638" lon="-1.73894">
        <ele>112</ele>
        <time>2012-11-10T20:47:35Z</time>
      </trkpt>
      <trkpt lat="47.86521" lon="-1.73487">
        <ele>111</ele>
        <time>2012-11-10T20:47:15Z</time>
      </trkpt>
      <trkpt lat="47.867" lon="-1.73704">
        <ele>115</ele>
        <time>2012-11-10T20:46:55Z</time>
      </trkpt>
      <trkpt lat="47.8676" lon="-1.73739">
        <ele>113</ele>
        <time>2012-11-10T20:46:35Z</time>
      </trkpt>
      <trkpt lat="47.86859" lon="-1.73819">
        <ele>111</ele>
        <time>2012-11-10T20:46:15Z</time>
      </trkpt>
      <trkpt lat="47.86946" lon="-1.73862">
        <ele>112</ele>
        <time>2012-11-10T20:45:55Z</time>
      </trkpt>
      <trkpt lat="47.86942" lon="-1.7398">
        <ele>109</ele>
        <time>2012-11-10T20:45:35Z</time>
      </trkpt>
      <trkpt lat="47.86931" lon="-1.74135">
        <ele>110</ele>
        <time>2012-11-10T20:45:15Z</time>
      </trkpt>
      <trkpt lat="47.86939" lon="-1.74262">
        <ele>110</ele>
        <time>2012-11-10T20:44:55Z</time>
      </trkpt>
      <trkpt lat="47.86928" lon="-1.74516">
        <ele>106</ele>
        <time>2012-11-10T20:44:35Z</time>
      </trkpt>
      <trkpt lat="47.86865" lon="-1.7455">
        <ele>102</ele>
        <time>2012-11-10T20:44:15Z</time>
      </trkpt>
      <trkpt lat="47.86775" lon="-1.74574">
        <ele>105</ele>
        <time>2012-11-10T20:43:55Z</time>
      </trkpt>
      <trkpt lat="47.86776" lon="-1.74622">
        <ele>105</ele>
        <time>2012-11-10T20:43:35Z</time>
      </trkpt>
      <trkpt lat="47.86801" lon="-1.74621">
        <ele>102</ele>
        <time>2012-11-10T20:43:15Z</time>
      </trkpt>
      <trkpt lat="47.86801" lon="-1.74753">
        <ele>97</ele>
        <time>2012-11-10T20:42:55Z</time>
      </trkpt>
      <trkpt lat="47.86825" lon="-1.7487">
        <ele>89</ele>
        <time>2012-11-10T20:42:35Z</time>
      </trkpt>
      <trkpt lat="47.86833" lon="-1.74878">
        <ele>85</ele>
        <time>2012-11-10T20:42:15Z</time>
      </trkpt>
      <trkpt lat="47.86642" lon="-1.75533">
        <ele>66</ele>
        <time>2012-11-10T20:41:55Z</time>
      </trkpt>
      <trkpt lat="47.86741" lon="-1.75633">
        <ele>49</ele>
        <time>2012-11-10T20:41:35Z</time>
      </trkpt>
      <trkpt lat="47.86737" lon="-1.75675">
        <ele>49</ele>
        <time>2012-11-10T20:41:15Z</time>
      </trkpt>
      <trkpt lat="47.86751" lon="-1.75714">
        <ele>48</ele>
        <time>2012-11-10T20:40:55Z</time>
      </trkpt>
      <trkpt lat="47.86727" lon="-1.75841">
        <ele>47</ele>
        <time>2012-11-10T20:40:35Z</time>
      </trkpt>
      <trkpt lat="47.86725" lon="-1.75889">
        <ele>48</ele>
        <time>2012-11-10T20:40:15Z</time>
      </trkpt>
      <trkpt lat="47.86737" lon="-1.7594">
        <ele>48</ele>
        <time>2012-11-10T20:39:55Z</time>
      </trkpt>
      <trkpt lat="47.86728" lon="-1.75996">
        <ele>49</ele>
        <time>2012-11-10T20:39:35Z</time>
      </trkpt>
      <trkpt lat="47.86822" lon="-1.76029">
        <ele>60</ele>
        <time>2012-11-10T20:39:15Z</time>
      </trkpt>
      <trkpt lat="47.86827" lon="-1.76108">
        <ele>57</ele>
        <time>2012-11-10T20:38:55Z</time>
      </trkpt>
      <trkpt lat="47.86823" lon="-1.76157">
        <ele>57</ele>
        <time>2012-11-10T20:38:35Z</time>
      </trkpt>
      <trkpt lat="47.86894" lon="-1.76183">
        <ele>70</ele>
        <time>2012-11-10T20:38:15Z</time>
      </trkpt>
      <trkpt lat="47.86992" lon="-1.76174">
        <ele>78</ele>
        <time>2012-11-10T20:37:55Z</time>
      </trkpt>
      <trkpt lat="47.87237" lon="-1.76254">
        <ele>98</ele>
        <time>2012-11-10T20:37:35Z</time>
      </trkpt>
      <trkpt lat="47.87198" lon="-1.76422">
        <ele>95</ele>
        <time>2012-11-10T20:37:15Z</time>
      </trkpt>
      <trkpt lat="47.872" lon="-1.76471">
        <ele>91</ele>
        <time>2012-11-10T20:36:55Z</time>
      </trkpt>
      <trkpt lat="47.87239" lon="-1.76574">
        <ele>90</ele>
        <time>2012-11-10T20:36:35Z</time>
      </trkpt>
      <trkpt lat="47.87243" lon="-1.7662">
        <ele>90</ele>
        <time>2012-11-10T20:36:15Z</time>
      </trkpt>
      <trkpt lat="47.87231" lon="-1.76724">
        <ele>83</ele>
        <time>2012-11-10T20:35:55Z</time>
      </trkpt>
      <trkpt lat="47.8726" lon="-1.76829">
        <ele>78</ele>
        <time>2012-11-10T20:35:35Z</time>
      </trkpt>
      <trkpt lat="47.87323" lon="-1.76828">
        <ele>84</ele>
        <time>2012-11-10T20:35:15Z</time>
      </trkpt>
      <trkpt lat="47.87336" lon="-1.76972">
        <ele>81</ele>
        <time>2012-11-10T20:34:55Z</time>
      </trkpt>
      <trkpt lat="47.87319" lon="-1.77178">
        <ele>76</ele>
        <time>2012-11-10T20:34:35Z</time>
      </trkpt>
      <trkpt lat="47.87323" lon="-1.7729">
        <ele>73</ele>
        <time>2012-11-10T20:34:15Z</time>
      </trkpt>
      <trkpt lat="47.87287" lon="-1.77465">
        <ele>44</ele>
        <time>2012-11-10T20:33:55Z</time>
      </trkpt>
      <trkpt lat="47.87291" lon="-1.7753">
        <ele>44</ele>
        <time>2012-11-10T20:33:35Z</time>
      </trkpt>
      <trkpt lat="47.87427" lon="-1.77613">
        <ele>63</ele>
        <time>2012-11-10T20:33:15Z</time>
      </trkpt>
      <trkpt lat="47.87433" lon="-1.77662">
        <ele>30</ele>
        <time>2012-11-10T20:32:55Z</time>
      </trkpt>
      <trkpt lat="47.87424" lon="-1.77703">
        <ele>30</ele>
        <time>2012-11-10T20:32:35Z</time>
      </trkpt>
      <trkpt lat="47.87334" lon="-1.77675">
        <ele>19</ele>
        <time>2012-11-10T20:32:15Z</time>
      </trkpt>
      <trkpt lat="47.87342" lon="-1.7781">
        <ele>11</ele>
        <time>2012-11-10T20:31:55Z</time>
      </trkpt>
      <trkpt lat="47.87515" lon="-1.77818">
        <ele>12</ele>
        <time>2012-11-10T20:31:35Z</time>
      </trkpt>
      <trkpt lat="47.87509" lon="-1.77915">
        <ele>15</ele>
        <time>2012-11-10T20:31:15Z</time>
      </trkpt>
      <trkpt lat="47.87616" lon="-1.77941">
        <ele>13</ele>
        <time>2012-11-10T20:30:55Z</time>
      </trkpt>
      <trkpt lat="47.87776" lon="-1.78026">
        <ele>16</ele>
        <time>2012-11-10T20:30:35Z</time>
      </trkpt>
      <trkpt lat="47.8772" lon="-1.78191">
        <ele>40</ele>
        <time>2012-11-10T20:30:15Z</time>
      </trkpt>
      <trkpt lat="47.87707" lon="-1.78193">
        <ele>40</ele>
        <time>2012-11-10T20:29:55Z</time>
      </trkpt>
      <trkpt lat="47.87546" lon="-1.78093">
        <ele>27</ele>
        <time>2012-11-10T20:29:35Z</time>
      </trkpt>
      <trkpt lat="47.87528" lon="-1.7809">
        <ele>23</ele>
        <time>2012-11-10T20:29:15Z</time>
      </trkpt>
      <trkpt lat="47.87502" lon="-1.78157">
        <ele>26</ele>
        <time>2012-11-10T20:28:55Z</time>
      </trkpt>
      <trkpt lat="47.87551" lon="-1.78192">
        <ele>38</ele>
        <time>2012-11-10T20:28:35Z</time>
      </trkpt>
      <trkpt lat="47.87555" lon="-1.78266">
        <ele>40</ele>
        <time>2012-11-10T20:28:15Z</time>
      </trkpt>
      <trkpt lat="47.87563" lon="-1.78298">
        <ele>40</ele>
        <time>2012-11-10T20:27:55Z</time>
      </trkpt>
      <trkpt lat="47.87622" lon="-1.78393">
        <ele>39</ele>
        <time>2012-11-10T20:27:35Z</time>
      </trkpt>
      <trkpt lat="47.87636" lon="-1.78431">
        <ele>61</ele>
        <time>2012-11-10T20:27:15Z</time>
      </trkpt>
      <trkpt lat="47.87642" lon="-1.7861">
        <ele>72</ele>
        <time>2012-11-10T20:26:55Z</time>
      </trkpt>
      <trkpt lat="47.87648" lon="-1.78665">
        <ele>75</ele>
        <time>2012-11-10T20:26:35Z</time>
      </trkpt>
      <trkpt lat="47.87659" lon="-1.78703">
        <ele>75</ele>
        <time>2012-11-10T20:26:15Z</time>
      </trkpt>
      <trkpt lat="47.87714" lon="-1.78687">
        <ele>85</ele>
        <time>2012-11-10T20:25:55Z</time>
      </trkpt>
      <trkpt lat="47.87738" lon="-1.78718">
        <ele>87</ele>
        <time>2012-11-10T20:25:35Z</time>
      </trkpt>
      <trkpt lat="47.88044" lon="-1.78719">
        <ele>82</ele>
        <time>2012-11-10T20:25:15Z</time>
      </trkpt>
      <trkpt lat="47.88079" lon="-1.78711">
        <ele>82</ele>
        <time>2012-11-10T20:24:55Z</time>
      </trkpt>
      <trkpt lat="47.88145" lon="-1.78659">
        <ele>82</ele>
        <time>2012-11-10T20:24:35Z</time>
      </trkpt>
      <trkpt lat="47.88178" lon="-1.7865">
        <ele>82</ele>
        <time>2012-11-10T20:24:15Z</time>
      </trkpt>
      <trkpt lat="47.88267" lon="-1.78653">
        <ele>85</ele>
        <time>2012-11-10T20:23:55Z</time>
      </trkpt>
      <trkpt lat="47.88519" lon="-1.78676">
        <ele>35</ele>
        <time>2012-11-10T20:23:35Z</time>
      </trkpt>
      <trkpt lat="47.88574" lon="-1.78674">
        <ele>24</ele>
        <time>2012-11-10T20:23:15Z</time>
      </trkpt>
      <trkpt lat="47.88568" lon="-1.78791">
        <ele>37</ele>
        <time>2012-11-10T20:22:55Z</time>
      </trkpt>
      <trkpt lat="47.88552" lon="-1.7885">
        <ele>43</ele>
        <time>2012-11-10T20:22:35Z</time>
      </trkpt>
      <trkpt lat="47.88516" lon="-1.79048">
        <ele>58</ele>
        <time>2012-11-10T20:22:15Z</time>
      </trkpt>
      <trkpt lat="47.88556" lon="-1.79227">
        <ele>71</ele>
        <time>2012-11-10T20:21:55Z</time>
      </trkpt>
      <trkpt lat="47.88583" lon="-1.79318">
        <ele>69</ele>
        <time>2012-11-10T20:21:35Z</time>
      </trkpt>
      <trkpt lat="47.88623" lon="-1.79511">
        <ele>71</ele>
        <time>2012-11-10T20:21:15Z</time>
      </trkpt>
      <trkpt lat="47.88859" lon="-1.79508">
        <ele>77</ele>
        <time>2012-11-10T20:20:55Z</time>
      </trkpt>
      <trkpt lat="47.88874" lon="-1.79534">
        <ele>77</ele>
        <time>2012-11-10T20:20:35Z</time>
      </trkpt>
      <trkpt lat="47.88901" lon="-1.7953">
        <ele>71</ele>
        <time>2012-11-10T20:20:15Z</time>
      </trkpt>
      <trkpt lat="47.8893" lon="-1.7948">
        <ele>71</ele>
        <time>2012-11-10T20:19:55Z</time>
      </trkpt>
      <trkpt lat="47.88989" lon="-1.79408">
        <ele>71</ele>
        <time>2012-11-10T20:19:35Z</time>
      </trkpt>
      <trkpt lat="47.89037" lon="-1.79331">
        <ele>65</ele>
        <time>2012-11-10T20:19:15Z</time>
      </trkpt>
      <trkpt lat="47.89087" lon="-1.7921">
        <ele>68</ele>
        <time>2012-11-10T20:18:55Z</time>
      </trkpt>
      <trkpt lat="47.89133" lon="-1.79039">
        <ele>78</ele>
        <time>2012-11-10T20:18:35Z</time>
      </trkpt>
      <trkpt lat="47.89148" lon="-1.79018">
        <ele>78</ele>
        <time>2012-11-10T20:18:15Z</time>
      </trkpt>
      <trkpt lat="47.89175" lon="-1.79226">
        <ele>80</ele>
        <time>2012-11-10T20:17:55Z</time>
      </trkpt>
      <trkpt lat="47.89176" lon="-1.79297">
        <ele>84</ele>
        <time>2012-11-10T20:17:35Z</time>
      </trkpt>
      <trkpt lat="47.89155" lon="-1.79492">
        <ele>85</ele>
        <time>2012-11-10T20:17:15Z</time>
      </trkpt>
      <trkpt lat="47.8917" lon="-1.79528">
        <ele>85</ele>
        <time>2012-11-10T20:16:55Z</time>
      </trkpt>
      <trkpt lat="47.89163" lon="-1.79614">
        <ele>84</ele>
        <time>2012-11-10T20:16:35Z</time>
      </trkpt>
      <trkpt lat="47.89191" lon="-1.7963">
        <ele>81</ele>
        <time>2012-11-10T20:16:15Z</time>
      </trkpt>
      <trkpt lat="47.89212" lon="-1.7962">
        <ele>82</ele>
        <time>2012-11-10T20:15:55Z</time>
      </trkpt>
      <trkpt lat="47.8925" lon="-1.79627">
        <ele>75</ele>
        <time>2012-11-10T20:15:35Z</time>
      </trkpt>
      <trkpt lat="47.89263" lon="-1.79636">
        <ele>75</ele>
        <time>2012-11-10T20:15:15Z</time>
      </trkpt>
      <trkpt lat="47.89268" lon="-1.79694">
        <ele>75</ele>
        <time>2012-11-10T20:14:55Z</time>
      </trkpt>
      <trkpt lat="47.89234" lon="-1.79797">
        <ele>76</ele>
        <time>2012-11-10T20:14:35Z</time>
      </trkpt>
      <trkpt lat="47.89211" lon="-1.79831">
        <ele>76</ele>
        <time>2012-11-10T20:14:15Z</time>
      </trkpt>
      <trkpt lat="47.89282" lon="-1.79802">
        <ele>76</ele>
        <time>2012-11-10T20:13:55Z</time>
      </trkpt>
      <trkpt lat="47.89384" lon="-1.79787">
        <ele>54</ele>
        <time>2012-11-10T20:13:35Z</time>
      </trkpt>
      <trkpt lat="47.89413" lon="-1.7979">
        <ele>54</ele>
        <time>2012-11-10T20:13:15Z</time>
      </trkpt>
      <trkpt lat="47.8958" lon="-1.79705">
        <ele>76</ele>
        <time>2012-11-10T20:12:55Z</time>
      </trkpt>
      <trkpt lat="47.89661" lon="-1.7967">
        <ele>86</ele>
        <time>2012-11-10T20:12:35Z</time>
      </trkpt>
      <trkpt lat="47.89675" lon="-1.79687">
        <ele>86</ele>
        <time>2012-11-10T20:12:15Z</time>
      </trkpt>
      <trkpt lat="47.89744" lon="-1.7966">
        <ele>93</ele>
        <time>2012-11-10T20:11:55Z</time>
      </trkpt>
      <trkpt lat="47.89761" lon="-1.79638">
        <ele>93</ele>
        <time>2012-11-10T20:11:35Z</time>
      </trkpt>
      <trkpt lat="47.8977" lon="-1.79516">
        <ele>85</ele>
        <time>2012-11-10T20:11:15Z</time>
      </trkpt>
      <trkpt lat="47.89725" lon="-1.79525">
        <ele>85</ele>
        <time>2012-11-10T20:10:55Z</time>
      </trkpt>
      <trkpt lat="47.89656" lon="-1.79552">
        <ele>83</ele>
        <time>2012-11-10T20:10:35Z</time>
      </trkpt>
      <trkpt lat="47.89647" lon="-1.7953">
        <ele>81</ele>
        <time>2012-11-10T20:10:15Z</time>
      </trkpt>
      <trkpt lat="47.89647" lon="-1.79364">
        <ele>76</ele>
        <time>2012-11-10T20:09:55Z</time>
      </trkpt>
      <trkpt lat="47.89626" lon="-1.79297">
        <ele>76</ele>
        <time>2012-11-10T20:09:35Z</time>
      </trkpt>
      <trkpt lat="47.89624" lon="-1.79238">
        <ele>61</ele>
        <time>2012-11-10T20:09:15Z</time>
      </trkpt>
      <trkpt lat="47.89635" lon="-1.79082">
        <ele>59</ele>
        <time>2012-11-10T20:08:55Z</time>
      </trkpt>
      <trkpt lat="47.89686" lon="-1.7907">
        <ele>59</ele>
        <time>2012-11-10T20:08:35Z</time>
      </trkpt>
      <trkpt lat="47.89769" lon="-1.79122">
        <ele>67</ele>
        <time>2012-11-10T20:08:15Z</time>
      </trkpt>
      <trkpt lat="47.89787" lon="-1.79088">
        <ele>67</ele>
        <time>2012-11-10T20:07:55Z</time>
      </trkpt>
      <trkpt lat="47.89826" lon="-1.79101">
        <ele>72</ele>
        <time>2012-11-10T20:07:35Z</time>
      </trkpt>
      <trkpt lat="47.89874" lon="-1.79039">
        <ele>75</ele>
        <time>2012-11-10T20:07:15Z</time>
      </trkpt>
      <trkpt lat="47.89859" lon="-1.78996">
        <ele>75</ele>
        <time>2012-11-10T20:06:55Z</time>
      </trkpt>
      <trkpt lat="47.89908" lon="-1.78997">
        <ele>79</ele>
        <time>2012-11-10T20:06:35Z</time>
      </trkpt>
      <trkpt lat="47.89928" lon="-1.78836">
        <ele>84</ele>
        <time>2012-11-10T20:06:15Z</time>
      </trkpt>
      <trkpt lat="47.90009" lon="-1.78842">
        <ele>85</ele>
        <time>2012-11-10T20:05:55Z</time>
      </trkpt>
      <trkpt lat="47.90049" lon="-1.78739">
        <ele>88</ele>
        <time>2012-11-10T20:05:35Z</time>
      </trkpt>
      <trkpt lat="47.90067" lon="-1.78728">
        <ele>88</ele>
        <time>2012-11-10T20:05:15Z</time>
      </trkpt>
      <trkpt lat="47.90172" lon="-1.78782">
        <ele>79</ele>
        <time>2012-11-10T20:04:55Z</time>
      </trkpt>
      <trkpt lat="47.90178" lon="-1.78786">
        <ele>79</ele>
        <time>2012-11-10T20:04:35Z</time>
      </trkpt>
      <trkpt lat="47.9019" lon="-1.78938">
        <ele>73</ele>
        <time>2012-11-10T20:04:15Z</time>
      </trkpt>
      <trkpt lat="47.90238" lon="-1.78915">
        <ele>72</ele>
        <time>2012-11-10T20:03:55Z</time>
      </trkpt>
      <trkpt lat="47.90313" lon="-1.78873">
        <ele>60</ele>
        <time>2012-11-10T20:03:35Z</time>
      </trkpt>
      <trkpt lat="47.90326" lon="-1.78841">
        <ele>60</ele>
        <time>2012-11-10T20:03:15Z</time>
      </trkpt>
      <trkpt lat="47.90328" lon="-1.78775">
        <ele>57</ele>
        <time>2012-11-10T20:02:55Z</time>
      </trkpt>
      <trkpt lat="47.90336" lon="-1.78708">
        <ele>51</ele>
        <time>2012-11-10T20:02:35Z</time>
      </trkpt>
      <trkpt lat="47.90341" lon="-1.78658">
        <ele>51</ele>
        <time>2012-11-10T20:02:15Z</time>
      </trkpt>
      <trkpt lat="47.90368" lon="-1.78619">
        <ele>56</ele>
        <time>2012-11-10T20:01:55Z</time>
      </trkpt>
      <trkpt lat="47.90413" lon="-1.78624">
        <ele>63</ele>
        <time>2012-11-10T20:01:35Z</time>
      </trkpt>
      <trkpt lat="47.90484" lon="-1.78618">
        <ele>73</ele>
        <time>2012-11-10T20:01:15Z</time>
      </trkpt>
      <trkpt lat="47.9051" lon="-1.7863">
        <ele>62</ele>
        <time>2012-11-10T20:00:55Z</time>
      </trkpt>
      <trkpt lat="47.90574" lon="-1.78701">
        <ele>76</ele>
        <time>2012-11-10T20:00:35Z</time>
      </trkpt>
      <trkpt lat="47.90582" lon="-1.78719">
        <ele>66</ele>
        <time>2012-11-10T20:00:15Z</time>
      </trkpt>
      <trkpt lat="47.90598" lon="-1.78724">
        <ele>66</ele>
        <time>2012-11-10T19:59:55Z</time>
      </trkpt>
      <trkpt lat="47.90624" lon="-1.78681">
        <ele>76</ele>
        <time>2012-11-10T19:59:35Z</time>
      </trkpt>
      <trkpt lat="47.90674" lon="-1.78401">
        <ele>92</ele>
        <time>2012-11-10T19:59:15Z</time>
      </trkpt>
      <trkpt lat="47.90686" lon="-1.78391">
        <ele>92</ele>
        <time>2012-11-10T19:58:55Z</time>
      </trkpt>
      <trkpt lat="47.90744" lon="-1.77935">
        <ele>85</ele>
        <time>2012-11-10T19:58:35Z</time>
      </trkpt>
      <trkpt lat="47.90686" lon="-1.77897">
        <ele>74</ele>
        <time>2012-11-10T19:58:15Z</time>
      </trkpt>
      <trkpt lat="47.90729" lon="-1.77783">
        <ele>81</ele>
        <time>2012-11-10T19:57:55Z</time>
      </trkpt>
      <trkpt lat="47.90746" lon="-1.77712">
        <ele>81</ele>
        <time>2012-11-10T19:57:35Z</time>
      </trkpt>
      <trkpt lat="47.90741" lon="-1.77646">
        <ele>83</ele>
        <time>2012-11-10T19:57:15Z</time>
      </trkpt>
      <trkpt lat="47.9064" lon="-1.77627">
        <ele>73</ele>
        <time>2012-11-10T19:56:55Z</time>
      </trkpt>
      <trkpt lat="47.90628" lon="-1.77598">
        <ele>76</ele>
        <time>2012-11-10T19:56:35Z</time>
      </trkpt>
      <trkpt lat="47.9063" lon="-1.77522">
        <ele>75</ele>
        <time>2012-11-10T19:56:15Z</time>
      </trkpt>
      <trkpt lat="47.90619" lon="-1.77452">
        <ele>72</ele>
        <time>2012-11-10T19:55:55Z</time>
      </trkpt>
      <trkpt lat="47.90582" lon="-1.77337">
        <ele>73</ele>
        <time>2012-11-10T19:55:35Z</time>
      </trkpt>
      <trkpt lat="47.9057" lon="-1.77258">
        <ele>75</ele>
        <time>2012-11-10T19:55:15Z</time>
      </trkpt>
      <trkpt lat="47.90506" lon="-1.7715">
        <ele>57</ele>
        <time>2012-11-10T19:54:55Z</time>
      </trkpt>
      <trkpt lat="47.90506" lon="-1.77097">
        <ele>52</ele>
        <time>2012-11-10T19:54:35Z</time>
      </trkpt>
      <trkpt lat="47.90474" lon="-1.77082">
        <ele>52</ele>
        <time>2012-11-10T19:54:15Z</time>
      </trkpt>
      <trkpt lat="47.90324" lon="-1.76921">
        <ele>35</ele>
        <time>2012-11-10T19:53:55Z</time>
      </trkpt>
      <trkpt lat="47.90355" lon="-1.76712">
        <ele>39</ele>
        <time>2012-11-10T19:53:35Z</time>
      </trkpt>
      <trkpt lat="47.90362" lon="-1.7662">
        <ele>41</ele>
        <time>2012-11-10T19:53:15Z</time>
      </trkpt>
      <trkpt lat="47.90353" lon="-1.7655">
        <ele>41</ele>
        <time>2012-11-10T19:52:55Z</time>
      </trkpt>
      <trkpt lat="47.90371" lon="-1.7645">
        <ele>35</ele>
        <time>2012-11-10T19:52:35Z</time>
      </trkpt>
      <trkpt lat="47.90375" lon="-1.76397">
        <ele>39</ele>
        <time>2012-11-10T19:52:15Z</time>
      </trkpt>
      <trkpt lat="47.9037" lon="-1.7634">
        <ele>33</ele>
        <time>2012-11-10T19:51:55Z</time>
      </trkpt>
      <trkpt lat="47.9035" lon="-1.76287">
        <ele>29</ele>
        <time>2012-11-10T19:51:35Z</time>
      </trkpt>
      <trkpt lat="47.90323" lon="-1.76289">
        <ele>29</ele>
        <time>2012-11-10T19:51:15Z</time>
      </trkpt>
      <trkpt lat="47.9031" lon="-1.76273">
        <ele>29</ele>
        <time>2012-11-10T19:50:55Z</time>
      </trkpt>
      <trkpt lat="47.90309" lon="-1.76221">
        <ele>29</ele>
        <time>2012-11-10T19:50:35Z</time>
      </trkpt>
      <trkpt lat="47.90281" lon="-1.76216">
        <ele>28</ele>
        <time>2012-11-10T19:50:15Z</time>
      </trkpt>
      <trkpt lat="47.90196" lon="-1.76234">
        <ele>26</ele>
        <time>2012-11-10T19:49:55Z</time>
      </trkpt>
      <trkpt lat="47.90107" lon="-1.7627">
        <ele>24</ele>
        <time>2012-11-10T19:49:35Z</time>
      </trkpt>
      <trkpt lat="47.90046" lon="-1.76305">
        <ele>26</ele>
        <time>2012-11-10T19:49:15Z</time>
      </trkpt>
      <trkpt lat="47.89969" lon="-1.76259">
        <ele>21</ele>
        <time>2012-11-10T19:48:55Z</time>
      </trkpt>
      <trkpt lat="47.89888" lon="-1.76151">
        <ele>18</ele>
        <time>2012-11-10T19:48:35Z</time>
      </trkpt>
      <trkpt lat="47.89859" lon="-1.76146">
        <ele>17</ele>
        <time>2012-11-10T19:48:15Z</time>
      </trkpt>
      <trkpt lat="47.89835" lon="-1.76138">
        <ele>17</ele>
        <time>2012-11-10T19:47:55Z</time>
      </trkpt>
      <trkpt lat="47.89811" lon="-1.76095">
        <ele>15</ele>
        <time>2012-11-10T19:47:35Z</time>
      </trkpt>
      <trkpt lat="47.89797" lon="-1.76071">
        <ele>15</ele>
        <time>2012-11-10T19:47:15Z</time>
      </trkpt>
      <trkpt lat="47.89775" lon="-1.76062">
        <ele>13</ele>
        <time>2012-11-10T19:46:55Z</time>
      </trkpt>
      <trkpt lat="47.8971" lon="-1.76098">
        <ele>13</ele>
        <time>2012-11-10T19:46:35Z</time>
      </trkpt>
      <trkpt lat="47.89642" lon="-1.75944">
        <ele>10</ele>
        <time>2012-11-10T19:46:15Z</time>
      </trkpt>
      <trkpt lat="47.89729" lon="-1.75843">
        <ele>11</ele>
        <time>2012-11-10T19:45:55Z</time>
      </trkpt>
      <trkpt lat="47.89787" lon="-1.75808">
        <ele>11</ele>
        <time>2012-11-10T19:45:35Z</time>
      </trkpt>
      <trkpt lat="47.89866" lon="-1.75783">
        <ele>11</ele>
        <time>2012-11-10T19:45:15Z</time>
      </trkpt>
      <trkpt lat="47.89855" lon="-1.75618">
        <ele>29</ele>
        <time>2012-11-10T19:44:55Z</time>
      </trkpt>
      <trkpt lat="47.8975" lon="-1.75662">
        <ele>21</ele>
        <time>2012-11-10T19:44:35Z</time>
      </trkpt>
      <trkpt lat="47.8972" lon="-1.75652">
        <ele>21</ele>
        <time>2012-11-10T19:44:15Z</time>
      </trkpt>
      <trkpt lat="47.89652" lon="-1.75757">
        <ele>30</ele>
        <time>2012-11-10T19:43:55Z</time>
      </trkpt>
      <trkpt lat="47.89621" lon="-1.75782">
        <ele>42</ele>
        <time>2012-11-10T19:43:35Z</time>
      </trkpt>
      <trkpt lat="47.89571" lon="-1.75879">
        <ele>26</ele>
        <time>2012-11-10T19:43:15Z</time>
      </trkpt>
      <trkpt lat="47.89553" lon="-1.75877">
        <ele>26</ele>
        <time>2012-11-10T19:42:55Z</time>
      </trkpt>
      <trkpt lat="47.8946" lon="-1.75821">
        <ele>44</ele>
        <time>2012-11-10T19:42:35Z</time>
      </trkpt>
      <trkpt lat="47.89429" lon="-1.7579">
        <ele>48</ele>
        <time>2012-11-10T19:42:15Z</time>
      </trkpt>
      <trkpt lat="47.89413" lon="-1.75744">
        <ele>48</ele>
        <time>2012-11-10T19:41:55Z</time>
      </trkpt>
      <trkpt lat="47.89453" lon="-1.75654">
        <ele>48</ele>
        <time>2012-11-10T19:41:35Z</time>
      </trkpt>
      <trkpt lat="47.89481" lon="-1.75523">
        <ele>40</ele>
        <time>2012-11-10T19:41:15Z</time>
      </trkpt>
      <trkpt lat="47.89529" lon="-1.75524">
        <ele>40</ele>
        <time>2012-11-10T19:40:55Z</time>
      </trkpt>
      <trkpt lat="47.89607" lon="-1.75577">
        <ele>38</ele>
        <time>2012-11-10T19:40:35Z</time>
      </trkpt>
      <trkpt lat="47.89682" lon="-1.75539">
        <ele>44</ele>
        <time>2012-11-10T19:40:15Z</time>
      </trkpt>
      <trkpt lat="47.89777" lon="-1.75547">
        <ele>32</ele>
        <time>2012-11-10T19:39:55Z</time>
      </trkpt>
      <trkpt lat="47.89737" lon="-1.75519">
        <ele>46</ele>
        <time>2012-11-10T19:39:35Z</time>
      </trkpt>
      <trkpt lat="47.89602" lon="-1.75472">
        <ele>40</ele>
        <time>2012-11-10T19:39:15Z</time>
      </trkpt>
      <trkpt lat="47.89597" lon="-1.7545">
        <ele>51</ele>
        <time>2012-11-10T19:38:55Z</time>
      </trkpt>
      <trkpt lat="47.89628" lon="-1.75353">
        <ele>56</ele>
        <time>2012-11-10T19:38:35Z</time>
      </trkpt>
      <trkpt lat="47.89636" lon="-1.75279">
        <ele>61</ele>
        <time>2012-11-10T19:38:15Z</time>
      </trkpt>
      <trkpt lat="47.89658" lon="-1.75231">
        <ele>61</ele>
        <time>2012-11-10T19:37:55Z</time>
      </trkpt>
      <trkpt lat="47.89688" lon="-1.75205">
        <ele>64</ele>
        <time>2012-11-10T19:37:35Z</time>
      </trkpt>
      <trkpt lat="47.89714" lon="-1.75154">
        <ele>59</ele>
        <time>2012-11-10T19:37:15Z</time>
      </trkpt>
      <trkpt lat="47.89711" lon="-1.75115">
        <ele>61</ele>
        <time>2012-11-10T19:36:55Z</time>
      </trkpt>
      <trkpt lat="47.89701" lon="-1.75063">
        <ele>65</ele>
        <time>2012-11-10T19:36:35Z</time>
      </trkpt>
      <trkpt lat="47.89761" lon="-1.75039">
        <ele>60</ele>
        <time>2012-11-10T19:36:15Z</time>
      </trkpt>
      <trkpt lat="47.89767" lon="-1.74923">
        <ele>58</ele>
        <time>2012-11-10T19:35:55Z</time>
      </trkpt>
      <trkpt lat="47.89798" lon="-1.74804">
        <ele>44</ele>
        <time>2012-11-10T19:35:35Z</time>
      </trkpt>
      <trkpt lat="47.89804" lon="-1.74704">
        <ele>43</ele>
        <time>2012-11-10T19:35:15Z</time>
      </trkpt>
      <trkpt lat="47.89822" lon="-1.74653">
        <ele>43</ele>
        <time>2012-11-10T19:34:55Z</time>
      </trkpt>
      <trkpt lat="47.89845" lon="-1.74526">
        <ele>42</ele>
        <time>2012-11-10T19:34:35Z</time>
      </trkpt>
      <trkpt lat="47.89814" lon="-1.74514">
        <ele>42</ele>
        <time>2012-11-10T19:34:15Z</time>
      </trkpt>
      <trkpt lat="47.8984" lon="-1.74388">
        <ele>44</ele>
        <time>2012-11-10T19:33:55Z</time>
      </trkpt>
      <trkpt lat="47.89842" lon="-1.74353">
        <ele>43</ele>
        <time>2012-11-10T19:33:35Z</time>
      </trkpt>
      <trkpt lat="47.90096" lon="-1.74249">
        <ele>25</ele>
        <time>2012-11-10T19:33:15Z</time>
      </trkpt>
      <trkpt lat="47.90169" lon="-1.74187">
        <ele>24</ele>
        <time>2012-11-10T19:32:55Z</time>
      </trkpt>
      <trkpt lat="47.90278" lon="-1.74066">
        <ele>21</ele>
        <time>2012-11-10T19:32:35Z</time>
      </trkpt>
      <trkpt lat="47.90371" lon="-1.73977">
        <ele>18</ele>
        <time>2012-11-10T19:32:15Z</time>
      </trkpt>
      <trkpt lat="47.90416" lon="-1.73965">
        <ele>15</ele>
        <time>2012-11-10T19:31:55Z</time>
      </trkpt>
      <trkpt lat="47.90628" lon="-1.74">
        <ele>13</ele>
        <time>2012-11-10T19:31:35Z</time>
      </trkpt>
      <trkpt lat="47.90651" lon="-1.74043">
        <ele>15</ele>
        <time>2012-11-10T19:31:15Z</time>
      </trkpt>
      <trkpt lat="47.90674" lon="-1.74133">
        <ele>13</ele>
        <time>2012-11-10T19:30:55Z</time>
      </trkpt>
      <trkpt lat="47.90694" lon="-1.74234">
        <ele>13</ele>
        <time>2012-11-10T19:30:35Z</time>
      </trkpt>
      <trkpt lat="47.90705" lon="-1.74375">
        <ele>14</ele>
        <time>2012-11-10T19:30:15Z</time>
      </trkpt>
      <trkpt lat="47.90718" lon="-1.74585">
        <ele>15</ele>
        <time>2012-11-10T19:29:55Z</time>
      </trkpt>
      <trkpt lat="47.90693" lon="-1.74651">
        <ele>15</ele>
        <time>2012-11-10T19:29:35Z</time>
      </trkpt>
      <trkpt lat="47.90662" lon="-1.7474">
        <ele>17</ele>
        <time>2012-11-10T19:29:15Z</time>
      </trkpt>
      <trkpt lat="47.90578" lon="-1.74907">
        <ele>18</ele>
        <time>2012-11-10T19:28:55Z</time>
      </trkpt>
      <trkpt lat="47.90417" lon="-1.75109">
        <ele>17</ele>
        <time>2012-11-10T19:28:35Z</time>
      </trkpt>
      <trkpt lat="47.90284" lon="-1.7526">
        <ele>12</ele>
        <time>2012-11-10T19:28:15Z</time>
      </trkpt>
      <trkpt lat="47.90346" lon="-1.75375">
        <ele>15</ele>
        <time>2012-11-10T19:27:55Z</time>
      </trkpt>
      <trkpt lat="47.90361" lon="-1.75424">
        <ele>15</ele>
        <time>2012-11-10T19:27:35Z</time>
      </trkpt>
      <trkpt lat="47.90401" lon="-1.75511">
        <ele>14</ele>
        <time>2012-11-10T19:27:15Z</time>
      </trkpt>
      <trkpt lat="47.90383" lon="-1.75529">
        <ele>14</ele>
        <time>2012-11-10T19:26:55Z</time>
      </trkpt>
      <trkpt lat="47.90417" lon="-1.75565">
        <ele>14</ele>
        <time>2012-11-10T19:26:35Z</time>
      </trkpt>
      <trkpt lat="47.90451" lon="-1.7562">
        <ele>14</ele>
        <time>2012-11-10T19:26:15Z</time>
      </trkpt>
      <trkpt lat="47.90491" lon="-1.75656">
        <ele>16</ele>
        <time>2012-11-10T19:25:55Z</time>
      </trkpt>
      <trkpt lat="47.90521" lon="-1.75714">
        <ele>15</ele>
        <time>2012-11-10T19:25:35Z</time>
      </trkpt>
      <trkpt lat="47.90549" lon="-1.75784">
        <ele>17</ele>
        <time>2012-11-10T19:25:15Z</time>
      </trkpt>
      <trkpt lat="47.90587" lon="-1.75852">
        <ele>16</ele>
        <time>2012-11-10T19:24:55Z</time>
      </trkpt>
      <trkpt lat="47.90617" lon="-1.75925">
        <ele>15</ele>
        <time>2012-11-10T19:24:35Z</time>
      </trkpt>
      <trkpt lat="47.90723" lon="-1.76038">
        <ele>21</ele>
        <time>2012-11-10T19:24:15Z</time>
      </trkpt>
      <trkpt lat="47.90789" lon="-1.76054">
        <ele>17</ele>
        <time>2012-11-10T19:23:55Z</time>
      </trkpt>
      <trkpt lat="47.90862" lon="-1.76131">
        <ele>20</ele>
        <time>2012-11-10T19:23:35Z</time>
      </trkpt>
      <trkpt lat="47.90904" lon="-1.76157">
        <ele>26</ele>
        <time>2012-11-10T19:23:15Z</time>
      </trkpt>
      <trkpt lat="47.90938" lon="-1.76183">
        <ele>26</ele>
        <time>2012-11-10T19:22:55Z</time>
      </trkpt>
      <trkpt lat="47.9099" lon="-1.76198">
        <ele>32</ele>
        <time>2012-11-10T19:22:35Z</time>
      </trkpt>
      <trkpt lat="47.91046" lon="-1.76242">
        <ele>31</ele>
        <time>2012-11-10T19:22:15Z</time>
      </trkpt>
      <trkpt lat="47.91103" lon="-1.76303">
        <ele>25</ele>
        <time>2012-11-10T19:21:55Z</time>
      </trkpt>
      <trkpt lat="47.91145" lon="-1.76332">
        <ele>27</ele>
        <time>2012-11-10T19:21:35Z</time>
      </trkpt>
      <trkpt lat="47.91264" lon="-1.76349">
        <ele>33</ele>
        <time>2012-11-10T19:21:15Z</time>
      </trkpt>
      <trkpt lat="47.9127" lon="-1.76301">
        <ele>33</ele>
        <time>2012-11-10T19:20:55Z</time>
      </trkpt>
      <trkpt lat="47.91298" lon="-1.7625">
        <ele>38</ele>
        <time>2012-11-10T19:20:35Z</time>
      </trkpt>
      <trkpt lat="47.91357" lon="-1.76296">
        <ele>37</ele>
        <time>2012-11-10T19:20:15Z</time>
      </trkpt>
      <trkpt lat="47.91593" lon="-1.76273">
        <ele>24</ele>
        <time>2012-11-10T19:19:55Z</time>
      </trkpt>
      <trkpt lat="47.91644" lon="-1.76257">
        <ele>20</ele>
        <time>2012-11-10T19:19:35Z</time>
      </trkpt>
      <trkpt lat="47.91814" lon="-1.76156">
        <ele>18</ele>
        <time>2012-11-10T19:19:15Z</time>
      </trkpt>
      <trkpt lat="47.91872" lon="-1.76133">
        <ele>18</ele>
        <time>2012-11-10T19:18:55Z</time>
      </trkpt>
      <trkpt lat="47.91941" lon="-1.76137">
        <ele>17</ele>
        <time>2012-11-10T19:18:35Z</time>
      </trkpt>
      <trkpt lat="47.9195" lon="-1.76109">
        <ele>18</ele>
        <time>2012-11-10T19:18:15Z</time>
      </trkpt>
      <trkpt lat="47.91953" lon="-1.75935">
        <ele>27</ele>
        <time>2012-11-10T19:17:55Z</time>
      </trkpt>
      <trkpt lat="47.92027" lon="-1.75903">
        <ele>26</ele>
        <time>2012-11-10T19:17:35Z</time>
      </trkpt>
      <trkpt lat="47.92084" lon="-1.75867">
        <ele>22</ele>
        <time>2012-11-10T19:17:15Z</time>
      </trkpt>
      <trkpt lat="47.92175" lon="-1.75834">
        <ele>17</ele>
        <time>2012-11-10T19:16:55Z</time>
      </trkpt>
      <trkpt lat="47.92177" lon="-1.75714">
        <ele>19</ele>
        <time>2012-11-10T19:16:35Z</time>
      </trkpt>
      <trkpt lat="47.92153" lon="-1.75626">
        <ele>20</ele>
        <time>2012-11-10T19:16:15Z</time>
      </trkpt>
      <trkpt lat="47.9208" lon="-1.75567">
        <ele>51</ele>
        <time>2012-11-10T19:15:55Z</time>
      </trkpt>
      <trkpt lat="47.92018" lon="-1.75445">
        <ele>47</ele>
        <time>2012-11-10T19:15:35Z</time>
      </trkpt>
      <trkpt lat="47.92006" lon="-1.75404">
        <ele>47</ele>
        <time>2012-11-10T19:15:15Z</time>
      </trkpt>
      <trkpt lat="47.92014" lon="-1.75353">
        <ele>43</ele>
        <time>2012-11-10T19:14:55Z</time>
      </trkpt>
      <trkpt lat="47.92002" lon="-1.7531">
        <ele>43</ele>
        <time>2012-11-10T19:14:35Z</time>
      </trkpt>
      <trkpt lat="47.91999" lon="-1.75223">
        <ele>40</ele>
        <time>2012-11-10T19:14:15Z</time>
      </trkpt>
      <trkpt lat="47.9199" lon="-1.75182">
        <ele>40</ele>
        <time>2012-11-10T19:13:55Z</time>
      </trkpt>
      <trkpt lat="47.91965" lon="-1.75158">
        <ele>40</ele>
        <time>2012-11-10T19:13:35Z</time>
      </trkpt>
      <trkpt lat="47.91976" lon="-1.75061">
        <ele>41</ele>
        <time>2012-11-10T19:13:15Z</time>
      </trkpt>
      <trkpt lat="47.91996" lon="-1.75022">
        <ele>44</ele>
        <time>2012-11-10T19:12:55Z</time>
      </trkpt>
      <trkpt lat="47.92012" lon="-1.74961">
        <ele>44</ele>
        <time>2012-11-10T19:12:35Z</time>
      </trkpt>
      <trkpt lat="47.92019" lon="-1.74904">
        <ele>47</ele>
        <time>2012-11-10T19:12:15Z</time>
      </trkpt>
      <trkpt lat="47.92022" lon="-1.74617">
        <ele>53</ele>
        <time>2012-11-10T19:11:55Z</time>
      </trkpt>
      <trkpt lat="47.92069" lon="-1.74621">
        <ele>49</ele>
        <time>2012-11-10T19:11:35Z</time>
      </trkpt>
      <trkpt lat="47.92136" lon="-1.74574">
        <ele>41</ele>
        <time>2012-11-10T19:11:15Z</time>
      </trkpt>
      <trkpt lat="47.92165" lon="-1.74564">
        <ele>41</ele>
        <time>2012-11-10T19:10:55Z</time>
      </trkpt>
      <trkpt lat="47.92222" lon="-1.74537">
        <ele>35</ele>
        <time>2012-11-10T19:10:35Z</time>
      </trkpt>
      <trkpt lat="47.92259" lon="-1.74503">
        <ele>35</ele>
        <time>2012-11-10T19:10:15Z</time>
      </trkpt>
      <trkpt lat="47.92286" lon="-1.74458">
        <ele>33</ele>
        <time>2012-11-10T19:09:55Z</time>
      </trkpt>
      <trkpt lat="47.92337" lon="-1.74409">
        <ele>26</ele>
        <time>2012-11-10T19:09:35Z</time>
      </trkpt>
      <trkpt lat="47.92409" lon="-1.74404">
        <ele>28</ele>
        <time>2012-11-10T19:09:15Z</time>
      </trkpt>
      <trkpt lat="47.9253" lon="-1.7443">
        <ele>29</ele>
        <time>2012-11-10T19:08:55Z</time>
      </trkpt>
      <trkpt lat="47.92569" lon="-1.74452">
        <ele>27</ele>
        <time>2012-11-10T19:08:35Z</time>
      </trkpt>
      <trkpt lat="47.92576" lon="-1.74492">
        <ele>28</ele>
        <time>2012-11-10T19:08:15Z</time>
      </trkpt>
      <trkpt lat="47.92529" lon="-1.74632">
        <ele>15</ele>
        <time>2012-11-10T19:07:55Z</time>
      </trkpt>
      <trkpt lat="47.92562" lon="-1.74675">
        <ele>18</ele>
        <time>2012-11-10T19:07:35Z</time>
      </trkpt>
      <trkpt lat="47.92605" lon="-1.74664">
        <ele>18</ele>
        <time>2012-11-10T19:07:15Z</time>
      </trkpt>
      <trkpt lat="47.92651" lon="-1.74707">
        <ele>22</ele>
        <time>2012-11-10T19:06:55Z</time>
      </trkpt>
      <trkpt lat="47.92688" lon="-1.74712">
        <ele>12</ele>
        <time>2012-11-10T19:06:35Z</time>
      </trkpt>
      <trkpt lat="47.92691" lon="-1.74739">
        <ele>12</ele>
        <time>2012-11-10T19:06:15Z</time>
      </trkpt>
      <trkpt lat="47.92738" lon="-1.74821">
        <ele>17</ele>
        <time>2012-11-10T19:05:55Z</time>
      </trkpt>
      <trkpt lat="47.92746" lon="-1.74907">
        <ele>17</ele>
        <time>2012-11-10T19:05:35Z</time>
      </trkpt>
      <trkpt lat="47.92741" lon="-1.74986">
        <ele>14</ele>
        <time>2012-11-10T19:05:15Z</time>
      </trkpt>
      <trkpt lat="47.92735" lon="-1.75002">
        <ele>14</ele>
        <time>2012-11-10T19:04:55Z</time>
      </trkpt>
      <trkpt lat="47.92739" lon="-1.75037">
        <ele>14</ele>
        <time>2012-11-10T19:04:35Z</time>
      </trkpt>
      <trkpt lat="47.92784" lon="-1.75005">
        <ele>14</ele>
        <time>2012-11-10T19:04:15Z</time>
      </trkpt>
      <trkpt lat="47.92796" lon="-1.75046">
        <ele>15</ele>
        <time>2012-11-10T19:03:55Z</time>
      </trkpt>
      <trkpt lat="47.92797" lon="-1.75077">
        <ele>15</ele>
        <time>2012-11-10T19:03:35Z</time>
      </trkpt>
      <trkpt lat="47.92748" lon="-1.75143">
        <ele>15</ele>
        <time>2012-11-10T19:03:15Z</time>
      </trkpt>
      <trkpt lat="47.92745" lon="-1.75256">
        <ele>14</ele>
        <time>2012-11-10T19:02:55Z</time>
      </trkpt>
      <trkpt lat="47.92736" lon="-1.75428">
        <ele>15</ele>
        <time>2012-11-10T19:02:35Z</time>
      </trkpt>
      <trkpt lat="47.92738" lon="-1.75479">
        <ele>15</ele>
        <time>2012-11-10T19:02:15Z</time>
      </trkpt>
      <trkpt lat="47.92758" lon="-1.7556">
        <ele>16</ele>
        <time>2012-11-10T19:01:55Z</time>
      </trkpt>
      <trkpt lat="47.92777" lon="-1.75657">
        <ele>15</ele>
        <time>2012-11-10T19:01:35Z</time>
      </trkpt>
      <trkpt lat="47.92798" lon="-1.7571">
        <ele>15</ele>
        <time>2012-11-10T19:01:15Z</time>
      </trkpt>
      <trkpt lat="47.92896" lon="-1.75783">
        <ele>17</ele>
        <time>2012-11-10T19:00:55Z</time>
      </trkpt>
      <trkpt lat="47.92962" lon="-1.75875">
        <ele>16</ele>
        <time>2012-11-10T19:00:35Z</time>
      </trkpt>
      <trkpt lat="47.93" lon="-1.75903">
        <ele>12</ele>
        <time>2012-11-10T19:00:15Z</time>
      </trkpt>
      <trkpt lat="47.93123" lon="-1.75938">
        <ele>12</ele>
        <time>2012-11-10T18:59:55Z</time>
      </trkpt>
      <trkpt lat="47.93185" lon="-1.75939">
        <ele>13</ele>
        <time>2012-11-10T18:59:35Z</time>
      </trkpt>
      <trkpt lat="47.93196" lon="-1.75912">
        <ele>13</ele>
        <time>2012-11-10T18:59:15Z</time>
      </trkpt>
      <trkpt lat="47.93165" lon="-1.75815">
        <ele>17</ele>
        <time>2012-11-10T18:58:55Z</time>
      </trkpt>
      <trkpt lat="47.93138" lon="-1.7569">
        <ele>22</ele>
        <time>2012-11-10T18:58:35Z</time>
      </trkpt>
      <trkpt lat="47.93218" lon="-1.75663">
        <ele>22</ele>
        <time>2012-11-10T18:58:15Z</time>
      </trkpt>
      <trkpt lat="47.93384" lon="-1.75565">
        <ele>24</ele>
        <time>2012-11-10T18:57:55Z</time>
      </trkpt>
      <trkpt lat="47.93469" lon="-1.75472">
        <ele>21</ele>
        <time>2012-11-10T18:57:35Z</time>
      </trkpt>
      <trkpt lat="47.93483" lon="-1.75423">
        <ele>28</ele>
        <time>2012-11-10T18:57:15Z</time>
      </trkpt>
      <trkpt lat="47.93501" lon="-1.75388">
        <ele>28</ele>
        <time>2012-11-10T18:56:55Z</time>
      </trkpt>
      <trkpt lat="47.93546" lon="-1.75252">
        <ele>26</ele>
        <time>2012-11-10T18:56:35Z</time>
      </trkpt>
      <trkpt lat="47.93554" lon="-1.75212">
        <ele>26</ele>
        <time>2012-11-10T18:56:15Z</time>
      </trkpt>
      <trkpt lat="47.93596" lon="-1.75187">
        <ele>32</ele>
        <time>2012-11-10T18:55:55Z</time>
      </trkpt>
      <trkpt lat="47.93632" lon="-1.75189">
        <ele>29</ele>
        <time>2012-11-10T18:55:35Z</time>
      </trkpt>
      <trkpt lat="47.93683" lon="-1.75127">
        <ele>29</ele>
        <time>2012-11-10T18:55:15Z</time>
      </trkpt>
      <trkpt lat="47.93696" lon="-1.74904">
        <ele>47</ele>
        <time>2012-11-10T18:54:55Z</time>
      </trkpt>
      <trkpt lat="47.93723" lon="-1.74666">
        <ele>57</ele>
        <time>2012-11-10T18:54:35Z</time>
      </trkpt>
      <trkpt lat="47.93735" lon="-1.74596">
        <ele>59</ele>
        <time>2012-11-10T18:54:15Z</time>
      </trkpt>
      <trkpt lat="47.93733" lon="-1.74532">
        <ele>58</ele>
        <time>2012-11-10T18:53:55Z</time>
      </trkpt>
      <trkpt lat="47.93745" lon="-1.74368">
        <ele>65</ele>
        <time>2012-11-10T18:53:35Z</time>
      </trkpt>
      <trkpt lat="47.93788" lon="-1.74345">
        <ele>65</ele>
        <time>2012-11-10T18:53:15Z</time>
      </trkpt>
      <trkpt lat="47.93829" lon="-1.74341">
        <ele>67</ele>
        <time>2012-11-10T18:52:55Z</time>
      </trkpt>
      <trkpt lat="47.93849" lon="-1.74234">
        <ele>67</ele>
        <time>2012-11-10T18:52:35Z</time>
      </trkpt>
      <trkpt lat="47.9385" lon="-1.74165">
        <ele>68</ele>
        <time>2012-11-10T18:52:15Z</time>
      </trkpt>
      <trkpt lat="47.93832" lon="-1.74057">
        <ele>68</ele>
        <time>2012-11-10T18:51:55Z</time>
      </trkpt>
      <trkpt lat="47.93934" lon="-1.74061">
        <ele>62</ele>
        <time>2012-11-10T18:51:35Z</time>
      </trkpt>
      <trkpt lat="47.93945" lon="-1.74137">
        <ele>65</ele>
        <time>2012-11-10T18:51:15Z</time>
      </trkpt>
      <trkpt lat="47.93952" lon="-1.74218">
        <ele>69</ele>
        <time>2012-11-10T18:50:55Z</time>
      </trkpt>
      <trkpt lat="47.93973" lon="-1.74291">
        <ele>70</ele>
        <time>2012-11-10T18:50:35Z</time>
      </trkpt>
      <trkpt lat="47.93979" lon="-1.7443">
        <ele>69</ele>
        <time>2012-11-10T18:50:15Z</time>
      </trkpt>
      <trkpt lat="47.93975" lon="-1.74459">
        <ele>69</ele>
        <time>2012-11-10T18:49:55Z</time>
      </trkpt>
      <trkpt lat="47.94001" lon="-1.74476">
        <ele>69</ele>
        <time>2012-11-10T18:49:35Z</time>
      </trkpt>
      <trkpt lat="47.94092" lon="-1.74481">
        <ele>70</ele>
        <time>2012-11-10T18:49:15Z</time>
      </trkpt>
      <trkpt lat="47.94202" lon="-1.74461">
        <ele>74</ele>
        <time>2012-11-10T18:48:55Z</time>
      </trkpt>
      <trkpt lat="47.9427" lon="-1.74392">
        <ele>74</ele>
        <time>2012-11-10T18:48:35Z</time>
      </trkpt>
      <trkpt lat="47.94317" lon="-1.74308">
        <ele>68</ele>
        <time>2012-11-10T18:48:15Z</time>
      </trkpt>
      <trkpt lat="47.94349" lon="-1.74129">
        <ele>57</ele>
        <time>2012-11-10T18:47:55Z</time>
      </trkpt>
      <trkpt lat="47.94408" lon="-1.74221">
        <ele>57</ele>
        <time>2012-11-10T18:47:35Z</time>
      </trkpt>
      <trkpt lat="47.94449" lon="-1.74266">
        <ele>57</ele>
        <time>2012-11-10T18:47:15Z</time>
      </trkpt>
      <trkpt lat="47.94502" lon="-1.74296">
        <ele>57</ele>
        <time>2012-11-10T18:46:55Z</time>
      </trkpt>
      <trkpt lat="47.94595" lon="-1.74393">
        <ele>37</ele>
        <time>2012-11-10T18:46:35Z</time>
      </trkpt>
      <trkpt lat="47.94625" lon="-1.74449">
        <ele>25</ele>
        <time>2012-11-10T18:46:15Z</time>
      </trkpt>
      <trkpt lat="47.94644" lon="-1.74559">
        <ele>25</ele>
        <time>2012-11-10T18:45:55Z</time>
      </trkpt>
      <trkpt lat="47.94659" lon="-1.74586">
        <ele>25</ele>
        <time>2012-11-10T18:45:35Z</time>
      </trkpt>
      <trkpt lat="47.94719" lon="-1.74617">
        <ele>22</ele>
        <time>2012-11-10T18:45:15Z</time>
      </trkpt>
      <trkpt lat="47.94838" lon="-1.74658">
        <ele>22</ele>
        <time>2012-11-10T18:44:55Z</time>
      </trkpt>
      <trkpt lat="47.95154" lon="-1.74537">
        <ele>47</ele>
        <time>2012-11-10T18:44:35Z</time>
      </trkpt>
      <trkpt lat="47.95231" lon="-1.7447">
        <ele>40</ele>
        <time>2012-11-10T18:44:15Z</time>
      </trkpt>
      <trkpt lat="47.95254" lon="-1.74436">
        <ele>54</ele>
        <time>2012-11-10T18:43:55Z</time>
      </trkpt>
      <trkpt lat="47.95359" lon="-1.7434">
        <ele>69</ele>
        <time>2012-11-10T18:43:35Z</time>
      </trkpt>
      <trkpt lat="47.9541" lon="-1.7432">
        <ele>71</ele>
        <time>2012-11-10T18:43:15Z</time>
      </trkpt>
      <trkpt lat="47.95455" lon="-1.74318">
        <ele>71</ele>
        <time>2012-11-10T18:42:55Z</time>
      </trkpt>
      <trkpt lat="47.95401" lon="-1.74173">
        <ele>78</ele>
        <time>2012-11-10T18:42:35Z</time>
      </trkpt>
      <trkpt lat="47.954" lon="-1.74121">
        <ele>79</ele>
        <time>2012-11-10T18:42:15Z</time>
      </trkpt>
      <trkpt lat="47.95415" lon="-1.74055">
        <ele>79</ele>
        <time>2012-11-10T18:41:55Z</time>
      </trkpt>
      <trkpt lat="47.95417" lon="-1.74027">
        <ele>78</ele>
        <time>2012-11-10T18:41:35Z</time>
      </trkpt>
      <trkpt lat="47.95437" lon="-1.73954">
        <ele>82</ele>
        <time>2012-11-10T18:41:15Z</time>
      </trkpt>
      <trkpt lat="47.95467" lon="-1.73855">
        <ele>76</ele>
        <time>2012-11-10T18:40:55Z</time>
      </trkpt>
      <trkpt lat="47.95528" lon="-1.73706">
        <ele>75</ele>
        <time>2012-11-10T18:40:35Z</time>
      </trkpt>
      <trkpt lat="47.95548" lon="-1.73696">
        <ele>66</ele>
        <time>2012-11-10T18:40:15Z</time>
      </trkpt>
      <trkpt lat="47.95642" lon="-1.73727">
        <ele>56</ele>
        <time>2012-11-10T18:39:55Z</time>
      </trkpt>
      <trkpt lat="47.95667" lon="-1.73728">
        <ele>56</ele>
        <time>2012-11-10T18:39:35Z</time>
      </trkpt>
      <trkpt lat="47.95677" lon="-1.73639">
        <ele>55</ele>
        <time>2012-11-10T18:39:15Z</time>
      </trkpt>
      <trkpt lat="47.95683" lon="-1.73556">
        <ele>58</ele>
        <time>2012-11-10T18:38:55Z</time>
      </trkpt>
      <trkpt lat="47.95695" lon="-1.73518">
        <ele>59</ele>
        <time>2012-11-10T18:38:35Z</time>
      </trkpt>
      <trkpt lat="47.95937" lon="-1.73602">
        <ele>35</ele>
        <time>2012-11-10T18:38:15Z</time>
      </trkpt>
      <trkpt lat="47.95973" lon="-1.73609">
        <ele>35</ele>
        <time>2012-11-10T18:37:55Z</time>
      </trkpt>
      <trkpt lat="47.95994" lon="-1.73623">
        <ele>35</ele>
        <time>2012-11-10T18:37:35Z</time>
      </trkpt>
      <trkpt lat="47.96115" lon="-1.73628">
        <ele>27</ele>
        <time>2012-11-10T18:37:15Z</time>
      </trkpt>
      <trkpt lat="47.96142" lon="-1.73617">
        <ele>29</ele>
        <time>2012-11-10T18:36:55Z</time>
      </trkpt>
      <trkpt lat="47.96175" lon="-1.73624">
        <ele>29</ele>
        <time>2012-11-10T18:36:35Z</time>
      </trkpt>
      <trkpt lat="47.96212" lon="-1.73608">
        <ele>28</ele>
        <time>2012-11-10T18:36:15Z</time>
      </trkpt>
      <trkpt lat="47.96261" lon="-1.73624">
        <ele>28</ele>
        <time>2012-11-10T18:35:55Z</time>
      </trkpt>
      <trkpt lat="47.96275" lon="-1.73537">
        <ele>28</ele>
        <time>2012-11-10T18:35:35Z</time>
      </trkpt>
      <trkpt lat="47.96417" lon="-1.73555">
        <ele>25</ele>
        <time>2012-11-10T18:35:15Z</time>
      </trkpt>
      <trkpt lat="47.96465" lon="-1.73553">
        <ele>28</ele>
        <time>2012-11-10T18:34:55Z</time>
      </trkpt>
      <trkpt lat="47.96565" lon="-1.73539">
        <ele>36</ele>
        <time>2012-11-10T18:34:35Z</time>
      </trkpt>
      <trkpt lat="47.96647" lon="-1.73497">
        <ele>29</ele>
        <time>2012-11-10T18:34:15Z</time>
      </trkpt>
      <trkpt lat="47.9672" lon="-1.73458">
        <ele>31</ele>
        <time>2012-11-10T18:33:55Z</time>
      </trkpt>
      <trkpt lat="47.96766" lon="-1.73468">
        <ele>29</ele>
        <time>2012-11-10T18:33:35Z</time>
      </trkpt>
      <trkpt lat="47.96771" lon="-1.73486">
        <ele>29</ele>
        <time>2012-11-10T18:33:15Z</time>
      </trkpt>
      <trkpt lat="47.96807" lon="-1.7353">
        <ele>29</ele>
        <time>2012-11-10T18:32:55Z</time>
      </trkpt>
      <trkpt lat="47.96882" lon="-1.7354">
        <ele>32</ele>
        <time>2012-11-10T18:32:35Z</time>
      </trkpt>
      <trkpt lat="47.9692" lon="-1.73558">
        <ele>30</ele>
        <time>2012-11-10T18:32:15Z</time>
      </trkpt>
      <trkpt lat="47.97031" lon="-1.73558">
        <ele>37</ele>
        <time>2012-11-10T18:31:55Z</time>
      </trkpt>
      <trkpt lat="47.97168" lon="-1.73587">
        <ele>50</ele>
        <time>2012-11-10T18:31:35Z</time>
      </trkpt>
      <trkpt lat="47.97252" lon="-1.73612">
        <ele>57</ele>
        <time>2012-11-10T18:31:15Z</time>
      </trkpt>
      <trkpt lat="47.97335" lon="-1.73649">
        <ele>68</ele>
        <time>2012-11-10T18:30:55Z</time>
      </trkpt>
      <trkpt lat="47.97369" lon="-1.7365">
        <ele>68</ele>
        <time>2012-11-10T18:30:35Z</time>
      </trkpt>
      <trkpt lat="47.9745" lon="-1.73645">
        <ele>80</ele>
        <time>2012-11-10T18:30:15Z</time>
      </trkpt>
      <trkpt lat="47.97489" lon="-1.73631">
        <ele>83</ele>
        <time>2012-11-10T18:29:55Z</time>
      </trkpt>
      <trkpt lat="47.97518" lon="-1.73633">
        <ele>83</ele>
        <time>2012-11-10T18:29:35Z</time>
      </trkpt>
      <trkpt lat="47.97577" lon="-1.73663">
        <ele>84</ele>
        <time>2012-11-10T18:29:15Z</time>
      </trkpt>
      <trkpt lat="47.9761" lon="-1.73683">
        <ele>84</ele>
        <time>2012-11-10T18:28:55Z</time>
      </trkpt>
      <trkpt lat="47.97581" lon="-1.73836">
        <ele>75</ele>
        <time>2012-11-10T18:28:35Z</time>
      </trkpt>
      <trkpt lat="47.97549" lon="-1.73839">
        <ele>75</ele>
        <time>2012-11-10T18:28:15Z</time>
      </trkpt>
      <trkpt lat="47.97496" lon="-1.73856">
        <ele>75</ele>
        <time>2012-11-10T18:27:55Z</time>
      </trkpt>
      <trkpt lat="47.97451" lon="-1.739">
        <ele>70</ele>
        <time>2012-11-10T18:27:35Z</time>
      </trkpt>
      <trkpt lat="47.97435" lon="-1.7394">
        <ele>70</ele>
        <time>2012-11-10T18:27:15Z</time>
      </trkpt>
      <trkpt lat="47.97517" lon="-1.74045">
        <ele>61</ele>
        <time>2012-11-10T18:26:55Z</time>
      </trkpt>
      <trkpt lat="47.97427" lon="-1.7428">
        <ele>45</ele>
        <time>2012-11-10T18:26:35Z</time>
      </trkpt>
      <trkpt lat="47.97428" lon="-1.74323">
        <ele>40</ele>
        <time>2012-11-10T18:26:15Z</time>
      </trkpt>
      <trkpt lat="47.97355" lon="-1.74472">
        <ele>29</ele>
        <time>2012-11-10T18:25:55Z</time>
      </trkpt>
      <trkpt lat="47.97409" lon="-1.74495">
        <ele>33</ele>
        <time>2012-11-10T18:25:35Z</time>
      </trkpt>
      <trkpt lat="47.9743" lon="-1.74526">
        <ele>33</ele>
        <time>2012-11-10T18:25:15Z</time>
      </trkpt>
      <trkpt lat="47.97546" lon="-1.74639">
        <ele>48</ele>
        <time>2012-11-10T18:24:55Z</time>
      </trkpt>
      <trkpt lat="47.97562" lon="-1.74641">
        <ele>48</ele>
        <time>2012-11-10T18:24:35Z</time>
      </trkpt>
      <trkpt lat="47.9758" lon="-1.74565">
        <ele>57</ele>
        <time>2012-11-10T18:24:15Z</time>
      </trkpt>
      <trkpt lat="47.97602" lon="-1.74541">
        <ele>66</ele>
        <time>2012-11-10T18:23:55Z</time>
      </trkpt>
      <trkpt lat="47.9764" lon="-1.7459">
        <ele>71</ele>
        <time>2012-11-10T18:23:35Z</time>
      </trkpt>
      <trkpt lat="47.97685" lon="-1.74573">
        <ele>71</ele>
        <time>2012-11-10T18:23:15Z</time>
      </trkpt>
      <trkpt lat="47.97794" lon="-1.74507">
        <ele>81</ele>
        <time>2012-11-10T18:22:55Z</time>
      </trkpt>
      <trkpt lat="47.97874" lon="-1.74482">
        <ele>81</ele>
        <time>2012-11-10T18:22:35Z</time>
      </trkpt>
      <trkpt lat="47.97951" lon="-1.74483">
        <ele>84</ele>
        <time>2012-11-10T18:22:15Z</time>
      </trkpt>
      <trkpt lat="47.97995" lon="-1.74507">
        <ele>85</ele>
        <time>2012-11-10T18:21:55Z</time>
      </trkpt>
      <trkpt lat="47.98072" lon="-1.74578">
        <ele>83</ele>
        <time>2012-11-10T18:21:35Z</time>
      </trkpt>
      <trkpt lat="47.98095" lon="-1.74529">
        <ele>82</ele>
        <time>2012-11-10T18:21:15Z</time>
      </trkpt>
      <trkpt lat="47.98115" lon="-1.74446">
        <ele>84</ele>
        <time>2012-11-10T18:20:55Z</time>
      </trkpt>
      <trkpt lat="47.98121" lon="-1.74356">
        <ele>87</ele>
        <time>2012-11-10T18:20:35Z</time>
      </trkpt>
      <trkpt lat="47.98113" lon="-1.7427">
        <ele>89</ele>
        <time>2012-11-10T18:20:15Z</time>
      </trkpt>
      <trkpt lat="47.98136" lon="-1.7426">
        <ele>90</ele>
        <time>2012-11-10T18:19:55Z</time>
      </trkpt>
      <trkpt lat="47.9823" lon="-1.74301">
        <ele>88</ele>
        <time>2012-11-10T18:19:35Z</time>
      </trkpt>
      <trkpt lat="47.98274" lon="-1.74336">
        <ele>88</ele>
        <time>2012-11-10T18:19:15Z</time>
      </trkpt>
      <trkpt lat="47.98384" lon="-1.74277">
        <ele>92</ele>
        <time>2012-11-10T18:18:55Z</time>
      </trkpt>
      <trkpt lat="47.98523" lon="-1.7428">
        <ele>92</ele>
        <time>2012-11-10T18:18:35Z</time>
      </trkpt>
      <trkpt lat="47.98502" lon="-1.74552">
        <ele>85</ele>
        <time>2012-11-10T18:18:15Z</time>
      </trkpt>
      <trkpt lat="47.98507" lon="-1.74607">
        <ele>85</ele>
        <time>2012-11-10T18:17:55Z</time>
      </trkpt>
      <trkpt lat="47.98575" lon="-1.74539">
        <ele>82</ele>
        <time>2012-11-10T18:17:35Z</time>
      </trkpt>
      <trkpt lat="47.98584" lon="-1.74552">
        <ele>80</ele>
        <time>2012-11-10T18:17:15Z</time>
      </trkpt>
      <trkpt lat="47.98619" lon="-1.74572">
        <ele>80</ele>
        <time>2012-11-10T18:16:55Z</time>
      </trkpt>
      <trkpt lat="47.98649" lon="-1.74615">
        <ele>78</ele>
        <time>2012-11-10T18:16:35Z</time>
      </trkpt>
      <trkpt lat="47.98661" lon="-1.7469">
        <ele>77</ele>
        <time>2012-11-10T18:16:15Z</time>
      </trkpt>
      <trkpt lat="47.98768" lon="-1.74767">
        <ele>76</ele>
        <time>2012-11-10T18:15:55Z</time>
      </trkpt>
      <trkpt lat="47.98787" lon="-1.74771">
        <ele>76</ele>
        <time>2012-11-10T18:15:35Z</time>
      </trkpt>
      <trkpt lat="47.98812" lon="-1.74799">
        <ele>73</ele>
        <time>2012-11-10T18:15:15Z</time>
      </trkpt>
      <trkpt lat="47.98893" lon="-1.74821">
        <ele>64</ele>
        <time>2012-11-10T18:14:55Z</time>
      </trkpt>
      <trkpt lat="47.98969" lon="-1.7483">
        <ele>61</ele>
        <time>2012-11-10T18:14:35Z</time>
      </trkpt>
      <trkpt lat="47.98965" lon="-1.74998">
        <ele>65</ele>
        <time>2012-11-10T18:14:15Z</time>
      </trkpt>
      <trkpt lat="47.98953" lon="-1.75106">
        <ele>71</ele>
        <time>2012-11-10T18:13:55Z</time>
      </trkpt>
      <trkpt lat="47.98978" lon="-1.75155">
        <ele>65</ele>
        <time>2012-11-10T18:13:35Z</time>
      </trkpt>
      <trkpt lat="47.98959" lon="-1.75299">
        <ele>65</ele>
        <time>2012-11-10T18:13:15Z</time>
      </trkpt>
      <trkpt lat="47.98961" lon="-1.75382">
        <ele>61</ele>
        <time>2012-11-10T18:12:55Z</time>
      </trkpt>
      <trkpt lat="47.98974" lon="-1.7546">
        <ele>49</ele>
        <time>2012-11-10T18:12:35Z</time>
      </trkpt>
      <trkpt lat="47.99011" lon="-1.75469">
        <ele>49</ele>
        <time>2012-11-10T18:12:15Z</time>
      </trkpt>
      <trkpt lat="47.9906" lon="-1.75427">
        <ele>54</ele>
        <time>2012-11-10T18:11:55Z</time>
      </trkpt>
      <trkpt lat="47.99069" lon="-1.75396">
        <ele>54</ele>
        <time>2012-11-10T18:11:35Z</time>
      </trkpt>
      <trkpt lat="47.99094" lon="-1.75394">
        <ele>54</ele>
        <time>2012-11-10T18:11:15Z</time>
      </trkpt>
      <trkpt lat="47.99119" lon="-1.75375">
        <ele>54</ele>
        <time>2012-11-10T18:10:55Z</time>
      </trkpt>
      <trkpt lat="47.99209" lon="-1.75255">
        <ele>50</ele>
        <time>2012-11-10T18:10:35Z</time>
      </trkpt>
      <trkpt lat="47.99311" lon="-1.75223">
        <ele>43</ele>
        <time>2012-11-10T18:10:15Z</time>
      </trkpt>
      <trkpt lat="47.9935" lon="-1.75156">
        <ele>48</ele>
        <time>2012-11-10T18:09:55Z</time>
      </trkpt>
      <trkpt lat="47.99299" lon="-1.75095">
        <ele>46</ele>
        <time>2012-11-10T18:09:35Z</time>
      </trkpt>
      <trkpt lat="47.99303" lon="-1.75038">
        <ele>47</ele>
        <time>2012-11-10T18:09:15Z</time>
      </trkpt>
      <trkpt lat="47.99326" lon="-1.74989">
        <ele>47</ele>
        <time>2012-11-10T18:08:55Z</time>
      </trkpt>
      <trkpt lat="47.99352" lon="-1.74985">
        <ele>47</ele>
        <time>2012-11-10T18:08:35Z</time>
      </trkpt>
      <trkpt lat="47.99365" lon="-1.74988">
        <ele>47</ele>
        <time>2012-11-10T18:08:15Z</time>
      </trkpt>
      <trkpt lat="47.99537" lon="-1.75002">
        <ele>49</ele>
        <time>2012-11-10T18:07:55Z</time>
      </trkpt>
      <trkpt lat="47.99573" lon="-1.74922">
        <ele>47</ele>
        <time>2012-11-10T18:07:35Z</time>
      </trkpt>
      <trkpt lat="47.99613" lon="-1.7486">
        <ele>46</ele>
        <time>2012-11-10T18:07:15Z</time>
      </trkpt>
      <trkpt lat="47.99638" lon="-1.74872">
        <ele>41</ele>
        <time>2012-11-10T18:06:55Z</time>
      </trkpt>
      <trkpt lat="47.99643" lon="-1.74914">
        <ele>36</ele>
        <time>2012-11-10T18:06:35Z</time>
      </trkpt>
      <trkpt lat="47.99662" lon="-1.75012">
        <ele>32</ele>
        <time>2012-11-10T18:06:15Z</time>
      </trkpt>
      <trkpt lat="47.99671" lon="-1.75171">
        <ele>21</ele>
        <time>2012-11-10T18:05:55Z</time>
      </trkpt>
      <trkpt lat="47.99721" lon="-1.75198">
        <ele>27</ele>
        <time>2012-11-10T18:05:35Z</time>
      </trkpt>
      <trkpt lat="47.99775" lon="-1.75178">
        <ele>27</ele>
        <time>2012-11-10T18:05:15Z</time>
      </trkpt>
      <trkpt lat="47.99775" lon="-1.75155">
        <ele>27</ele>
        <time>2012-11-10T18:04:55Z</time>
      </trkpt>
      <trkpt lat="47.99812" lon="-1.75159">
        <ele>25</ele>
        <time>2012-11-10T18:04:35Z</time>
      </trkpt>
      <trkpt lat="47.99926" lon="-1.75141">
        <ele>23</ele>
        <time>2012-11-10T18:04:15Z</time>
      </trkpt>
      <trkpt lat="48.0001" lon="-1.75144">
        <ele>22</ele>
        <time>2012-11-10T18:03:55Z</time>
      </trkpt>
      <trkpt lat="48.00103" lon="-1.75165">
        <ele>23</ele>
        <time>2012-11-10T18:03:35Z</time>
      </trkpt>
      <trkpt lat="48.0012" lon="-1.75143">
        <ele>23</ele>
        <time>2012-11-10T18:03:15Z</time>
      </trkpt>
      <trkpt lat="48.00129" lon="-1.74103">
        <ele>32</ele>
        <time>2012-11-10T18:02:55Z</time>
      </trkpt>
      <trkpt lat="48.0009" lon="-1.74079">
        <ele>33</ele>
        <time>2012-11-10T18:02:35Z</time>
      </trkpt>
      <trkpt lat="48.00106" lon="-1.73938">
        <ele>35</ele>
        <time>2012-11-10T18:02:15Z</time>
      </trkpt>
      <trkpt lat="48.00116" lon="-1.73842">
        <ele>37</ele>
        <time>2012-11-10T18:01:55Z</time>
      </trkpt>
      <trkpt lat="47.99951" lon="-1.73782">
        <ele>49</ele>
        <time>2012-11-10T18:01:35Z</time>
      </trkpt>
      <trkpt lat="47.99846" lon="-1.73758">
        <ele>55</ele>
        <time>2012-11-10T18:01:15Z</time>
      </trkpt>
      <trkpt lat="47.99839" lon="-1.73747">
        <ele>55</ele>
        <time>2012-11-10T18:00:55Z</time>
      </trkpt>
      <trkpt lat="47.99858" lon="-1.73712">
        <ele>55</ele>
        <time>2012-11-10T18:00:35Z</time>
      </trkpt>
      <trkpt lat="47.99867" lon="-1.73613">
        <ele>54</ele>
        <time>2012-11-10T18:00:15Z</time>
      </trkpt>
      <trkpt lat="47.99844" lon="-1.73584">
        <ele>54</ele>
        <time>2012-11-10T17:59:55Z</time>
      </trkpt>
      <trkpt lat="47.99846" lon="-1.735">
        <ele>58</ele>
        <time>2012-11-10T17:59:35Z</time>
      </trkpt>
      <trkpt lat="47.99786" lon="-1.73307">
        <ele>57</ele>
        <time>2012-11-10T17:59:15Z</time>
      </trkpt>
      <trkpt lat="47.99828" lon="-1.73069">
        <ele>60</ele>
        <time>2012-11-10T17:58:55Z</time>
      </trkpt>
      <trkpt lat="47.99827" lon="-1.73014">
        <ele>59</ele>
        <time>2012-11-10T17:58:35Z</time>
      </trkpt>
      <trkpt lat="47.99932" lon="-1.73011">
        <ele>51</ele>
        <time>2012-11-10T17:58:15Z</time>
      </trkpt>
      <trkpt lat="48.00079" lon="-1.73025">
        <ele>41</ele>
        <time>2012-11-10T17:57:55Z</time>
      </trkpt>
      <trkpt lat="48.00111" lon="-1.73022">
        <ele>41</ele>
        <time>2012-11-10T17:57:35Z</time>
      </trkpt>
      <trkpt lat="48.00245" lon="-1.73028">
        <ele>38</ele>
        <time>2012-11-10T17:57:15Z</time>
      </trkpt>
      <trkpt lat="48.00273" lon="-1.72974">
        <ele>38</ele>
        <time>2012-11-10T17:56:55Z</time>
      </trkpt>
      <trkpt lat="48.00293" lon="-1.72957">
        <ele>35</ele>
        <time>2012-11-10T17:56:35Z</time>
      </trkpt>
      <trkpt lat="48.00344" lon="-1.72968">
        <ele>35</ele>
        <time>2012-11-10T17:56:15Z</time>
      </trkpt>
      <trkpt lat="48.00357" lon="-1.72933">
        <ele>35</ele>
        <time>2012-11-10T17:55:55Z</time>
      </trkpt>
      <trkpt lat="48.0043" lon="-1.72938">
        <ele>32</ele>
        <time>2012-11-10T17:55:35Z</time>
      </trkpt>
      <trkpt lat="48.00422" lon="-1.72851">
        <ele>32</ele>
        <time>2012-11-10T17:55:15Z</time>
      </trkpt>
      <trkpt lat="48.00409" lon="-1.72794">
        <ele>32</ele>
        <time>2012-11-10T17:54:55Z</time>
      </trkpt>
      <trkpt lat="48.00362" lon="-1.72685">
        <ele>35</ele>
        <time>2012-11-10T17:54:35Z</time>
      </trkpt>
      <trkpt lat="48.00354" lon="-1.72464">
        <ele>35</ele>
        <time>2012-11-10T17:54:15Z</time>
      </trkpt>
      <trkpt lat="48.0033" lon="-1.72418">
        <ele>34</ele>
        <time>2012-11-10T17:53:55Z</time>
      </trkpt>
      <trkpt lat="48.00377" lon="-1.72415">
        <ele>34</ele>
        <time>2012-11-10T17:53:35Z</time>
      </trkpt>
      <trkpt lat="48.00391" lon="-1.724">
        <ele>34</ele>
        <time>2012-11-10T17:53:15Z</time>
      </trkpt>
      <trkpt lat="48.00453" lon="-1.72388">
        <ele>34</ele>
        <time>2012-11-10T17:52:55Z</time>
      </trkpt>
      <trkpt lat="48.0051" lon="-1.72392">
        <ele>30</ele>
        <time>2012-11-10T17:52:35Z</time>
      </trkpt>
      <trkpt lat="48.0051" lon="-1.72407">
        <ele>30</ele>
        <time>2012-11-10T17:52:15Z</time>
      </trkpt>
      <trkpt lat="48.00525" lon="-1.72429">
        <ele>30</ele>
        <time>2012-11-10T17:51:55Z</time>
      </trkpt>
      <trkpt lat="48.00548" lon="-1.72533">
        <ele>27</ele>
        <time>2012-11-10T17:51:35Z</time>
      </trkpt>
      <trkpt lat="48.00557" lon="-1.72628">
        <ele>26</ele>
        <time>2012-11-10T17:51:15Z</time>
      </trkpt>
      <trkpt lat="48.00656" lon="-1.72587">
        <ele>25</ele>
        <time>2012-11-10T17:50:55Z</time>
      </trkpt>
      <trkpt lat="48.00676" lon="-1.72555">
        <ele>25</ele>
        <time>2012-11-10T17:50:35Z</time>
      </trkpt>
      <trkpt lat="48.00759" lon="-1.72541">
        <ele>26</ele>
        <time>2012-11-10T17:50:15Z</time>
      </trkpt>
      <trkpt lat="48.00769" lon="-1.72527">
        <ele>26</ele>
        <time>2012-11-10T17:49:55Z</time>
      </trkpt>
      <trkpt lat="48.00766" lon="-1.72474">
        <ele>26</ele>
        <time>2012-11-10T17:49:35Z</time>
      </trkpt>
      <trkpt lat="48.00777" lon="-1.72455">
        <ele>25</ele>
        <time>2012-11-10T17:49:15Z</time>
      </trkpt>
      <trkpt lat="48.00945" lon="-1.7242">
        <ele>22</ele>
        <time>2012-11-10T17:48:55Z</time>
      </trkpt>
      <trkpt lat="48.01032" lon="-1.72455">
        <ele>21</ele>
        <time>2012-11-10T17:48:35Z</time>
      </trkpt>
      <trkpt lat="48.01059" lon="-1.72454">
        <ele>20</ele>
        <time>2012-11-10T17:48:15Z</time>
      </trkpt>
      <trkpt lat="48.01242" lon="-1.72484">
        <ele>19</ele>
        <time>2012-11-10T17:47:55Z</time>
      </trkpt>
      <trkpt lat="48.01257" lon="-1.72502">
        <ele>19</ele>
        <time>2012-11-10T17:47:35Z</time>
      </trkpt>
      <trkpt lat="48.01312" lon="-1.72644">
        <ele>19</ele>
        <time>2012-11-10T17:47:15Z</time>
      </trkpt>
      <trkpt lat="48.01347" lon="-1.72687">
        <ele>19</ele>
        <time>2012-11-10T17:46:55Z</time>
      </trkpt>
      <trkpt lat="48.01572" lon="-1.7279">
        <ele>19</ele>
        <time>2012-11-10T17:46:35Z</time>
      </trkpt>
      <trkpt lat="48.0176" lon="-1.72452">
        <ele>20</ele>
        <time>2012-11-10T17:46:15Z</time>
      </trkpt>
      <trkpt lat="48.01782" lon="-1.72473">
        <ele>20</ele>
        <time>2012-11-10T17:45:55Z</time>
      </trkpt>
      <trkpt lat="48.01791" lon="-1.72441">
        <ele>20</ele>
        <time>2012-11-10T17:45:35Z</time>
      </trkpt>
      <trkpt lat="48.0189" lon="-1.72282">
        <ele>21</ele>
        <time>2012-11-10T17:45:15Z</time>
      </trkpt>
      <trkpt lat="48.01896" lon="-1.72264">
        <ele>21</ele>
        <time>2012-11-10T17:44:55Z</time>
      </trkpt>
      <trkpt lat="48.01916" lon="-1.72245">
        <ele>21</ele>
        <time>2012-11-10T17:44:35Z</time>
      </trkpt>
      <trkpt lat="48.01923" lon="-1.72224">
        <ele>21</ele>
        <time>2012-11-10T17:44:15Z</time>
      </trkpt>
      <trkpt lat="48.01957" lon="-1.72188">
        <ele>20</ele>
        <time>2012-11-10T17:43:55Z</time>
      </trkpt>
      <trkpt lat="48.02055" lon="-1.7216">
        <ele>21</ele>
        <time>2012-11-10T17:43:35Z</time>
      </trkpt>
      <trkpt lat="48.02221" lon="-1.72174">
        <ele>25</ele>
        <time>2012-11-10T17:43:15Z</time>
      </trkpt>
      <trkpt lat="48.02268" lon="-1.72151">
        <ele>25</ele>
        <time>2012-11-10T17:42:55Z</time>
      </trkpt>
      <trkpt lat="48.02372" lon="-1.71967">
        <ele>21</ele>
        <time>2012-11-10T17:42:35Z</time>
      </trkpt>
      <trkpt lat="48.02502" lon="-1.71583">
        <ele>23</ele>
        <time>2012-11-10T17:42:15Z</time>
      </trkpt>
      <trkpt lat="48.02548" lon="-1.71617">
        <ele>20</ele>
        <time>2012-11-10T17:41:55Z</time>
      </trkpt>
      <trkpt lat="48.02698" lon="-1.71681">
        <ele>22</ele>
        <time>2012-11-10T17:41:35Z</time>
      </trkpt>
      <trkpt lat="48.02722" lon="-1.71724">
        <ele>25</ele>
        <time>2012-11-10T17:41:15Z</time>
      </trkpt>
      <trkpt lat="48.02734" lon="-1.71791">
        <ele>25</ele>
        <time>2012-11-10T17:40:55Z</time>
      </trkpt>
      <trkpt lat="48.02763" lon="-1.71825">
        <ele>25</ele>
        <time>2012-11-10T17:40:35Z</time>
      </trkpt>
      <trkpt lat="48.028" lon="-1.71849">
        <ele>29</ele>
        <time>2012-11-10T17:40:15Z</time>
      </trkpt>
      <trkpt lat="48.02915" lon="-1.71373">
        <ele>28</ele>
        <time>2012-11-10T17:39:55Z</time>
      </trkpt>
      <trkpt lat="48.0293" lon="-1.7134">
        <ele>28</ele>
        <time>2012-11-10T17:39:35Z</time>
      </trkpt>
      <trkpt lat="48.02953" lon="-1.71254">
        <ele>27</ele>
        <time>2012-11-10T17:39:15Z</time>
      </trkpt>
      <trkpt lat="48.02996" lon="-1.71293">
        <ele>30</ele>
        <time>2012-11-10T17:38:55Z</time>
      </trkpt>
      <trkpt lat="48.0302" lon="-1.71266">
        <ele>28</ele>
        <time>2012-11-10T17:38:35Z</time>
      </trkpt>
      <trkpt lat="48.0304" lon="-1.71336">
        <ele>30</ele>
        <time>2012-11-10T17:38:15Z</time>
      </trkpt>
      <trkpt lat="48.03093" lon="-1.71395">
        <ele>34</ele>
        <time>2012-11-10T17:37:55Z</time>
      </trkpt>
      <trkpt lat="48.03112" lon="-1.71434">
        <ele>34</ele>
        <time>2012-11-10T17:37:35Z</time>
      </trkpt>
      <trkpt lat="48.0317" lon="-1.71435">
        <ele>35</ele>
        <time>2012-11-10T17:37:15Z</time>
      </trkpt>
      <trkpt lat="48.032" lon="-1.71418">
        <ele>35</ele>
        <time>2012-11-10T17:36:55Z</time>
      </trkpt>
      <trkpt lat="48.0323" lon="-1.71409">
        <ele>36</ele>
        <time>2012-11-10T17:36:35Z</time>
      </trkpt>
      <trkpt lat="48.0325" lon="-1.71416">
        <ele>36</ele>
        <time>2012-11-10T17:36:15Z</time>
      </trkpt>
      <trkpt lat="48.03272" lon="-1.71462">
        <ele>34</ele>
        <time>2012-11-10T17:35:55Z</time>
      </trkpt>
      <trkpt lat="48.0328" lon="-1.71416">
        <ele>36</ele>
        <time>2012-11-10T17:35:35Z</time>
      </trkpt>
      <trkpt lat="48.03313" lon="-1.71414">
        <ele>37</ele>
        <time>2012-11-10T17:35:15Z</time>
      </trkpt>
      <trkpt lat="48.0336" lon="-1.71399">
        <ele>37</ele>
        <time>2012-11-10T17:34:55Z</time>
      </trkpt>
      <trkpt lat="48.03444" lon="-1.71394">
        <ele>37</ele>
        <time>2012-11-10T17:34:35Z</time>
      </trkpt>
      <trkpt lat="48.03489" lon="-1.71373">
        <ele>39</ele>
        <time>2012-11-10T17:34:15Z</time>
      </trkpt>
      <trkpt lat="48.03663" lon="-1.71372">
        <ele>40</ele>
        <time>2012-11-10T17:33:55Z</time>
      </trkpt>
      <trkpt lat="48.03663" lon="-1.71292">
        <ele>40</ele>
        <time>2012-11-10T17:33:35Z</time>
      </trkpt>
      <trkpt lat="48.03655" lon="-1.71223">
        <ele>40</ele>
        <time>2012-11-10T17:33:15Z</time>
      </trkpt>
      <trkpt lat="48.03639" lon="-1.711">
        <ele>40</ele>
        <time>2012-11-10T17:32:55Z</time>
      </trkpt>
      <trkpt lat="48.03598" lon="-1.71026">
        <ele>36</ele>
        <time>2012-11-10T17:32:35Z</time>
      </trkpt>
      <trkpt lat="48.0357" lon="-1.70959">
        <ele>36</ele>
        <time>2012-11-10T17:32:15Z</time>
      </trkpt>
      <trkpt lat="48.03568" lon="-1.70905">
        <ele>35</ele>
        <time>2012-11-10T17:31:55Z</time>
      </trkpt>
      <trkpt lat="48.03553" lon="-1.70887">
        <ele>35</ele>
        <time>2012-11-10T17:31:35Z</time>
      </trkpt>
      <trkpt lat="48.0346" lon="-1.70956">
        <ele>32</ele>
        <time>2012-11-10T17:31:15Z</time>
      </trkpt>
      <trkpt lat="48.03421" lon="-1.71008">
        <ele>35</ele>
        <time>2012-11-10T17:30:55Z</time>
      </trkpt>
      <trkpt lat="48.03391" lon="-1.70924">
        <ele>34</ele>
        <time>2012-11-10T17:30:35Z</time>
      </trkpt>
      <trkpt lat="48.03415" lon="-1.70863">
        <ele>31</ele>
        <time>2012-11-10T17:30:15Z</time>
      </trkpt>
      <trkpt lat="48.03408" lon="-1.70818">
        <ele>31</ele>
        <time>2012-11-10T17:29:55Z</time>
      </trkpt>
      <trkpt lat="48.03406" lon="-1.70745">
        <ele>29</ele>
        <time>2012-11-10T17:29:35Z</time>
      </trkpt>
      <trkpt lat="48.03342" lon="-1.70738">
        <ele>27</ele>
        <time>2012-11-10T17:29:15Z</time>
      </trkpt>
      <trkpt lat="48.03325" lon="-1.70626">
        <ele>28</ele>
        <time>2012-11-10T17:28:55Z</time>
      </trkpt>
      <trkpt lat="48.03296" lon="-1.70581">
        <ele>27</ele>
        <time>2012-11-10T17:28:35Z</time>
      </trkpt>
      <trkpt lat="48.03251" lon="-1.70551">
        <ele>29</ele>
        <time>2012-11-10T17:28:15Z</time>
      </trkpt>
      <trkpt lat="48.03247" lon="-1.70438">
        <ele>25</ele>
        <time>2012-11-10T17:27:55Z</time>
      </trkpt>
      <trkpt lat="48.03217" lon="-1.70385">
        <ele>25</ele>
        <time>2012-11-10T17:27:35Z</time>
      </trkpt>
      <trkpt lat="48.03185" lon="-1.70371">
        <ele>25</ele>
        <time>2012-11-10T17:27:15Z</time>
      </trkpt>
      <trkpt lat="48.03182" lon="-1.70302">
        <ele>25</ele>
        <time>2012-11-10T17:26:55Z</time>
      </trkpt>
      <trkpt lat="48.0317" lon="-1.70259">
        <ele>25</ele>
        <time>2012-11-10T17:26:35Z</time>
      </trkpt>
      <trkpt lat="48.03177" lon="-1.70168">
        <ele>24</ele>
        <time>2012-11-10T17:26:15Z</time>
      </trkpt>
      <trkpt lat="48.03186" lon="-1.7014">
        <ele>24</ele>
        <time>2012-11-10T17:25:55Z</time>
      </trkpt>
      <trkpt lat="48.03204" lon="-1.70028">
        <ele>26</ele>
        <time>2012-11-10T17:25:35Z</time>
      </trkpt>
      <trkpt lat="48.03196" lon="-1.69989">
        <ele>26</ele>
        <time>2012-11-10T17:25:15Z</time>
      </trkpt>
      <trkpt lat="48.0328" lon="-1.69981">
        <ele>25</ele>
        <time>2012-11-10T17:24:55Z</time>
      </trkpt>
      <trkpt lat="48.03423" lon="-1.69962">
        <ele>27</ele>
        <time>2012-11-10T17:24:35Z</time>
      </trkpt>
      <trkpt lat="48.03484" lon="-1.69913">
        <ele>28</ele>
        <time>2012-11-10T17:24:15Z</time>
      </trkpt>
      <trkpt lat="48.03602" lon="-1.69928">
        <ele>29</ele>
        <time>2012-11-10T17:23:55Z</time>
      </trkpt>
      <trkpt lat="48.03658" lon="-1.69948">
        <ele>32</ele>
        <time>2012-11-10T23:09:41Z</time>
      </trkpt>
      <trkpt lat="48.03758" lon="-1.69961">
        <ele>33</ele>
        <time>2012-11-10T23:09:21Z</time>
      </trkpt>
      <trkpt lat="48.03829" lon="-1.69981">
        <ele>36</ele>
        <time>2012-11-10T23:09:01Z</time>
      </trkpt>
      <trkpt lat="48.03911" lon="-1.70012">
        <ele>39</ele>
        <time>2012-11-10T23:08:41Z</time>
      </trkpt>
      <trkpt lat="48.04044" lon="-1.70138">
        <ele>39</ele>
        <time>2012-11-10T23:08:21Z</time>
      </trkpt>
      <trkpt lat="48.04052" lon="-1.702">
        <ele>39</ele>
        <time>2012-11-10T23:08:01Z</time>
      </trkpt>
      <trkpt lat="48.0406" lon="-1.70318">
        <ele>39</ele>
        <time>2012-11-10T23:07:41Z</time>
      </trkpt>
      <trkpt lat="48.04157" lon="-1.70321">
        <ele>39</ele>
        <time>2012-11-10T23:07:21Z</time>
      </trkpt>
      <trkpt lat="48.04164" lon="-1.70221">
        <ele>40</ele>
        <time>2012-11-10T23:07:01Z</time>
      </trkpt>
      <trkpt lat="48.04215" lon="-1.70212">
        <ele>41</ele>
        <time>2012-11-10T23:06:41Z</time>
      </trkpt>
      <trkpt lat="48.0433" lon="-1.70202">
        <ele>44</ele>
        <time>2012-11-10T23:06:21Z</time>
      </trkpt>
      <trkpt lat="48.04345" lon="-1.7022">
        <ele>40</ele>
        <time>2012-11-10T23:06:01Z</time>
      </trkpt>
      <trkpt lat="48.0435" lon="-1.70293">
        <ele>39</ele>
        <time>2012-11-10T23:05:41Z</time>
      </trkpt>
      <trkpt lat="48.04372" lon="-1.70358">
        <ele>39</ele>
        <time>2012-11-10T23:05:21Z</time>
      </trkpt>
      <trkpt lat="48.04454" lon="-1.70423">
        <ele>37</ele>
        <time>2012-11-10T23:05:01Z</time>
      </trkpt>
      <trkpt lat="48.04495" lon="-1.70421">
        <ele>39</ele>
        <time>2012-11-10T23:04:41Z</time>
      </trkpt>
      <trkpt lat="48.04508" lon="-1.70365">
        <ele>39</ele>
        <time>2012-11-10T23:04:21Z</time>
      </trkpt>
      <trkpt lat="48.04514" lon="-1.70146">
        <ele>44</ele>
        <time>2012-11-10T23:04:01Z</time>
      </trkpt>
      <trkpt lat="48.04554" lon="-1.70141">
        <ele>42</ele>
        <time>2012-11-10T23:03:41Z</time>
      </trkpt>
      <trkpt lat="48.04505" lon="-1.70044">
        <ele>44</ele>
        <time>2012-11-10T23:03:21Z</time>
      </trkpt>
      <trkpt lat="48.04536" lon="-1.70028">
        <ele>43</ele>
        <time>2012-11-10T23:03:01Z</time>
      </trkpt>
      <trkpt lat="48.04601" lon="-1.70016">
        <ele>45</ele>
        <time>2012-11-10T23:02:41Z</time>
      </trkpt>
      <trkpt lat="48.0468" lon="-1.70024">
        <ele>42</ele>
        <time>2012-11-10T23:02:21Z</time>
      </trkpt>
      <trkpt lat="48.04711" lon="-1.70016">
        <ele>44</ele>
        <time>2012-11-10T23:02:01Z</time>
      </trkpt>
      <trkpt lat="48.04753" lon="-1.70022">
        <ele>44</ele>
        <time>2012-11-10T23:01:41Z</time>
      </trkpt>
      <trkpt lat="48.04814" lon="-1.70015">
        <ele>46</ele>
        <time>2012-11-10T23:01:21Z</time>
      </trkpt>
      <trkpt lat="48.04858" lon="-1.70015">
        <ele>46</ele>
        <time>2012-11-10T23:01:01Z</time>
      </trkpt>
      <trkpt lat="48.04869" lon="-1.69524">
        <ele>44</ele>
        <time>2012-11-10T23:00:41Z</time>
      </trkpt>
      <trkpt lat="48.04881" lon="-1.69388">
        <ele>44</ele>
        <time>2012-11-10T23:00:21Z</time>
      </trkpt>
      <trkpt lat="48.04939" lon="-1.69393">
        <ele>44</ele>
        <time>2012-11-10T23:00:01Z</time>
      </trkpt>
      <trkpt lat="48.05003" lon="-1.69406">
        <ele>42</ele>
        <time>2012-11-10T22:59:41Z</time>
      </trkpt>
      <trkpt lat="48.05065" lon="-1.69425">
        <ele>44</ele>
        <time>2012-11-10T22:59:21Z</time>
      </trkpt>
      <trkpt lat="48.05102" lon="-1.69428">
        <ele>44</ele>
        <time>2012-11-10T22:59:01Z</time>
      </trkpt>
      <trkpt lat="48.0518" lon="-1.69449">
        <ele>42</ele>
        <time>2012-11-10T22:58:41Z</time>
      </trkpt>
      <trkpt lat="48.05217" lon="-1.69476">
        <ele>42</ele>
        <time>2012-11-10T22:58:21Z</time>
      </trkpt>
      <trkpt lat="48.05301" lon="-1.69493">
        <ele>43</ele>
        <time>2012-11-10T22:58:01Z</time>
      </trkpt>
      <trkpt lat="48.05335" lon="-1.69507">
        <ele>43</ele>
        <time>2012-11-10T22:57:41Z</time>
      </trkpt>
      <trkpt lat="48.05413" lon="-1.69465">
        <ele>45</ele>
        <time>2012-11-10T22:57:21Z</time>
      </trkpt>
      <trkpt lat="48.05433" lon="-1.6944">
        <ele>45</ele>
        <time>2012-11-10T22:57:01Z</time>
      </trkpt>
      <trkpt lat="48.05495" lon="-1.6943">
        <ele>43</ele>
        <time>2012-11-10T22:56:41Z</time>
      </trkpt>
      <trkpt lat="48.05507" lon="-1.69454">
        <ele>43</ele>
        <time>2012-11-10T22:56:21Z</time>
      </trkpt>
      <trkpt lat="48.05574" lon="-1.69489">
        <ele>44</ele>
        <time>2012-11-10T22:56:01Z</time>
      </trkpt>
      <trkpt lat="48.05617" lon="-1.6948">
        <ele>44</ele>
        <time>2012-11-10T22:55:41Z</time>
      </trkpt>
      <trkpt lat="48.05678" lon="-1.69474">
        <ele>44</ele>
        <time>2012-11-10T22:55:21Z</time>
      </trkpt>
      <trkpt lat="48.05701" lon="-1.69486">
        <ele>44</ele>
        <time>2012-11-10T22:55:01Z</time>
      </trkpt>
      <trkpt lat="48.05714" lon="-1.69502">
        <ele>44</ele>
        <time>2012-11-10T22:54:41Z</time>
      </trkpt>
      <trkpt lat="48.05771" lon="-1.69419">
        <ele>44</ele>
        <time>2012-11-10T22:54:21Z</time>
      </trkpt>
      <trkpt lat="48.05863" lon="-1.69317">
        <ele>44</ele>
        <time>2012-11-10T22:54:01Z</time>
      </trkpt>
      <trkpt lat="48.05901" lon="-1.69312">
        <ele>46</ele>
        <time>2012-11-10T22:53:41Z</time>
      </trkpt>
      <trkpt lat="48.05895" lon="-1.69283">
        <ele>45</ele>
        <time>2012-11-10T22:53:21Z</time>
      </trkpt>
      <trkpt lat="48.05911" lon="-1.69096">
        <ele>42</ele>
        <time>2012-11-10T22:53:01Z</time>
      </trkpt>
      <trkpt lat="48.05996" lon="-1.69042">
        <ele>41</ele>
        <time>2012-11-10T22:52:41Z</time>
      </trkpt>
      <trkpt lat="48.06029" lon="-1.69001">
        <ele>40</ele>
        <time>2012-11-10T22:52:21Z</time>
      </trkpt>
      <trkpt lat="48.06065" lon="-1.6899">
        <ele>41</ele>
        <time>2012-11-10T22:52:01Z</time>
      </trkpt>
      <trkpt lat="48.06086" lon="-1.68959">
        <ele>41</ele>
        <time>2012-11-10T22:51:41Z</time>
      </trkpt>
      <trkpt lat="48.06177" lon="-1.68976">
        <ele>41</ele>
        <time>2012-11-10T22:51:21Z</time>
      </trkpt>
      <trkpt lat="48.06217" lon="-1.69007">
        <ele>43</ele>
        <time>2012-11-10T22:51:01Z</time>
      </trkpt>
      <trkpt lat="48.06296" lon="-1.69031">
        <ele>44</ele>
        <time>2012-11-10T22:50:41Z</time>
      </trkpt>
      <trkpt lat="48.06352" lon="-1.69055">
        <ele>48</ele>
        <time>2012-11-10T22:50:21Z</time>
      </trkpt>
      <trkpt lat="48.06393" lon="-1.69057">
        <ele>46</ele>
        <time>2012-11-10T22:50:01Z</time>
      </trkpt>
      <trkpt lat="48.06437" lon="-1.69078">
        <ele>46</ele>
        <time>2012-11-10T22:49:41Z</time>
      </trkpt>
      <trkpt lat="48.06442" lon="-1.69048">
        <ele>46</ele>
        <time>2012-11-10T22:49:21Z</time>
      </trkpt>
      <trkpt lat="48.06441" lon="-1.68998">
        <ele>45</ele>
        <time>2012-11-10T22:49:01Z</time>
      </trkpt>
      <trkpt lat="48.06439" lon="-1.68889">
        <ele>46</ele>
        <time>2012-11-10T22:48:41Z</time>
      </trkpt>
      <trkpt lat="48.06432" lon="-1.68773">
        <ele>43</ele>
        <time>2012-11-10T22:48:21Z</time>
      </trkpt>
      <trkpt lat="48.06494" lon="-1.68751">
        <ele>41</ele>
        <time>2012-11-10T22:48:01Z</time>
      </trkpt>
      <trkpt lat="48.06587" lon="-1.68741">
        <ele>41</ele>
        <time>2012-11-10T22:47:41Z</time>
      </trkpt>
      <trkpt lat="48.06763" lon="-1.68744">
        <ele>42</ele>
        <time>2012-11-10T22:47:21Z</time>
      </trkpt>
      <trkpt lat="48.06777" lon="-1.68738">
        <ele>42</ele>
        <time>2012-11-10T22:47:01Z</time>
      </trkpt>
      <trkpt lat="48.06912" lon="-1.68735">
        <ele>42</ele>
        <time>2012-11-10T22:46:41Z</time>
      </trkpt>
      <trkpt lat="48.06943" lon="-1.68729">
        <ele>42</ele>
        <time>2012-11-10T22:46:21Z</time>
      </trkpt>
      <trkpt lat="48.06973" lon="-1.68706">
        <ele>42</ele>
        <time>2012-11-10T22:46:01Z</time>
      </trkpt>
      <trkpt lat="48.07031" lon="-1.68715">
        <ele>43</ele>
        <time>2012-11-10T22:45:41Z</time>
      </trkpt>
      <trkpt lat="48.07093" lon="-1.68723">
        <ele>44</ele>
        <time>2012-11-10T22:45:21Z</time>
      </trkpt>
      <trkpt lat="48.07291" lon="-1.68718">
        <ele>40</ele>
        <time>2012-11-10T22:45:01Z</time>
      </trkpt>
      <trkpt lat="48.07449" lon="-1.68825">
        <ele>41</ele>
        <time>2012-11-10T22:44:41Z</time>
      </trkpt>
      <trkpt lat="48.07462" lon="-1.68859">
        <ele>38</ele>
        <time>2012-11-10T22:44:21Z</time>
      </trkpt>
      <trkpt lat="48.07523" lon="-1.68873">
        <ele>38</ele>
        <time>2012-11-10T22:44:01Z</time>
      </trkpt>
      <trkpt lat="48.07568" lon="-1.68863">
        <ele>37</ele>
        <time>2012-11-10T22:43:41Z</time>
      </trkpt>
      <trkpt lat="48.07607" lon="-1.69106">
        <ele>35</ele>
        <time>2012-11-10T22:43:21Z</time>
      </trkpt>
      <trkpt lat="48.07692" lon="-1.69302">
        <ele>38</ele>
        <time>2012-11-10T22:43:01Z</time>
      </trkpt>
      <trkpt lat="48.07692" lon="-1.69324">
        <ele>38</ele>
        <time>2012-11-10T22:42:41Z</time>
      </trkpt>
      <trkpt lat="48.07732" lon="-1.69429">
        <ele>34</ele>
        <time>2012-11-10T22:42:21Z</time>
      </trkpt>
      <trkpt lat="48.0779" lon="-1.69367">
        <ele>33</ele>
        <time>2012-11-10T22:42:01Z</time>
      </trkpt>
      <trkpt lat="48.07828" lon="-1.69296">
        <ele>34</ele>
        <time>2012-11-10T22:41:41Z</time>
      </trkpt>
      <trkpt lat="48.07856" lon="-1.69228">
        <ele>32</ele>
        <time>2012-11-10T22:41:21Z</time>
      </trkpt>
      <trkpt lat="48.07879" lon="-1.69138">
        <ele>33</ele>
        <time>2012-11-10T22:41:01Z</time>
      </trkpt>
      <trkpt lat="48.07894" lon="-1.69002">
        <ele>28</ele>
        <time>2012-11-10T22:40:41Z</time>
      </trkpt>
      <trkpt lat="48.07902" lon="-1.68909">
        <ele>28</ele>
        <time>2012-11-10T22:40:21Z</time>
      </trkpt>
      <trkpt lat="48.07972" lon="-1.68936">
        <ele>29</ele>
        <time>2012-11-10T22:40:01Z</time>
      </trkpt>
      <trkpt lat="48.07975" lon="-1.68954">
        <ele>29</ele>
        <time>2012-11-10T22:39:41Z</time>
      </trkpt>
      <trkpt lat="48.07996" lon="-1.6897">
        <ele>30</ele>
        <time>2012-11-10T22:39:21Z</time>
      </trkpt>
      <trkpt lat="48.07998" lon="-1.69039">
        <ele>30</ele>
        <time>2012-11-10T22:39:01Z</time>
      </trkpt>
      <trkpt lat="48.08041" lon="-1.6902">
        <ele>30</ele>
        <time>2012-11-10T22:38:41Z</time>
      </trkpt>
      <trkpt lat="48.08088" lon="-1.69022">
        <ele>30</ele>
        <time>2012-11-10T22:38:21Z</time>
      </trkpt>
      <trkpt lat="48.08109" lon="-1.68981">
        <ele>30</ele>
        <time>2012-11-10T22:38:01Z</time>
      </trkpt>
      <trkpt lat="48.08132" lon="-1.68973">
        <ele>31</ele>
        <time>2012-11-10T22:37:41Z</time>
      </trkpt>
      <trkpt lat="48.08167" lon="-1.69013">
        <ele>31</ele>
        <time>2012-11-10T22:37:21Z</time>
      </trkpt>
      <trkpt lat="48.08194" lon="-1.69014">
        <ele>31</ele>
        <time>2012-11-10T22:37:01Z</time>
      </trkpt>
      <trkpt lat="48.08216" lon="-1.69129">
        <ele>30</ele>
        <time>2012-11-10T22:36:41Z</time>
      </trkpt>
      <trkpt lat="48.08326" lon="-1.69229">
        <ele>29</ele>
        <time>2012-11-10T22:36:21Z</time>
      </trkpt>
      <trkpt lat="48.08524" lon="-1.69187">
        <ele>33</ele>
        <time>2012-11-10T22:36:01Z</time>
      </trkpt>
      <trkpt lat="48.08686" lon="-1.69156">
        <ele>40</ele>
        <time>2012-11-10T22:35:41Z</time>
      </trkpt>
      <trkpt lat="48.08669" lon="-1.69044">
        <ele>41</ele>
        <time>2012-11-10T22:35:21Z</time>
      </trkpt>
      <trkpt lat="48.0871" lon="-1.69036">
        <ele>40</ele>
        <time>2012-11-10T22:35:01Z</time>
      </trkpt>
      <trkpt lat="48.0872" lon="-1.69003">
        <ele>40</ele>
        <time>2012-11-10T22:34:41Z</time>
      </trkpt>
      <trkpt lat="48.08885" lon="-1.68973">
        <ele>46</ele>
        <time>2012-11-10T22:34:21Z</time>
      </trkpt>
      <trkpt lat="48.08878" lon="-1.6888">
        <ele>43</ele>
        <time>2012-11-10T22:34:01Z</time>
      </trkpt>
      <trkpt lat="48.0901" lon="-1.68854">
        <ele>45</ele>
        <time>2012-11-10T22:33:41Z</time>
      </trkpt>
      <trkpt lat="48.08984" lon="-1.68564">
        <ele>43</ele>
        <time>2012-11-10T22:33:21Z</time>
      </trkpt>
      <trkpt lat="48.09134" lon="-1.68591">
        <ele>43</ele>
        <time>2012-11-10T22:33:01Z</time>
      </trkpt>
      <trkpt lat="48.09141" lon="-1.68523">
        <ele>41</ele>
        <time>2012-11-10T22:32:41Z</time>
      </trkpt>
      <trkpt lat="48.09184" lon="-1.68542">
        <ele>43</ele>
        <time>2012-11-10T22:32:21Z</time>
      </trkpt>
      <trkpt lat="48.09349" lon="-1.68583">
        <ele>41</ele>
        <time>2012-11-10T22:32:01Z</time>
      </trkpt>
      <trkpt lat="48.09322" lon="-1.68188">
        <ele>39</ele>
        <time>2012-11-10T22:31:41Z</time>
      </trkpt>
      <trkpt lat="48.09422" lon="-1.68182">
        <ele>36</ele>
        <time>2012-11-10T22:31:21Z</time>
      </trkpt>
      <trkpt lat="48.0966" lon="-1.68161">
        <ele>35</ele>
        <time>2012-11-10T22:31:01Z</time>
      </trkpt>
      <trkpt lat="48.098" lon="-1.68147">
        <ele>38</ele>
        <time>2012-11-10T22:30:41Z</time>
      </trkpt>
      <trkpt lat="48.09795" lon="-1.67999">
        <ele>36</ele>
        <time>2012-11-10T22:30:21Z</time>
      </trkpt>
      <trkpt lat="48.0991" lon="-1.68028">
        <ele>34</ele>
        <time>2012-11-10T22:30:01Z</time>
      </trkpt>
      <trkpt lat="48.09916" lon="-1.67924">
        <ele>34</ele>
        <time>2012-11-10T22:29:41Z</time>
      </trkpt>
      <trkpt lat="48.10161" lon="-1.67957">
        <ele>30</ele>
        <time>2012-11-10T22:29:21Z</time>
      </trkpt>
      <trkpt lat="48.10166" lon="-1.67639">
        <ele>41</ele>
        <time>2012-11-10T22:29:01Z</time>
      </trkpt>
      <trkpt lat="48.1051" lon="-1.67754">
        <ele>33</ele>
        <time>2012-11-10T22:28:41Z</time>
      </trkpt>
      <trkpt lat="48.1056" lon="-1.67401">
        <ele>29</ele>
        <time>2012-11-10T22:28:21Z</time>
      </trkpt>
      <trkpt lat="48.10744" lon="-1.67462">
        <ele>30</ele>
        <time>2012-11-10T22:28:01Z</time>
      </trkpt>
      <trkpt lat="48.10748" lon="-1.67342">
        <ele>31</ele>
        <time>2012-11-10T22:27:41Z</time>
      </trkpt>
      <trkpt lat="48.11066" lon="-1.67416">
        <ele>31</ele>
        <time>2012-11-10T22:27:21Z</time>
      </trkpt>
      <trkpt lat="48.11071" lon="-1.6717">
        <ele>31</ele>
        <time>2012-11-10T22:27:01Z</time>
      </trkpt>
      <trkpt lat="48.11127" lon="-1.67127">
        <ele>32</ele>
        <time>2012-11-10T22:26:41Z</time>
      </trkpt>
      <trkpt lat="48.11218" lon="-1.67111">
        <ele>39</ele>
        <time>2012-11-10T22:26:21Z</time>
      </trkpt>
      <trkpt lat="48.11232" lon="-1.66943">
        <ele>36</ele>
        <time>2012-11-10T22:26:01Z</time>
      </trkpt>
      <trkpt lat="48.11279" lon="-1.66953">
        <ele>36</ele>
        <time>2012-11-10T22:25:41Z</time>
      </trkpt>
      <trkpt lat="48.1137" lon="-1.6688">
        <ele>48</ele>
        <time>2012-11-10T22:25:21Z</time>
      </trkpt>
      <trkpt lat="48.11385" lon="-1.66845">
        <ele>52</ele>
        <time>2012-11-10T22:25:01Z</time>
      </trkpt>
      <trkpt lat="48.11388" lon="-1.66758">
        <ele>50</ele>
        <time>2012-11-10T22:24:41Z</time>
      </trkpt>
      <trkpt lat="48.11408" lon="-1.6674">
        <ele>50</ele>
        <time>2012-11-10T22:24:21Z</time>
      </trkpt>
      <trkpt lat="48.11442" lon="-1.66751">
        <ele>50</ele>
        <time>2012-11-10T22:24:01Z</time>
      </trkpt>
      <trkpt lat="48.11473" lon="-1.66726">
        <ele>56</ele>
        <time>2012-11-10T22:23:41Z</time>
      </trkpt>
      <trkpt lat="48.11505" lon="-1.66724">
        <ele>56</ele>
        <time>2012-11-10T22:23:21Z</time>
      </trkpt>
      <trkpt lat="48.11521" lon="-1.66771">
        <ele>56</ele>
        <time>2012-11-10T22:23:01Z</time>
      </trkpt>
      <trkpt lat="48.11629" lon="-1.66768">
        <ele>53</ele>
        <time>2012-11-10T22:22:41Z</time>
      </trkpt>
      <trkpt lat="48.11627" lon="-1.66558">
        <ele>50</ele>
        <time>2012-11-10T22:22:21Z</time>
      </trkpt>
      <trkpt lat="48.11894" lon="-1.665">
        <ele>47</ele>
        <time>2012-11-10T22:22:01Z</time>
      </trkpt>
      <trkpt lat="48.1189" lon="-1.66434">
        <ele>44</ele>
        <time>2012-11-10T22:21:41Z</time>
      </trkpt>
      <trkpt lat="48.11947" lon="-1.66402">
        <ele>44</ele>
        <time>2012-11-10T22:21:21Z</time>
      </trkpt>
      <trkpt lat="48.12029" lon="-1.66158">
        <ele>40</ele>
        <time>2012-11-10T22:21:01Z</time>
      </trkpt>
      <trkpt lat="48.12181" lon="-1.66272">
        <ele>45</ele>
        <time>2012-11-10T22:20:41Z</time>
      </trkpt>
      <trkpt lat="48.12272" lon="-1.66404">
        <ele>46</ele>
        <time>2012-11-10T22:20:21Z</time>
      </trkpt>
      <trkpt lat="48.12325" lon="-1.66283">
        <ele>49</ele>
        <time>2012-11-10T22:20:01Z</time>
      </trkpt>
      <trkpt lat="48.1237" lon="-1.66302">
        <ele>47</ele>
        <time>2012-11-10T22:19:41Z</time>
      </trkpt>
      <trkpt lat="48.12436" lon="-1.66191">
        <ele>52</ele>
        <time>2012-11-10T22:19:21Z</time>
      </trkpt>
      <trkpt lat="48.1256" lon="-1.66072">
        <ele>54</ele>
        <time>2012-11-10T22:19:01Z</time>
      </trkpt>
      <trkpt lat="48.12597" lon="-1.65983">
        <ele>55</ele>
        <time>2012-11-10T22:18:41Z</time>
      </trkpt>
      <trkpt lat="48.12664" lon="-1.65861">
        <ele>56</ele>
        <time>2012-11-10T22:18:21Z</time>
      </trkpt>
      <trkpt lat="48.12717" lon="-1.65812">
        <ele>55</ele>
        <time>2012-11-10T22:18:01Z</time>
      </trkpt>
      <trkpt lat="48.12776" lon="-1.65809">
        <ele>55</ele>
        <time>2012-11-10T22:17:41Z</time>
      </trkpt>
      <trkpt lat="48.12777" lon="-1.65757">
        <ele>53</ele>
        <time>2012-11-10T22:17:21Z</time>
      </trkpt>
      <trkpt lat="48.12951" lon="-1.65649">
        <ele>53</ele>
        <time>2012-11-10T22:17:01Z</time>
      </trkpt>
      <trkpt lat="48.13229" lon="-1.65659">
        <ele>45</ele>
        <time>2012-11-10T22:16:41Z</time>
      </trkpt>
      <trkpt lat="48.13232" lon="-1.65416">
        <ele>48</ele>
        <time>2012-11-10T22:16:21Z</time>
      </trkpt>
      <trkpt lat="48.13253" lon="-1.65412">
        <ele>48</ele>
        <time>2012-11-10T22:16:01Z</time>
      </trkpt>
      <trkpt lat="48.13246" lon="-1.65383">
        <ele>48</ele>
        <time>2012-11-10T22:15:41Z</time>
      </trkpt>
      <trkpt lat="48.13253" lon="-1.65368">
        <ele>46</ele>
        <time>2012-11-10T22:15:21Z</time>
      </trkpt>
      <trkpt lat="48.13253" lon="-1.65306">
        <ele>46</ele>
        <time>2012-11-10T22:15:01Z</time>
      </trkpt>
      <trkpt lat="48.13307" lon="-1.65258">
        <ele>49</ele>
        <time>2012-11-10T22:14:41Z</time>
      </trkpt>
      <trkpt lat="48.13452" lon="-1.6527">
        <ele>51</ele>
        <time>2012-11-10T22:14:21Z</time>
      </trkpt>
      <trkpt lat="48.13506" lon="-1.65313">
        <ele>54</ele>
        <time>2012-11-10T22:14:01Z</time>
      </trkpt>
      <trkpt lat="48.13508" lon="-1.65231">
        <ele>51</ele>
        <time>2012-11-10T22:13:41Z</time>
      </trkpt>
      <trkpt lat="48.13531" lon="-1.65214">
        <ele>51</ele>
        <time>2012-11-10T22:13:21Z</time>
      </trkpt>
      <trkpt lat="48.13575" lon="-1.6508">
        <ele>59</ele>
        <time>2012-11-10T22:13:01Z</time>
      </trkpt>
      <trkpt lat="48.13646" lon="-1.65005">
        <ele>59</ele>
        <time>2012-11-10T22:12:41Z</time>
      </trkpt>
      <trkpt lat="48.13662" lon="-1.6497">
        <ele>59</ele>
        <time>2012-11-10T22:12:21Z</time>
      </trkpt>
      <trkpt lat="48.13687" lon="-1.64966">
        <ele>59</ele>
        <time>2012-11-10T22:12:01Z</time>
      </trkpt>
      <trkpt lat="48.13707" lon="-1.64947">
        <ele>57</ele>
        <time>2012-11-10T22:11:41Z</time>
      </trkpt>
      <trkpt lat="48.13738" lon="-1.64894">
        <ele>61</ele>
        <time>2012-11-10T22:11:21Z</time>
      </trkpt>
      <trkpt lat="48.13804" lon="-1.64834">
        <ele>64</ele>
        <time>2012-11-10T22:11:01Z</time>
      </trkpt>
      <trkpt lat="48.1386" lon="-1.64848">
        <ele>64</ele>
        <time>2012-11-10T22:10:41Z</time>
      </trkpt>
      <trkpt lat="48.13931" lon="-1.64855">
        <ele>70</ele>
        <time>2012-11-10T22:10:21Z</time>
      </trkpt>
      <trkpt lat="48.13958" lon="-1.64774">
        <ele>72</ele>
        <time>2012-11-10T22:10:01Z</time>
      </trkpt>
      <trkpt lat="48.13971" lon="-1.6475">
        <ele>72</ele>
        <time>2012-11-10T22:09:41Z</time>
      </trkpt>
      <trkpt lat="48.14025" lon="-1.64724">
        <ele>72</ele>
        <time>2012-11-10T22:09:21Z</time>
      </trkpt>
      <trkpt lat="48.14051" lon="-1.64745">
        <ele>68</ele>
        <time>2012-11-10T22:09:01Z</time>
      </trkpt>
      <trkpt lat="48.14078" lon="-1.64754">
        <ele>68</ele>
        <time>2012-11-10T22:08:41Z</time>
      </trkpt>
      <trkpt lat="48.14119" lon="-1.64819">
        <ele>70</ele>
        <time>2012-11-10T22:08:21Z</time>
      </trkpt>
      <trkpt lat="48.14188" lon="-1.64839">
        <ele>63</ele>
        <time>2012-11-10T22:08:01Z</time>
      </trkpt>
      <trkpt lat="48.14199" lon="-1.6483">
        <ele>63</ele>
        <time>2012-11-10T22:07:41Z</time>
      </trkpt>
      <trkpt lat="48.14258" lon="-1.64822">
        <ele>57</ele>
        <time>2012-11-10T22:07:21Z</time>
      </trkpt>
      <trkpt lat="48.14326" lon="-1.64779">
        <ele>59</ele>
        <time>2012-11-10T22:07:01Z</time>
      </trkpt>
      <trkpt lat="48.14404" lon="-1.64709">
        <ele>56</ele>
        <time>2012-11-10T22:06:41Z</time>
      </trkpt>
      <trkpt lat="48.14507" lon="-1.64689">
        <ele>54</ele>
        <time>2012-11-10T22:06:21Z</time>
      </trkpt>
      <trkpt lat="48.14538" lon="-1.64664">
        <ele>54</ele>
        <time>2012-11-10T22:06:01Z</time>
      </trkpt>
      <trkpt lat="48.14539" lon="-1.64602">
        <ele>54</ele>
        <time>2012-11-10T22:05:41Z</time>
      </trkpt>
      <trkpt lat="48.14525" lon="-1.64526">
        <ele>53</ele>
        <time>2012-11-10T22:05:21Z</time>
      </trkpt>
      <trkpt lat="48.14509" lon="-1.64519">
        <ele>53</ele>
        <time>2012-11-10T22:05:01Z</time>
      </trkpt>
      <trkpt lat="48.14502" lon="-1.64506">
        <ele>53</ele>
        <time>2012-11-10T22:04:41Z</time>
      </trkpt>
      <trkpt lat="48.14481" lon="-1.64269">
        <ele>49</ele>
        <time>2012-11-10T22:04:21Z</time>
      </trkpt>
      <trkpt lat="48.14486" lon="-1.64237">
        <ele>49</ele>
        <time>2012-11-10T22:04:01Z</time>
      </trkpt>
      <trkpt lat="48.14502" lon="-1.64216">
        <ele>49</ele>
        <time>2012-11-10T22:03:41Z</time>
      </trkpt>
      <trkpt lat="48.14477" lon="-1.64145">
        <ele>47</ele>
        <time>2012-11-10T22:03:21Z</time>
      </trkpt>
      <trkpt lat="48.1446" lon="-1.64034">
        <ele>46</ele>
        <time>2012-11-10T22:03:01Z</time>
      </trkpt>
      <trkpt lat="48.14462" lon="-1.63979">
        <ele>46</ele>
        <time>2012-11-10T22:02:41Z</time>
      </trkpt>
      <trkpt lat="48.14468" lon="-1.63903">
        <ele>48</ele>
        <time>2012-11-10T22:02:21Z</time>
      </trkpt>
      <trkpt lat="48.14452" lon="-1.63849">
        <ele>52</ele>
        <time>2012-11-10T22:02:01Z</time>
      </trkpt>
      <trkpt lat="48.14467" lon="-1.63697">
        <ele>48</ele>
        <time>2012-11-10T22:01:41Z</time>
      </trkpt>
      <trkpt lat="48.14473" lon="-1.63659">
        <ele>48</ele>
        <time>2012-11-10T22:01:21Z</time>
      </trkpt>
      <trkpt lat="48.14473" lon="-1.63593">
        <ele>54</ele>
        <time>2012-11-10T22:01:01Z</time>
      </trkpt>
      <trkpt lat="48.1442" lon="-1.63596">
        <ele>58</ele>
        <time>2012-11-10T22:00:41Z</time>
      </trkpt>
      <trkpt lat="48.14415" lon="-1.63537">
        <ele>61</ele>
        <time>2012-11-10T22:00:21Z</time>
      </trkpt>
      <trkpt lat="48.14414" lon="-1.63473">
        <ele>61</ele>
        <time>2012-11-10T22:00:01Z</time>
      </trkpt>
      <trkpt lat="48.14391" lon="-1.63385">
        <ele>59</ele>
        <time>2012-11-10T21:59:41Z</time>
      </trkpt>
      <trkpt lat="48.14366" lon="-1.63338">
        <ele>59</ele>
        <time>2012-11-10T21:59:21Z</time>
      </trkpt>
      <trkpt lat="48.14333" lon="-1.6323">
        <ele>56</ele>
        <time>2012-11-10T21:59:01Z</time>
      </trkpt>
      <trkpt lat="48.14272" lon="-1.63079">
        <ele>58</ele>
        <time>2012-11-10T21:58:41Z</time>
      </trkpt>
      <trkpt lat="48.14551" lon="-1.62938">
        <ele>50</ele>
        <time>2012-11-10T21:58:21Z</time>
      </trkpt>
      <trkpt lat="48.14569" lon="-1.62904">
        <ele>50</ele>
        <time>2012-11-10T21:58:01Z</time>
      </trkpt>
      <trkpt lat="48.14577" lon="-1.62838">
        <ele>51</ele>
        <time>2012-11-10T21:57:41Z</time>
      </trkpt>
      <trkpt lat="48.14739" lon="-1.62756">
        <ele>50</ele>
        <time>2012-11-10T21:57:21Z</time>
      </trkpt>
      <trkpt lat="48.14784" lon="-1.62711">
        <ele>50</ele>
        <time>2012-11-10T21:57:01Z</time>
      </trkpt>
      <trkpt lat="48.14808" lon="-1.62674">
        <ele>51</ele>
        <time>2012-11-10T21:56:41Z</time>
      </trkpt>
      <trkpt lat="48.14862" lon="-1.62526">
        <ele>53</ele>
        <time>2012-11-10T21:56:21Z</time>
      </trkpt>
      <trkpt lat="48.14904" lon="-1.62442">
        <ele>54</ele>
        <time>2012-11-10T21:56:01Z</time>
      </trkpt>
      <trkpt lat="48.15077" lon="-1.62445">
        <ele>53</ele>
        <time>2012-11-10T21:55:41Z</time>
      </trkpt>
      <trkpt lat="48.1506" lon="-1.6216">
        <ele>53</ele>
        <time>2012-11-10T21:55:21Z</time>
      </trkpt>
      <trkpt lat="48.15161" lon="-1.62158">
        <ele>52</ele>
        <time>2012-11-10T21:55:01Z</time>
      </trkpt>
      <trkpt lat="48.15358" lon="-1.61947">
        <ele>61</ele>
        <time>2012-11-10T21:54:41Z</time>
      </trkpt>
      <trkpt lat="48.15474" lon="-1.61933">
        <ele>56</ele>
        <time>2012-11-10T21:54:21Z</time>
      </trkpt>
      <trkpt lat="48.15579" lon="-1.619">
        <ele>58</ele>
        <time>2012-11-10T21:54:01Z</time>
      </trkpt>
      <trkpt lat="48.15629" lon="-1.61861">
        <ele>58</ele>
        <time>2012-11-10T21:53:41Z</time>
      </trkpt>
      <trkpt lat="48.15692" lon="-1.61822">
        <ele>58</ele>
        <time>2012-11-10T21:53:21Z</time>
      </trkpt>
      <trkpt lat="48.15739" lon="-1.61802">
        <ele>58</ele>
        <time>2012-11-10T21:53:01Z</time>
      </trkpt>
      <trkpt lat="48.15762" lon="-1.61776">
        <ele>59</ele>
        <time>2012-11-10T21:52:41Z</time>
      </trkpt>
      <trkpt lat="48.15807" lon="-1.61685">
        <ele>58</ele>
        <time>2012-11-10T21:52:21Z</time>
      </trkpt>
      <trkpt lat="48.15828" lon="-1.61682">
        <ele>58</ele>
        <time>2012-11-10T21:52:01Z</time>
      </trkpt>
      <trkpt lat="48.15908" lon="-1.61721">
        <ele>59</ele>
        <time>2012-11-10T21:51:41Z</time>
      </trkpt>
      <trkpt lat="48.16015" lon="-1.61601">
        <ele>60</ele>
        <time>2012-11-10T21:51:21Z</time>
      </trkpt>
      <trkpt lat="48.16145" lon="-1.61518">
        <ele>59</ele>
        <time>2012-11-10T21:51:01Z</time>
      </trkpt>
      <trkpt lat="48.16085" lon="-1.61387">
        <ele>62</ele>
        <time>2012-11-10T21:50:41Z</time>
      </trkpt>
      <trkpt lat="48.16039" lon="-1.61231">
        <ele>63</ele>
        <time>2012-11-10T21:50:21Z</time>
      </trkpt>
      <trkpt lat="48.16022" lon="-1.61145">
        <ele>64</ele>
        <time>2012-11-10T21:50:01Z</time>
      </trkpt>
      <trkpt lat="48.16017" lon="-1.61114">
        <ele>65</ele>
        <time>2012-11-10T21:49:41Z</time>
      </trkpt>
      <trkpt lat="48.15978" lon="-1.61086">
        <ele>65</ele>
        <time>2012-11-10T21:49:21Z</time>
      </trkpt>
      <trkpt lat="48.15972" lon="-1.61051">
        <ele>65</ele>
        <time>2012-11-10T21:49:01Z</time>
      </trkpt>
      <trkpt lat="48.15978" lon="-1.60924">
        <ele>71</ele>
        <time>2012-11-10T21:48:41Z</time>
      </trkpt>
      <trkpt lat="48.15937" lon="-1.60807">
        <ele>69</ele>
        <time>2012-11-10T21:48:21Z</time>
      </trkpt>
      <trkpt lat="48.15926" lon="-1.6076">
        <ele>70</ele>
        <time>2012-11-10T21:48:01Z</time>
      </trkpt>
      <trkpt lat="48.15921" lon="-1.60696">
        <ele>72</ele>
        <time>2012-11-10T21:47:41Z</time>
      </trkpt>
      <trkpt lat="48.15933" lon="-1.60579">
        <ele>75</ele>
        <time>2012-11-10T21:47:21Z</time>
      </trkpt>
      <trkpt lat="48.15937" lon="-1.60472">
        <ele>78</ele>
        <time>2012-11-10T21:47:01Z</time>
      </trkpt>
      <trkpt lat="48.15959" lon="-1.60335">
        <ele>83</ele>
        <time>2012-11-10T21:46:41Z</time>
      </trkpt>
      <trkpt lat="48.1596" lon="-1.60192">
        <ele>86</ele>
        <time>2012-11-10T21:46:21Z</time>
      </trkpt>
      <trkpt lat="48.16018" lon="-1.59776">
        <ele>83</ele>
        <time>2012-11-10T21:46:01Z</time>
      </trkpt>
      <trkpt lat="48.16032" lon="-1.59741">
        <ele>83</ele>
        <time>2012-11-10T21:45:41Z</time>
      </trkpt>
      <trkpt lat="48.16046" lon="-1.59683">
        <ele>80</ele>
        <time>2012-11-10T21:45:21Z</time>
      </trkpt>
      <trkpt lat="48.16235" lon="-1.59704">
        <ele>79</ele>
        <time>2012-11-10T21:45:01Z</time>
      </trkpt>
      <trkpt lat="48.16326" lon="-1.59707">
        <ele>80</ele>
        <time>2012-11-10T21:44:41Z</time>
      </trkpt>
      <trkpt lat="48.16917" lon="-1.59603">
        <ele>76</ele>
        <time>2012-11-10T21:44:21Z</time>
      </trkpt>
      <trkpt lat="48.17494" lon="-1.59677">
        <ele>77</ele>
        <time>2012-11-10T21:44:01Z</time>
      </trkpt>
      <trkpt lat="48.17607" lon="-1.59574">
        <ele>74</ele>
        <time>2012-11-10T21:43:41Z</time>
      </trkpt>
      <trkpt lat="48.17666" lon="-1.59494">
        <ele>75</ele>
        <time>2012-11-10T21:43:21Z</time>
      </trkpt>
      <trkpt lat="48.17725" lon="-1.59368">
        <ele>75</ele>
        <time>2012-11-10T21:43:01Z</time>
      </trkpt>
      <trkpt lat="48.17834" lon="-1.59271">
        <ele>72</ele>
        <time>2012-11-10T21:42:41Z</time>
      </trkpt>
      <trkpt lat="48.17846" lon="-1.59157">
        <ele>70</ele>
        <time>2012-11-10T21:42:21Z</time>
      </trkpt>
      <trkpt lat="48.18057" lon="-1.59004">
        <ele>71</ele>
        <time>2012-11-10T21:42:01Z</time>
      </trkpt>
      <trkpt lat="48.17988" lon="-1.58793">
        <ele>60</ele>
        <time>2012-11-10T21:41:41Z</time>
      </trkpt>
      <trkpt lat="48.18027" lon="-1.58816">
        <ele>60</ele>
        <time>2012-11-10T21:41:21Z</time>
      </trkpt>
      <trkpt lat="48.18082" lon="-1.58827">
        <ele>67</ele>
        <time>2012-11-10T21:41:01Z</time>
      </trkpt>
      <trkpt lat="48.18152" lon="-1.58875">
        <ele>67</ele>
        <time>2012-11-10T21:40:41Z</time>
      </trkpt>
      <trkpt lat="48.18177" lon="-1.58867">
        <ele>68</ele>
        <time>2012-11-10T21:40:21Z</time>
      </trkpt>
      <trkpt lat="48.18327" lon="-1.58896">
        <ele>58</ele>
        <time>2012-11-10T21:40:01Z</time>
      </trkpt>
      <trkpt lat="48.18331" lon="-1.58731">
        <ele>60</ele>
        <time>2012-11-10T21:39:41Z</time>
      </trkpt>
      <trkpt lat="48.18343" lon="-1.58577">
        <ele>62</ele>
        <time>2012-11-10T21:39:21Z</time>
      </trkpt>
      <trkpt lat="48.18354" lon="-1.58553">
        <ele>62</ele>
        <time>2012-11-10T21:39:01Z</time>
      </trkpt>
      <trkpt lat="48.18388" lon="-1.58542">
        <ele>59</ele>
        <time>2012-11-10T21:38:41Z</time>
      </trkpt>
      <trkpt lat="48.18367" lon="-1.58418">
        <ele>59</ele>
        <time>2012-11-10T21:38:21Z</time>
      </trkpt>
      <trkpt lat="48.18373" lon="-1.58341">
        <ele>60</ele>
        <time>2012-11-10T21:38:01Z</time>
      </trkpt>
      <trkpt lat="48.18365" lon="-1.58283">
        <ele>61</ele>
        <time>2012-11-10T21:37:41Z</time>
      </trkpt>
      <trkpt lat="48.18365" lon="-1.58167">
        <ele>62</ele>
        <time>2012-11-10T21:37:21Z</time>
      </trkpt>
      <trkpt lat="48.18357" lon="-1.58083">
        <ele>63</ele>
        <time>2012-11-10T21:37:01Z</time>
      </trkpt>
      <trkpt lat="48.18324" lon="-1.57937">
        <ele>63</ele>
        <time>2012-11-10T21:36:41Z</time>
      </trkpt>
      <trkpt lat="48.18329" lon="-1.57855">
        <ele>63</ele>
        <time>2012-11-10T21:36:21Z</time>
      </trkpt>
      <trkpt lat="48.18324" lon="-1.57776">
        <ele>65</ele>
        <time>2012-11-10T21:36:01Z</time>
      </trkpt>
      <trkpt lat="48.18317" lon="-1.57741">
        <ele>65</ele>
        <time>2012-11-10T21:35:41Z</time>
      </trkpt>
      <trkpt lat="48.18336" lon="-1.57447">
        <ele>79</ele>
        <time>2012-11-10T21:35:21Z</time>
      </trkpt>
      <trkpt lat="48.18526" lon="-1.57153">
        <ele>82</ele>
        <time>2012-11-10T21:35:01Z</time>
      </trkpt>
      <trkpt lat="48.18526" lon="-1.5701">
        <ele>82</ele>
        <time>2012-11-10T21:34:41Z</time>
      </trkpt>
      <trkpt lat="48.18593" lon="-1.56763">
        <ele>90</ele>
        <time>2012-11-10T21:34:21Z</time>
      </trkpt>
      <trkpt lat="48.18627" lon="-1.56711">
        <ele>94</ele>
        <time>2012-11-10T21:34:01Z</time>
      </trkpt>
      <trkpt lat="48.18627" lon="-1.5667">
        <ele>94</ele>
        <time>2012-11-10T21:33:41Z</time>
      </trkpt>
      <trkpt lat="48.18676" lon="-1.56677">
        <ele>94</ele>
        <time>2012-11-10T21:33:21Z</time>
      </trkpt>
      <trkpt lat="48.19319" lon="-1.56375">
        <ele>94</ele>
        <time>2012-11-10T21:33:01Z</time>
      </trkpt>
      <trkpt lat="48.19357" lon="-1.56372">
        <ele>94</ele>
        <time>2012-11-10T21:32:41Z</time>
      </trkpt>
      <trkpt lat="48.19376" lon="-1.5635">
        <ele>97</ele>
        <time>2012-11-10T21:32:21Z</time>
      </trkpt>
      <trkpt lat="48.19552" lon="-1.56274">
        <ele>95</ele>
        <time>2012-11-10T21:32:01Z</time>
      </trkpt>
      <trkpt lat="48.19916" lon="-1.55992">
        <ele>88</ele>
        <time>2012-11-10T21:31:41Z</time>
      </trkpt>
      <trkpt lat="48.20311" lon="-1.55198">
        <ele>87</ele>
        <time>2012-11-10T21:31:21Z</time>
      </trkpt>
      <trkpt lat="48.20652" lon="-1.55862">
        <ele>81</ele>
        <time>2012-11-10T21:31:01Z</time>
      </trkpt>
      <trkpt lat="48.20736" lon="-1.55772">
        <ele>83</ele>
        <time>2012-11-10T21:30:41Z</time>
      </trkpt>
      <trkpt lat="48.20762" lon="-1.5581">
        <ele>85</ele>
        <time>2012-11-10T21:30:21Z</time>
      </trkpt>
      <trkpt lat="48.20783" lon="-1.55776">
        <ele>83</ele>
        <time>2012-11-10T21:30:01Z</time>
      </trkpt>
      <trkpt lat="48.20783" lon="-1.5575">
        <ele>83</ele>
        <time>2012-11-10T21:29:41Z</time>
      </trkpt>
      <trkpt lat="48.20799" lon="-1.55729">
        <ele>85</ele>
        <time>2012-11-10T21:29:21Z</time>
      </trkpt>
      <trkpt lat="48.20809" lon="-1.55739">
        <ele>85</ele>
        <time>2012-11-10T21:29:01Z</time>
      </trkpt>
      <trkpt lat="48.2084" lon="-1.5574">
        <ele>85</ele>
        <time>2012-11-10T21:28:41Z</time>
      </trkpt>
      <trkpt lat="48.2086" lon="-1.55721">
        <ele>85</ele>
        <time>2012-11-10T21:28:21Z</time>
      </trkpt>
      <trkpt lat="48.20901" lon="-1.55699">
        <ele>74</ele>
        <time>2012-11-10T21:28:01Z</time>
      </trkpt>
      <trkpt lat="48.20905" lon="-1.55569">
        <ele>68</ele>
        <time>2012-11-10T21:27:41Z</time>
      </trkpt>
      <trkpt lat="48.20975" lon="-1.55572">
        <ele>64</ele>
        <time>2012-11-10T21:27:21Z</time>
      </trkpt>
      <trkpt lat="48.21035" lon="-1.55531">
        <ele>70</ele>
        <time>2012-11-10T21:27:01Z</time>
      </trkpt>
      <trkpt lat="48.21021" lon="-1.55479">
        <ele>70</ele>
        <time>2012-11-10T21:26:41Z</time>
      </trkpt>
      <trkpt lat="48.21" lon="-1.55455">
        <ele>75</ele>
        <time>2012-11-10T21:26:21Z</time>
      </trkpt>
      <trkpt lat="48.21045" lon="-1.5541">
        <ele>74</ele>
        <time>2012-11-10T21:26:01Z</time>
      </trkpt>
      <trkpt lat="48.21046" lon="-1.55369">
        <ele>76</ele>
        <time>2012-11-10T21:25:41Z</time>
      </trkpt>
      <trkpt lat="48.21061" lon="-1.55338">
        <ele>76</ele>
        <time>2012-11-10T21:25:21Z</time>
      </trkpt>
      <trkpt lat="48.21065" lon="-1.5529">
        <ele>78</ele>
        <time>2012-11-10T21:25:01Z</time>
      </trkpt>
      <trkpt lat="48.21082" lon="-1.55249">
        <ele>78</ele>
        <time>2012-11-10T21:24:41Z</time>
      </trkpt>
      <trkpt lat="48.21085" lon="-1.55217">
        <ele>78</ele>
        <time>2012-11-10T21:24:21Z</time>
      </trkpt>
      <trkpt lat="48.21099" lon="-1.5518">
        <ele>82</ele>
        <time>2012-11-10T21:24:01Z</time>
      </trkpt>
      <trkpt lat="48.2108" lon="-1.54522">
        <ele>83</ele>
        <time>2012-11-10T21:23:41Z</time>
      </trkpt>
      <trkpt lat="48.21094" lon="-1.54447">
        <ele>82</ele>
        <time>2012-11-10T21:23:21Z</time>
      </trkpt>
      <trkpt lat="48.21114" lon="-1.54392">
        <ele>82</ele>
        <time>2012-11-10T21:23:01Z</time>
      </trkpt>
      <trkpt lat="48.21116" lon="-1.54344">
        <ele>81</ele>
        <time>2012-11-10T21:22:41Z</time>
      </trkpt>
      <trkpt lat="48.21135" lon="-1.54295">
        <ele>82</ele>
        <time>2012-11-10T21:22:21Z</time>
      </trkpt>
      <trkpt lat="48.21186" lon="-1.54238">
        <ele>84</ele>
        <time>2012-11-10T21:22:01Z</time>
      </trkpt>
      <trkpt lat="48.21191" lon="-1.54198">
        <ele>87</ele>
        <time>2012-11-10T21:21:41Z</time>
      </trkpt>
      <trkpt lat="48.21329" lon="-1.54242">
        <ele>92</ele>
        <time>2012-11-10T21:21:21Z</time>
      </trkpt>
      <trkpt lat="48.21362" lon="-1.54278">
        <ele>92</ele>
        <time>2012-11-10T21:21:01Z</time>
      </trkpt>
      <trkpt lat="48.2149" lon="-1.54505">
        <ele>88</ele>
        <time>2012-11-10T21:20:41Z</time>
      </trkpt>
      <trkpt lat="48.2162" lon="-1.54501">
        <ele>93</ele>
        <time>2012-11-10T21:20:21Z</time>
      </trkpt>
      <trkpt lat="48.21678" lon="-1.54447">
        <ele>95</ele>
        <time>2012-11-10T21:20:01Z</time>
      </trkpt>
      <trkpt lat="48.21733" lon="-1.54406">
        <ele>97</ele>
        <time>2012-11-10T21:19:41Z</time>
      </trkpt>
      <trkpt lat="48.21877" lon="-1.54277">
        <ele>96</ele>
        <time>2012-11-10T21:19:21Z</time>
      </trkpt>
      <trkpt lat="48.21966" lon="-1.54189">
        <ele>99</ele>
        <time>2012-11-10T21:19:01Z</time>
      </trkpt>
      <trkpt lat="48.22103" lon="-1.5407">
        <ele>102</ele>
        <time>2012-11-10T21:18:41Z</time>
      </trkpt>
      <trkpt lat="48.22218" lon="-1.53979">
        <ele>101</ele>
        <time>2012-11-10T21:18:21Z</time>
      </trkpt>
      <trkpt lat="48.22695" lon="-1.5356">
        <ele>95</ele>
        <time>2012-11-10T21:18:01Z</time>
      </trkpt>
      <trkpt lat="48.22733" lon="-1.53488">
        <ele>93</ele>
        <time>2012-11-10T21:17:41Z</time>
      </trkpt>
      <trkpt lat="48.22796" lon="-1.53389">
        <ele>93</ele>
        <time>2012-11-10T21:17:21Z</time>
      </trkpt>
      <trkpt lat="48.22905" lon="-1.53285">
        <ele>94</ele>
        <time>2012-11-10T21:17:01Z</time>
      </trkpt>
      <trkpt lat="48.2298" lon="-1.5327">
        <ele>91</ele>
        <time>2012-11-10T21:16:41Z</time>
      </trkpt>
      <trkpt lat="48.23021" lon="-1.5324">
        <ele>91</ele>
        <time>2012-11-10T21:16:21Z</time>
      </trkpt>
      <trkpt lat="48.23044" lon="-1.53201">
        <ele>89</ele>
        <time>2012-11-10T21:16:01Z</time>
      </trkpt>
      <trkpt lat="48.23165" lon="-1.53045">
        <ele>89</ele>
        <time>2012-11-10T21:15:41Z</time>
      </trkpt>
      <trkpt lat="48.23119" lon="-1.53014">
        <ele>90</ele>
        <time>2012-11-10T21:15:21Z</time>
      </trkpt>
      <trkpt lat="48.23071" lon="-1.53006">
        <ele>90</ele>
        <time>2012-11-10T21:15:01Z</time>
      </trkpt>
      <trkpt lat="48.22935" lon="-1.52836">
        <ele>88</ele>
        <time>2012-11-10T21:14:41Z</time>
      </trkpt>
      <trkpt lat="48.22944" lon="-1.52791">
        <ele>90</ele>
        <time>2012-11-10T21:14:21Z</time>
      </trkpt>
      <trkpt lat="48.22947" lon="-1.52735">
        <ele>90</ele>
        <time>2012-11-10T21:14:01Z</time>
      </trkpt>
      <trkpt lat="48.23243" lon="-1.52153">
        <ele>83</ele>
        <time>2012-11-10T21:13:41Z</time>
      </trkpt>
      <trkpt lat="48.23217" lon="-1.52123">
        <ele>85</ele>
        <time>2012-11-10T21:13:21Z</time>
      </trkpt>
      <trkpt lat="48.23257" lon="-1.52028">
        <ele>86</ele>
        <time>2012-11-10T21:13:01Z</time>
      </trkpt>
      <trkpt lat="48.23328" lon="-1.51881">
        <ele>91</ele>
        <time>2012-11-10T21:12:41Z</time>
      </trkpt>
      <trkpt lat="48.23333" lon="-1.51907">
        <ele>91</ele>
        <time>2012-11-10T21:12:21Z</time>
      </trkpt>
      <trkpt lat="48.23359" lon="-1.51907">
        <ele>91</ele>
        <time>2012-11-10T21:12:01Z</time>
      </trkpt>
      <trkpt lat="48.23369" lon="-1.51936">
        <ele>91</ele>
        <time>2012-11-10T21:11:41Z</time>
      </trkpt>
      <trkpt lat="48.23475" lon="-1.51882">
        <ele>92</ele>
        <time>2012-11-10T21:11:21Z</time>
      </trkpt>
      <trkpt lat="48.23447" lon="-1.51601">
        <ele>96</ele>
        <time>2012-11-10T21:11:01Z</time>
      </trkpt>
      <trkpt lat="48.23869" lon="-1.52145">
        <ele>114</ele>
        <time>2012-11-10T21:10:41Z</time>
      </trkpt>
      <trkpt lat="48.239" lon="-1.52172">
        <ele>105</ele>
        <time>2012-11-10T21:10:21Z</time>
      </trkpt>
      <trkpt lat="48.23948" lon="-1.52183">
        <ele>105</ele>
        <time>2012-11-10T21:10:01Z</time>
      </trkpt>
      <trkpt lat="48.24015" lon="-1.52177">
        <ele>100</ele>
        <time>2012-11-10T21:09:41Z</time>
      </trkpt>
      <trkpt lat="48.24107" lon="-1.52157">
        <ele>90</ele>
        <time>2012-11-10T21:09:21Z</time>
      </trkpt>
      <trkpt lat="48.24276" lon="-1.52165">
        <ele>86</ele>
        <time>2012-11-10T21:09:01Z</time>
      </trkpt>
      <trkpt lat="48.24322" lon="-1.52175">
        <ele>93</ele>
        <time>2012-11-10T21:08:41Z</time>
      </trkpt>
      <trkpt lat="48.24444" lon="-1.52191">
        <ele>99</ele>
        <time>2012-11-10T21:08:21Z</time>
      </trkpt>
      <trkpt lat="48.24449" lon="-1.52193">
        <ele>99</ele>
        <time>2012-11-10T21:08:01Z</time>
      </trkpt>
      <trkpt lat="48.24453" lon="-1.52241">
        <ele>99</ele>
        <time>2012-11-10T21:07:41Z</time>
      </trkpt>
      <trkpt lat="48.24501" lon="-1.52281">
        <ele>101</ele>
        <time>2012-11-10T21:07:21Z</time>
      </trkpt>
      <trkpt lat="48.2453" lon="-1.5237">
        <ele>101</ele>
        <time>2012-11-10T21:07:01Z</time>
      </trkpt>
      <trkpt lat="48.2482" lon="-1.52326">
        <ele>82</ele>
        <time>2012-11-10T21:06:41Z</time>
      </trkpt>
      <trkpt lat="48.24899" lon="-1.52254">
        <ele>77</ele>
        <time>2012-11-10T21:06:21Z</time>
      </trkpt>
      <trkpt lat="48.24981" lon="-1.52222">
        <ele>77</ele>
        <time>2012-11-10T21:06:01Z</time>
      </trkpt>
      <trkpt lat="48.25103" lon="-1.52212">
        <ele>75</ele>
        <time>2012-11-10T21:05:41Z</time>
      </trkpt>
      <trkpt lat="48.25146" lon="-1.52195">
        <ele>71</ele>
        <time>2012-11-10T21:05:21Z</time>
      </trkpt>
      <trkpt lat="48.25178" lon="-1.52199">
        <ele>71</ele>
        <time>2012-11-10T21:05:01Z</time>
      </trkpt>
      <trkpt lat="48.25225" lon="-1.52182">
        <ele>69</ele>
        <time>2012-11-10T21:04:41Z</time>
      </trkpt>
      <trkpt lat="48.25244" lon="-1.52133">
        <ele>69</ele>
        <time>2012-11-10T21:04:21Z</time>
      </trkpt>
      <trkpt lat="48.25254" lon="-1.52046">
        <ele>68</ele>
        <time>2012-11-10T21:04:01Z</time>
      </trkpt>
      <trkpt lat="48.25326" lon="-1.52024">
        <ele>64</ele>
        <time>2012-11-10T21:03:41Z</time>
      </trkpt>
      <trkpt lat="48.25333" lon="-1.51942">
        <ele>64</ele>
        <time>2012-11-10T21:03:21Z</time>
      </trkpt>
      <trkpt lat="48.25323" lon="-1.51823">
        <ele>65</ele>
        <time>2012-11-10T21:03:01Z</time>
      </trkpt>
      <trkpt lat="48.25583" lon="-1.5176">
        <ele>62</ele>
        <time>2012-11-10T21:02:41Z</time>
      </trkpt>
      <trkpt lat="48.25602" lon="-1.51686">
        <ele>62</ele>
        <time>2012-11-10T21:02:21Z</time>
      </trkpt>
      <trkpt lat="48.25666" lon="-1.51666">
        <ele>61</ele>
        <time>2012-11-10T21:02:01Z</time>
      </trkpt>
      <trkpt lat="48.26078" lon="-1.51439">
        <ele>59</ele>
        <time>2012-11-10T21:01:41Z</time>
      </trkpt>
      <trkpt lat="48.26503" lon="-1.51398">
        <ele>95</ele>
        <time>2012-11-10T21:01:21Z</time>
      </trkpt>
      <trkpt lat="48.26576" lon="-1.51411">
        <ele>97</ele>
        <time>2012-11-10T21:01:01Z</time>
      </trkpt>
      <trkpt lat="48.26579" lon="-1.51382">
        <ele>97</ele>
        <time>2012-11-10T21:00:41Z</time>
      </trkpt>
      <trkpt lat="48.26711" lon="-1.51453">
        <ele>103</ele>
        <time>2012-11-10T21:00:21Z</time>
      </trkpt>
      <trkpt lat="48.27037" lon="-1.51615">
        <ele>113</ele>
        <time>2012-11-10T21:00:01Z</time>
      </trkpt>
      <trkpt lat="48.27153" lon="-1.51713">
        <ele>107</ele>
        <time>2012-11-10T20:59:41Z</time>
      </trkpt>
      <trkpt lat="48.27243" lon="-1.51683">
        <ele>101</ele>
        <time>2012-11-10T20:59:21Z</time>
      </trkpt>
      <trkpt lat="48.27385" lon="-1.51624">
        <ele>88</ele>
        <time>2012-11-10T20:59:01Z</time>
      </trkpt>
      <trkpt lat="48.27403" lon="-1.51625">
        <ele>86</ele>
        <time>2012-11-10T20:58:41Z</time>
      </trkpt>
      <trkpt lat="48.27427" lon="-1.51603">
        <ele>88</ele>
        <time>2012-11-10T20:58:21Z</time>
      </trkpt>
      <trkpt lat="48.27461" lon="-1.5163">
        <ele>87</ele>
        <time>2012-11-10T20:58:01Z</time>
      </trkpt>
      <trkpt lat="48.27465" lon="-1.51539">
        <ele>90</ele>
        <time>2012-11-10T20:57:41Z</time>
      </trkpt>
      <trkpt lat="48.27488" lon="-1.5138">
        <ele>92</ele>
        <time>2012-11-10T20:57:21Z</time>
      </trkpt>
      <trkpt lat="48.27517" lon="-1.51299">
        <ele>95</ele>
        <time>2012-11-10T20:57:01Z</time>
      </trkpt>
      <trkpt lat="48.27566" lon="-1.51149">
        <ele>89</ele>
        <time>2012-11-10T20:56:41Z</time>
      </trkpt>
      <trkpt lat="48.27597" lon="-1.51087">
        <ele>91</ele>
        <time>2012-11-10T20:56:21Z</time>
      </trkpt>
      <trkpt lat="48.27625" lon="-1.50997">
        <ele>94</ele>
        <time>2012-11-10T20:56:01Z</time>
      </trkpt>
      <trkpt lat="48.27657" lon="-1.50808">
        <ele>87</ele>
        <time>2012-11-10T20:55:41Z</time>
      </trkpt>
      <trkpt lat="48.27678" lon="-1.50709">
        <ele>88</ele>
        <time>2012-11-10T20:55:21Z</time>
      </trkpt>
      <trkpt lat="48.27741" lon="-1.50604">
        <ele>87</ele>
        <time>2012-11-10T20:55:01Z</time>
      </trkpt>
      <trkpt lat="48.27756" lon="-1.50512">
        <ele>90</ele>
        <time>2012-11-10T20:54:41Z</time>
      </trkpt>
      <trkpt lat="48.27824" lon="-1.50427">
        <ele>93</ele>
        <time>2012-11-10T20:54:21Z</time>
      </trkpt>
      <trkpt lat="48.2784" lon="-1.50414">
        <ele>93</ele>
        <time>2012-11-10T20:54:01Z</time>
      </trkpt>
      <trkpt lat="48.27855" lon="-1.50384">
        <ele>93</ele>
        <time>2012-11-10T20:53:41Z</time>
      </trkpt>
      <trkpt lat="48.27948" lon="-1.50292">
        <ele>91</ele>
        <time>2012-11-10T20:53:21Z</time>
      </trkpt>
      <trkpt lat="48.27947" lon="-1.50236">
        <ele>89</ele>
        <time>2012-11-10T20:53:01Z</time>
      </trkpt>
      <trkpt lat="48.27905" lon="-1.50074">
        <ele>86</ele>
        <time>2012-11-10T20:52:41Z</time>
      </trkpt>
      <trkpt lat="48.27904" lon="-1.50014">
        <ele>83</ele>
        <time>2012-11-10T20:52:21Z</time>
      </trkpt>
      <trkpt lat="48.27895" lon="-1.4993">
        <ele>79</ele>
        <time>2012-11-10T20:52:01Z</time>
      </trkpt>
      <trkpt lat="48.27874" lon="-1.49831">
        <ele>88</ele>
        <time>2012-11-10T20:51:41Z</time>
      </trkpt>
      <trkpt lat="48.27837" lon="-1.49563">
        <ele>86</ele>
        <time>2012-11-10T20:51:21Z</time>
      </trkpt>
      <trkpt lat="48.27836" lon="-1.49459">
        <ele>88</ele>
        <time>2012-11-10T20:51:01Z</time>
      </trkpt>
      <trkpt lat="48.27839" lon="-1.49435">
        <ele>92</ele>
        <time>2012-11-10T20:50:41Z</time>
      </trkpt>
      <trkpt lat="48.27833" lon="-1.49389">
        <ele>92</ele>
        <time>2012-11-10T20:50:21Z</time>
      </trkpt>
      <trkpt lat="48.27834" lon="-1.49273">
        <ele>94</ele>
        <time>2012-11-10T20:50:01Z</time>
      </trkpt>
      <trkpt lat="48.27796" lon="-1.49072">
        <ele>97</ele>
        <time>2012-11-10T20:49:41Z</time>
      </trkpt>
      <trkpt lat="48.27787" lon="-1.48944">
        <ele>101</ele>
        <time>2012-11-10T20:49:21Z</time>
      </trkpt>
      <trkpt lat="48.27795" lon="-1.48711">
        <ele>100</ele>
        <time>2012-11-10T20:49:01Z</time>
      </trkpt>
      <trkpt lat="48.27817" lon="-1.48677">
        <ele>100</ele>
        <time>2012-11-10T20:48:41Z</time>
      </trkpt>
      <trkpt lat="48.27847" lon="-1.48551">
        <ele>101</ele>
        <time>2012-11-10T20:48:21Z</time>
      </trkpt>
      <trkpt lat="48.27926" lon="-1.48461">
        <ele>92</ele>
        <time>2012-11-10T20:48:01Z</time>
      </trkpt>
      <trkpt lat="48.27963" lon="-1.48451">
        <ele>79</ele>
        <time>2012-11-10T20:47:41Z</time>
      </trkpt>
      <trkpt lat="48.28054" lon="-1.48451">
        <ele>76</ele>
        <time>2012-11-10T20:47:21Z</time>
      </trkpt>
      <trkpt lat="48.28249" lon="-1.48383">
        <ele>74</ele>
        <time>2012-11-10T20:47:01Z</time>
      </trkpt>
      <trkpt lat="48.28276" lon="-1.48361">
        <ele>75</ele>
        <time>2012-11-10T20:46:41Z</time>
      </trkpt>
      <trkpt lat="48.28306" lon="-1.48313">
        <ele>73</ele>
        <time>2012-11-10T20:46:21Z</time>
      </trkpt>
      <trkpt lat="48.28315" lon="-1.482">
        <ele>72</ele>
        <time>2012-11-10T20:46:01Z</time>
      </trkpt>
      <trkpt lat="48.28341" lon="-1.48116">
        <ele>74</ele>
        <time>2012-11-10T20:45:41Z</time>
      </trkpt>
      <trkpt lat="48.28401" lon="-1.48014">
        <ele>79</ele>
        <time>2012-11-10T20:45:21Z</time>
      </trkpt>
      <trkpt lat="48.28444" lon="-1.47926">
        <ele>82</ele>
        <time>2012-11-10T20:45:01Z</time>
      </trkpt>
      <trkpt lat="48.28469" lon="-1.47852">
        <ele>79</ele>
        <time>2012-11-10T20:44:41Z</time>
      </trkpt>
      <trkpt lat="48.28506" lon="-1.47616">
        <ele>77</ele>
        <time>2012-11-10T20:44:21Z</time>
      </trkpt>
      <trkpt lat="48.28541" lon="-1.47548">
        <ele>77</ele>
        <time>2012-11-10T20:44:01Z</time>
      </trkpt>
      <trkpt lat="48.28954" lon="-1.47548">
        <ele>65</ele>
        <time>2012-11-10T20:43:41Z</time>
      </trkpt>
      <trkpt lat="48.28988" lon="-1.47554">
        <ele>65</ele>
        <time>2012-11-10T20:43:21Z</time>
      </trkpt>
      <trkpt lat="48.293" lon="-1.47556">
        <ele>62</ele>
        <time>2012-11-10T20:43:01Z</time>
      </trkpt>
      <trkpt lat="48.2933" lon="-1.4755">
        <ele>62</ele>
        <time>2012-11-10T20:42:41Z</time>
      </trkpt>
      <trkpt lat="48.29406" lon="-1.47478">
        <ele>66</ele>
        <time>2012-11-10T20:42:21Z</time>
      </trkpt>
      <trkpt lat="48.29492" lon="-1.47409">
        <ele>65</ele>
        <time>2012-11-10T20:42:01Z</time>
      </trkpt>
      <trkpt lat="48.29738" lon="-1.47128">
        <ele>69</ele>
        <time>2012-11-10T20:41:41Z</time>
      </trkpt>
      <trkpt lat="48.29781" lon="-1.47074">
        <ele>71</ele>
        <time>2012-11-10T20:41:21Z</time>
      </trkpt>
      <trkpt lat="48.29829" lon="-1.47062">
        <ele>74</ele>
        <time>2012-11-10T20:41:01Z</time>
      </trkpt>
      <trkpt lat="48.29844" lon="-1.47038">
        <ele>75</ele>
        <time>2012-11-10T20:40:41Z</time>
      </trkpt>
      <trkpt lat="48.29955" lon="-1.4699">
        <ele>74</ele>
        <time>2012-11-10T20:40:21Z</time>
      </trkpt>
      <trkpt lat="48.30016" lon="-1.4692">
        <ele>73</ele>
        <time>2012-11-10T20:40:01Z</time>
      </trkpt>
      <trkpt lat="48.30014" lon="-1.4691">
        <ele>73</ele>
        <time>2012-11-10T20:39:41Z</time>
      </trkpt>
      <trkpt lat="48.30367" lon="-1.46508">
        <ele>79</ele>
        <time>2012-11-10T20:39:21Z</time>
      </trkpt>
      <trkpt lat="48.30437" lon="-1.4646">
        <ele>78</ele>
        <time>2012-11-10T20:39:01Z</time>
      </trkpt>
      <trkpt lat="48.3041" lon="-1.46345">
        <ele>80</ele>
        <time>2012-11-10T20:38:41Z</time>
      </trkpt>
      <trkpt lat="48.30409" lon="-1.46295">
        <ele>80</ele>
        <time>2012-11-10T20:38:21Z</time>
      </trkpt>
      <trkpt lat="48.30422" lon="-1.46027">
        <ele>85</ele>
        <time>2012-11-10T20:38:01Z</time>
      </trkpt>
      <trkpt lat="48.30445" lon="-1.45895">
        <ele>87</ele>
        <time>2012-11-10T20:37:41Z</time>
      </trkpt>
      <trkpt lat="48.30324" lon="-1.45773">
        <ele>88</ele>
        <time>2012-11-10T20:37:21Z</time>
      </trkpt>
      <trkpt lat="48.30262" lon="-1.45722">
        <ele>91</ele>
        <time>2012-11-10T20:37:01Z</time>
      </trkpt>
      <trkpt lat="48.30179" lon="-1.4568">
        <ele>92</ele>
        <time>2012-11-10T20:36:41Z</time>
      </trkpt>
      <trkpt lat="48.30228" lon="-1.45526">
        <ele>77</ele>
        <time>2012-11-10T20:36:21Z</time>
      </trkpt>
      <trkpt lat="48.3026" lon="-1.45475">
        <ele>77</ele>
        <time>2012-11-10T20:36:01Z</time>
      </trkpt>
      <trkpt lat="48.30288" lon="-1.45453">
        <ele>73</ele>
        <time>2012-11-10T20:35:41Z</time>
      </trkpt>
      <trkpt lat="48.30347" lon="-1.45435">
        <ele>69</ele>
        <time>2012-11-10T20:35:21Z</time>
      </trkpt>
      <trkpt lat="48.30338" lon="-1.4538">
        <ele>69</ele>
        <time>2012-11-10T20:35:01Z</time>
      </trkpt>
      <trkpt lat="48.30336" lon="-1.4533">
        <ele>67</ele>
        <time>2012-11-10T20:34:41Z</time>
      </trkpt>
      <trkpt lat="48.30315" lon="-1.45236">
        <ele>65</ele>
        <time>2012-11-10T20:34:21Z</time>
      </trkpt>
      <trkpt lat="48.30289" lon="-1.45159">
        <ele>66</ele>
        <time>2012-11-10T20:34:01Z</time>
      </trkpt>
      <trkpt lat="48.3029" lon="-1.45143">
        <ele>66</ele>
        <time>2012-11-10T20:33:41Z</time>
      </trkpt>
      <trkpt lat="48.3038" lon="-1.45089">
        <ele>62</ele>
        <time>2012-11-10T20:33:21Z</time>
      </trkpt>
      <trkpt lat="48.30389" lon="-1.45018">
        <ele>62</ele>
        <time>2012-11-10T20:33:01Z</time>
      </trkpt>
      <trkpt lat="48.30416" lon="-1.44935">
        <ele>64</ele>
        <time>2012-11-10T20:32:41Z</time>
      </trkpt>
      <trkpt lat="48.30418" lon="-1.44912">
        <ele>64</ele>
        <time>2012-11-10T20:32:21Z</time>
      </trkpt>
      <trkpt lat="48.30456" lon="-1.44843">
        <ele>65</ele>
        <time>2012-11-10T20:32:01Z</time>
      </trkpt>
      <trkpt lat="48.3048" lon="-1.44817">
        <ele>62</ele>
        <time>2012-11-10T20:31:41Z</time>
      </trkpt>
      <trkpt lat="48.30695" lon="-1.44648">
        <ele>66</ele>
        <time>2012-11-10T20:31:21Z</time>
      </trkpt>
      <trkpt lat="48.30748" lon="-1.44648">
        <ele>68</ele>
        <time>2012-11-10T20:31:01Z</time>
      </trkpt>
      <trkpt lat="48.308" lon="-1.44664">
        <ele>68</ele>
        <time>2012-11-10T20:30:41Z</time>
      </trkpt>
      <trkpt lat="48.30843" lon="-1.44494">
        <ele>74</ele>
        <time>2012-11-10T20:30:21Z</time>
      </trkpt>
      <trkpt lat="48.30939" lon="-1.44421">
        <ele>82</ele>
        <time>2012-11-10T20:30:01Z</time>
      </trkpt>
      <trkpt lat="48.30979" lon="-1.44402">
        <ele>84</ele>
        <time>2012-11-10T20:29:41Z</time>
      </trkpt>
      <trkpt lat="48.30994" lon="-1.44353">
        <ele>86</ele>
        <time>2012-11-10T20:29:21Z</time>
      </trkpt>
      <trkpt lat="48.31029" lon="-1.44316">
        <ele>86</ele>
        <time>2012-11-10T20:29:01Z</time>
      </trkpt>
      <trkpt lat="48.31069" lon="-1.44316">
        <ele>89</ele>
        <time>2012-11-10T20:28:41Z</time>
      </trkpt>
      <trkpt lat="48.31112" lon="-1.44307">
        <ele>89</ele>
        <time>2012-11-10T20:28:21Z</time>
      </trkpt>
      <trkpt lat="48.31131" lon="-1.44313">
        <ele>91</ele>
        <time>2012-11-10T20:28:01Z</time>
      </trkpt>
      <trkpt lat="48.31183" lon="-1.44286">
        <ele>91</ele>
        <time>2012-11-10T20:27:41Z</time>
      </trkpt>
      <trkpt lat="48.31223" lon="-1.44248">
        <ele>90</ele>
        <time>2012-11-10T20:27:21Z</time>
      </trkpt>
      <trkpt lat="48.31245" lon="-1.44245">
        <ele>90</ele>
        <time>2012-11-10T20:27:01Z</time>
      </trkpt>
      <trkpt lat="48.313" lon="-1.44255">
        <ele>91</ele>
        <time>2012-11-10T20:26:41Z</time>
      </trkpt>
      <trkpt lat="48.31295" lon="-1.44171">
        <ele>90</ele>
        <time>2012-11-10T20:26:21Z</time>
      </trkpt>
      <trkpt lat="48.31258" lon="-1.44086">
        <ele>89</ele>
        <time>2012-11-10T20:26:01Z</time>
      </trkpt>
      <trkpt lat="48.31252" lon="-1.43994">
        <ele>87</ele>
        <time>2012-11-10T20:25:41Z</time>
      </trkpt>
      <trkpt lat="48.31316" lon="-1.43978">
        <ele>85</ele>
        <time>2012-11-10T20:25:21Z</time>
      </trkpt>
      <trkpt lat="48.31454" lon="-1.44088">
        <ele>93</ele>
        <time>2012-11-10T20:25:01Z</time>
      </trkpt>
      <trkpt lat="48.31481" lon="-1.44181">
        <ele>99</ele>
        <time>2012-11-10T20:24:41Z</time>
      </trkpt>
      <trkpt lat="48.31542" lon="-1.44182">
        <ele>84</ele>
        <time>2012-11-10T20:24:21Z</time>
      </trkpt>
      <trkpt lat="48.31582" lon="-1.44231">
        <ele>89</ele>
        <time>2012-11-10T20:24:01Z</time>
      </trkpt>
      <trkpt lat="48.31601" lon="-1.44416">
        <ele>82</ele>
        <time>2012-11-10T20:23:41Z</time>
      </trkpt>
      <trkpt lat="48.31645" lon="-1.44436">
        <ele>70</ele>
        <time>2012-11-10T20:23:21Z</time>
      </trkpt>
      <trkpt lat="48.31656" lon="-1.44537">
        <ele>68</ele>
        <time>2012-11-10T20:23:01Z</time>
      </trkpt>
      <trkpt lat="48.31682" lon="-1.44645">
        <ele>64</ele>
        <time>2012-11-10T20:22:41Z</time>
      </trkpt>
      <trkpt lat="48.31684" lon="-1.44682">
        <ele>64</ele>
        <time>2012-11-10T20:22:21Z</time>
      </trkpt>
      <trkpt lat="48.3166" lon="-1.44753">
        <ele>66</ele>
        <time>2012-11-10T20:22:01Z</time>
      </trkpt>
      <trkpt lat="48.31666" lon="-1.44827">
        <ele>69</ele>
        <time>2012-11-10T20:21:41Z</time>
      </trkpt>
      <trkpt lat="48.31688" lon="-1.44842">
        <ele>69</ele>
        <time>2012-11-10T20:21:21Z</time>
      </trkpt>
      <trkpt lat="48.31686" lon="-1.44913">
        <ele>71</ele>
        <time>2012-11-10T20:21:01Z</time>
      </trkpt>
      <trkpt lat="48.3171" lon="-1.44976">
        <ele>74</ele>
        <time>2012-11-10T20:20:41Z</time>
      </trkpt>
      <trkpt lat="48.31757" lon="-1.44941">
        <ele>69</ele>
        <time>2012-11-10T20:20:21Z</time>
      </trkpt>
      <trkpt lat="48.31771" lon="-1.44963">
        <ele>74</ele>
        <time>2012-11-10T20:20:01Z</time>
      </trkpt>
      <trkpt lat="48.3178" lon="-1.45097">
        <ele>77</ele>
        <time>2012-11-10T20:19:41Z</time>
      </trkpt>
      <trkpt lat="48.3181" lon="-1.45154">
        <ele>71</ele>
        <time>2012-11-10T20:19:21Z</time>
      </trkpt>
      <trkpt lat="48.31852" lon="-1.45314">
        <ele>80</ele>
        <time>2012-11-10T20:19:01Z</time>
      </trkpt>
      <trkpt lat="48.31893" lon="-1.45358">
        <ele>64</ele>
        <time>2012-11-10T20:18:41Z</time>
      </trkpt>
      <trkpt lat="48.31915" lon="-1.45486">
        <ele>74</ele>
        <time>2012-11-10T20:18:21Z</time>
      </trkpt>
      <trkpt lat="48.31894" lon="-1.45589">
        <ele>77</ele>
        <time>2012-11-10T20:18:01Z</time>
      </trkpt>
      <trkpt lat="48.31926" lon="-1.45734">
        <ele>67</ele>
        <time>2012-11-10T20:17:41Z</time>
      </trkpt>
      <trkpt lat="48.31929" lon="-1.45764">
        <ele>67</ele>
        <time>2012-11-10T20:17:21Z</time>
      </trkpt>
      <trkpt lat="48.31926" lon="-1.45806">
        <ele>64</ele>
        <time>2012-11-10T20:17:01Z</time>
      </trkpt>
      <trkpt lat="48.31899" lon="-1.45857">
        <ele>64</ele>
        <time>2012-11-10T20:16:41Z</time>
      </trkpt>
      <trkpt lat="48.31928" lon="-1.45878">
        <ele>77</ele>
        <time>2012-11-10T20:16:21Z</time>
      </trkpt>
      <trkpt lat="48.31966" lon="-1.45935">
        <ele>55</ele>
        <time>2012-11-10T20:16:01Z</time>
      </trkpt>
      <trkpt lat="48.31957" lon="-1.45987">
        <ele>80</ele>
        <time>2012-11-10T20:15:41Z</time>
      </trkpt>
      <trkpt lat="48.31954" lon="-1.46041">
        <ele>80</ele>
        <time>2012-11-10T20:15:21Z</time>
      </trkpt>
      <trkpt lat="48.3197" lon="-1.4609">
        <ele>63</ele>
        <time>2012-11-10T20:15:01Z</time>
      </trkpt>
      <trkpt lat="48.31976" lon="-1.46173">
        <ele>59</ele>
        <time>2012-11-10T20:14:41Z</time>
      </trkpt>
      <trkpt lat="48.31932" lon="-1.46219">
        <ele>73</ele>
        <time>2012-11-10T20:14:21Z</time>
      </trkpt>
      <trkpt lat="48.31926" lon="-1.46233">
        <ele>73</ele>
        <time>2012-11-10T20:14:01Z</time>
      </trkpt>
      <trkpt lat="48.31962" lon="-1.46251">
        <ele>61</ele>
        <time>2012-11-10T20:13:41Z</time>
      </trkpt>
      <trkpt lat="48.31977" lon="-1.46285">
        <ele>61</ele>
        <time>2012-11-10T20:13:21Z</time>
      </trkpt>
      <trkpt lat="48.32001" lon="-1.46298">
        <ele>68</ele>
        <time>2012-11-10T20:13:01Z</time>
      </trkpt>
      <trkpt lat="48.3201" lon="-1.46328">
        <ele>68</ele>
        <time>2012-11-10T20:12:41Z</time>
      </trkpt>
      <trkpt lat="48.32004" lon="-1.46406">
        <ele>73</ele>
        <time>2012-11-10T20:12:21Z</time>
      </trkpt>
      <trkpt lat="48.32032" lon="-1.46524">
        <ele>74</ele>
        <time>2012-11-10T20:12:01Z</time>
      </trkpt>
      <trkpt lat="48.32034" lon="-1.46574">
        <ele>73</ele>
        <time>2012-11-10T20:11:41Z</time>
      </trkpt>
      <trkpt lat="48.32011" lon="-1.46701">
        <ele>68</ele>
        <time>2012-11-10T20:11:21Z</time>
      </trkpt>
      <trkpt lat="48.31971" lon="-1.46759">
        <ele>63</ele>
        <time>2012-11-10T20:11:01Z</time>
      </trkpt>
      <trkpt lat="48.31965" lon="-1.46797">
        <ele>64</ele>
        <time>2012-11-10T20:10:41Z</time>
      </trkpt>
      <trkpt lat="48.32014" lon="-1.46876">
        <ele>61</ele>
        <time>2012-11-10T20:10:21Z</time>
      </trkpt>
      <trkpt lat="48.32009" lon="-1.46929">
        <ele>61</ele>
        <time>2012-11-10T20:10:01Z</time>
      </trkpt>
      <trkpt lat="48.32038" lon="-1.46955">
        <ele>61</ele>
        <time>2012-11-10T20:09:41Z</time>
      </trkpt>
      <trkpt lat="48.32064" lon="-1.47042">
        <ele>51</ele>
        <time>2012-11-10T20:09:21Z</time>
      </trkpt>
      <trkpt lat="48.32098" lon="-1.47113">
        <ele>51</ele>
        <time>2012-11-10T20:09:01Z</time>
      </trkpt>
      <trkpt lat="48.32138" lon="-1.47218">
        <ele>50</ele>
        <time>2012-11-10T20:08:41Z</time>
      </trkpt>
      <trkpt lat="48.32114" lon="-1.47256">
        <ele>52</ele>
        <time>2012-11-10T20:08:21Z</time>
      </trkpt>
      <trkpt lat="48.32153" lon="-1.47409">
        <ele>46</ele>
        <time>2012-11-10T20:08:01Z</time>
      </trkpt>
      <trkpt lat="48.32171" lon="-1.47443">
        <ele>46</ele>
        <time>2012-11-10T20:07:41Z</time>
      </trkpt>
      <trkpt lat="48.32241" lon="-1.47631">
        <ele>45</ele>
        <time>2012-11-10T20:07:21Z</time>
      </trkpt>
      <trkpt lat="48.32278" lon="-1.47633">
        <ele>45</ele>
        <time>2012-11-10T20:07:01Z</time>
      </trkpt>
      <trkpt lat="48.32303" lon="-1.47612">
        <ele>63</ele>
        <time>2012-11-10T20:06:41Z</time>
      </trkpt>
      <trkpt lat="48.32343" lon="-1.47475">
        <ele>68</ele>
        <time>2012-11-10T20:06:21Z</time>
      </trkpt>
      <trkpt lat="48.32379" lon="-1.47414">
        <ele>71</ele>
        <time>2012-11-10T20:06:01Z</time>
      </trkpt>
      <trkpt lat="48.32425" lon="-1.47316">
        <ele>71</ele>
        <time>2012-11-10T20:05:41Z</time>
      </trkpt>
      <trkpt lat="48.32428" lon="-1.47277">
        <ele>71</ele>
        <time>2012-11-10T20:05:21Z</time>
      </trkpt>
      <trkpt lat="48.32426" lon="-1.47212">
        <ele>71</ele>
        <time>2012-11-10T20:05:01Z</time>
      </trkpt>
      <trkpt lat="48.32432" lon="-1.47121">
        <ele>74</ele>
        <time>2012-11-10T20:04:41Z</time>
      </trkpt>
      <trkpt lat="48.3247" lon="-1.47118">
        <ele>76</ele>
        <time>2012-11-10T20:04:21Z</time>
      </trkpt>
      <trkpt lat="48.32555" lon="-1.47043">
        <ele>78</ele>
        <time>2012-11-10T20:04:01Z</time>
      </trkpt>
      <trkpt lat="48.32574" lon="-1.47035">
        <ele>79</ele>
        <time>2012-11-10T20:03:41Z</time>
      </trkpt>
      <trkpt lat="48.32599" lon="-1.47092">
        <ele>78</ele>
        <time>2012-11-10T20:03:21Z</time>
      </trkpt>
      <trkpt lat="48.32621" lon="-1.47109">
        <ele>78</ele>
        <time>2012-11-10T20:03:01Z</time>
      </trkpt>
      <trkpt lat="48.32681" lon="-1.47116">
        <ele>79</ele>
        <time>2012-11-10T20:02:41Z</time>
      </trkpt>
      <trkpt lat="48.32742" lon="-1.47141">
        <ele>76</ele>
        <time>2012-11-10T20:02:21Z</time>
      </trkpt>
      <trkpt lat="48.32767" lon="-1.47145">
        <ele>76</ele>
        <time>2012-11-10T20:02:01Z</time>
      </trkpt>
      <trkpt lat="48.32852" lon="-1.47085">
        <ele>83</ele>
        <time>2012-11-10T20:01:41Z</time>
      </trkpt>
      <trkpt lat="48.32866" lon="-1.47106">
        <ele>83</ele>
        <time>2012-11-10T20:01:21Z</time>
      </trkpt>
      <trkpt lat="48.32936" lon="-1.47161">
        <ele>85</ele>
        <time>2012-11-10T20:01:01Z</time>
      </trkpt>
      <trkpt lat="48.32957" lon="-1.47202">
        <ele>85</ele>
        <time>2012-11-10T20:00:41Z</time>
      </trkpt>
      <trkpt lat="48.32965" lon="-1.4724">
        <ele>86</ele>
        <time>2012-11-10T20:00:21Z</time>
      </trkpt>
      <trkpt lat="48.32988" lon="-1.47183">
        <ele>89</ele>
        <time>2012-11-10T20:00:01Z</time>
      </trkpt>
      <trkpt lat="48.32999" lon="-1.47124">
        <ele>94</ele>
        <time>2012-11-10T19:59:41Z</time>
      </trkpt>
      <trkpt lat="48.33024" lon="-1.47071">
        <ele>94</ele>
        <time>2012-11-10T19:59:21Z</time>
      </trkpt>
      <trkpt lat="48.33264" lon="-1.46907">
        <ele>104</ele>
        <time>2012-11-10T19:59:01Z</time>
      </trkpt>
      <trkpt lat="48.33445" lon="-1.46778">
        <ele>104</ele>
        <time>2012-11-10T19:58:41Z</time>
      </trkpt>
      <trkpt lat="48.33524" lon="-1.46696">
        <ele>102</ele>
        <time>2012-11-10T19:58:21Z</time>
      </trkpt>
      <trkpt lat="48.33609" lon="-1.46626">
        <ele>102</ele>
        <time>2012-11-10T19:58:01Z</time>
      </trkpt>
      <trkpt lat="48.33754" lon="-1.46429">
        <ele>95</ele>
        <time>2012-11-10T19:57:41Z</time>
      </trkpt>
      <trkpt lat="48.33821" lon="-1.46393">
        <ele>92</ele>
        <time>2012-11-10T19:57:21Z</time>
      </trkpt>
      <trkpt lat="48.33882" lon="-1.46316">
        <ele>89</ele>
        <time>2012-11-10T19:57:01Z</time>
      </trkpt>
      <trkpt lat="48.33956" lon="-1.46288">
        <ele>85</ele>
        <time>2012-11-10T19:56:41Z</time>
      </trkpt>
      <trkpt lat="48.34041" lon="-1.46236">
        <ele>82</ele>
        <time>2012-11-10T19:56:21Z</time>
      </trkpt>
      <trkpt lat="48.34046" lon="-1.46269">
        <ele>80</ele>
        <time>2012-11-10T19:56:01Z</time>
      </trkpt>
      <trkpt lat="48.3419" lon="-1.46193">
        <ele>78</ele>
        <time>2012-11-10T19:55:41Z</time>
      </trkpt>
      <trkpt lat="48.34191" lon="-1.46154">
        <ele>78</ele>
        <time>2012-11-10T19:55:21Z</time>
      </trkpt>
      <trkpt lat="48.34172" lon="-1.46024">
        <ele>76</ele>
        <time>2012-11-10T19:55:01Z</time>
      </trkpt>
      <trkpt lat="48.34214" lon="-1.46011">
        <ele>75</ele>
        <time>2012-11-10T19:54:41Z</time>
      </trkpt>
      <trkpt lat="48.34221" lon="-1.46026">
        <ele>75</ele>
        <time>2012-11-10T19:54:21Z</time>
      </trkpt>
      <trkpt lat="48.34255" lon="-1.4604">
        <ele>75</ele>
        <time>2012-11-10T19:54:01Z</time>
      </trkpt>
      <trkpt lat="48.34321" lon="-1.46034">
        <ele>73</ele>
        <time>2012-11-10T19:53:41Z</time>
      </trkpt>
      <trkpt lat="48.344" lon="-1.46088">
        <ele>71</ele>
        <time>2012-11-10T19:53:21Z</time>
      </trkpt>
      <trkpt lat="48.34433" lon="-1.46066">
        <ele>71</ele>
        <time>2012-11-10T19:53:01Z</time>
      </trkpt>
      <trkpt lat="48.34465" lon="-1.46072">
        <ele>70</ele>
        <time>2012-11-10T19:52:41Z</time>
      </trkpt>
      <trkpt lat="48.34484" lon="-1.46045">
        <ele>70</ele>
        <time>2012-11-10T19:52:21Z</time>
      </trkpt>
      <trkpt lat="48.34519" lon="-1.46029">
        <ele>70</ele>
        <time>2012-11-10T19:52:01Z</time>
      </trkpt>
      <trkpt lat="48.34539" lon="-1.4605">
        <ele>70</ele>
        <time>2012-11-10T19:51:41Z</time>
      </trkpt>
      <trkpt lat="48.34573" lon="-1.46049">
        <ele>68</ele>
        <time>2012-11-10T19:51:21Z</time>
      </trkpt>
      <trkpt lat="48.34602" lon="-1.46002">
        <ele>69</ele>
        <time>2012-11-10T19:51:01Z</time>
      </trkpt>
      <trkpt lat="48.34642" lon="-1.45994">
        <ele>69</ele>
        <time>2012-11-10T19:50:41Z</time>
      </trkpt>
      <trkpt lat="48.34723" lon="-1.46052">
        <ele>71</ele>
        <time>2012-11-10T19:50:21Z</time>
      </trkpt>
      <trkpt lat="48.34804" lon="-1.45948">
        <ele>76</ele>
        <time>2012-11-10T19:50:01Z</time>
      </trkpt>
      <trkpt lat="48.3486" lon="-1.45945">
        <ele>76</ele>
        <time>2012-11-10T19:49:41Z</time>
      </trkpt>
      <trkpt lat="48.34943" lon="-1.46014">
        <ele>74</ele>
        <time>2012-11-10T19:49:21Z</time>
      </trkpt>
      <trkpt lat="48.34976" lon="-1.46122">
        <ele>73</ele>
        <time>2012-11-10T19:49:01Z</time>
      </trkpt>
      <trkpt lat="48.35022" lon="-1.46088">
        <ele>73</ele>
        <time>2012-11-10T19:48:41Z</time>
      </trkpt>
      <trkpt lat="48.3505" lon="-1.46093">
        <ele>66</ele>
        <time>2012-11-10T19:48:21Z</time>
      </trkpt>
      <trkpt lat="48.3508" lon="-1.46124">
        <ele>66</ele>
        <time>2012-11-10T19:48:01Z</time>
      </trkpt>
      <trkpt lat="48.35181" lon="-1.46371">
        <ele>53</ele>
        <time>2012-11-10T19:47:41Z</time>
      </trkpt>
      <trkpt lat="48.35195" lon="-1.46388">
        <ele>60</ele>
        <time>2012-11-10T19:47:21Z</time>
      </trkpt>
      <trkpt lat="48.35224" lon="-1.46365">
        <ele>61</ele>
        <time>2012-11-10T19:47:01Z</time>
      </trkpt>
      <trkpt lat="48.35202" lon="-1.46263">
        <ele>55</ele>
        <time>2012-11-10T19:46:41Z</time>
      </trkpt>
      <trkpt lat="48.3521" lon="-1.46241">
        <ele>70</ele>
        <time>2012-11-10T19:46:21Z</time>
      </trkpt>
      <trkpt lat="48.35228" lon="-1.46236">
        <ele>70</ele>
        <time>2012-11-10T19:46:01Z</time>
      </trkpt>
      <trkpt lat="48.35257" lon="-1.46266">
        <ele>70</ele>
        <time>2012-11-10T19:45:41Z</time>
      </trkpt>
      <trkpt lat="48.35321" lon="-1.46273">
        <ele>78</ele>
        <time>2012-11-10T19:45:21Z</time>
      </trkpt>
      <trkpt lat="48.35382" lon="-1.46252">
        <ele>77</ele>
        <time>2012-11-10T19:45:01Z</time>
      </trkpt>
      <trkpt lat="48.35438" lon="-1.46258">
        <ele>77</ele>
        <time>2012-11-10T19:44:41Z</time>
      </trkpt>
      <trkpt lat="48.35468" lon="-1.46328">
        <ele>77</ele>
        <time>2012-11-10T19:44:21Z</time>
      </trkpt>
      <trkpt lat="48.35589" lon="-1.46343">
        <ele>75</ele>
        <time>2012-11-10T19:44:01Z</time>
      </trkpt>
      <trkpt lat="48.35608" lon="-1.46429">
        <ele>71</ele>
        <time>2012-11-10T19:43:41Z</time>
      </trkpt>
      <trkpt lat="48.35643" lon="-1.46502">
        <ele>70</ele>
        <time>2012-11-10T19:43:21Z</time>
      </trkpt>
      <trkpt lat="48.35669" lon="-1.46522">
        <ele>70</ele>
        <time>2012-11-10T19:43:01Z</time>
      </trkpt>
      <trkpt lat="48.35696" lon="-1.46518">
        <ele>70</ele>
        <time>2012-11-10T19:42:41Z</time>
      </trkpt>
      <trkpt lat="48.35724" lon="-1.46463">
        <ele>72</ele>
        <time>2012-11-10T19:42:21Z</time>
      </trkpt>
      <trkpt lat="48.35758" lon="-1.46472">
        <ele>72</ele>
        <time>2012-11-10T19:42:01Z</time>
      </trkpt>
      <trkpt lat="48.35781" lon="-1.46298">
        <ele>80</ele>
        <time>2012-11-10T19:41:41Z</time>
      </trkpt>
      <trkpt lat="48.3581" lon="-1.46161">
        <ele>78</ele>
        <time>2012-11-10T19:41:21Z</time>
      </trkpt>
      <trkpt lat="48.35894" lon="-1.46">
        <ele>78</ele>
        <time>2012-11-10T19:41:01Z</time>
      </trkpt>
      <trkpt lat="48.35935" lon="-1.45961">
        <ele>78</ele>
        <time>2012-11-10T19:40:41Z</time>
      </trkpt>
      <trkpt lat="48.36053" lon="-1.4591">
        <ele>66</ele>
        <time>2012-11-10T19:40:21Z</time>
      </trkpt>
      <trkpt lat="48.36119" lon="-1.45808">
        <ele>67</ele>
        <time>2012-11-10T19:40:01Z</time>
      </trkpt>
      <trkpt lat="48.36172" lon="-1.45783">
        <ele>67</ele>
        <time>2012-11-10T19:39:41Z</time>
      </trkpt>
      <trkpt lat="48.36218" lon="-1.45783">
        <ele>67</ele>
        <time>2012-11-10T19:39:21Z</time>
      </trkpt>
      <trkpt lat="48.36262" lon="-1.45724">
        <ele>67</ele>
        <time>2012-11-10T19:39:01Z</time>
      </trkpt>
      <trkpt lat="48.36336" lon="-1.45695">
        <ele>67</ele>
        <time>2012-11-10T19:38:41Z</time>
      </trkpt>
      <trkpt lat="48.36395" lon="-1.45694">
        <ele>71</ele>
        <time>2012-11-10T19:38:21Z</time>
      </trkpt>
      <trkpt lat="48.36486" lon="-1.45623">
        <ele>76</ele>
        <time>2012-11-10T19:38:01Z</time>
      </trkpt>
      <trkpt lat="48.36584" lon="-1.45505">
        <ele>77</ele>
        <time>2012-11-10T19:37:41Z</time>
      </trkpt>
      <trkpt lat="48.36655" lon="-1.45399">
        <ele>79</ele>
        <time>2012-11-10T19:37:21Z</time>
      </trkpt>
      <trkpt lat="48.36674" lon="-1.45357">
        <ele>78</ele>
        <time>2012-11-10T19:37:01Z</time>
      </trkpt>
      <trkpt lat="48.36712" lon="-1.45344">
        <ele>84</ele>
        <time>2012-11-10T19:36:41Z</time>
      </trkpt>
      <trkpt lat="48.36743" lon="-1.45475">
        <ele>88</ele>
        <time>2012-11-10T19:36:21Z</time>
      </trkpt>
      <trkpt lat="48.36768" lon="-1.45622">
        <ele>88</ele>
        <time>2012-11-10T19:36:01Z</time>
      </trkpt>
      <trkpt lat="48.36835" lon="-1.45717">
        <ele>92</ele>
        <time>2012-11-10T19:35:41Z</time>
      </trkpt>
      <trkpt lat="48.36918" lon="-1.45766">
        <ele>90</ele>
        <time>2012-11-10T19:35:21Z</time>
      </trkpt>
      <trkpt lat="48.36952" lon="-1.45754">
        <ele>90</ele>
        <time>2012-11-10T19:35:01Z</time>
      </trkpt>
      <trkpt lat="48.36958" lon="-1.45781">
        <ele>90</ele>
        <time>2012-11-10T19:34:41Z</time>
      </trkpt>
      <trkpt lat="48.3705" lon="-1.45893">
        <ele>91</ele>
        <time>2012-11-10T19:34:21Z</time>
      </trkpt>
      <trkpt lat="48.37099" lon="-1.45915">
        <ele>91</ele>
        <time>2012-11-10T19:34:01Z</time>
      </trkpt>
      <trkpt lat="48.3715" lon="-1.45924">
        <ele>89</ele>
        <time>2012-11-10T19:33:41Z</time>
      </trkpt>
      <trkpt lat="48.3721" lon="-1.45971">
        <ele>84</ele>
        <time>2012-11-10T19:33:21Z</time>
      </trkpt>
      <trkpt lat="48.37367" lon="-1.46029">
        <ele>84</ele>
        <time>2012-11-10T19:33:01Z</time>
      </trkpt>
      <trkpt lat="48.3743" lon="-1.46032">
        <ele>84</ele>
        <time>2012-11-10T19:32:41Z</time>
      </trkpt>
      <trkpt lat="48.37483" lon="-1.46045">
        <ele>85</ele>
        <time>2012-11-10T19:32:21Z</time>
      </trkpt>
      <trkpt lat="48.37532" lon="-1.46076">
        <ele>85</ele>
        <time>2012-11-10T19:32:01Z</time>
      </trkpt>
      <trkpt lat="48.37587" lon="-1.46086">
        <ele>84</ele>
        <time>2012-11-10T19:31:41Z</time>
      </trkpt>
      <trkpt lat="48.37639" lon="-1.46118">
        <ele>84</ele>
        <time>2012-11-10T19:31:21Z</time>
      </trkpt>
      <trkpt lat="48.37583" lon="-1.46232">
        <ele>84</ele>
        <time>2012-11-10T19:31:01Z</time>
      </trkpt>
      <trkpt lat="48.37721" lon="-1.46401">
        <ele>79</ele>
        <time>2012-11-10T19:30:41Z</time>
      </trkpt>
      <trkpt lat="48.37776" lon="-1.46446">
        <ele>79</ele>
        <time>2012-11-10T19:30:21Z</time>
      </trkpt>
      <trkpt lat="48.37788" lon="-1.46475">
        <ele>80</ele>
        <time>2012-11-10T19:30:01Z</time>
      </trkpt>
      <trkpt lat="48.37786" lon="-1.46532">
        <ele>80</ele>
        <time>2012-11-10T19:29:41Z</time>
      </trkpt>
      <trkpt lat="48.37754" lon="-1.46616">
        <ele>80</ele>
        <time>2012-11-10T19:29:21Z</time>
      </trkpt>
      <trkpt lat="48.37738" lon="-1.46689">
        <ele>81</ele>
        <time>2012-11-10T19:29:01Z</time>
      </trkpt>
      <trkpt lat="48.37655" lon="-1.46666">
        <ele>81</ele>
        <time>2012-11-10T19:28:41Z</time>
      </trkpt>
      <trkpt lat="48.3768" lon="-1.46921">
        <ele>84</ele>
        <time>2012-11-10T19:28:21Z</time>
      </trkpt>
      <trkpt lat="48.37693" lon="-1.46954">
        <ele>84</ele>
        <time>2012-11-10T19:28:01Z</time>
      </trkpt>
      <trkpt lat="48.37697" lon="-1.47073">
        <ele>84</ele>
        <time>2012-11-10T19:27:41Z</time>
      </trkpt>
      <trkpt lat="48.37793" lon="-1.47486">
        <ele>83</ele>
        <time>2012-11-10T19:27:21Z</time>
      </trkpt>
      <trkpt lat="48.37924" lon="-1.47431">
        <ele>82</ele>
        <time>2012-11-10T19:27:01Z</time>
      </trkpt>
      <trkpt lat="48.38017" lon="-1.47406">
        <ele>84</ele>
        <time>2012-11-10T19:26:41Z</time>
      </trkpt>
      <trkpt lat="48.38103" lon="-1.47443">
        <ele>84</ele>
        <time>2012-11-10T19:26:21Z</time>
      </trkpt>
      <trkpt lat="48.38086" lon="-1.47557">
        <ele>81</ele>
        <time>2012-11-10T19:26:01Z</time>
      </trkpt>
      <trkpt lat="48.38083" lon="-1.47694">
        <ele>82</ele>
        <time>2012-11-10T19:25:41Z</time>
      </trkpt>
      <trkpt lat="48.3806" lon="-1.47749">
        <ele>81</ele>
        <time>2012-11-10T19:25:21Z</time>
      </trkpt>
      <trkpt lat="48.38044" lon="-1.47763">
        <ele>81</ele>
        <time>2012-11-10T19:25:01Z</time>
      </trkpt>
      <trkpt lat="48.38033" lon="-1.47788">
        <ele>81</ele>
        <time>2012-11-10T19:24:41Z</time>
      </trkpt>
      <trkpt lat="48.38011" lon="-1.47801">
        <ele>81</ele>
        <time>2012-11-10T19:24:21Z</time>
      </trkpt>
      <trkpt lat="48.37917" lon="-1.47796">
        <ele>81</ele>
        <time>2012-11-10T19:24:01Z</time>
      </trkpt>
      <trkpt lat="48.379" lon="-1.47777">
        <ele>80</ele>
        <time>2012-11-10T19:23:41Z</time>
      </trkpt>
      <trkpt lat="48.37843" lon="-1.47764">
        <ele>80</ele>
        <time>2012-11-10T19:23:21Z</time>
      </trkpt>
      <trkpt lat="48.37808" lon="-1.47959">
        <ele>83</ele>
        <time>2012-11-10T19:23:01Z</time>
      </trkpt>
      <trkpt lat="48.37801" lon="-1.48018">
        <ele>83</ele>
        <time>2012-11-10T19:22:41Z</time>
      </trkpt>
      <trkpt lat="48.37763" lon="-1.48135">
        <ele>83</ele>
        <time>2012-11-10T19:22:21Z</time>
      </trkpt>
      <trkpt lat="48.37706" lon="-1.48255">
        <ele>81</ele>
        <time>2012-11-10T19:22:01Z</time>
      </trkpt>
      <trkpt lat="48.377" lon="-1.48401">
        <ele>81</ele>
        <time>2012-11-10T19:21:41Z</time>
      </trkpt>
      <trkpt lat="48.37679" lon="-1.48501">
        <ele>80</ele>
        <time>2012-11-10T19:21:21Z</time>
      </trkpt>
      <trkpt lat="48.37687" lon="-1.48606">
        <ele>81</ele>
        <time>2012-11-10T19:21:01Z</time>
      </trkpt>
      <trkpt lat="48.37685" lon="-1.48693">
        <ele>82</ele>
        <time>2012-11-10T19:20:41Z</time>
      </trkpt>
      <trkpt lat="48.37637" lon="-1.48761">
        <ele>81</ele>
        <time>2012-11-10T19:20:21Z</time>
      </trkpt>
      <trkpt lat="48.37549" lon="-1.48826">
        <ele>81</ele>
        <time>2012-11-10T19:20:01Z</time>
      </trkpt>
      <trkpt lat="48.37533" lon="-1.4892">
        <ele>79</ele>
        <time>2012-11-10T19:19:41Z</time>
      </trkpt>
      <trkpt lat="48.37406" lon="-1.49004">
        <ele>79</ele>
        <time>2012-11-10T19:19:21Z</time>
      </trkpt>
      <trkpt lat="48.37385" lon="-1.49063">
        <ele>79</ele>
        <time>2012-11-10T19:19:01Z</time>
      </trkpt>
      <trkpt lat="48.37353" lon="-1.49107">
        <ele>80</ele>
        <time>2012-11-10T19:18:41Z</time>
      </trkpt>
      <trkpt lat="48.37389" lon="-1.49289">
        <ele>80</ele>
        <time>2012-11-10T19:18:21Z</time>
      </trkpt>
      <trkpt lat="48.37412" lon="-1.49354">
        <ele>81</ele>
        <time>2012-11-10T19:18:01Z</time>
      </trkpt>
      <trkpt lat="48.37511" lon="-1.49485">
        <ele>80</ele>
        <time>2012-11-10T19:17:41Z</time>
      </trkpt>
      <trkpt lat="48.37639" lon="-1.49792">
        <ele>66</ele>
        <time>2012-11-10T19:17:21Z</time>
      </trkpt>
      <trkpt lat="48.37739" lon="-1.49757">
        <ele>68</ele>
        <time>2012-11-10T19:17:01Z</time>
      </trkpt>
      <trkpt lat="48.3785" lon="-1.49734">
        <ele>65</ele>
        <time>2012-11-10T19:16:41Z</time>
      </trkpt>
      <trkpt lat="48.3787" lon="-1.49825">
        <ele>60</ele>
        <time>2012-11-10T19:16:21Z</time>
      </trkpt>
      <trkpt lat="48.37885" lon="-1.49871">
        <ele>55</ele>
        <time>2012-11-10T19:16:01Z</time>
      </trkpt>
      <trkpt lat="48.37903" lon="-1.49896">
        <ele>48</ele>
        <time>2012-11-10T19:15:41Z</time>
      </trkpt>
      <trkpt lat="48.37973" lon="-1.49932">
        <ele>41</ele>
        <time>2012-11-10T19:15:21Z</time>
      </trkpt>
      <trkpt lat="48.38018" lon="-1.49923">
        <ele>41</ele>
        <time>2012-11-10T19:15:01Z</time>
      </trkpt>
      <trkpt lat="48.38079" lon="-1.49861">
        <ele>53</ele>
        <time>2012-11-10T19:14:41Z</time>
      </trkpt>
      <trkpt lat="48.38142" lon="-1.49876">
        <ele>29</ele>
        <time>2012-11-10T19:14:21Z</time>
      </trkpt>
      <trkpt lat="48.38221" lon="-1.49851">
        <ele>42</ele>
        <time>2012-11-10T19:14:01Z</time>
      </trkpt>
      <trkpt lat="48.3828" lon="-1.49819">
        <ele>42</ele>
        <time>2012-11-10T19:13:41Z</time>
      </trkpt>
      <trkpt lat="48.3833" lon="-1.49811">
        <ele>43</ele>
        <time>2012-11-10T19:13:21Z</time>
      </trkpt>
      <trkpt lat="48.38387" lon="-1.49813">
        <ele>45</ele>
        <time>2012-11-10T19:13:01Z</time>
      </trkpt>
      <trkpt lat="48.38554" lon="-1.49873">
        <ele>41</ele>
        <time>2012-11-10T19:12:41Z</time>
      </trkpt>
      <trkpt lat="48.38604" lon="-1.49873">
        <ele>41</ele>
        <time>2012-11-10T19:12:21Z</time>
      </trkpt>
      <trkpt lat="48.38654" lon="-1.49851">
        <ele>34</ele>
        <time>2012-11-10T19:12:01Z</time>
      </trkpt>
      <trkpt lat="48.38686" lon="-1.49847">
        <ele>34</ele>
        <time>2012-11-10T19:11:41Z</time>
      </trkpt>
      <trkpt lat="48.38731" lon="-1.49858">
        <ele>36</ele>
        <time>2012-11-10T19:11:21Z</time>
      </trkpt>
      <trkpt lat="48.3886" lon="-1.49969">
        <ele>20</ele>
        <time>2012-11-10T19:11:01Z</time>
      </trkpt>
      <trkpt lat="48.389" lon="-1.50026">
        <ele>35</ele>
        <time>2012-11-10T19:10:41Z</time>
      </trkpt>
      <trkpt lat="48.38957" lon="-1.50077">
        <ele>23</ele>
        <time>2012-11-10T19:10:21Z</time>
      </trkpt>
      <trkpt lat="48.39007" lon="-1.50105">
        <ele>31</ele>
        <time>2012-11-10T19:10:01Z</time>
      </trkpt>
      <trkpt lat="48.39054" lon="-1.50115">
        <ele>40</ele>
        <time>2012-11-10T19:09:41Z</time>
      </trkpt>
      <trkpt lat="48.39086" lon="-1.50142">
        <ele>30</ele>
        <time>2012-11-10T19:09:21Z</time>
      </trkpt>
      <trkpt lat="48.39193" lon="-1.50302">
        <ele>21</ele>
        <time>2012-11-10T19:09:01Z</time>
      </trkpt>
      <trkpt lat="48.39271" lon="-1.50349">
        <ele>32</ele>
        <time>2012-11-10T19:08:41Z</time>
      </trkpt>
      <trkpt lat="48.39353" lon="-1.50417">
        <ele>27</ele>
        <time>2012-11-10T19:08:21Z</time>
      </trkpt>
      <trkpt lat="48.39475" lon="-1.50506">
        <ele>31</ele>
        <time>2012-11-10T19:08:01Z</time>
      </trkpt>
      <trkpt lat="48.39575" lon="-1.50567">
        <ele>26</ele>
        <time>2012-11-10T19:07:41Z</time>
      </trkpt>
      <trkpt lat="48.39646" lon="-1.50575">
        <ele>35</ele>
        <time>2012-11-10T19:07:21Z</time>
      </trkpt>
      <trkpt lat="48.39722" lon="-1.50593">
        <ele>42</ele>
        <time>2012-11-10T19:07:01Z</time>
      </trkpt>
      <trkpt lat="48.39745" lon="-1.50582">
        <ele>42</ele>
        <time>2012-11-10T19:06:41Z</time>
      </trkpt>
      <trkpt lat="48.39773" lon="-1.50535">
        <ele>50</ele>
        <time>2012-11-10T19:06:21Z</time>
      </trkpt>
      <trkpt lat="48.39844" lon="-1.50541">
        <ele>48</ele>
        <time>2012-11-10T19:06:01Z</time>
      </trkpt>
      <trkpt lat="48.39924" lon="-1.50533">
        <ele>47</ele>
        <time>2012-11-10T19:05:41Z</time>
      </trkpt>
      <trkpt lat="48.39934" lon="-1.50517">
        <ele>47</ele>
        <time>2012-11-10T19:05:21Z</time>
      </trkpt>
      <trkpt lat="48.39934" lon="-1.50402">
        <ele>48</ele>
        <time>2012-11-10T19:05:01Z</time>
      </trkpt>
      <trkpt lat="48.39999" lon="-1.50359">
        <ele>45</ele>
        <time>2012-11-10T19:04:41Z</time>
      </trkpt>
      <trkpt lat="48.40036" lon="-1.50309">
        <ele>45</ele>
        <time>2012-11-10T19:04:21Z</time>
      </trkpt>
      <trkpt lat="48.40064" lon="-1.50335">
        <ele>41</ele>
        <time>2012-11-10T19:04:01Z</time>
      </trkpt>
      <trkpt lat="48.40115" lon="-1.50435">
        <ele>39</ele>
        <time>2012-11-10T19:03:41Z</time>
      </trkpt>
      <trkpt lat="48.4012" lon="-1.50463">
        <ele>37</ele>
        <time>2012-11-10T19:03:21Z</time>
      </trkpt>
      <trkpt lat="48.40135" lon="-1.50506">
        <ele>28</ele>
        <time>2012-11-10T19:03:01Z</time>
      </trkpt>
      <trkpt lat="48.40169" lon="-1.50491">
        <ele>28</ele>
        <time>2012-11-10T19:02:41Z</time>
      </trkpt>
      <trkpt lat="48.40209" lon="-1.50442">
        <ele>29</ele>
        <time>2012-11-10T19:02:21Z</time>
      </trkpt>
      <trkpt lat="48.40273" lon="-1.50375">
        <ele>34</ele>
        <time>2012-11-10T19:02:01Z</time>
      </trkpt>
      <trkpt lat="48.4035" lon="-1.50324">
        <ele>27</ele>
        <time>2012-11-10T19:01:41Z</time>
      </trkpt>
      <trkpt lat="48.40371" lon="-1.50285">
        <ele>30</ele>
        <time>2012-11-10T19:01:21Z</time>
      </trkpt>
      <trkpt lat="48.40385" lon="-1.50226">
        <ele>25</ele>
        <time>2012-11-10T19:01:01Z</time>
      </trkpt>
      <trkpt lat="48.40375" lon="-1.50185">
        <ele>31</ele>
        <time>2012-11-10T19:00:41Z</time>
      </trkpt>
      <trkpt lat="48.40397" lon="-1.50083">
        <ele>33</ele>
        <time>2012-11-10T19:00:21Z</time>
      </trkpt>
      <trkpt lat="48.40432" lon="-1.50031">
        <ele>36</ele>
        <time>2012-11-10T19:00:01Z</time>
      </trkpt>
      <trkpt lat="48.40458" lon="-1.49979">
        <ele>36</ele>
        <time>2012-11-10T18:59:41Z</time>
      </trkpt>
      <trkpt lat="48.40479" lon="-1.49918">
        <ele>43</ele>
        <time>2012-11-10T18:59:21Z</time>
      </trkpt>
      <trkpt lat="48.40573" lon="-1.4973">
        <ele>52</ele>
        <time>2012-11-10T18:59:01Z</time>
      </trkpt>
      <trkpt lat="48.40595" lon="-1.49896">
        <ele>44</ele>
        <time>2012-11-10T18:58:41Z</time>
      </trkpt>
      <trkpt lat="48.40678" lon="-1.49869">
        <ele>47</ele>
        <time>2012-11-10T18:58:21Z</time>
      </trkpt>
      <trkpt lat="48.40963" lon="-1.49655">
        <ele>45</ele>
        <time>2012-11-10T18:58:01Z</time>
      </trkpt>
      <trkpt lat="48.4105" lon="-1.49571">
        <ele>48</ele>
        <time>2012-11-10T18:57:41Z</time>
      </trkpt>
      <trkpt lat="48.41112" lon="-1.49549">
        <ele>48</ele>
        <time>2012-11-10T18:57:21Z</time>
      </trkpt>
      <trkpt lat="48.41135" lon="-1.49553">
        <ele>47</ele>
        <time>2012-11-10T18:57:01Z</time>
      </trkpt>
      <trkpt lat="48.41147" lon="-1.496">
        <ele>47</ele>
        <time>2012-11-10T18:56:41Z</time>
      </trkpt>
      <trkpt lat="48.41161" lon="-1.49625">
        <ele>44</ele>
        <time>2012-11-10T18:56:21Z</time>
      </trkpt>
      <trkpt lat="48.41211" lon="-1.49581">
        <ele>44</ele>
        <time>2012-11-10T18:56:01Z</time>
      </trkpt>
      <trkpt lat="48.41224" lon="-1.49586">
        <ele>44</ele>
        <time>2012-11-10T18:55:41Z</time>
      </trkpt>
      <trkpt lat="48.41293" lon="-1.49576">
        <ele>42</ele>
        <time>2012-11-10T18:55:21Z</time>
      </trkpt>
      <trkpt lat="48.41331" lon="-1.49596">
        <ele>42</ele>
        <time>2012-11-10T18:55:01Z</time>
      </trkpt>
      <trkpt lat="48.41364" lon="-1.49602">
        <ele>42</ele>
        <time>2012-11-10T18:54:41Z</time>
      </trkpt>
      <trkpt lat="48.41368" lon="-1.49653">
        <ele>41</ele>
        <time>2012-11-10T18:54:21Z</time>
      </trkpt>
      <trkpt lat="48.41385" lon="-1.49747">
        <ele>35</ele>
        <time>2012-11-10T18:54:01Z</time>
      </trkpt>
      <trkpt lat="48.41406" lon="-1.49726">
        <ele>35</ele>
        <time>2012-11-10T18:53:41Z</time>
      </trkpt>
      <trkpt lat="48.41476" lon="-1.49683">
        <ele>27</ele>
        <time>2012-11-10T18:53:21Z</time>
      </trkpt>
      <trkpt lat="48.41508" lon="-1.49604">
        <ele>31</ele>
        <time>2012-11-10T18:53:01Z</time>
      </trkpt>
      <trkpt lat="48.4153" lon="-1.49593">
        <ele>31</ele>
        <time>2012-11-10T18:52:41Z</time>
      </trkpt>
      <trkpt lat="48.4156" lon="-1.49488">
        <ele>39</ele>
        <time>2012-11-10T18:52:21Z</time>
      </trkpt>
      <trkpt lat="48.41597" lon="-1.49459">
        <ele>39</ele>
        <time>2012-11-10T18:52:01Z</time>
      </trkpt>
      <trkpt lat="48.41651" lon="-1.49453">
        <ele>45</ele>
        <time>2012-11-10T18:51:41Z</time>
      </trkpt>
      <trkpt lat="48.41684" lon="-1.49429">
        <ele>45</ele>
        <time>2012-11-10T18:51:21Z</time>
      </trkpt>
      <trkpt lat="48.41822" lon="-1.49422">
        <ele>52</ele>
        <time>2012-11-10T18:51:01Z</time>
      </trkpt>
      <trkpt lat="48.42004" lon="-1.49357">
        <ele>63</ele>
        <time>2012-11-10T18:50:41Z</time>
      </trkpt>
      <trkpt lat="48.42109" lon="-1.4928">
        <ele>77</ele>
        <time>2012-11-10T18:50:21Z</time>
      </trkpt>
      <trkpt lat="48.42157" lon="-1.49268">
        <ele>89</ele>
        <time>2012-11-10T18:50:01Z</time>
      </trkpt>
      <trkpt lat="48.42227" lon="-1.4921">
        <ele>96</ele>
        <time>2012-11-10T18:49:41Z</time>
      </trkpt>
      <trkpt lat="48.42261" lon="-1.49192">
        <ele>94</ele>
        <time>2012-11-10T18:49:21Z</time>
      </trkpt>
      <trkpt lat="48.42372" lon="-1.49187">
        <ele>98</ele>
        <time>2012-11-10T18:49:01Z</time>
      </trkpt>
      <trkpt lat="48.42512" lon="-1.49166">
        <ele>96</ele>
        <time>2012-11-10T18:48:41Z</time>
      </trkpt>
      <trkpt lat="48.42604" lon="-1.49122">
        <ele>98</ele>
        <time>2012-11-10T18:48:21Z</time>
      </trkpt>
      <trkpt lat="48.42705" lon="-1.49093">
        <ele>100</ele>
        <time>2012-11-10T18:48:01Z</time>
      </trkpt>
      <trkpt lat="48.42779" lon="-1.49096">
        <ele>104</ele>
        <time>2012-11-10T18:47:41Z</time>
      </trkpt>
      <trkpt lat="48.42867" lon="-1.49057">
        <ele>104</ele>
        <time>2012-11-10T18:47:21Z</time>
      </trkpt>
      <trkpt lat="48.42933" lon="-1.49053">
        <ele>106</ele>
        <time>2012-11-10T18:47:01Z</time>
      </trkpt>
      <trkpt lat="48.43025" lon="-1.49057">
        <ele>102</ele>
        <time>2012-11-10T18:46:41Z</time>
      </trkpt>
      <trkpt lat="48.43135" lon="-1.49111">
        <ele>99</ele>
        <time>2012-11-10T18:46:21Z</time>
      </trkpt>
      <trkpt lat="48.43182" lon="-1.49013">
        <ele>99</ele>
        <time>2012-11-10T18:46:01Z</time>
      </trkpt>
      <trkpt lat="48.43204" lon="-1.48943">
        <ele>98</ele>
        <time>2012-11-10T18:45:41Z</time>
      </trkpt>
      <trkpt lat="48.4313" lon="-1.48833">
        <ele>98</ele>
        <time>2012-11-10T18:45:21Z</time>
      </trkpt>
      <trkpt lat="48.43174" lon="-1.48775">
        <ele>100</ele>
        <time>2012-11-10T18:45:01Z</time>
      </trkpt>
      <trkpt lat="48.43209" lon="-1.48701">
        <ele>99</ele>
        <time>2012-11-10T18:44:41Z</time>
      </trkpt>
      <trkpt lat="48.43288" lon="-1.48611">
        <ele>96</ele>
        <time>2012-11-10T18:44:21Z</time>
      </trkpt>
      <trkpt lat="48.43307" lon="-1.48571">
        <ele>90</ele>
        <time>2012-11-10T18:44:01Z</time>
      </trkpt>
      <trkpt lat="48.43309" lon="-1.48523">
        <ele>85</ele>
        <time>2012-11-10T18:43:41Z</time>
      </trkpt>
      <trkpt lat="48.433" lon="-1.48487">
        <ele>85</ele>
        <time>2012-11-10T18:43:21Z</time>
      </trkpt>
      <trkpt lat="48.43277" lon="-1.4846">
        <ele>90</ele>
        <time>2012-11-10T18:43:01Z</time>
      </trkpt>
      <trkpt lat="48.43264" lon="-1.4833">
        <ele>86</ele>
        <time>2012-11-10T18:42:41Z</time>
      </trkpt>
      <trkpt lat="48.43266" lon="-1.48105">
        <ele>88</ele>
        <time>2012-11-10T18:42:21Z</time>
      </trkpt>
      <trkpt lat="48.43328" lon="-1.48129">
        <ele>82</ele>
        <time>2012-11-10T18:42:01Z</time>
      </trkpt>
      <trkpt lat="48.43456" lon="-1.48157">
        <ele>78</ele>
        <time>2012-11-10T18:41:41Z</time>
      </trkpt>
      <trkpt lat="48.43568" lon="-1.48203">
        <ele>67</ele>
        <time>2012-11-10T18:41:21Z</time>
      </trkpt>
      <trkpt lat="48.43632" lon="-1.48219">
        <ele>61</ele>
        <time>2012-11-10T18:41:01Z</time>
      </trkpt>
      <trkpt lat="48.43719" lon="-1.48224">
        <ele>56</ele>
        <time>2012-11-10T18:40:41Z</time>
      </trkpt>
      <trkpt lat="48.4377" lon="-1.48202">
        <ele>55</ele>
        <time>2012-11-10T18:40:21Z</time>
      </trkpt>
      <trkpt lat="48.43812" lon="-1.48217">
        <ele>54</ele>
        <time>2012-11-10T18:40:01Z</time>
      </trkpt>
      <trkpt lat="48.43914" lon="-1.48147">
        <ele>56</ele>
        <time>2012-11-10T18:39:41Z</time>
      </trkpt>
      <trkpt lat="48.43973" lon="-1.48114">
        <ele>59</ele>
        <time>2012-11-10T18:39:21Z</time>
      </trkpt>
      <trkpt lat="48.43995" lon="-1.48084">
        <ele>59</ele>
        <time>2012-11-10T18:39:01Z</time>
      </trkpt>
      <trkpt lat="48.44024" lon="-1.48083">
        <ele>59</ele>
        <time>2012-11-10T18:38:41Z</time>
      </trkpt>
      <trkpt lat="48.44075" lon="-1.48135">
        <ele>57</ele>
        <time>2012-11-10T18:38:21Z</time>
      </trkpt>
      <trkpt lat="48.44188" lon="-1.48234">
        <ele>57</ele>
        <time>2012-11-10T18:38:01Z</time>
      </trkpt>
      <trkpt lat="48.44464" lon="-1.48433">
        <ele>51</ele>
        <time>2012-11-10T18:37:41Z</time>
      </trkpt>
      <trkpt lat="48.44709" lon="-1.486">
        <ele>43</ele>
        <time>2012-11-10T18:37:21Z</time>
      </trkpt>
      <trkpt lat="48.44716" lon="-1.48603">
        <ele>43</ele>
        <time>2012-11-10T18:37:01Z</time>
      </trkpt>
      <trkpt lat="48.44716" lon="-1.48636">
        <ele>46</ele>
        <time>2012-11-10T18:36:41Z</time>
      </trkpt>
      <trkpt lat="48.44913" lon="-1.48645">
        <ele>48</ele>
        <time>2012-11-10T18:36:21Z</time>
      </trkpt>
      <trkpt lat="48.45013" lon="-1.4861">
        <ele>49</ele>
        <time>2012-11-10T18:36:01Z</time>
      </trkpt>
      <trkpt lat="48.45197" lon="-1.48563">
        <ele>49</ele>
        <time>2012-11-10T18:35:41Z</time>
      </trkpt>
      <trkpt lat="48.45315" lon="-1.48566">
        <ele>46</ele>
        <time>2012-11-10T18:35:21Z</time>
      </trkpt>
      <trkpt lat="48.45422" lon="-1.48541">
        <ele>43</ele>
        <time>2012-11-10T18:35:01Z</time>
      </trkpt>
      <trkpt lat="48.45575" lon="-1.48944">
        <ele>28</ele>
        <time>2012-11-10T18:34:41Z</time>
      </trkpt>
      <trkpt lat="48.45737" lon="-1.48864">
        <ele>28</ele>
        <time>2012-11-10T18:34:21Z</time>
      </trkpt>
      <trkpt lat="48.4581" lon="-1.4884">
        <ele>30</ele>
        <time>2012-11-10T18:34:01Z</time>
      </trkpt>
      <trkpt lat="48.45923" lon="-1.48746">
        <ele>35</ele>
        <time>2012-11-10T18:33:41Z</time>
      </trkpt>
      <trkpt lat="48.45906" lon="-1.48848">
        <ele>27</ele>
        <time>2012-11-10T18:33:21Z</time>
      </trkpt>
      <trkpt lat="48.46" lon="-1.4887">
        <ele>31</ele>
        <time>2012-11-10T18:33:01Z</time>
      </trkpt>
      <trkpt lat="48.46072" lon="-1.48598">
        <ele>41</ele>
        <time>2012-11-10T18:32:41Z</time>
      </trkpt>
      <trkpt lat="48.46105" lon="-1.48643">
        <ele>40</ele>
        <time>2012-11-10T18:32:21Z</time>
      </trkpt>
      <trkpt lat="48.46143" lon="-1.48657">
        <ele>41</ele>
        <time>2012-11-10T18:32:01Z</time>
      </trkpt>
      <trkpt lat="48.46141" lon="-1.48794">
        <ele>38</ele>
        <time>2012-11-10T18:31:41Z</time>
      </trkpt>
      <trkpt lat="48.4612" lon="-1.49072">
        <ele>24</ele>
        <time>2012-11-10T18:31:21Z</time>
      </trkpt>
      <trkpt lat="48.46135" lon="-1.49356">
        <ele>11</ele>
        <time>2012-11-10T18:31:01Z</time>
      </trkpt>
      <trkpt lat="48.46171" lon="-1.49488">
        <ele>10</ele>
        <time>2012-11-10T18:30:41Z</time>
      </trkpt>
      <trkpt lat="48.4618" lon="-1.49579">
        <ele>15</ele>
        <time>2012-11-10T18:30:21Z</time>
      </trkpt>
      <trkpt lat="48.4625" lon="-1.49549">
        <ele>21</ele>
        <time>2012-11-10T18:30:01Z</time>
      </trkpt>
      <trkpt lat="48.46335" lon="-1.49617">
        <ele>27</ele>
        <time>2012-11-10T18:29:41Z</time>
      </trkpt>
      <trkpt lat="48.46425" lon="-1.49703">
        <ele>43</ele>
        <time>2012-11-10T18:29:21Z</time>
      </trkpt>
      <trkpt lat="48.46541" lon="-1.49861">
        <ele>58</ele>
        <time>2012-11-10T18:29:01Z</time>
      </trkpt>
      <trkpt lat="48.46608" lon="-1.49999">
        <ele>69</ele>
        <time>2012-11-10T18:28:41Z</time>
      </trkpt>
      <trkpt lat="48.46664" lon="-1.50146">
        <ele>81</ele>
        <time>2012-11-10T18:28:21Z</time>
      </trkpt>
      <trkpt lat="48.46672" lon="-1.50194">
        <ele>81</ele>
        <time>2012-11-10T18:28:01Z</time>
      </trkpt>
      <trkpt lat="48.46696" lon="-1.50225">
        <ele>85</ele>
        <time>2012-11-10T18:27:41Z</time>
      </trkpt>
      <trkpt lat="48.46742" lon="-1.50253">
        <ele>85</ele>
        <time>2012-11-10T18:27:21Z</time>
      </trkpt>
      <trkpt lat="48.46758" lon="-1.50333">
        <ele>87</ele>
        <time>2012-11-10T18:27:01Z</time>
      </trkpt>
      <trkpt lat="48.4668" lon="-1.50385">
        <ele>89</ele>
        <time>2012-11-10T18:26:41Z</time>
      </trkpt>
      <trkpt lat="48.46682" lon="-1.50512">
        <ele>89</ele>
        <time>2012-11-10T18:26:21Z</time>
      </trkpt>
      <trkpt lat="48.46677" lon="-1.50649">
        <ele>90</ele>
        <time>2012-11-10T18:26:01Z</time>
      </trkpt>
      <trkpt lat="48.46669" lon="-1.50693">
        <ele>90</ele>
        <time>2012-11-10T18:25:41Z</time>
      </trkpt>
      <trkpt lat="48.46685" lon="-1.50973">
        <ele>85</ele>
        <time>2012-11-10T18:25:21Z</time>
      </trkpt>
      <trkpt lat="48.46687" lon="-1.51112">
        <ele>89</ele>
        <time>2012-11-10T18:25:01Z</time>
      </trkpt>
      <trkpt lat="48.46769" lon="-1.51322">
        <ele>107</ele>
        <time>2012-11-10T18:24:41Z</time>
      </trkpt>
      <trkpt lat="48.46772" lon="-1.51391">
        <ele>108</ele>
        <time>2012-11-10T18:24:21Z</time>
      </trkpt>
      <trkpt lat="48.4676" lon="-1.5144">
        <ele>108</ele>
        <time>2012-11-10T18:24:01Z</time>
      </trkpt>
      <trkpt lat="48.4675" lon="-1.51509">
        <ele>110</ele>
        <time>2012-11-10T18:23:41Z</time>
      </trkpt>
      <trkpt lat="48.46742" lon="-1.51531">
        <ele>110</ele>
        <time>2012-11-10T18:23:21Z</time>
      </trkpt>
      <trkpt lat="48.46712" lon="-1.51561">
        <ele>110</ele>
        <time>2012-11-10T18:23:01Z</time>
      </trkpt>
      <trkpt lat="48.46711" lon="-1.51607">
        <ele>110</ele>
        <time>2012-11-10T18:22:41Z</time>
      </trkpt>
      <trkpt lat="48.46672" lon="-1.5162">
        <ele>111</ele>
        <time>2012-11-10T18:22:21Z</time>
      </trkpt>
      <trkpt lat="48.46616" lon="-1.51645">
        <ele>110</ele>
        <time>2012-11-10T18:22:01Z</time>
      </trkpt>
      <trkpt lat="48.46493" lon="-1.51761">
        <ele>108</ele>
        <time>2012-11-10T18:21:41Z</time>
      </trkpt>
      <trkpt lat="48.46383" lon="-1.5191">
        <ele>110</ele>
        <time>2012-11-10T18:21:21Z</time>
      </trkpt>
      <trkpt lat="48.46314" lon="-1.51949">
        <ele>111</ele>
        <time>2012-11-10T18:21:01Z</time>
      </trkpt>
      <trkpt lat="48.46334" lon="-1.5222">
        <ele>109</ele>
        <time>2012-11-10T18:20:41Z</time>
      </trkpt>
      <trkpt lat="48.46349" lon="-1.52321">
        <ele>107</ele>
        <time>2012-11-10T18:20:21Z</time>
      </trkpt>
      <trkpt lat="48.46347" lon="-1.52396">
        <ele>105</ele>
        <time>2012-11-10T18:20:01Z</time>
      </trkpt>
      <trkpt lat="48.46298" lon="-1.5251">
        <ele>106</ele>
        <time>2012-11-10T18:19:41Z</time>
      </trkpt>
      <trkpt lat="48.4622" lon="-1.52496">
        <ele>111</ele>
        <time>2012-11-10T18:19:21Z</time>
      </trkpt>
      <trkpt lat="48.4622" lon="-1.52537">
        <ele>111</ele>
        <time>2012-11-10T18:19:01Z</time>
      </trkpt>
      <trkpt lat="48.46288" lon="-1.52591">
        <ele>113</ele>
        <time>2012-11-10T18:18:41Z</time>
      </trkpt>
      <trkpt lat="48.46398" lon="-1.52677">
        <ele>112</ele>
        <time>2012-11-10T18:18:21Z</time>
      </trkpt>
      <trkpt lat="48.46403" lon="-1.52716">
        <ele>113</ele>
        <time>2012-11-10T18:18:01Z</time>
      </trkpt>
      <trkpt lat="48.46382" lon="-1.52734">
        <ele>113</ele>
        <time>2012-11-10T18:17:41Z</time>
      </trkpt>
      <trkpt lat="48.46305" lon="-1.52848">
        <ele>115</ele>
        <time>2012-11-10T18:17:21Z</time>
      </trkpt>
      <trkpt lat="48.46277" lon="-1.53018">
        <ele>121</ele>
        <time>2012-11-10T18:17:01Z</time>
      </trkpt>
      <trkpt lat="48.46241" lon="-1.53044">
        <ele>115</ele>
        <time>2012-11-10T18:16:41Z</time>
      </trkpt>
      <trkpt lat="48.46172" lon="-1.53143">
        <ele>116</ele>
        <time>2012-11-10T18:16:21Z</time>
      </trkpt>
      <trkpt lat="48.46108" lon="-1.53119">
        <ele>119</ele>
        <time>2012-11-10T18:16:01Z</time>
      </trkpt>
      <trkpt lat="48.46085" lon="-1.53138">
        <ele>118</ele>
        <time>2012-11-10T18:15:41Z</time>
      </trkpt>
      <trkpt lat="48.46095" lon="-1.53286">
        <ele>115</ele>
        <time>2012-11-10T18:15:21Z</time>
      </trkpt>
      <trkpt lat="48.46092" lon="-1.53326">
        <ele>113</ele>
        <time>2012-11-10T18:15:01Z</time>
      </trkpt>
      <trkpt lat="48.4604" lon="-1.53373">
        <ele>115</ele>
        <time>2012-11-10T18:14:41Z</time>
      </trkpt>
      <trkpt lat="48.46039" lon="-1.53401">
        <ele>114</ele>
        <time>2012-11-10T18:14:21Z</time>
      </trkpt>
      <trkpt lat="48.46136" lon="-1.53461">
        <ele>112</ele>
        <time>2012-11-10T18:14:01Z</time>
      </trkpt>
      <trkpt lat="48.46158" lon="-1.53509">
        <ele>112</ele>
        <time>2012-11-10T18:13:41Z</time>
      </trkpt>
      <trkpt lat="48.46164" lon="-1.53631">
        <ele>114</ele>
        <time>2012-11-10T18:13:21Z</time>
      </trkpt>
      <trkpt lat="48.46195" lon="-1.53643">
        <ele>114</ele>
        <time>2012-11-10T18:13:01Z</time>
      </trkpt>
      <trkpt lat="48.46308" lon="-1.53601">
        <ele>115</ele>
        <time>2012-11-10T18:12:41Z</time>
      </trkpt>
      <trkpt lat="48.46379" lon="-1.53637">
        <ele>116</ele>
        <time>2012-11-10T18:12:21Z</time>
      </trkpt>
      <trkpt lat="48.4642" lon="-1.53635">
        <ele>116</ele>
        <time>2012-11-10T18:12:01Z</time>
      </trkpt>
      <trkpt lat="48.46444" lon="-1.53649">
        <ele>116</ele>
        <time>2012-11-10T18:11:41Z</time>
      </trkpt>
      <trkpt lat="48.46476" lon="-1.53801">
        <ele>110</ele>
        <time>2012-11-10T18:11:21Z</time>
      </trkpt>
      <trkpt lat="48.46497" lon="-1.53872">
        <ele>110</ele>
        <time>2012-11-10T18:11:01Z</time>
      </trkpt>
      <trkpt lat="48.4642" lon="-1.54442">
        <ele>111</ele>
        <time>2012-11-10T18:10:41Z</time>
      </trkpt>
      <trkpt lat="48.46431" lon="-1.54522">
        <ele>106</ele>
        <time>2012-11-10T18:10:21Z</time>
      </trkpt>
      <trkpt lat="48.46423" lon="-1.54583">
        <ele>103</ele>
        <time>2012-11-10T18:10:01Z</time>
      </trkpt>
      <trkpt lat="48.46427" lon="-1.54639">
        <ele>101</ele>
        <time>2012-11-10T18:09:41Z</time>
      </trkpt>
      <trkpt lat="48.46417" lon="-1.54698">
        <ele>101</ele>
        <time>2012-11-10T18:09:21Z</time>
      </trkpt>
      <trkpt lat="48.4642" lon="-1.55166">
        <ele>100</ele>
        <time>2012-11-10T18:09:01Z</time>
      </trkpt>
      <trkpt lat="48.46513" lon="-1.55343">
        <ele>104</ele>
        <time>2012-11-10T18:08:41Z</time>
      </trkpt>
      <trkpt lat="48.46529" lon="-1.55392">
        <ele>105</ele>
        <time>2012-11-10T18:08:21Z</time>
      </trkpt>
      <trkpt lat="48.46551" lon="-1.55494">
        <ele>105</ele>
        <time>2012-11-10T18:08:01Z</time>
      </trkpt>
      <trkpt lat="48.46569" lon="-1.55545">
        <ele>108</ele>
        <time>2012-11-10T18:07:41Z</time>
      </trkpt>
      <trkpt lat="48.46634" lon="-1.55619">
        <ele>105</ele>
        <time>2012-11-10T18:07:21Z</time>
      </trkpt>
      <trkpt lat="48.46666" lon="-1.55724">
        <ele>113</ele>
        <time>2012-11-10T18:07:01Z</time>
      </trkpt>
      <trkpt lat="48.46702" lon="-1.55751">
        <ele>113</ele>
        <time>2012-11-10T18:06:41Z</time>
      </trkpt>
      <trkpt lat="48.46723" lon="-1.55824">
        <ele>112</ele>
        <time>2012-11-10T18:06:21Z</time>
      </trkpt>
      <trkpt lat="48.46796" lon="-1.5587">
        <ele>113</ele>
        <time>2012-11-10T18:06:01Z</time>
      </trkpt>
      <trkpt lat="48.46821" lon="-1.55931">
        <ele>114</ele>
        <time>2012-11-10T18:05:41Z</time>
      </trkpt>
      <trkpt lat="48.46899" lon="-1.5599">
        <ele>118</ele>
        <time>2012-11-10T18:05:21Z</time>
      </trkpt>
      <trkpt lat="48.4705" lon="-1.55979">
        <ele>119</ele>
        <time>2012-11-10T18:05:01Z</time>
      </trkpt>
      <trkpt lat="48.47103" lon="-1.56006">
        <ele>119</ele>
        <time>2012-11-10T18:04:41Z</time>
      </trkpt>
      <trkpt lat="48.47176" lon="-1.56097">
        <ele>119</ele>
        <time>2012-11-10T18:04:21Z</time>
      </trkpt>
      <trkpt lat="48.472" lon="-1.56097">
        <ele>119</ele>
        <time>2012-11-10T18:04:01Z</time>
      </trkpt>
      <trkpt lat="48.47269" lon="-1.56016">
        <ele>115</ele>
        <time>2012-11-10T18:03:41Z</time>
      </trkpt>
      <trkpt lat="48.47332" lon="-1.56036">
        <ele>117</ele>
        <time>2012-11-10T18:03:21Z</time>
      </trkpt>
      <trkpt lat="48.47348" lon="-1.56092">
        <ele>115</ele>
        <time>2012-11-10T18:03:01Z</time>
      </trkpt>
      <trkpt lat="48.47372" lon="-1.56134">
        <ele>119</ele>
        <time>2012-11-10T18:02:41Z</time>
      </trkpt>
      <trkpt lat="48.47432" lon="-1.56183">
        <ele>121</ele>
        <time>2012-11-10T18:02:21Z</time>
      </trkpt>
      <trkpt lat="48.47577" lon="-1.56222">
        <ele>115</ele>
        <time>2012-11-10T18:02:01Z</time>
      </trkpt>
      <trkpt lat="48.47604" lon="-1.56164">
        <ele>113</ele>
        <time>2012-11-10T18:01:41Z</time>
      </trkpt>
      <trkpt lat="48.47644" lon="-1.56141">
        <ele>104</ele>
        <time>2012-11-10T18:01:21Z</time>
      </trkpt>
      <trkpt lat="48.47668" lon="-1.56151">
        <ele>104</ele>
        <time>2012-11-10T18:01:01Z</time>
      </trkpt>
      <trkpt lat="48.47714" lon="-1.5623">
        <ele>101</ele>
        <time>2012-11-10T18:00:41Z</time>
      </trkpt>
      <trkpt lat="48.4777" lon="-1.56377">
        <ele>93</ele>
        <time>2012-11-10T18:00:21Z</time>
      </trkpt>
      <trkpt lat="48.4794" lon="-1.56522">
        <ele>93</ele>
        <time>2012-11-10T18:00:01Z</time>
      </trkpt>
      <trkpt lat="48.47969" lon="-1.56538">
        <ele>98</ele>
        <time>2012-11-10T17:59:41Z</time>
      </trkpt>
      <trkpt lat="48.4806" lon="-1.56529">
        <ele>91</ele>
        <time>2012-11-10T17:59:21Z</time>
      </trkpt>
      <trkpt lat="48.48081" lon="-1.56489">
        <ele>91</ele>
        <time>2012-11-10T17:59:01Z</time>
      </trkpt>
      <trkpt lat="48.4806" lon="-1.56413">
        <ele>96</ele>
        <time>2012-11-10T17:58:41Z</time>
      </trkpt>
      <trkpt lat="48.48082" lon="-1.56405">
        <ele>96</ele>
        <time>2012-11-10T17:58:21Z</time>
      </trkpt>
      <trkpt lat="48.48107" lon="-1.56456">
        <ele>96</ele>
        <time>2012-11-10T17:58:01Z</time>
      </trkpt>
      <trkpt lat="48.48122" lon="-1.56448">
        <ele>96</ele>
        <time>2012-11-10T17:57:41Z</time>
      </trkpt>
      <trkpt lat="48.48129" lon="-1.56376">
        <ele>99</ele>
        <time>2012-11-10T17:57:21Z</time>
      </trkpt>
      <trkpt lat="48.48152" lon="-1.56273">
        <ele>108</ele>
        <time>2012-11-10T17:57:01Z</time>
      </trkpt>
      <trkpt lat="48.48175" lon="-1.56223">
        <ele>108</ele>
        <time>2012-11-10T17:56:41Z</time>
      </trkpt>
      <trkpt lat="48.48271" lon="-1.5615">
        <ele>113</ele>
        <time>2012-11-10T17:56:21Z</time>
      </trkpt>
      <trkpt lat="48.48314" lon="-1.56011">
        <ele>111</ele>
        <time>2012-11-10T17:56:01Z</time>
      </trkpt>
      <trkpt lat="48.48393" lon="-1.55989">
        <ele>113</ele>
        <time>2012-11-10T17:55:41Z</time>
      </trkpt>
      <trkpt lat="48.48426" lon="-1.55967">
        <ele>113</ele>
        <time>2012-11-10T17:55:21Z</time>
      </trkpt>
      <trkpt lat="48.48463" lon="-1.55886">
        <ele>117</ele>
        <time>2012-11-10T17:55:01Z</time>
      </trkpt>
      <trkpt lat="48.48521" lon="-1.55803">
        <ele>119</ele>
        <time>2012-11-10T17:54:41Z</time>
      </trkpt>
      <trkpt lat="48.48535" lon="-1.55675">
        <ele>120</ele>
        <time>2012-11-10T17:54:21Z</time>
      </trkpt>
      <trkpt lat="48.48528" lon="-1.5549">
        <ele>119</ele>
        <time>2012-11-10T17:54:01Z</time>
      </trkpt>
      <trkpt lat="48.48539" lon="-1.55451">
        <ele>119</ele>
        <time>2012-11-10T17:53:41Z</time>
      </trkpt>
      <trkpt lat="48.48581" lon="-1.55415">
        <ele>111</ele>
        <time>2012-11-10T17:53:21Z</time>
      </trkpt>
      <trkpt lat="48.48607" lon="-1.55367">
        <ele>111</ele>
        <time>2012-11-10T17:53:01Z</time>
      </trkpt>
      <trkpt lat="48.48779" lon="-1.55358">
        <ele>104</ele>
        <time>2012-11-10T17:52:41Z</time>
      </trkpt>
      <trkpt lat="48.49048" lon="-1.55331">
        <ele>106</ele>
        <time>2012-11-10T17:52:21Z</time>
      </trkpt>
      <trkpt lat="48.49145" lon="-1.55431">
        <ele>107</ele>
        <time>2012-11-10T17:52:01Z</time>
      </trkpt>
      <trkpt lat="48.49176" lon="-1.55429">
        <ele>107</ele>
        <time>2012-11-10T17:51:41Z</time>
      </trkpt>
      <trkpt lat="48.49268" lon="-1.55456">
        <ele>106</ele>
        <time>2012-11-10T17:51:21Z</time>
      </trkpt>
      <trkpt lat="48.49287" lon="-1.55473">
        <ele>105</ele>
        <time>2012-11-10T17:51:01Z</time>
      </trkpt>
      <trkpt lat="48.49351" lon="-1.555">
        <ele>102</ele>
        <time>2012-11-10T17:50:41Z</time>
      </trkpt>
      <trkpt lat="48.49382" lon="-1.55552">
        <ele>99</ele>
        <time>2012-11-10T17:50:21Z</time>
      </trkpt>
      <trkpt lat="48.49412" lon="-1.55624">
        <ele>99</ele>
        <time>2012-11-10T17:50:01Z</time>
      </trkpt>
      <trkpt lat="48.49429" lon="-1.55743">
        <ele>98</ele>
        <time>2012-11-10T17:49:41Z</time>
      </trkpt>
      <trkpt lat="48.4946" lon="-1.55763">
        <ele>98</ele>
        <time>2012-11-10T17:49:21Z</time>
      </trkpt>
      <trkpt lat="48.4949" lon="-1.5582">
        <ele>98</ele>
        <time>2012-11-10T17:49:01Z</time>
      </trkpt>
      <trkpt lat="48.49511" lon="-1.55976">
        <ele>102</ele>
        <time>2012-11-10T17:48:41Z</time>
      </trkpt>
      <trkpt lat="48.49541" lon="-1.56032">
        <ele>102</ele>
        <time>2012-11-10T17:48:21Z</time>
      </trkpt>
      <trkpt lat="48.4957" lon="-1.5619">
        <ele>100</ele>
        <time>2012-11-10T17:48:01Z</time>
      </trkpt>
      <trkpt lat="48.49584" lon="-1.56194">
        <ele>100</ele>
        <time>2012-11-10T17:47:41Z</time>
      </trkpt>
      <trkpt lat="48.49655" lon="-1.56235">
        <ele>97</ele>
        <time>2012-11-10T17:47:21Z</time>
      </trkpt>
      <trkpt lat="48.49685" lon="-1.56177">
        <ele>99</ele>
        <time>2012-11-10T17:47:01Z</time>
      </trkpt>
      <trkpt lat="48.49945" lon="-1.56121">
        <ele>103</ele>
        <time>2012-11-10T17:46:41Z</time>
      </trkpt>
      <trkpt lat="48.49965" lon="-1.55982">
        <ele>102</ele>
        <time>2012-11-10T17:46:21Z</time>
      </trkpt>
      <trkpt lat="48.49974" lon="-1.55834">
        <ele>100</ele>
        <time>2012-11-10T17:46:01Z</time>
      </trkpt>
      <trkpt lat="48.49979" lon="-1.55236">
        <ele>96</ele>
        <time>2012-11-10T17:45:41Z</time>
      </trkpt>
      <trkpt lat="48.50089" lon="-1.55242">
        <ele>94</ele>
        <time>2012-11-10T17:45:21Z</time>
      </trkpt>
      <trkpt lat="48.50222" lon="-1.5521">
        <ele>97</ele>
        <time>2012-11-10T17:45:01Z</time>
      </trkpt>
      <trkpt lat="48.50348" lon="-1.55193">
        <ele>86</ele>
        <time>2012-11-10T17:44:41Z</time>
      </trkpt>
      <trkpt lat="48.5039" lon="-1.55175">
        <ele>80</ele>
        <time>2012-11-10T17:44:21Z</time>
      </trkpt>
      <trkpt lat="48.50419" lon="-1.55131">
        <ele>80</ele>
        <time>2012-11-10T17:44:01Z</time>
      </trkpt>
      <trkpt lat="48.50425" lon="-1.55098">
        <ele>73</ele>
        <time>2012-11-10T17:43:41Z</time>
      </trkpt>
      <trkpt lat="48.50419" lon="-1.55037">
        <ele>68</ele>
        <time>2012-11-10T17:43:21Z</time>
      </trkpt>
      <trkpt lat="48.50514" lon="-1.55009">
        <ele>60</ele>
        <time>2012-11-10T17:43:01Z</time>
      </trkpt>
      <trkpt lat="48.50571" lon="-1.54925">
        <ele>46</ele>
        <time>2012-11-10T17:42:41Z</time>
      </trkpt>
      <trkpt lat="48.50658" lon="-1.54891">
        <ele>40</ele>
        <time>2012-11-10T17:42:21Z</time>
      </trkpt>
      <trkpt lat="48.50721" lon="-1.54877">
        <ele>36</ele>
        <time>2012-11-10T17:42:01Z</time>
      </trkpt>
      <trkpt lat="48.50786" lon="-1.54874">
        <ele>35</ele>
        <time>2012-11-10T17:41:41Z</time>
      </trkpt>
      <trkpt lat="48.50862" lon="-1.54818">
        <ele>34</ele>
        <time>2012-11-10T17:41:21Z</time>
      </trkpt>
      <trkpt lat="48.50981" lon="-1.54766">
        <ele>31</ele>
        <time>2012-11-10T17:41:01Z</time>
      </trkpt>
      <trkpt lat="48.51005" lon="-1.54727">
        <ele>31</ele>
        <time>2012-11-10T17:40:41Z</time>
      </trkpt>
      <trkpt lat="48.51055" lon="-1.54543">
        <ele>31</ele>
        <time>2012-11-10T17:40:21Z</time>
      </trkpt>
      <trkpt lat="48.5109" lon="-1.54492">
        <ele>31</ele>
        <time>2012-11-10T17:40:01Z</time>
      </trkpt>
      <trkpt lat="48.51137" lon="-1.54472">
        <ele>30</ele>
        <time>2012-11-10T17:39:41Z</time>
      </trkpt>
      <trkpt lat="48.51211" lon="-1.5451">
        <ele>29</ele>
        <time>2012-11-10T17:39:21Z</time>
      </trkpt>
      <trkpt lat="48.51307" lon="-1.545">
        <ele>29</ele>
        <time>2012-11-10T17:39:01Z</time>
      </trkpt>
      <trkpt lat="48.51323" lon="-1.54513">
        <ele>29</ele>
        <time>2012-11-10T17:38:41Z</time>
      </trkpt>
      <trkpt lat="48.51453" lon="-1.54474">
        <ele>28</ele>
        <time>2012-11-10T17:38:21Z</time>
      </trkpt>
      <trkpt lat="48.51522" lon="-1.54439">
        <ele>26</ele>
        <time>2012-11-10T17:38:01Z</time>
      </trkpt>
      <trkpt lat="48.51655" lon="-1.5448">
        <ele>27</ele>
        <time>2012-11-10T17:37:41Z</time>
      </trkpt>
      <trkpt lat="48.51765" lon="-1.54594">
        <ele>26</ele>
        <time>2012-11-10T17:37:21Z</time>
      </trkpt>
      <trkpt lat="48.51842" lon="-1.54617">
        <ele>27</ele>
        <time>2012-11-10T17:37:01Z</time>
      </trkpt>
      <trkpt lat="48.51851" lon="-1.54757">
        <ele>25</ele>
        <time>2012-11-10T17:36:41Z</time>
      </trkpt>
      <trkpt lat="48.51889" lon="-1.54742">
        <ele>23</ele>
        <time>2012-11-10T17:36:21Z</time>
      </trkpt>
      <trkpt lat="48.51962" lon="-1.54705">
        <ele>22</ele>
        <time>2012-11-10T17:36:01Z</time>
      </trkpt>
      <trkpt lat="48.52073" lon="-1.54632">
        <ele>21</ele>
        <time>2012-11-10T17:35:41Z</time>
      </trkpt>
      <trkpt lat="48.521" lon="-1.54624">
        <ele>22</ele>
        <time>2012-11-10T17:35:21Z</time>
      </trkpt>
      <trkpt lat="48.52278" lon="-1.54657">
        <ele>20</ele>
        <time>2012-11-10T17:35:01Z</time>
      </trkpt>
      <trkpt lat="48.52336" lon="-1.54661">
        <ele>19</ele>
        <time>2012-11-10T17:34:41Z</time>
      </trkpt>
      <trkpt lat="48.52434" lon="-1.54645">
        <ele>17</ele>
        <time>2012-11-10T17:34:21Z</time>
      </trkpt>
      <trkpt lat="48.526" lon="-1.54676">
        <ele>16</ele>
        <time>2012-11-10T17:34:01Z</time>
      </trkpt>
      <trkpt lat="48.52574" lon="-1.54755">
        <ele>15</ele>
        <time>2012-11-10T17:33:41Z</time>
      </trkpt>
      <trkpt lat="48.52674" lon="-1.5491">
        <ele>13</ele>
        <time>2012-11-10T17:33:21Z</time>
      </trkpt>
      <trkpt lat="48.52707" lon="-1.54979">
        <ele>11</ele>
        <time>2012-11-10T17:33:01Z</time>
      </trkpt>
      <trkpt lat="48.52785" lon="-1.5506">
        <ele>12</ele>
        <time>2012-11-10T17:32:41Z</time>
      </trkpt>
      <trkpt lat="48.52921" lon="-1.55109">
        <ele>16</ele>
        <time>2012-11-10T17:32:21Z</time>
      </trkpt>
      <trkpt lat="48.52928" lon="-1.55161">
        <ele>16</ele>
        <time>2012-11-10T17:32:01Z</time>
      </trkpt>
      <trkpt lat="48.52888" lon="-1.55205">
        <ele>16</ele>
        <time>2012-11-10T17:31:41Z</time>
      </trkpt>
      <trkpt lat="48.52842" lon="-1.55282">
        <ele>14</ele>
        <time>2012-11-10T17:31:21Z</time>
      </trkpt>
      <trkpt lat="48.52828" lon="-1.55386">
        <ele>15</ele>
        <time>2012-11-10T17:31:01Z</time>
      </trkpt>
      <trkpt lat="48.52811" lon="-1.55476">
        <ele>16</ele>
        <time>2012-11-10T17:30:41Z</time>
      </trkpt>
      <trkpt lat="48.52789" lon="-1.55509">
        <ele>14</ele>
        <time>2012-11-10T17:30:21Z</time>
      </trkpt>
      <trkpt lat="48.52789" lon="-1.55568">
        <ele>14</ele>
        <time>2012-11-10T17:30:01Z</time>
      </trkpt>
      <trkpt lat="48.52819" lon="-1.55671">
        <ele>17</ele>
        <time>2012-11-10T17:29:41Z</time>
      </trkpt>
      <trkpt lat="48.52873" lon="-1.55755">
        <ele>14</ele>
        <time>2012-11-10T17:29:21Z</time>
      </trkpt>
      <trkpt lat="48.52927" lon="-1.55856">
        <ele>13</ele>
        <time>2012-11-10T17:29:01Z</time>
      </trkpt>
      <trkpt lat="48.52977" lon="-1.55978">
        <ele>17</ele>
        <time>2012-11-10T17:28:41Z</time>
      </trkpt>
      <trkpt lat="48.53022" lon="-1.56026">
        <ele>17</ele>
        <time>2012-11-10T17:28:21Z</time>
      </trkpt>
      <trkpt lat="48.53021" lon="-1.56039">
        <ele>17</ele>
        <time>2012-11-10T17:28:01Z</time>
      </trkpt>
      <trkpt lat="48.53192" lon="-1.56294">
        <ele>29</ele>
        <time>2012-11-10T17:27:41Z</time>
      </trkpt>
      <trkpt lat="48.53231" lon="-1.56224">
        <ele>30</ele>
        <time>2012-11-10T17:27:21Z</time>
      </trkpt>
      <trkpt lat="48.53338" lon="-1.5595">
        <ele>31</ele>
        <time>2012-11-10T17:27:01Z</time>
      </trkpt>
      <trkpt lat="48.53386" lon="-1.5612">
        <ele>37</ele>
        <time>2012-11-10T17:26:41Z</time>
      </trkpt>
      <trkpt lat="48.53394" lon="-1.56178">
        <ele>40</ele>
        <time>2012-11-10T17:26:21Z</time>
      </trkpt>
      <trkpt lat="48.53375" lon="-1.56276">
        <ele>36</ele>
        <time>2012-11-10T17:26:01Z</time>
      </trkpt>
      <trkpt lat="48.53474" lon="-1.56243">
        <ele>46</ele>
        <time>2012-11-10T17:25:41Z</time>
      </trkpt>
      <trkpt lat="48.53494" lon="-1.56367">
        <ele>46</ele>
        <time>2012-11-10T17:25:21Z</time>
      </trkpt>
      <trkpt lat="48.53487" lon="-1.56445">
        <ele>46</ele>
        <time>2012-11-10T17:25:01Z</time>
      </trkpt>
      <trkpt lat="48.53647" lon="-1.56376">
        <ele>48</ele>
        <time>2012-11-10T17:24:41Z</time>
      </trkpt>
      <trkpt lat="48.53653" lon="-1.56324">
        <ele>48</ele>
        <time>2012-11-10T17:24:21Z</time>
      </trkpt>
      <trkpt lat="48.53768" lon="-1.56188">
        <ele>48</ele>
        <time>2012-11-10T17:24:01Z</time>
      </trkpt>
      <trkpt lat="48.53808" lon="-1.56105">
        <ele>46</ele>
        <time>2012-11-10T17:23:41Z</time>
      </trkpt>
      <trkpt lat="48.53896" lon="-1.55956">
        <ele>41</ele>
        <time>2012-11-10T17:23:21Z</time>
      </trkpt>
      <trkpt lat="48.53934" lon="-1.55944">
        <ele>41</ele>
        <time>2012-11-10T17:23:01Z</time>
      </trkpt>
      <trkpt lat="48.53982" lon="-1.55923">
        <ele>41</ele>
        <time>2012-11-10T17:22:41Z</time>
      </trkpt>
      <trkpt lat="48.54001" lon="-1.55928">
        <ele>41</ele>
        <time>2012-11-10T17:22:21Z</time>
      </trkpt>
      <trkpt lat="48.54108" lon="-1.55868">
        <ele>35</ele>
        <time>2012-11-10T17:22:01Z</time>
      </trkpt>
      <trkpt lat="48.54125" lon="-1.55848">
        <ele>32</ele>
        <time>2012-11-10T17:21:41Z</time>
      </trkpt>
      <trkpt lat="48.54248" lon="-1.55789">
        <ele>26</ele>
        <time>2012-11-10T17:21:21Z</time>
      </trkpt>
      <trkpt lat="48.54342" lon="-1.55731">
        <ele>24</ele>
        <time>2012-11-10T17:21:01Z</time>
      </trkpt>
      <trkpt lat="48.54407" lon="-1.55656">
        <ele>21</ele>
        <time>2012-11-10T17:20:41Z</time>
      </trkpt>
      <trkpt lat="48.54429" lon="-1.55622">
        <ele>20</ele>
        <time>2012-11-10T17:20:21Z</time>
      </trkpt>
      <trkpt lat="48.54461" lon="-1.55597">
        <ele>19</ele>
        <time>2012-11-10T17:20:01Z</time>
      </trkpt>
      <trkpt lat="48.54618" lon="-1.55439">
        <ele>15</ele>
        <time>2012-11-10T17:19:41Z</time>
      </trkpt>
      <trkpt lat="48.54641" lon="-1.55454">
        <ele>15</ele>
        <time>2012-11-10T17:19:21Z</time>
      </trkpt>
      <trkpt lat="48.54685" lon="-1.55679">
        <ele>16</ele>
        <time>2012-11-10T17:19:01Z</time>
      </trkpt>
      <trkpt lat="48.54649" lon="-1.55715">
        <ele>15</ele>
        <time>2012-11-10T17:18:41Z</time>
      </trkpt>
      <trkpt lat="48.54664" lon="-1.55768">
        <ele>15</ele>
        <time>2012-11-10T17:18:21Z</time>
      </trkpt>
      <trkpt lat="48.54687" lon="-1.55804">
        <ele>16</ele>
        <time>2012-11-10T17:18:01Z</time>
      </trkpt>
      <trkpt lat="48.54709" lon="-1.55908">
        <ele>17</ele>
        <time>2012-11-10T17:17:41Z</time>
      </trkpt>
      <trkpt lat="48.54781" lon="-1.56009">
        <ele>17</ele>
        <time>2012-11-10T17:17:21Z</time>
      </trkpt>
      <trkpt lat="48.54843" lon="-1.55967">
        <ele>16</ele>
        <time>2012-11-10T17:17:01Z</time>
      </trkpt>
      <trkpt lat="48.54781" lon="-1.55886">
        <ele>17</ele>
        <time>2012-11-10T17:16:41Z</time>
      </trkpt>
      <trkpt lat="48.5475" lon="-1.55734">
        <ele>18</ele>
        <time>2012-11-10T17:16:21Z</time>
      </trkpt>
      <trkpt lat="48.54742" lon="-1.55656">
        <ele>18</ele>
        <time>2012-11-10T17:16:01Z</time>
      </trkpt>
      <trkpt lat="48.54801" lon="-1.55646">
        <ele>23</ele>
        <time>2012-11-10T17:15:41Z</time>
      </trkpt>
      <trkpt lat="48.54869" lon="-1.55611">
        <ele>24</ele>
        <time>2012-11-10T17:15:21Z</time>
      </trkpt>
      <trkpt lat="48.54852" lon="-1.55538">
        <ele>25</ele>
        <time>2012-11-10T17:15:01Z</time>
      </trkpt>
      <trkpt lat="48.54802" lon="-1.55441">
        <ele>24</ele>
        <time>2012-11-10T17:14:41Z</time>
      </trkpt>
      <trkpt lat="48.54791" lon="-1.55312">
        <ele>18</ele>
        <time>2012-11-10T17:14:21Z</time>
      </trkpt>
      <trkpt lat="48.54742" lon="-1.55107">
        <ele>15</ele>
        <time>2012-11-10T17:14:01Z</time>
      </trkpt>
      <trkpt lat="48.54987" lon="-1.54911">
        <ele>24</ele>
        <time>2012-11-10T17:13:41Z</time>
      </trkpt>
      <trkpt lat="48.55009" lon="-1.54928">
        <ele>24</ele>
        <time>2012-11-10T17:13:21Z</time>
      </trkpt>
      <trkpt lat="48.55067" lon="-1.55077">
        <ele>28</ele>
        <time>2012-11-10T17:13:01Z</time>
      </trkpt>
      <trkpt lat="48.55095" lon="-1.55083">
        <ele>28</ele>
        <time>2012-11-10T17:12:41Z</time>
      </trkpt>
      <trkpt lat="48.55163" lon="-1.55042">
        <ele>29</ele>
        <time>2012-11-10T17:12:21Z</time>
      </trkpt>
      <trkpt lat="48.55291" lon="-1.54998">
        <ele>29</ele>
        <time>2012-11-10T17:12:01Z</time>
      </trkpt>
      <trkpt lat="48.55314" lon="-1.55003">
        <ele>30</ele>
        <time>2012-11-10T17:11:41Z</time>
      </trkpt>
      <trkpt lat="48.55321" lon="-1.54983">
        <ele>30</ele>
        <time>2012-11-10T17:11:21Z</time>
      </trkpt>
      <trkpt lat="48.5531" lon="-1.54743">
        <ele>33</ele>
        <time>2012-11-10T17:11:01Z</time>
      </trkpt>
      <trkpt lat="48.55281" lon="-1.54547">
        <ele>34</ele>
        <time>2012-11-10T17:10:41Z</time>
      </trkpt>
      <trkpt lat="48.55254" lon="-1.54456">
        <ele>34</ele>
        <time>2012-11-10T17:10:21Z</time>
      </trkpt>
      <trkpt lat="48.55249" lon="-1.54342">
        <ele>32</ele>
        <time>2012-11-10T17:10:01Z</time>
      </trkpt>
      <trkpt lat="48.55264" lon="-1.54097">
        <ele>27</ele>
        <time>2012-11-10T17:09:41Z</time>
      </trkpt>
      <trkpt lat="48.55255" lon="-1.54018">
        <ele>27</ele>
        <time>2012-11-10T17:09:21Z</time>
      </trkpt>
      <trkpt lat="48.55429" lon="-1.53976">
        <ele>15</ele>
        <time>2012-11-10T17:09:01Z</time>
      </trkpt>
      <trkpt lat="48.55553" lon="-1.53963">
        <ele>9</ele>
        <time>2012-11-10T17:08:41Z</time>
      </trkpt>
      <trkpt lat="48.5554" lon="-1.53797">
        <ele>8</ele>
        <time>2012-11-10T17:08:21Z</time>
      </trkpt>
      <trkpt lat="48.55512" lon="-1.53777">
        <ele>9</ele>
        <time>2012-11-10T17:08:01Z</time>
      </trkpt>
      <trkpt lat="48.55531" lon="-1.53638">
        <ele>9</ele>
        <time>2012-11-10T17:07:41Z</time>
      </trkpt>
      <trkpt lat="48.55509" lon="-1.53568">
        <ele>10</ele>
        <time>2012-11-10T17:07:21Z</time>
      </trkpt>
      <trkpt lat="48.55511" lon="-1.53521">
        <ele>8</ele>
        <time>2012-11-10T17:07:01Z</time>
      </trkpt>
      <trkpt lat="48.55413" lon="-1.53397">
        <ele>7</ele>
        <time>2012-11-10T17:06:41Z</time>
      </trkpt>
      <trkpt lat="48.55365" lon="-1.53362">
        <ele>6</ele>
        <time>2012-11-10T17:06:21Z</time>
      </trkpt>
      <trkpt lat="48.55323" lon="-1.53352">
        <ele>6</ele>
        <time>2012-11-10T17:06:01Z</time>
      </trkpt>
      <trkpt lat="48.5537" lon="-1.53227">
        <ele>7</ele>
        <time>2012-11-10T17:05:41Z</time>
      </trkpt>
      <trkpt lat="48.55388" lon="-1.53061">
        <ele>6</ele>
        <time>2012-11-10T17:05:21Z</time>
      </trkpt>
      <trkpt lat="48.55686" lon="-1.52672">
        <ele>6</ele>
        <time>2012-11-10T17:05:01Z</time>
      </trkpt>
      <trkpt lat="48.55636" lon="-1.52506">
        <ele>6</ele>
        <time>2012-11-10T17:04:41Z</time>
      </trkpt>
      <trkpt lat="48.5563" lon="-1.52425">
        <ele>6</ele>
        <time>2012-11-10T17:04:21Z</time>
      </trkpt>
      <trkpt lat="48.55682" lon="-1.52355">
        <ele>7</ele>
        <time>2012-11-10T17:04:01Z</time>
      </trkpt>
      <trkpt lat="48.55717" lon="-1.52324">
        <ele>7</ele>
        <time>2012-11-10T17:03:41Z</time>
      </trkpt>
      <trkpt lat="48.5576" lon="-1.5227">
        <ele>7</ele>
        <time>2012-11-10T17:03:21Z</time>
      </trkpt>
      <trkpt lat="48.55805" lon="-1.52225">
        <ele>7</ele>
        <time>2012-11-10T17:03:01Z</time>
      </trkpt>
      <trkpt lat="48.55818" lon="-1.52193">
        <ele>9</ele>
        <time>2012-11-10T17:02:41Z</time>
      </trkpt>
      <trkpt lat="48.5582" lon="-1.52145">
        <ele>9</ele>
        <time>2012-11-10T17:02:21Z</time>
      </trkpt>
      <trkpt lat="48.55787" lon="-1.52106">
        <ele>6</ele>
        <time>2012-11-10T17:02:01Z</time>
      </trkpt>
      <trkpt lat="48.55752" lon="-1.52074">
        <ele>6</ele>
        <time>2012-11-10T17:01:41Z</time>
      </trkpt>
      <trkpt lat="48.55698" lon="-1.51964">
        <ele>7</ele>
        <time>2012-11-10T17:01:21Z</time>
      </trkpt>
      <trkpt lat="48.55697" lon="-1.51944">
        <ele>7</ele>
        <time>2012-11-10T17:01:01Z</time>
      </trkpt>
      <trkpt lat="48.55672" lon="-1.51903">
        <ele>7</ele>
        <time>2012-11-10T17:00:41Z</time>
      </trkpt>
      <trkpt lat="48.55566" lon="-1.51797">
        <ele>6</ele>
        <time>2012-11-10T17:00:21Z</time>
      </trkpt>
      <trkpt lat="48.55469" lon="-1.51666">
        <ele>8</ele>
        <time>2012-11-10T17:00:01Z</time>
      </trkpt>
      <trkpt lat="48.55464" lon="-1.51637">
        <ele>8</ele>
        <time>2012-11-10T16:59:41Z</time>
      </trkpt>
      <trkpt lat="48.55415" lon="-1.51526">
        <ele>6</ele>
        <time>2012-11-10T16:59:21Z</time>
      </trkpt>
      <trkpt lat="48.55382" lon="-1.51471">
        <ele>6</ele>
        <time>2012-11-10T16:59:01Z</time>
      </trkpt>
      <trkpt lat="48.55257" lon="-1.51404">
        <ele>8</ele>
        <time>2012-11-10T16:58:41Z</time>
      </trkpt>
      <trkpt lat="48.55271" lon="-1.51287">
        <ele>10</ele>
        <time>2012-11-10T16:58:21Z</time>
      </trkpt>
      <trkpt lat="48.55325" lon="-1.51275">
        <ele>10</ele>
        <time>2012-11-10T16:58:01Z</time>
      </trkpt>
      <trkpt lat="48.55342" lon="-1.51356">
        <ele>8</ele>
        <time>2012-11-10T16:57:41Z</time>
      </trkpt>
      <trkpt lat="48.5539" lon="-1.51395">
        <ele>7</ele>
        <time>2012-11-10T16:57:21Z</time>
      </trkpt>
      <trkpt lat="48.5599" lon="-1.51683">
        <ele>6</ele>
        <time>2012-11-10T16:57:01Z</time>
      </trkpt>
      <trkpt lat="48.56209" lon="-1.51719">
        <ele>9</ele>
        <time>2012-11-10T16:56:41Z</time>
      </trkpt>
      <trkpt lat="48.56309" lon="-1.51726">
        <ele>7</ele>
        <time>2012-11-10T16:56:21Z</time>
      </trkpt>
      <trkpt lat="48.56488" lon="-1.51775">
        <ele>7</ele>
        <time>2012-11-10T16:56:01Z</time>
      </trkpt>
      <trkpt lat="48.56652" lon="-1.51861">
        <ele>6</ele>
        <time>2012-11-10T16:55:41Z</time>
      </trkpt>
      <trkpt lat="48.56762" lon="-1.51947">
        <ele>6</ele>
        <time>2012-11-10T16:55:21Z</time>
      </trkpt>
      <trkpt lat="48.5698" lon="-1.52182">
        <ele>7</ele>
        <time>2012-11-10T16:55:01Z</time>
      </trkpt>
      <trkpt lat="48.57095" lon="-1.52248">
        <ele>7</ele>
        <time>2012-11-10T16:54:41Z</time>
      </trkpt>
      <trkpt lat="48.57185" lon="-1.52267">
        <ele>6</ele>
        <time>2012-11-10T16:54:21Z</time>
      </trkpt>
      <trkpt lat="48.57257" lon="-1.52265">
        <ele>6</ele>
        <time>2012-11-10T16:54:01Z</time>
      </trkpt>
      <trkpt lat="48.57351" lon="-1.52239">
        <ele>6</ele>
        <time>2012-11-10T16:53:41Z</time>
      </trkpt>
      <trkpt lat="48.57511" lon="-1.52134">
        <ele>7</ele>
        <time>2012-11-10T16:53:21Z</time>
      </trkpt>
      <trkpt lat="48.57618" lon="-1.52055">
        <ele>7</ele>
        <time>2012-11-10T16:53:01Z</time>
      </trkpt>
      <trkpt lat="48.57662" lon="-1.52044">
        <ele>6</ele>
        <time>2012-11-10T16:52:41Z</time>
      </trkpt>
      <trkpt lat="48.57743" lon="-1.52004">
        <ele>7</ele>
        <time>2012-11-10T16:52:21Z</time>
      </trkpt>
      <trkpt lat="48.57868" lon="-1.51865">
        <ele>6</ele>
        <time>2012-11-10T16:52:01Z</time>
      </trkpt>
      <trkpt lat="48.57865" lon="-1.51717">
        <ele>9</ele>
        <time>2012-11-10T16:51:41Z</time>
      </trkpt>
      <trkpt lat="48.57882" lon="-1.51651">
        <ele>9</ele>
        <time>2012-11-10T16:51:21Z</time>
      </trkpt>
      <trkpt lat="48.57921" lon="-1.51589">
        <ele>9</ele>
        <time>2012-11-10T16:51:01Z</time>
      </trkpt>
      <trkpt lat="48.5799" lon="-1.51552">
        <ele>7</ele>
        <time>2012-11-10T16:50:41Z</time>
      </trkpt>
      <trkpt lat="48.58004" lon="-1.5159">
        <ele>7</ele>
        <time>2012-11-10T16:50:21Z</time>
      </trkpt>
      <trkpt lat="48.58006" lon="-1.51658">
        <ele>8</ele>
        <time>2012-11-10T16:50:01Z</time>
      </trkpt>
      <trkpt lat="48.58039" lon="-1.51748">
        <ele>7</ele>
        <time>2012-11-10T16:49:41Z</time>
      </trkpt>
      <trkpt lat="48.58127" lon="-1.51698">
        <ele>4</ele>
        <time>2012-11-10T16:49:21Z</time>
      </trkpt>
      <trkpt lat="48.58157" lon="-1.51695">
        <ele>4</ele>
        <time>2012-11-10T16:49:01Z</time>
      </trkpt>
      <trkpt lat="48.58205" lon="-1.51669">
        <ele>4</ele>
        <time>2012-11-10T16:48:41Z</time>
      </trkpt>
      <trkpt lat="48.58324" lon="-1.51638">
        <ele>6</ele>
        <time>2012-11-10T16:48:21Z</time>
      </trkpt>
      <trkpt lat="48.58337" lon="-1.51624">
        <ele>7</ele>
        <time>2012-11-10T16:48:01Z</time>
      </trkpt>
      <trkpt lat="48.58443" lon="-1.51602">
        <ele>7</ele>
        <time>2012-11-10T16:47:41Z</time>
      </trkpt>
      <trkpt lat="48.58648" lon="-1.51585">
        <ele>4</ele>
        <time>2012-11-10T16:47:21Z</time>
      </trkpt>
      <trkpt lat="48.58647" lon="-1.5156">
        <ele>4</ele>
        <time>2012-11-10T16:47:01Z</time>
      </trkpt>
      <trkpt lat="48.58944" lon="-1.51524">
        <ele>7</ele>
        <time>2012-11-10T16:46:41Z</time>
      </trkpt>
      <trkpt lat="48.5942" lon="-1.51453">
        <ele>6</ele>
        <time>2012-11-10T16:46:21Z</time>
      </trkpt>
      <trkpt lat="48.59663" lon="-1.51428">
        <ele>7</ele>
        <time>2012-11-10T16:46:01Z</time>
      </trkpt>
      <trkpt lat="48.5982" lon="-1.51391">
        <ele>5</ele>
        <time>2012-11-10T16:45:41Z</time>
      </trkpt>
      <trkpt lat="48.60036" lon="-1.51358">
        <ele>9</ele>
        <time>2012-11-10T16:45:21Z</time>
      </trkpt>
      <trkpt lat="48.60586" lon="-1.51292">
        <ele>6</ele>
        <time>2012-11-10T16:45:01Z</time>
      </trkpt>
      <trkpt lat="48.61842" lon="-1.51116">
        <ele>7</ele>
        <time>2012-11-10T16:44:41Z</time>
      </trkpt>
      <trkpt lat="48.61849" lon="-1.51099">
        <ele>7</ele>
        <time>2012-11-10T16:44:21Z</time>
      </trkpt>
      <trkpt lat="48.61951" lon="-1.51086">
        <ele>6</ele>
        <time>2012-11-10T16:44:01Z</time>
      </trkpt>
      <trkpt lat="48.62098" lon="-1.51047">
        <ele>7</ele>
        <time>2012-11-10T16:43:41Z</time>
      </trkpt>
      <trkpt lat="48.62263" lon="-1.50946">
        <ele>8</ele>
        <time>2012-11-10T16:43:21Z</time>
      </trkpt>
      <trkpt lat="48.62481" lon="-1.50841">
        <ele>7</ele>
        <time>2012-11-10T16:43:01Z</time>
      </trkpt>
      <trkpt lat="48.62649" lon="-1.50801">
        <ele>7</ele>
        <time>2012-11-10T16:42:41Z</time>
      </trkpt>
      <trkpt lat="48.62835" lon="-1.50803">
        <ele>7</ele>
        <time>2012-11-10T16:42:21Z</time>
      </trkpt>
      <trkpt lat="48.63007" lon="-1.50835">
        <ele>7</ele>
        <time>2012-11-10T16:42:01Z</time>
      </trkpt>
      <trkpt lat="48.63473" lon="-1.51051">
        <ele>17</ele>
        <time>2012-11-10T16:41:41Z</time>
      </trkpt>
    </trkseg>
  </trk>
</gpx>